Wetterdaten: Sonntag, 01.07.2018
Datum Zeit Temp. A. Pool Temp. Feuchte A. Luftdruck Regen Wind Richtung Richtung Sonnenschein ET UV Solar Taupunkt Windchill Windben Empfang
01.07.2018 00:00 14,3 C 21,1 C 66 % 1014,9 hPa 0,0 l/m 9,1 km/h (2 Bft) O-NO 77 0 min 0,000 mm 0,0 UV-I 0 W/m 8,0 C 12,8 C 16,1 km/h (3 Bft) 100,00 %
01.07.2018 00:01 14,3 C 21,1 C 66 % 1014,9 hPa 0,0 l/m 12,9 km/h (3 Bft) O 86 0 min 0,000 mm 0,0 UV-I 0 W/m 8,0 C 11,1 C 12,9 km/h (3 Bft) 100,00 %
01.07.2018 00:02 14,3 C 21,1 C 66 % 1014,9 hPa 0,0 l/m 8,5 km/h (2 Bft) O-NO 71 0 min 0,000 mm 0,0 UV-I 0 W/m 8,0 C 13,1 C 12,9 km/h (3 Bft) 97,83 %
01.07.2018 00:03 14,3 C 21,1 C 66 % 1014,9 hPa 0,0 l/m 8,9 km/h (2 Bft) O-NO 60 0 min 0,000 mm 0,0 UV-I 0 W/m 8,0 C 12,9 C 12,9 km/h (3 Bft) 100,00 %
01.07.2018 00:04 14,3 C 21,1 C 66 % 1014,9 hPa 0,0 l/m 9,9 km/h (2 Bft) O 80 0 min 0,000 mm 0,0 UV-I 0 W/m 8,0 C 12,4 C 14,5 km/h (3 Bft) 100,00 %
01.07.2018 00:05 14,2 C 21,1 C 66 % 1014,9 hPa 0,0 l/m 6,4 km/h (2 Bft) O 79 0 min 0,000 mm 0,0 UV-I 0 W/m 7,9 C 14,2 C 9,7 km/h (2 Bft) 100,00 %
01.07.2018 00:06 14,2 C 21,1 C 66 % 1015,0 hPa 0,0 l/m 5,9 km/h (2 Bft) O-NO 76 0 min 0,000 mm 0,0 UV-I 0 W/m 7,9 C 14,2 C 8,0 km/h (2 Bft) 100,00 %
01.07.2018 00:07 14,2 C 21,1 C 66 % 1015,0 hPa 0,0 l/m 9,3 km/h (2 Bft) O-NO 61 0 min 0,000 mm 0,0 UV-I 0 W/m 7,9 C 12,6 C 14,5 km/h (3 Bft) 97,56 %
01.07.2018 00:08 14,1 C 21,1 C 67 % 1015,0 hPa 0,0 l/m 8,8 km/h (2 Bft) O-NO 70 0 min 0,000 mm 0,0 UV-I 0 W/m 8,1 C 12,7 C 14,5 km/h (3 Bft) 100,00 %
01.07.2018 00:09 14,1 C 21,1 C 67 % 1015,0 hPa 0,0 l/m 9,7 km/h (2 Bft) O-NO 69 0 min 0,000 mm 0,0 UV-I 0 W/m 8,1 C 12,3 C 14,5 km/h (3 Bft) 100,00 %
01.07.2018 00:10 14,0 C 21,1 C 67 % 1015,0 hPa 0,0 l/m 10,0 km/h (2 Bft) O-NO 61 0 min 0,000 mm 0,0 UV-I 0 W/m 8,0 C 12,0 C 12,9 km/h (3 Bft) 100,00 %
01.07.2018 00:11 13,9 C 21,1 C 67 % 1015,0 hPa 0,0 l/m 11,6 km/h (2 Bft) O-NO 66 0 min 0,000 mm 0,0 UV-I 0 W/m 7,9 C 11,2 C 17,7 km/h (3 Bft) 100,00 %
01.07.2018 00:12 13,9 C 21,1 C 67 % 1015,0 hPa 0,0 l/m 9,2 km/h (2 Bft) O 86 0 min 0,000 mm 0,0 UV-I 0 W/m 7,9 C 12,3 C 14,5 km/h (3 Bft) 100,00 %
01.07.2018 00:13 13,9 C 21,1 C 67 % 1015,0 hPa 0,0 l/m 8,9 km/h (2 Bft) O 96 0 min 0,000 mm 0,0 UV-I 0 W/m 7,9 C 12,5 C 14,5 km/h (3 Bft) 100,00 %
01.07.2018 00:14 13,9 C 21,1 C 67 % 1015,0 hPa 0,0 l/m 10,3 km/h (2 Bft) O-NO 62 0 min 0,000 mm 0,0 UV-I 0 W/m 7,9 C 11,8 C 16,1 km/h (3 Bft) 100,00 %
01.07.2018 00:15 13,9 C 21,1 C 67 % 1015,0 hPa 0,0 l/m 13,3 km/h (3 Bft) O-NO 66 0 min 0,000 mm 0,0 UV-I 0 W/m 7,9 C 10,5 C 20,9 km/h (4 Bft) 100,00 %
01.07.2018 00:16 13,9 C 21,1 C 67 % 1015,0 hPa 0,0 l/m 12,1 km/h (2 Bft) N-NO 30 0 min 0,000 mm 0,0 UV-I 0 W/m 7,9 C 11,0 C 14,5 km/h (3 Bft) 100,00 %
01.07.2018 00:17 13,9 C 21,1 C 67 % 1015,0 hPa 0,0 l/m 10,8 km/h (2 Bft) O 85 0 min 0,000 mm 0,0 UV-I 0 W/m 7,9 C 11,5 C 16,1 km/h (3 Bft) 100,00 %
01.07.2018 00:18 13,9 C 21,1 C 67 % 1015,0 hPa 0,0 l/m 9,8 km/h (2 Bft) O-NO 78 0 min 0,000 mm 0,0 UV-I 0 W/m 7,9 C 12,0 C 14,5 km/h (3 Bft) 100,00 %
01.07.2018 00:19 13,9 C 21,1 C 66 % 1015,0 hPa 0,0 l/m 9,4 km/h (2 Bft) O 91 0 min 0,000 mm 0,0 UV-I 0 W/m 7,7 C 12,2 C 16,1 km/h (3 Bft) 100,00 %
01.07.2018 00:20 13,9 C 21,1 C 66 % 1015,0 hPa 0,0 l/m 13,0 km/h (3 Bft) O 81 0 min 0,000 mm 0,0 UV-I 0 W/m 7,7 C 10,6 C 17,7 km/h (3 Bft) 96,15 %
01.07.2018 00:21 13,9 C 21,1 C 65 % 1015,0 hPa 0,0 l/m 11,6 km/h (2 Bft) O-NO 76 0 min 0,000 mm 0,0 UV-I 0 W/m 7,4 C 11,2 C 16,1 km/h (3 Bft) 100,00 %
01.07.2018 00:22 14,0 C 21,1 C 65 % 1015,0 hPa 0,0 l/m 12,0 km/h (2 Bft) O-SO 102 0 min 0,000 mm 0,0 UV-I 0 W/m 7,5 C 11,1 C 14,5 km/h (3 Bft) 100,00 %
01.07.2018 00:23 14,0 C 21,1 C 65 % 1015,0 hPa 0,0 l/m 10,2 km/h (2 Bft) O-NO 78 0 min 0,000 mm 0,0 UV-I 0 W/m 7,5 C 11,9 C 12,9 km/h (3 Bft) 100,00 %
01.07.2018 00:24 14,0 C 21,1 C 66 % 1015,0 hPa 0,0 l/m 14,7 km/h (3 Bft) O 98 0 min 0,000 mm 0,0 UV-I 0 W/m 7,7 C 10,1 C 22,5 km/h (4 Bft) 100,00 %
01.07.2018 00:25 14,0 C 21,1 C 66 % 1014,9 hPa 0,0 l/m 11,7 km/h (2 Bft) O-SO 118 0 min 0,000 mm 0,0 UV-I 0 W/m 7,7 C 11,2 C 19,3 km/h (3 Bft) 100,00 %
01.07.2018 00:26 14,0 C 21,1 C 65 % 1014,9 hPa 0,0 l/m 11,1 km/h (2 Bft) O-NO 69 0 min 0,000 mm 0,0 UV-I 0 W/m 7,5 C 11,5 C 17,7 km/h (3 Bft) 100,00 %
01.07.2018 00:27 14,0 C 21,1 C 65 % 1015,0 hPa 0,0 l/m 13,3 km/h (3 Bft) O-NO 71 0 min 0,000 mm 0,0 UV-I 0 W/m 7,5 C 10,6 C 19,3 km/h (3 Bft) 100,00 %
01.07.2018 00:28 14,0 C 21,1 C 65 % 1015,0 hPa 0,0 l/m 11,4 km/h (2 Bft) O-NO 59 0 min 0,000 mm 0,0 UV-I 0 W/m 7,5 C 11,4 C 14,5 km/h (3 Bft) 100,00 %
01.07.2018 00:29 14,0 C 21,1 C 65 % 1015,0 hPa 0,0 l/m 13,3 km/h (3 Bft) O-NO 61 0 min 0,000 mm 0,0 UV-I 0 W/m 7,5 C 10,6 C 17,7 km/h (3 Bft) 100,00 %
01.07.2018 00:30 14,0 C 21,1 C 65 % 1015,0 hPa 0,0 l/m 13,6 km/h (3 Bft) O-NO 69 0 min 0,000 mm 0,0 UV-I 0 W/m 7,5 C 10,5 C 17,7 km/h (3 Bft) 100,00 %
01.07.2018 00:31 14,0 C 21,1 C 65 % 1015,0 hPa 0,0 l/m 15,0 km/h (3 Bft) O-NO 62 0 min 0,000 mm 0,0 UV-I 0 W/m 7,5 C 10,0 C 22,5 km/h (4 Bft) 95,65 %
01.07.2018 00:32 14,0 C 21,1 C 65 % 1014,9 hPa 0,0 l/m 8,9 km/h (2 Bft) O 92 0 min 0,000 mm 0,0 UV-I 0 W/m 7,5 C 12,6 C 14,5 km/h (3 Bft) 100,00 %
01.07.2018 00:33 14,0 C 21,1 C 65 % 1015,0 hPa 0,0 l/m 10,6 km/h (2 Bft) O 101 0 min 0,000 mm 0,0 UV-I 0 W/m 7,5 C 11,7 C 16,1 km/h (3 Bft) 92,86 %
01.07.2018 00:34 13,9 C 21,1 C 65 % 1015,0 hPa 0,0 l/m 13,6 km/h (3 Bft) O-NO 65 0 min 0,000 mm 0,0 UV-I 0 W/m 7,4 C 10,4 C 19,3 km/h (3 Bft) 100,00 %
01.07.2018 00:35 13,9 C 21,1 C 65 % 1014,9 hPa 0,0 l/m 12,0 km/h (2 Bft) O-NO 61 0 min 0,000 mm 0,0 UV-I 0 W/m 7,4 C 11,0 C 14,5 km/h (3 Bft) 95,65 %
01.07.2018 00:36 13,9 C 21,1 C 65 % 1015,0 hPa 0,0 l/m 11,8 km/h (2 Bft) O 85 0 min 0,000 mm 0,0 UV-I 0 W/m 7,4 C 11,1 C 17,7 km/h (3 Bft) 96,30 %
01.07.2018 00:37 13,8 C 21,1 C 65 % 1015,0 hPa 0,0 l/m 10,3 km/h (2 Bft) O-NO 78 0 min 0,000 mm 0,0 UV-I 0 W/m 7,3 C 11,6 C 14,5 km/h (3 Bft) 100,00 %
01.07.2018 00:38 13,8 C 21,1 C 65 % 1015,0 hPa 0,0 l/m 7,4 km/h (2 Bft) O 82 0 min 0,000 mm 0,0 UV-I 0 W/m 7,3 C 13,2 C 11,3 km/h (2 Bft) 95,83 %
01.07.2018 00:39 13,8 C 21,1 C 65 % 1015,0 hPa 0,0 l/m 13,4 km/h (3 Bft) O-NO 76 0 min 0,000 mm 0,0 UV-I 0 W/m 7,3 C 10,3 C 17,7 km/h (3 Bft) 100,00 %
01.07.2018 00:40 13,8 C 21,1 C 65 % 1015,0 hPa 0,0 l/m 11,5 km/h (2 Bft) O 92 0 min 0,000 mm 0,0 UV-I 0 W/m 7,3 C 11,1 C 14,5 km/h (3 Bft) 95,83 %
01.07.2018 00:41 13,7 C 21,1 C 65 % 1015,0 hPa 0,0 l/m 11,3 km/h (2 Bft) O-NO 74 0 min 0,000 mm 0,0 UV-I 0 W/m 7,2 C 11,1 C 16,1 km/h (3 Bft) 100,00 %
01.07.2018 00:42 13,7 C 21,1 C 65 % 1015,1 hPa 0,0 l/m 10,8 km/h (2 Bft) O 82 0 min 0,000 mm 0,0 UV-I 0 W/m 7,2 C 11,3 C 14,5 km/h (3 Bft) 92,31 %
01.07.2018 00:43 13,7 C 21,1 C 65 % 1015,1 hPa 0,0 l/m 11,4 km/h (2 Bft) O 91 0 min 0,000 mm 0,0 UV-I 0 W/m 7,2 C 11,0 C 14,5 km/h (3 Bft) 95,00 %
01.07.2018 00:44 13,7 C 21,1 C 65 % 1015,1 hPa 0,0 l/m 13,1 km/h (3 Bft) O-NO 66 0 min 0,000 mm 0,0 UV-I 0 W/m 7,2 C 10,3 C 17,7 km/h (3 Bft) 100,00 %
01.07.2018 00:45 13,7 C 21,1 C 65 % 1015,1 hPa 0,0 l/m 12,1 km/h (2 Bft) O-NO 68 0 min 0,000 mm 0,0 UV-I 0 W/m 7,2 C 10,7 C 16,1 km/h (3 Bft) 100,00 %
01.07.2018 00:46 13,7 C 21,1 C 65 % 1015,1 hPa 0,0 l/m 10,5 km/h (2 Bft) NO 54 0 min 0,000 mm 0,0 UV-I 0 W/m 7,2 C 11,4 C 14,5 km/h (3 Bft) 96,55 %
01.07.2018 00:47 13,6 C 21,1 C 65 % 1015,1 hPa 0,0 l/m 7,8 km/h (2 Bft) O-NO 69 0 min 0,000 mm 0,0 UV-I 0 W/m 7,1 C 12,7 C 11,3 km/h (2 Bft) 93,10 %
01.07.2018 00:48 13,6 C 21,1 C 66 % 1015,1 hPa 0,0 l/m 10,2 km/h (2 Bft) O 80 0 min 0,000 mm 0,0 UV-I 0 W/m 7,4 C 11,5 C 16,1 km/h (3 Bft) 100,00 %
01.07.2018 00:49 13,6 C 21,1 C 66 % 1015,1 hPa 0,0 l/m 10,0 km/h (2 Bft) O-NO 76 0 min 0,000 mm 0,0 UV-I 0 W/m 7,4 C 11,6 C 14,5 km/h (3 Bft) 98,66 %
01.07.2018 00:50 13,5 C 21,1 C 65 % 1015,1 hPa 0,0 l/m 12,8 km/h (3 Bft) O-NO 74 0 min 0,000 mm 0,0 UV-I 0 W/m 7,1 C 10,2 C 19,3 km/h (3 Bft) 97,56 %
01.07.2018 00:51 13,5 C 21,1 C 66 % 1015,1 hPa 0,0 l/m 11,7 km/h (2 Bft) O 99 0 min 0,000 mm 0,0 UV-I 0 W/m 7,3 C 10,7 C 14,5 km/h (3 Bft) 91,67 %
01.07.2018 00:52 13,5 C 21,1 C 66 % 1015,1 hPa 0,0 l/m 10,2 km/h (2 Bft) O-NO 69 0 min 0,000 mm 0,0 UV-I 0 W/m 7,3 C 11,4 C 12,9 km/h (3 Bft) 91,30 %
01.07.2018 00:53 13,5 C 21,1 C 65 % 1015,1 hPa 0,0 l/m 11,6 km/h (2 Bft) O-NO 73 0 min 0,000 mm 0,0 UV-I 0 W/m 7,1 C 10,7 C 14,5 km/h (3 Bft) 100,00 %
01.07.2018 00:54 13,4 C 21,1 C 66 % 1015,1 hPa 0,0 l/m 11,1 km/h (2 Bft) O 79 0 min 0,000 mm 0,0 UV-I 0 W/m 7,2 C 10,8 C 14,5 km/h (3 Bft) 91,30 %
01.07.2018 00:55 13,4 C 21,1 C 66 % 1015,1 hPa 0,0 l/m 7,5 km/h (2 Bft) O-NO 76 0 min 0,000 mm 0,0 UV-I 0 W/m 7,2 C 12,7 C 11,3 km/h (2 Bft) 100,00 %
01.07.2018 00:56 13,3 C 21,1 C 66 % 1015,1 hPa 0,0 l/m 7,0 km/h (2 Bft) O 81 0 min 0,000 mm 0,0 UV-I 0 W/m 7,1 C 12,9 C 11,3 km/h (2 Bft) 96,15 %
01.07.2018 00:57 13,3 C 21,1 C 66 % 1015,1 hPa 0,0 l/m 9,2 km/h (2 Bft) O 80 0 min 0,000 mm 0,0 UV-I 0 W/m 7,1 C 11,7 C 12,9 km/h (3 Bft) 96,30 %
01.07.2018 00:58 13,3 C 21,1 C 67 % 1015,2 hPa 0,0 l/m 7,3 km/h (2 Bft) O-NO 73 0 min 0,000 mm 0,0 UV-I 0 W/m 7,3 C 12,7 C 9,7 km/h (2 Bft) 92,86 %
01.07.2018 00:59 13,2 C 21,1 C 67 % 1015,2 hPa 0,0 l/m 5,1 km/h (1 Bft) O 82 0 min 0,000 mm 0,0 UV-I 0 W/m 7,2 C 13,2 C 6,4 km/h (2 Bft) 100,00 %
01.07.2018 01:00 13,2 C 21,1 C 67 % 1015,2 hPa 0,0 l/m 6,2 km/h (2 Bft) O-NO 74 0 min 0,051 mm 0,0 UV-I 0 W/m 7,2 C 13,2 C 8,0 km/h (2 Bft) 98,18 %
01.07.2018 01:02 13,1 C 21,1 C 67 % 1015,2 hPa 0,0 l/m 9,1 km/h (2 Bft) O-NO 70 0 min 0,000 mm 0,0 UV-I 0 W/m 7,1 C 11,5 C 12,9 km/h (3 Bft) 96,92 %
01.07.2018 01:03 13,1 C 21,1 C 68 % 1015,2 hPa 0,0 l/m 9,8 km/h (2 Bft) O-NO 76 0 min 0,000 mm 0,0 UV-I 0 W/m 7,3 C 11,1 C 14,5 km/h (3 Bft) 96,97 %
01.07.2018 01:04 13,0 C 21,1 C 68 % 1015,2 hPa 0,0 l/m 11,7 km/h (2 Bft) O-NO 66 0 min 0,000 mm 0,0 UV-I 0 W/m 7,2 C 10,1 C 12,9 km/h (3 Bft) 100,00 %
01.07.2018 01:05 13,0 C 21,1 C 68 % 1015,2 hPa 0,0 l/m 7,3 km/h (2 Bft) O-NO 78 0 min 0,000 mm 0,0 UV-I 0 W/m 7,2 C 12,4 C 11,3 km/h (2 Bft) 100,00 %
01.07.2018 01:06 12,9 C 21,1 C 68 % 1015,2 hPa 0,0 l/m 10,6 km/h (2 Bft) O 88 0 min 0,000 mm 0,0 UV-I 0 W/m 7,1 C 10,5 C 14,5 km/h (3 Bft) 100,00 %
01.07.2018 01:07 12,9 C 21,1 C 68 % 1015,2 hPa 0,0 l/m 9,9 km/h (2 Bft) O 92 0 min 0,000 mm 0,0 UV-I 0 W/m 7,1 C 10,8 C 12,9 km/h (3 Bft) 100,00 %
01.07.2018 01:08 12,9 C 21,1 C 68 % 1015,3 hPa 0,0 l/m 7,1 km/h (2 Bft) O 80 0 min 0,000 mm 0,0 UV-I 0 W/m 7,1 C 12,5 C 12,9 km/h (3 Bft) 100,00 %
01.07.2018 01:09 12,9 C 21,1 C 68 % 1015,3 hPa 0,0 l/m 9,7 km/h (2 Bft) O-NO 78 0 min 0,000 mm 0,0 UV-I 0 W/m 7,1 C 11,0 C 16,1 km/h (3 Bft) 100,00 %
01.07.2018 01:10 12,8 C 21,1 C 68 % 1015,2 hPa 0,0 l/m 8,5 km/h (2 Bft) O 90 0 min 0,000 mm 0,0 UV-I 0 W/m 7,0 C 11,5 C 12,9 km/h (3 Bft) 100,00 %
01.07.2018 01:11 12,8 C 21,1 C 68 % 1015,2 hPa 0,0 l/m 7,6 km/h (2 Bft) NO 56 0 min 0,000 mm 0,0 UV-I 0 W/m 7,0 C 12,0 C 11,3 km/h (2 Bft) 100,00 %
01.07.2018 01:12 12,8 C 21,1 C 68 % 1015,2 hPa 0,0 l/m 7,6 km/h (2 Bft) O-NO 63 0 min 0,000 mm 0,0 UV-I 0 W/m 7,0 C 12,0 C 11,3 km/h (2 Bft) 100,00 %
01.07.2018 01:13 12,8 C 21,1 C 69 % 1015,3 hPa 0,0 l/m 8,9 km/h (2 Bft) O 86 0 min 0,000 mm 0,0 UV-I 0 W/m 7,3 C 11,3 C 14,5 km/h (3 Bft) 100,00 %
01.07.2018 01:14 12,8 C 21,1 C 69 % 1015,3 hPa 0,0 l/m 9,7 km/h (2 Bft) NO 56 0 min 0,000 mm 0,0 UV-I 0 W/m 7,3 C 10,8 C 12,9 km/h (3 Bft) 100,00 %
01.07.2018 01:15 12,7 C 21,1 C 69 % 1015,3 hPa 0,0 l/m 8,5 km/h (2 Bft) O 86 0 min 0,000 mm 0,0 UV-I 0 W/m 7,2 C 11,4 C 12,9 km/h (3 Bft) 91,67 %
01.07.2018 01:16 12,7 C 21,1 C 69 % 1015,3 hPa 0,0 l/m 10,8 km/h (2 Bft) O-NO 62 0 min 0,000 mm 0,0 UV-I 0 W/m 7,2 C 10,2 C 14,5 km/h (3 Bft) 100,00 %
01.07.2018 01:17 12,8 C 21,1 C 69 % 1015,3 hPa 0,0 l/m 8,6 km/h (2 Bft) O-NO 57 0 min 0,000 mm 0,0 UV-I 0 W/m 7,3 C 11,4 C 12,9 km/h (3 Bft) 100,00 %
01.07.2018 01:18 12,8 C 21,1 C 68 % 1015,3 hPa 0,0 l/m 8,0 km/h (2 Bft) O-NO 74 0 min 0,000 mm 0,0 UV-I 0 W/m 7,0 C 11,8 C 14,5 km/h (3 Bft) 96,30 %
01.07.2018 01:19 12,8 C 21,1 C 68 % 1015,3 hPa 0,0 l/m 7,2 km/h (2 Bft) O-NO 59 0 min 0,000 mm 0,0 UV-I 0 W/m 7,0 C 12,3 C 12,9 km/h (3 Bft) 96,15 %
01.07.2018 01:20 12,8 C 21,1 C 68 % 1015,3 hPa 0,0 l/m 9,3 km/h (2 Bft) O 80 0 min 0,000 mm 0,0 UV-I 0 W/m 7,0 C 11,1 C 11,3 km/h (2 Bft) 86,67 %
01.07.2018 01:21 12,8 C 21,1 C 68 % 1015,3 hPa 0,0 l/m 10,7 km/h (2 Bft) O-NO 77 0 min 0,000 mm 0,0 UV-I 0 W/m 7,0 C 10,3 C 14,5 km/h (3 Bft) 100,00 %
01.07.2018 01:22 12,8 C 21,1 C 68 % 1015,3 hPa 0,0 l/m 11,8 km/h (2 Bft) O-NO 69 0 min 0,000 mm 0,0 UV-I 0 W/m 7,0 C 9,8 C 14,5 km/h (3 Bft) 95,83 %
01.07.2018 01:23 12,7 C 21,1 C 69 % 1015,3 hPa 0,0 l/m 8,4 km/h (2 Bft) O 80 0 min 0,000 mm 0,0 UV-I 0 W/m 7,2 C 11,5 C 14,5 km/h (3 Bft) 86,67 %
01.07.2018 01:24 12,7 C 21,1 C 69 % 1015,3 hPa 0,0 l/m 7,7 km/h (2 Bft) O 80 0 min 0,000 mm 0,0 UV-I 0 W/m 7,2 C 11,9 C 12,9 km/h (3 Bft) 97,37 %
01.07.2018 01:25 12,7 C 21,1 C 69 % 1015,3 hPa 0,0 l/m 8,0 km/h (2 Bft) O-NO 67 0 min 0,000 mm 0,0 UV-I 0 W/m 7,2 C 11,7 C 11,3 km/h (2 Bft) 98,07 %
01.07.2018 01:26 12,7 C 21,1 C 69 % 1015,3 hPa 0,0 l/m 7,2 km/h (2 Bft) O 79 0 min 0,000 mm 0,0 UV-I 0 W/m 7,2 C 12,2 C 12,9 km/h (3 Bft) 94,74 %
01.07.2018 01:27 12,7 C 21,1 C 69 % 1015,3 hPa 0,0 l/m 5,9 km/h (2 Bft) O-NO 58 0 min 0,000 mm 0,0 UV-I 0 W/m 7,2 C 12,7 C 9,7 km/h (2 Bft) 96,15 %
01.07.2018 01:28 12,6 C 21,1 C 69 % 1015,3 hPa 0,0 l/m 7,0 km/h (2 Bft) O-NO 67 0 min 0,000 mm 0,0 UV-I 0 W/m 7,1 C 12,2 C 11,3 km/h (2 Bft) 100,00 %
01.07.2018 01:29 12,5 C 21,1 C 69 % 1015,3 hPa 0,0 l/m 9,1 km/h (2 Bft) O 88 0 min 0,000 mm 0,0 UV-I 0 W/m 7,0 C 10,8 C 11,3 km/h (2 Bft) 92,31 %
01.07.2018 01:30 12,4 C 21,1 C 70 % 1015,3 hPa 0,0 l/m 9,0 km/h (2 Bft) O 95 0 min 0,000 mm 0,0 UV-I 0 W/m 7,1 C 10,8 C 12,9 km/h (3 Bft) 100,00 %
01.07.2018 01:31 12,4 C 21,1 C 70 % 1015,3 hPa 0,0 l/m 7,0 km/h (2 Bft) NO 55 0 min 0,000 mm 0,0 UV-I 0 W/m 7,1 C 12,0 C 11,3 km/h (2 Bft) 96,30 %
01.07.2018 01:32 12,4 C 21,1 C 70 % 1015,3 hPa 0,0 l/m 8,4 km/h (2 Bft) O-NO 76 0 min 0,000 mm 0,0 UV-I 0 W/m 7,1 C 11,1 C 12,9 km/h (3 Bft) 95,65 %
01.07.2018 01:33 12,4 C 21,1 C 70 % 1015,3 hPa 0,0 l/m 7,1 km/h (2 Bft) NO 42 0 min 0,000 mm 0,0 UV-I 0 W/m 7,1 C 11,9 C 11,3 km/h (2 Bft) 96,30 %
01.07.2018 01:34 12,4 C 21,1 C 70 % 1015,3 hPa 0,0 l/m 6,6 km/h (2 Bft) O-NO 63 0 min 0,000 mm 0,0 UV-I 0 W/m 7,1 C 12,3 C 9,7 km/h (2 Bft) 96,15 %
01.07.2018 01:35 12,3 C 21,1 C 70 % 1015,3 hPa 0,0 l/m 5,7 km/h (1 Bft) O-NO 57 0 min 0,000 mm 0,0 UV-I 0 W/m 7,0 C 12,3 C 9,7 km/h (2 Bft) 100,00 %
01.07.2018 01:36 12,3 C 21,1 C 71 % 1015,3 hPa 0,0 l/m 8,3 km/h (2 Bft) O-NO 69 0 min 0,000 mm 0,0 UV-I 0 W/m 7,2 C 11,1 C 12,9 km/h (3 Bft) 95,65 %
01.07.2018 01:37 12,2 C 21,1 C 71 % 1015,3 hPa 0,0 l/m 7,3 km/h (2 Bft) O-NO 63 0 min 0,000 mm 0,0 UV-I 0 W/m 7,1 C 11,6 C 12,9 km/h (3 Bft) 100,00 %
01.07.2018 01:38 12,2 C 20,6 C 71 % 1015,3 hPa 0,0 l/m 7,0 km/h (2 Bft) NO 38 0 min 0,000 mm 0,0 UV-I 0 W/m 7,1 C 11,8 C 8,0 km/h (2 Bft) 86,96 %
01.07.2018 01:39 12,1 C 20,6 C 71 % 1015,3 hPa 0,0 l/m 7,8 km/h (2 Bft) O-NO 61 0 min 0,000 mm 0,0 UV-I 0 W/m 7,0 C 11,2 C 11,3 km/h (2 Bft) 95,83 %
01.07.2018 01:40 12,1 C 20,6 C 71 % 1015,3 hPa 0,0 l/m 9,4 km/h (2 Bft) NO 46 0 min 0,000 mm 0,0 UV-I 0 W/m 7,0 C 10,2 C 12,9 km/h (3 Bft) 92,86 %
01.07.2018 01:41 12,1 C 20,6 C 72 % 1015,3 hPa 0,0 l/m 9,2 km/h (2 Bft) N-NO 29 0 min 0,000 mm 0,0 UV-I 0 W/m 7,2 C 10,3 C 14,5 km/h (3 Bft) 100,00 %
01.07.2018 01:42 12,0 C 20,6 C 72 % 1015,3 hPa 0,0 l/m 10,4 km/h (2 Bft) NO 53 0 min 0,000 mm 0,0 UV-I 0 W/m 7,1 C 9,6 C 14,5 km/h (3 Bft) 95,65 %
01.07.2018 01:43 11,9 C 20,6 C 72 % 1015,3 hPa 0,0 l/m 7,4 km/h (2 Bft) O-NO 62 0 min 0,000 mm 0,0 UV-I 0 W/m 7,0 C 11,2 C 11,3 km/h (2 Bft) 96,67 %
01.07.2018 01:44 11,9 C 20,6 C 72 % 1015,4 hPa 0,0 l/m 11,2 km/h (2 Bft) O-NO 77 0 min 0,000 mm 0,0 UV-I 0 W/m 7,0 C 9,1 C 14,5 km/h (3 Bft) 100,00 %
01.07.2018 01:45 11,8 C 20,6 C 73 % 1015,4 hPa 0,0 l/m 9,3 km/h (2 Bft) O-NO 57 0 min 0,000 mm 0,0 UV-I 0 W/m 7,1 C 10,0 C 12,9 km/h (3 Bft) 95,83 %
01.07.2018 01:46 11,9 C 20,6 C 72 % 1015,3 hPa 0,0 l/m 8,4 km/h (2 Bft) O-NO 60 0 min 0,000 mm 0,0 UV-I 0 W/m 7,0 C 10,6 C 12,9 km/h (3 Bft) 91,67 %
01.07.2018 01:47 11,9 C 20,6 C 72 % 1015,4 hPa 0,0 l/m 7,4 km/h (2 Bft) O-NO 58 0 min 0,000 mm 0,0 UV-I 0 W/m 7,0 C 11,2 C 11,3 km/h (2 Bft) 96,55 %
01.07.2018 01:48 11,9 C 20,6 C 72 % 1015,4 hPa 0,0 l/m 7,8 km/h (2 Bft) O 82 0 min 0,000 mm 0,0 UV-I 0 W/m 7,0 C 11,0 C 12,9 km/h (3 Bft) 100,00 %
01.07.2018 01:49 12,0 C 20,6 C 71 % 1015,4 hPa 0,0 l/m 6,6 km/h (2 Bft) NO 51 0 min 0,000 mm 0,0 UV-I 0 W/m 6,9 C 11,9 C 8,0 km/h (2 Bft) 96,15 %
01.07.2018 01:50 12,1 C 20,6 C 71 % 1015,4 hPa 0,0 l/m 7,5 km/h (2 Bft) O-NO 76 0 min 0,000 mm 0,0 UV-I 0 W/m 7,0 C 11,4 C 11,3 km/h (2 Bft) 100,00 %
01.07.2018 01:51 12,1 C 20,6 C 71 % 1015,4 hPa 0,0 l/m 9,0 km/h (2 Bft) O 82 0 min 0,000 mm 0,0 UV-I 0 W/m 7,0 C 10,5 C 14,5 km/h (3 Bft) 95,83 %
01.07.2018 01:52 12,1 C 20,6 C 71 % 1015,4 hPa 0,0 l/m 7,0 km/h (2 Bft) O-NO 69 0 min 0,000 mm 0,0 UV-I 0 W/m 7,0 C 11,7 C 9,7 km/h (2 Bft) 100,00 %
01.07.2018 01:53 12,1 C 20,6 C 71 % 1015,4 hPa 0,0 l/m 8,2 km/h (2 Bft) O-NO 67 0 min 0,000 mm 0,0 UV-I 0 W/m 7,0 C 10,9 C 12,9 km/h (3 Bft) 91,30 %
01.07.2018 01:54 12,1 C 20,6 C 71 % 1015,4 hPa 0,0 l/m 6,4 km/h (2 Bft) O 84 0 min 0,000 mm 0,0 UV-I 0 W/m 7,0 C 12,1 C 9,7 km/h (2 Bft) 100,00 %
01.07.2018 01:55 12,0 C 20,6 C 72 % 1015,3 hPa 0,0 l/m 5,9 km/h (2 Bft) O-NO 66 0 min 0,000 mm 0,0 UV-I 0 W/m 7,1 C 12,0 C 8,0 km/h (2 Bft) 96,15 %
01.07.2018 01:56 11,9 C 20,6 C 72 % 1015,3 hPa 0,0 l/m 4,6 km/h (1 Bft) O 80 0 min 0,000 mm 0,0 UV-I 0 W/m 7,0 C 11,9 C 6,4 km/h (2 Bft) 96,30 %
01.07.2018 01:57 11,9 C 20,6 C 72 % 1015,3 hPa 0,0 l/m 5,8 km/h (2 Bft) O 82 0 min 0,000 mm 0,0 UV-I 0 W/m 7,0 C 11,9 C 8,0 km/h (2 Bft) 100,00 %
01.07.2018 01:58 11,8 C 20,6 C 72 % 1015,3 hPa 0,0 l/m 6,8 km/h (2 Bft) O 82 0 min 0,000 mm 0,0 UV-I 0 W/m 6,9 C 11,5 C 9,7 km/h (2 Bft) 96,30 %
01.07.2018 01:59 11,8 C 20,6 C 73 % 1015,3 hPa 0,0 l/m 5,5 km/h (1 Bft) O 92 0 min 0,000 mm 0,0 UV-I 0 W/m 7,1 C 11,8 C 6,4 km/h (2 Bft) 95,65 %
01.07.2018 02:00 11,8 C 20,6 C 73 % 1015,3 hPa 0,0 l/m 6,7 km/h (2 Bft) O-NO 59 0 min 0,025 mm 0,0 UV-I 0 W/m 7,1 C 11,6 C 12,9 km/h (3 Bft) 95,83 %
01.07.2018 02:01 11,7 C 20,6 C 73 % 1015,3 hPa 0,0 l/m 6,8 km/h (2 Bft) NO 39 0 min 0,000 mm 0,0 UV-I 0 W/m 7,0 C 11,4 C 9,7 km/h (2 Bft) 100,00 %
01.07.2018 02:02 11,7 C 20,6 C 73 % 1015,4 hPa 0,0 l/m 5,8 km/h (2 Bft) O 98 0 min 0,000 mm 0,0 UV-I 0 W/m 7,0 C 11,7 C 8,0 km/h (2 Bft) 95,83 %
01.07.2018 02:03 11,7 C 20,6 C 73 % 1015,4 hPa 0,0 l/m 4,7 km/h (1 Bft) O 79 0 min 0,000 mm 0,0 UV-I 0 W/m 7,0 C 11,7 C 6,4 km/h (2 Bft) 100,00 %
01.07.2018 02:04 11,6 C 20,6 C 73 % 1015,4 hPa 0,0 l/m 6,2 km/h (2 Bft) O-NO 69 0 min 0,000 mm 0,0 UV-I 0 W/m 6,9 C 11,6 C 8,0 km/h (2 Bft) 96,15 %
01.07.2018 02:05 11,6 C 20,6 C 74 % 1015,4 hPa 0,0 l/m 6,1 km/h (2 Bft) O 89 0 min 0,000 mm 0,0 UV-I 0 W/m 7,1 C 11,6 C 9,7 km/h (2 Bft) 100,00 %
01.07.2018 02:06 11,5 C 20,6 C 74 % 1015,4 hPa 0,0 l/m 7,3 km/h (2 Bft) O-NO 65 0 min 0,000 mm 0,0 UV-I 0 W/m 7,0 C 10,9 C 9,7 km/h (2 Bft) 95,83 %
01.07.2018 02:07 11,5 C 20,6 C 74 % 1015,4 hPa 0,0 l/m 5,1 km/h (1 Bft) O 81 0 min 0,000 mm 0,0 UV-I 0 W/m 7,0 C 11,5 C 6,4 km/h (2 Bft) 100,00 %
01.07.2018 02:08 11,5 C 20,6 C 74 % 1015,4 hPa 0,0 l/m 6,2 km/h (2 Bft) O-NO 58 0 min 0,000 mm 0,0 UV-I 0 W/m 7,0 C 11,5 C 8,0 km/h (2 Bft) 95,65 %
01.07.2018 02:09 11,4 C 20,6 C 74 % 1015,4 hPa 0,0 l/m 4,2 km/h (1 Bft) O 82 0 min 0,000 mm 0,0 UV-I 0 W/m 6,9 C 11,4 C 6,4 km/h (2 Bft) 95,83 %
01.07.2018 02:10 11,4 C 20,6 C 74 % 1015,4 hPa 0,0 l/m 4,5 km/h (1 Bft) O-NO 73 0 min 0,000 mm 0,0 UV-I 0 W/m 6,9 C 11,4 C 6,4 km/h (2 Bft) 100,00 %
01.07.2018 02:11 11,4 C 20,6 C 74 % 1015,4 hPa 0,0 l/m 5,9 km/h (2 Bft) O-NO 65 0 min 0,000 mm 0,0 UV-I 0 W/m 6,9 C 11,4 C 8,0 km/h (2 Bft) 93,33 %
01.07.2018 02:12 11,4 C 20,6 C 75 % 1015,4 hPa 0,0 l/m 5,3 km/h (1 Bft) O-NO 68 0 min 0,000 mm 0,0 UV-I 0 W/m 7,1 C 11,4 C 6,4 km/h (2 Bft) 96,15 %
01.07.2018 02:13 11,4 C 20,6 C 75 % 1015,4 hPa 0,0 l/m 5,4 km/h (1 Bft) O-NO 65 0 min 0,000 mm 0,0 UV-I 0 W/m 7,1 C 11,4 C 8,0 km/h (2 Bft) 100,00 %
01.07.2018 02:14 11,3 C 20,6 C 75 % 1015,4 hPa 0,0 l/m 5,7 km/h (1 Bft) O-NO 69 0 min 0,000 mm 0,0 UV-I 0 W/m 7,0 C 11,3 C 6,4 km/h (2 Bft) 97,37 %
01.07.2018 02:15 11,3 C 20,6 C 75 % 1015,5 hPa 0,0 l/m 6,2 km/h (2 Bft) O-NO 60 0 min 0,000 mm 0,0 UV-I 0 W/m 7,0 C 11,3 C 11,3 km/h (2 Bft) 95,83 %
01.07.2018 02:16 11,3 C 20,6 C 75 % 1015,4 hPa 0,0 l/m 5,4 km/h (1 Bft) O-NO 69 0 min 0,000 mm 0,0 UV-I 0 W/m 7,0 C 11,3 C 6,4 km/h (2 Bft) 100,00 %
01.07.2018 02:17 11,2 C 20,6 C 75 % 1015,5 hPa 0,0 l/m 4,1 km/h (1 Bft) O-NO 74 0 min 0,000 mm 0,0 UV-I 0 W/m 6,9 C 11,2 C 6,4 km/h (2 Bft) 100,00 %
01.07.2018 02:18 11,2 C 20,6 C 75 % 1015,4 hPa 0,0 l/m 5,6 km/h (1 Bft) O 82 0 min 0,000 mm 0,0 UV-I 0 W/m 6,9 C 11,2 C 8,0 km/h (2 Bft) 100,00 %
01.07.2018 02:19 11,2 C 20,6 C 76 % 1015,4 hPa 0,0 l/m 4,5 km/h (1 Bft) NO 40 0 min 0,000 mm 0,0 UV-I 0 W/m 7,1 C 11,2 C 6,4 km/h (2 Bft) 100,00 %
01.07.2018 02:20 11,2 C 20,6 C 75 % 1015,4 hPa 0,0 l/m 5,0 km/h (1 Bft) O-NO 71 0 min 0,000 mm 0,0 UV-I 0 W/m 6,9 C 11,2 C 6,4 km/h (2 Bft) 100,00 %
01.07.2018 02:21 11,2 C 20,6 C 75 % 1015,4 hPa 0,0 l/m 5,2 km/h (1 Bft) O-NO 62 0 min 0,000 mm 0,0 UV-I 0 W/m 6,9 C 11,2 C 8,0 km/h (2 Bft) 100,00 %
01.07.2018 02:22 11,2 C 20,6 C 75 % 1015,4 hPa 0,0 l/m 4,0 km/h (1 Bft) O-NO 60 0 min 0,000 mm 0,0 UV-I 0 W/m 6,9 C 11,2 C 4,8 km/h (1 Bft) 96,15 %
01.07.2018 02:23 11,2 C 20,6 C 75 % 1015,4 hPa 0,0 l/m 4,9 km/h (1 Bft) O-NO 58 0 min 0,000 mm 0,0 UV-I 0 W/m 6,9 C 11,2 C 6,4 km/h (2 Bft) 100,00 %
01.07.2018 02:24 11,2 C 20,6 C 75 % 1015,4 hPa 0,0 l/m 5,0 km/h (1 Bft) O 92 0 min 0,000 mm 0,0 UV-I 0 W/m 6,9 C 11,2 C 8,0 km/h (2 Bft) 100,00 %
01.07.2018 02:25 11,1 C 20,6 C 76 % 1015,4 hPa 0,0 l/m 5,1 km/h (1 Bft) O-NO 76 0 min 0,000 mm 0,0 UV-I 0 W/m 7,0 C 11,1 C 8,0 km/h (2 Bft) 100,00 %
01.07.2018 02:26 11,1 C 20,6 C 76 % 1015,4 hPa 0,0 l/m 5,8 km/h (2 Bft) O-NO 71 0 min 0,000 mm 0,0 UV-I 0 W/m 7,0 C 11,1 C 8,0 km/h (2 Bft) 100,00 %
01.07.2018 02:27 11,0 C 20,6 C 76 % 1015,4 hPa 0,0 l/m 6,4 km/h (2 Bft) O-NO 76 0 min 0,000 mm 0,0 UV-I 0 W/m 6,9 C 11,0 C 11,3 km/h (2 Bft) 100,00 %
01.07.2018 02:28 11,1 C 20,6 C 76 % 1015,4 hPa 0,0 l/m 5,0 km/h (1 Bft) O-NO 61 0 min 0,000 mm 0,0 UV-I 0 W/m 7,0 C 11,1 C 6,4 km/h (2 Bft) 95,83 %
01.07.2018 02:29 11,0 C 20,6 C 76 % 1015,4 hPa 0,0 l/m 5,1 km/h (1 Bft) O-NO 67 0 min 0,000 mm 0,0 UV-I 0 W/m 6,9 C 11,0 C 8,0 km/h (2 Bft) 96,15 %
01.07.2018 02:30 11,0 C 20,6 C 76 % 1015,5 hPa 0,0 l/m 4,9 km/h (1 Bft) O-NO 69 0 min 0,000 mm 0,0 UV-I 0 W/m 6,9 C 11,0 C 8,0 km/h (2 Bft) 100,00 %
01.07.2018 02:31 11,0 C 20,6 C 76 % 1015,5 hPa 0,0 l/m 4,1 km/h (1 Bft) O-NO 76 0 min 0,000 mm 0,0 UV-I 0 W/m 6,9 C 11,0 C 6,4 km/h (2 Bft) 92,86 %
01.07.2018 02:32 11,0 C 20,6 C 76 % 1015,5 hPa 0,0 l/m 5,5 km/h (1 Bft) O-NO 74 0 min 0,000 mm 0,0 UV-I 0 W/m 6,9 C 11,0 C 6,4 km/h (2 Bft) 100,00 %
01.07.2018 02:33 10,9 C 20,6 C 76 % 1015,5 hPa 0,0 l/m 5,4 km/h (1 Bft) O-NO 73 0 min 0,000 mm 0,0 UV-I 0 W/m 6,8 C 10,9 C 8,0 km/h (2 Bft) 95,65 %
01.07.2018 02:34 10,9 C 20,6 C 76 % 1015,6 hPa 0,0 l/m 4,8 km/h (1 Bft) O-NO 64 0 min 0,000 mm 0,0 UV-I 0 W/m 6,8 C 10,9 C 6,4 km/h (2 Bft) 100,00 %
01.07.2018 02:35 10,9 C 20,6 C 77 % 1015,5 hPa 0,0 l/m 5,9 km/h (2 Bft) NO 48 0 min 0,000 mm 0,0 UV-I 0 W/m 7,0 C 10,9 C 9,7 km/h (2 Bft) 91,30 %
01.07.2018 02:36 10,8 C 20,6 C 77 % 1015,5 hPa 0,0 l/m 6,2 km/h (2 Bft) O-NO 69 0 min 0,000 mm 0,0 UV-I 0 W/m 6,9 C 10,8 C 8,0 km/h (2 Bft) 95,83 %
01.07.2018 02:37 10,8 C 20,6 C 77 % 1015,5 hPa 0,0 l/m 6,0 km/h (2 Bft) O-NO 69 0 min 0,000 mm 0,0 UV-I 0 W/m 6,9 C 10,8 C 6,4 km/h (2 Bft) 100,00 %
01.07.2018 02:38 10,7 C 20,6 C 78 % 1015,4 hPa 0,0 l/m 6,1 km/h (2 Bft) O-NO 61 0 min 0,000 mm 0,0 UV-I 0 W/m 7,0 C 10,7 C 8,0 km/h (2 Bft) 91,67 %
01.07.2018 02:39 10,7 C 20,6 C 78 % 1015,4 hPa 0,0 l/m 6,0 km/h (2 Bft) O-NO 63 0 min 0,000 mm 0,0 UV-I 0 W/m 7,0 C 10,7 C 8,0 km/h (2 Bft) 100,00 %
01.07.2018 02:40 10,7 C 20,6 C 78 % 1015,4 hPa 0,0 l/m 6,2 km/h (2 Bft) NO 55 0 min 0,000 mm 0,0 UV-I 0 W/m 7,0 C 10,7 C 8,0 km/h (2 Bft) 95,83 %
01.07.2018 02:41 10,7 C 20,6 C 77 % 1015,5 hPa 0,0 l/m 6,6 km/h (2 Bft) O-NO 59 0 min 0,000 mm 0,0 UV-I 0 W/m 6,8 C 10,6 C 9,7 km/h (2 Bft) 100,00 %
01.07.2018 02:42 10,8 C 20,6 C 77 % 1015,5 hPa 0,0 l/m 5,2 km/h (1 Bft) O-NO 76 0 min 0,000 mm 0,0 UV-I 0 W/m 6,9 C 10,8 C 6,4 km/h (2 Bft) 97,37 %
01.07.2018 02:43 10,8 C 20,6 C 77 % 1015,4 hPa 0,0 l/m 5,4 km/h (1 Bft) NO 56 0 min 0,000 mm 0,0 UV-I 0 W/m 6,9 C 10,8 C 8,0 km/h (2 Bft) 95,65 %
01.07.2018 02:44 10,8 C 20,6 C 77 % 1015,5 hPa 0,0 l/m 4,9 km/h (1 Bft) O-NO 65 0 min 0,000 mm 0,0 UV-I 0 W/m 6,9 C 10,8 C 6,4 km/h (2 Bft) 100,00 %
01.07.2018 02:45 10,8 C 20,6 C 77 % 1015,4 hPa 0,0 l/m 4,5 km/h (1 Bft) O-NO 58 0 min 0,000 mm 0,0 UV-I 0 W/m 6,9 C 10,8 C 6,4 km/h (2 Bft) 96,30 %
01.07.2018 02:46 10,7 C 20,6 C 77 % 1015,5 hPa 0,0 l/m 5,7 km/h (1 Bft) NO 54 0 min 0,000 mm 0,0 UV-I 0 W/m 6,8 C 10,7 C 8,0 km/h (2 Bft) 100,00 %
01.07.2018 02:47 10,7 C 20,6 C 77 % 1015,5 hPa 0,0 l/m 5,9 km/h (2 Bft) O-NO 68 0 min 0,000 mm 0,0 UV-I 0 W/m 6,8 C 10,7 C 8,0 km/h (2 Bft) 96,30 %
01.07.2018 02:48 10,8 C 20,6 C 77 % 1015,5 hPa 0,0 l/m 5,6 km/h (1 Bft) O-NO 68 0 min 0,000 mm 0,0 UV-I 0 W/m 6,9 C 10,8 C 8,0 km/h (2 Bft) 100,00 %
01.07.2018 02:49 10,8 C 20,6 C 77 % 1015,5 hPa 0,0 l/m 3,2 km/h (1 Bft) O-NO 69 0 min 0,000 mm 0,0 UV-I 0 W/m 6,9 C 10,8 C 4,8 km/h (1 Bft) 93,33 %
01.07.2018 02:50 10,8 C 20,6 C 77 % 1015,5 hPa 0,0 l/m 4,9 km/h (1 Bft) O-NO 68 0 min 0,000 mm 0,0 UV-I 0 W/m 6,9 C 10,8 C 6,4 km/h (2 Bft) 100,00 %
01.07.2018 02:51 10,8 C 20,6 C 77 % 1015,5 hPa 0,0 l/m 4,7 km/h (1 Bft) O-NO 77 0 min 0,000 mm 0,0 UV-I 0 W/m 6,9 C 10,8 C 6,4 km/h (2 Bft) 95,83 %
01.07.2018 02:52 10,8 C 20,6 C 77 % 1015,5 hPa 0,0 l/m 4,8 km/h (1 Bft) O-NO 63 0 min 0,000 mm 0,0 UV-I 0 W/m 6,9 C 10,8 C 6,4 km/h (2 Bft) 96,15 %
01.07.2018 02:53 10,7 C 20,6 C 77 % 1015,5 hPa 0,0 l/m 3,9 km/h (1 Bft) O-NO 61 0 min 0,000 mm 0,0 UV-I 0 W/m 6,8 C 10,7 C 4,8 km/h (1 Bft) 100,00 %
01.07.2018 02:54 10,7 C 20,6 C 77 % 1015,5 hPa 0,0 l/m 3,1 km/h (1 Bft) O-NO 63 0 min 0,000 mm 0,0 UV-I 0 W/m 6,8 C 10,7 C 4,8 km/h (1 Bft) 100,00 %
01.07.2018 02:55 10,6 C 20,6 C 78 % 1015,5 hPa 0,0 l/m 4,3 km/h (1 Bft) O 80 0 min 0,000 mm 0,0 UV-I 0 W/m 6,9 C 10,6 C 4,8 km/h (1 Bft) 95,83 %
01.07.2018 02:56 10,6 C 20,6 C 78 % 1015,4 hPa 0,0 l/m 6,2 km/h (2 Bft) O-NO 73 0 min 0,000 mm 0,0 UV-I 0 W/m 6,9 C 10,6 C 8,0 km/h (2 Bft) 91,30 %
01.07.2018 02:57 10,6 C 20,6 C 78 % 1015,4 hPa 0,0 l/m 4,0 km/h (1 Bft) O-NO 72 0 min 0,000 mm 0,0 UV-I 0 W/m 6,9 C 10,6 C 6,4 km/h (2 Bft) 100,00 %
01.07.2018 02:58 10,6 C 20,6 C 78 % 1015,4 hPa 0,0 l/m 4,2 km/h (1 Bft) O-NO 78 0 min 0,000 mm 0,0 UV-I 0 W/m 6,9 C 10,6 C 6,4 km/h (2 Bft) 96,15 %
01.07.2018 02:59 10,6 C 20,6 C 78 % 1015,4 hPa 0,0 l/m 4,7 km/h (1 Bft) O 83 0 min 0,000 mm 0,0 UV-I 0 W/m 6,9 C 10,6 C 6,4 km/h (2 Bft) 100,00 %
01.07.2018 03:00 10,5 C 20,6 C 78 % 1015,4 hPa 0,0 l/m 4,5 km/h (1 Bft) O-NO 72 0 min 0,026 mm 0,0 UV-I 0 W/m 6,8 C 10,5 C 4,8 km/h (1 Bft) 95,65 %
01.07.2018 03:01 10,4 C 20,6 C 79 % 1015,4 hPa 0,0 l/m 4,2 km/h (1 Bft) O-NO 60 0 min 0,000 mm 0,0 UV-I 0 W/m 6,9 C 10,4 C 6,4 km/h (2 Bft) 95,83 %
01.07.2018 03:02 10,4 C 20,6 C 79 % 1015,4 hPa 0,0 l/m 3,9 km/h (1 Bft) O-NO 63 0 min 0,000 mm 0,0 UV-I 0 W/m 6,9 C 10,4 C 4,8 km/h (1 Bft) 100,00 %
01.07.2018 03:03 10,4 C 20,6 C 79 % 1015,4 hPa 0,0 l/m 3,4 km/h (1 Bft) O-NO 61 0 min 0,000 mm 0,0 UV-I 0 W/m 6,9 C 10,4 C 4,8 km/h (1 Bft) 100,00 %
01.07.2018 03:04 10,3 C 20,6 C 79 % 1015,4 hPa 0,0 l/m 3,7 km/h (1 Bft) O-NO 64 0 min 0,000 mm 0,0 UV-I 0 W/m 6,8 C 10,3 C 4,8 km/h (1 Bft) 100,00 %
01.07.2018 03:05 10,3 C 20,6 C 80 % 1015,4 hPa 0,0 l/m 4,3 km/h (1 Bft) O-NO 70 0 min 0,000 mm 0,0 UV-I 0 W/m 7,0 C 10,3 C 6,4 km/h (2 Bft) 97,37 %
01.07.2018 03:06 10,2 C 20,6 C 80 % 1015,4 hPa 0,0 l/m 3,0 km/h (1 Bft) O-NO 78 0 min 0,000 mm 0,0 UV-I 0 W/m 6,9 C 10,2 C 4,8 km/h (1 Bft) 100,00 %
01.07.2018 03:07 10,2 C 20,6 C 80 % 1015,4 hPa 0,0 l/m 4,3 km/h (1 Bft) O 87 0 min 0,000 mm 0,0 UV-I 0 W/m 6,9 C 10,2 C 6,4 km/h (2 Bft) 96,15 %
01.07.2018 03:08 10,2 C 20,6 C 80 % 1015,4 hPa 0,0 l/m 4,4 km/h (1 Bft) O-NO 59 0 min 0,000 mm 0,0 UV-I 0 W/m 6,9 C 10,2 C 8,0 km/h (2 Bft) 100,00 %
01.07.2018 03:09 10,3 C 20,6 C 80 % 1015,4 hPa 0,0 l/m 3,5 km/h (1 Bft) O 93 0 min 0,000 mm 0,0 UV-I 0 W/m 7,0 C 10,3 C 4,8 km/h (1 Bft) 100,00 %
01.07.2018 03:10 10,3 C 20,6 C 80 % 1015,4 hPa 0,0 l/m 4,9 km/h (1 Bft) O 89 0 min 0,000 mm 0,0 UV-I 0 W/m 7,0 C 10,3 C 6,4 km/h (2 Bft) 100,00 %
01.07.2018 03:11 10,3 C 20,6 C 80 % 1015,4 hPa 0,0 l/m 4,6 km/h (1 Bft) O 82 0 min 0,000 mm 0,0 UV-I 0 W/m 7,0 C 10,3 C 6,4 km/h (2 Bft) 100,00 %
01.07.2018 03:12 10,3 C 20,6 C 79 % 1015,5 hPa 0,0 l/m 3,8 km/h (1 Bft) O 84 0 min 0,000 mm 0,0 UV-I 0 W/m 6,8 C 10,3 C 6,4 km/h (2 Bft) 100,00 %
01.07.2018 03:13 10,3 C 20,6 C 79 % 1015,4 hPa 0,0 l/m 4,1 km/h (1 Bft) O 83 0 min 0,000 mm 0,0 UV-I 0 W/m 6,8 C 10,3 C 4,8 km/h (1 Bft) 100,00 %
01.07.2018 03:14 10,3 C 20,6 C 79 % 1015,4 hPa 0,0 l/m 4,3 km/h (1 Bft) O 81 0 min 0,000 mm 0,0 UV-I 0 W/m 6,8 C 10,3 C 6,4 km/h (2 Bft) 100,00 %
01.07.2018 03:15 10,4 C 20,6 C 79 % 1015,4 hPa 0,0 l/m 4,6 km/h (1 Bft) O 82 0 min 0,000 mm 0,0 UV-I 0 W/m 6,9 C 10,4 C 4,8 km/h (1 Bft) 95,65 %
01.07.2018 03:16 10,4 C 20,6 C 79 % 1015,4 hPa 0,0 l/m 4,2 km/h (1 Bft) O 88 0 min 0,000 mm 0,0 UV-I 0 W/m 6,9 C 10,4 C 6,4 km/h (2 Bft) 100,00 %
01.07.2018 03:17 10,4 C 20,6 C 79 % 1015,4 hPa 0,0 l/m 4,8 km/h (1 Bft) O 96 0 min 0,000 mm 0,0 UV-I 0 W/m 6,9 C 10,4 C 6,4 km/h (2 Bft) 100,00 %
01.07.2018 03:18 10,4 C 20,6 C 79 % 1015,4 hPa 0,0 l/m 4,5 km/h (1 Bft) O 83 0 min 0,000 mm 0,0 UV-I 0 W/m 6,9 C 10,4 C 4,8 km/h (1 Bft) 100,00 %
01.07.2018 03:19 10,5 C 20,6 C 78 % 1015,4 hPa 0,0 l/m 4,4 km/h (1 Bft) O 79 0 min 0,000 mm 0,0 UV-I 0 W/m 6,8 C 10,5 C 6,4 km/h (2 Bft) 100,00 %
01.07.2018 03:20 10,5 C 20,6 C 78 % 1015,4 hPa 0,0 l/m 4,7 km/h (1 Bft) O-NO 74 0 min 0,000 mm 0,0 UV-I 0 W/m 6,8 C 10,5 C 6,4 km/h (2 Bft) 100,00 %
01.07.2018 03:21 10,5 C 20,6 C 78 % 1015,4 hPa 0,0 l/m 5,0 km/h (1 Bft) O-NO 71 0 min 0,000 mm 0,0 UV-I 0 W/m 6,8 C 10,5 C 6,4 km/h (2 Bft) 100,00 %
01.07.2018 03:22 10,4 C 20,6 C 78 % 1015,3 hPa 0,0 l/m 3,0 km/h (1 Bft) O-NO 71 0 min 0,000 mm 0,0 UV-I 0 W/m 6,7 C 10,4 C 6,4 km/h (2 Bft) 100,00 %
01.07.2018 03:23 10,4 C 20,6 C 79 % 1015,3 hPa 0,0 l/m 3,1 km/h (1 Bft) O-NO 76 0 min 0,000 mm 0,0 UV-I 0 W/m 6,9 C 10,4 C 4,8 km/h (1 Bft) 100,00 %
01.07.2018 03:24 10,4 C 20,6 C 78 % 1015,3 hPa 0,0 l/m 4,4 km/h (1 Bft) O-NO 72 0 min 0,000 mm 0,0 UV-I 0 W/m 6,7 C 10,4 C 6,4 km/h (2 Bft) 100,00 %
01.07.2018 03:25 10,4 C 20,6 C 78 % 1015,3 hPa 0,0 l/m 4,5 km/h (1 Bft) O-NO 63 0 min 0,000 mm 0,0 UV-I 0 W/m 6,7 C 10,4 C 6,4 km/h (2 Bft) 100,00 %
01.07.2018 03:26 10,4 C 20,6 C 79 % 1015,3 hPa 0,0 l/m 5,4 km/h (1 Bft) NO 53 0 min 0,000 mm 0,0 UV-I 0 W/m 6,9 C 10,4 C 6,4 km/h (2 Bft) 100,00 %
01.07.2018 03:27 10,4 C 20,6 C 79 % 1015,3 hPa 0,0 l/m 4,8 km/h (1 Bft) NO 49 0 min 0,000 mm 0,0 UV-I 0 W/m 6,9 C 10,4 C 6,4 km/h (2 Bft) 100,00 %
01.07.2018 03:28 10,3 C 20,6 C 79 % 1015,3 hPa 0,0 l/m 4,8 km/h (1 Bft) O-NO 57 0 min 0,000 mm 0,0 UV-I 0 W/m 6,8 C 10,3 C 8,0 km/h (2 Bft) 96,15 %
01.07.2018 03:29 10,3 C 20,6 C 79 % 1015,4 hPa 0,0 l/m 4,3 km/h (1 Bft) O-NO 78 0 min 0,000 mm 0,0 UV-I 0 W/m 6,8 C 10,3 C 6,4 km/h (2 Bft) 100,00 %
01.07.2018 03:30 10,3 C 20,6 C 79 % 1015,3 hPa 0,0 l/m 4,1 km/h (1 Bft) O-NO 74 0 min 0,000 mm 0,0 UV-I 0 W/m 6,8 C 10,3 C 6,4 km/h (2 Bft) 100,00 %
01.07.2018 03:31 10,2 C 20,6 C 80 % 1015,4 hPa 0,0 l/m 4,6 km/h (1 Bft) O-NO 69 0 min 0,000 mm 0,0 UV-I 0 W/m 6,9 C 10,2 C 6,4 km/h (2 Bft) 100,00 %
01.07.2018 03:32 10,2 C 20,6 C 80 % 1015,3 hPa 0,0 l/m 4,4 km/h (1 Bft) O 82 0 min 0,000 mm 0,0 UV-I 0 W/m 6,9 C 10,2 C 4,8 km/h (1 Bft) 100,00 %
01.07.2018 03:33 10,1 C 20,6 C 80 % 1015,3 hPa 0,0 l/m 3,8 km/h (1 Bft) O-NO 68 0 min 0,000 mm 0,0 UV-I 0 W/m 6,8 C 10,1 C 4,8 km/h (1 Bft) 100,00 %
01.07.2018 03:34 10,1 C 20,6 C 80 % 1015,3 hPa 0,0 l/m 3,2 km/h (1 Bft) O-NO 69 0 min 0,000 mm 0,0 UV-I 0 W/m 6,8 C 10,1 C 4,8 km/h (1 Bft) 100,00 %
01.07.2018 03:35 10,1 C 20,6 C 80 % 1015,3 hPa 0,0 l/m 3,8 km/h (1 Bft) O-NO 59 0 min 0,000 mm 0,0 UV-I 0 W/m 6,8 C 10,1 C 6,4 km/h (2 Bft) 100,00 %
01.07.2018 03:36 10,1 C 20,6 C 80 % 1015,3 hPa 0,0 l/m 4,1 km/h (1 Bft) O-NO 74 0 min 0,000 mm 0,0 UV-I 0 W/m 6,8 C 10,1 C 4,8 km/h (1 Bft) 100,00 %
01.07.2018 03:37 10,0 C 20,6 C 80 % 1015,3 hPa 0,0 l/m 4,3 km/h (1 Bft) O-NO 76 0 min 0,000 mm 0,0 UV-I 0 W/m 6,7 C 10,0 C 6,4 km/h (2 Bft) 100,00 %
01.07.2018 03:38 10,0 C 20,6 C 81 % 1015,3 hPa 0,0 l/m 3,7 km/h (1 Bft) O-NO 76 0 min 0,000 mm 0,0 UV-I 0 W/m 6,9 C 10,0 C 4,8 km/h (1 Bft) 100,00 %
01.07.2018 03:39 10,0 C 20,6 C 81 % 1015,3 hPa 0,0 l/m 3,4 km/h (1 Bft) O 81 0 min 0,000 mm 0,0 UV-I 0 W/m 6,9 C 10,0 C 4,8 km/h (1 Bft) 100,00 %
01.07.2018 03:40 10,0 C 20,6 C 81 % 1015,2 hPa 0,0 l/m 3,8 km/h (1 Bft) O 80 0 min 0,000 mm 0,0 UV-I 0 W/m 6,9 C 10,0 C 4,8 km/h (1 Bft) 100,00 %
01.07.2018 03:41 10,1 C 20,6 C 81 % 1015,3 hPa 0,0 l/m 3,6 km/h (1 Bft) O 80 0 min 0,000 mm 0,0 UV-I 0 W/m 7,0 C 10,1 C 4,8 km/h (1 Bft) 100,00 %
01.07.2018 03:42 10,1 C 20,6 C 81 % 1015,2 hPa 0,0 l/m 3,4 km/h (1 Bft) O 80 0 min 0,000 mm 0,0 UV-I 0 W/m 7,0 C 10,1 C 4,8 km/h (1 Bft) 100,00 %
01.07.2018 03:43 10,0 C 20,6 C 80 % 1015,3 hPa 0,0 l/m 4,8 km/h (1 Bft) O 90 0 min 0,000 mm 0,0 UV-I 0 W/m 6,7 C 10,0 C 6,4 km/h (2 Bft) 100,00 %
01.07.2018 03:44 10,1 C 20,6 C 80 % 1015,2 hPa 0,0 l/m 2,7 km/h (1 Bft) O 90 0 min 0,000 mm 0,0 UV-I 0 W/m 6,8 C 10,1 C 3,2 km/h (1 Bft) 100,00 %
01.07.2018 03:45 10,1 C 20,6 C 80 % 1015,3 hPa 0,0 l/m 2,7 km/h (1 Bft) O 90 0 min 0,000 mm 0,0 UV-I 0 W/m 6,8 C 10,1 C 3,2 km/h (1 Bft) 100,00 %
01.07.2018 03:46 10,1 C 20,6 C 80 % 1015,3 hPa 0,0 l/m 2,8 km/h (1 Bft) O-NO 76 0 min 0,000 mm 0,0 UV-I 0 W/m 6,8 C 10,1 C 4,8 km/h (1 Bft) 100,00 %
01.07.2018 03:47 9,9 C 20,6 C 81 % 1015,3 hPa 0,0 l/m 3,5 km/h (1 Bft) O-NO 74 0 min 0,000 mm 0,0 UV-I 0 W/m 6,8 C 9,9 C 6,4 km/h (2 Bft) 100,00 %
01.07.2018 03:48 9,9 C 20,6 C 81 % 1015,3 hPa 0,0 l/m 3,4 km/h (1 Bft) O-NO 64 0 min 0,000 mm 0,0 UV-I 0 W/m 6,8 C 9,9 C 4,8 km/h (1 Bft) 100,00 %
01.07.2018 03:49 9,9 C 20,6 C 81 % 1015,2 hPa 0,0 l/m 2,7 km/h (1 Bft) O-NO 60 0 min 0,000 mm 0,0 UV-I 0 W/m 6,8 C 9,9 C 4,8 km/h (1 Bft) 100,00 %
01.07.2018 03:50 9,9 C 20,6 C 81 % 1015,2 hPa 0,0 l/m 3,4 km/h (1 Bft) O-NO 62 0 min 0,000 mm 0,0 UV-I 0 W/m 6,8 C 9,9 C 6,4 km/h (2 Bft) 95,83 %
01.07.2018 03:51 9,9 C 20,6 C 81 % 1015,2 hPa 0,0 l/m 4,0 km/h (1 Bft) O 79 0 min 0,000 mm 0,0 UV-I 0 W/m 6,8 C 9,9 C 4,8 km/h (1 Bft) 100,00 %
01.07.2018 03:52 9,9 C 20,6 C 81 % 1015,2 hPa 0,0 l/m 3,3 km/h (1 Bft) O 79 0 min 0,000 mm 0,0 UV-I 0 W/m 6,8 C 9,9 C 4,8 km/h (1 Bft) 100,00 %
01.07.2018 03:53 9,9 C 20,6 C 81 % 1015,2 hPa 0,0 l/m 3,9 km/h (1 Bft) O 79 0 min 0,000 mm 0,0 UV-I 0 W/m 6,8 C 9,9 C 4,8 km/h (1 Bft) 100,00 %
01.07.2018 03:54 9,9 C 20,6 C 81 % 1015,2 hPa 0,0 l/m 4,9 km/h (1 Bft) O 80 0 min 0,000 mm 0,0 UV-I 0 W/m 6,8 C 9,9 C 6,4 km/h (2 Bft) 100,00 %
01.07.2018 03:55 9,9 C 20,6 C 81 % 1015,1 hPa 0,0 l/m 3,5 km/h (1 Bft) O 83 0 min 0,000 mm 0,0 UV-I 0 W/m 6,8 C 9,9 C 4,8 km/h (1 Bft) 100,00 %
01.07.2018 03:56 10,0 C 20,6 C 80 % 1015,1 hPa 0,0 l/m 3,6 km/h (1 Bft) O 82 0 min 0,000 mm 0,0 UV-I 0 W/m 6,7 C 10,0 C 4,8 km/h (1 Bft) 100,00 %
01.07.2018 03:57 10,0 C 20,6 C 80 % 1015,2 hPa 0,0 l/m 3,0 km/h (1 Bft) O 82 0 min 0,000 mm 0,0 UV-I 0 W/m 6,7 C 10,0 C 4,8 km/h (1 Bft) 100,00 %
01.07.2018 03:58 10,0 C 20,6 C 80 % 1015,1 hPa 0,0 l/m 3,9 km/h (1 Bft) O 82 0 min 0,000 mm 0,0 UV-I 0 W/m 6,7 C 10,0 C 4,8 km/h (1 Bft) 98,11 %
01.07.2018 03:59 10,0 C 20,6 C 80 % 1015,2 hPa 0,0 l/m 3,8 km/h (1 Bft) O 89 0 min 0,000 mm 0,0 UV-I 0 W/m 6,7 C 10,0 C 4,8 km/h (1 Bft) 100,00 %
01.07.2018 04:00 10,1 C 20,6 C 80 % 1015,2 hPa 0,0 l/m 2,5 km/h (1 Bft) O 89 0 min 0,025 mm 0,0 UV-I 0 W/m 6,8 C 10,1 C 4,8 km/h (1 Bft) 100,00 %
01.07.2018 04:03 10,0 C 20,6 C 80 % 1015,2 hPa 0,0 l/m 4,4 km/h (1 Bft) O-NO 77 0 min 0,000 mm 0,0 UV-I 0 W/m 6,7 C 10,0 C 4,8 km/h (1 Bft) 95,24 %
01.07.2018 04:04 10,0 C 20,6 C 80 % 1015,2 hPa 0,0 l/m 3,0 km/h (1 Bft) O 90 0 min 0,000 mm 0,0 UV-I 0 W/m 6,7 C 10,0 C 4,8 km/h (1 Bft) 100,00 %
01.07.2018 04:05 10,0 C 20,6 C 80 % 1015,1 hPa 0,0 l/m 3,8 km/h (1 Bft) O-NO 74 0 min 0,000 mm 0,0 UV-I 0 W/m 6,7 C 10,0 C 4,8 km/h (1 Bft) 100,00 %
01.07.2018 04:06 10,0 C 20,6 C 80 % 1015,2 hPa 0,0 l/m 4,6 km/h (1 Bft) O 98 0 min 0,000 mm 0,0 UV-I 0 W/m 6,7 C 10,0 C 6,4 km/h (2 Bft) 100,00 %
01.07.2018 04:07 10,0 C 20,6 C 80 % 1015,2 hPa 0,0 l/m 5,0 km/h (1 Bft) O 96 0 min 0,000 mm 0,0 UV-I 0 W/m 6,7 C 10,0 C 6,4 km/h (2 Bft) 100,00 %
01.07.2018 04:08 9,9 C 20,6 C 80 % 1015,1 hPa 0,0 l/m 4,1 km/h (1 Bft) O 100 0 min 0,000 mm 0,0 UV-I 0 W/m 6,6 C 9,9 C 4,8 km/h (1 Bft) 100,00 %
01.07.2018 04:09 9,9 C 20,6 C 80 % 1015,1 hPa 0,0 l/m 3,6 km/h (1 Bft) O 99 0 min 0,000 mm 0,0 UV-I 0 W/m 6,6 C 9,9 C 4,8 km/h (1 Bft) 100,00 %
01.07.2018 04:10 10,0 C 20,6 C 80 % 1015,1 hPa 0,0 l/m 4,4 km/h (1 Bft) O-SO 106 0 min 0,000 mm 0,0 UV-I 0 W/m 6,7 C 10,0 C 6,4 km/h (2 Bft) 95,65 %
01.07.2018 04:11 9,9 C 20,6 C 80 % 1015,1 hPa 0,0 l/m 3,9 km/h (1 Bft) O 99 0 min 0,000 mm 0,0 UV-I 0 W/m 6,6 C 9,9 C 6,4 km/h (2 Bft) 100,00 %
01.07.2018 04:12 9,9 C 20,6 C 80 % 1015,1 hPa 0,0 l/m 4,7 km/h (1 Bft) O 93 0 min 0,000 mm 0,0 UV-I 0 W/m 6,6 C 9,9 C 6,4 km/h (2 Bft) 100,00 %
01.07.2018 04:13 9,9 C 20,6 C 80 % 1015,1 hPa 0,0 l/m 4,1 km/h (1 Bft) O 87 0 min 0,000 mm 0,0 UV-I 0 W/m 6,6 C 9,9 C 6,4 km/h (2 Bft) 100,00 %
01.07.2018 04:14 9,9 C 20,6 C 80 % 1015,1 hPa 0,0 l/m 3,5 km/h (1 Bft) O-NO 71 0 min 0,000 mm 0,0 UV-I 0 W/m 6,6 C 9,9 C 4,8 km/h (1 Bft) 100,00 %
01.07.2018 04:15 10,0 C 20,6 C 80 % 1015,1 hPa 0,0 l/m 3,0 km/h (1 Bft) O-NO 71 0 min 0,000 mm 0,0 UV-I 0 W/m 6,7 C 10,0 C 4,8 km/h (1 Bft) 100,00 %
01.07.2018 04:16 10,0 C 20,6 C 80 % 1015,1 hPa 0,0 l/m 3,4 km/h (1 Bft) O-SO 107 0 min 0,000 mm 0,0 UV-I 0 W/m 6,7 C 10,0 C 4,8 km/h (1 Bft) 100,00 %
01.07.2018 04:17 10,0 C 20,6 C 80 % 1015,1 hPa 0,0 l/m 3,2 km/h (1 Bft) O-SO 107 0 min 0,000 mm 0,0 UV-I 0 W/m 6,7 C 10,0 C 4,8 km/h (1 Bft) 96,15 %
01.07.2018 04:18 10,0 C 20,6 C 80 % 1015,1 hPa 0,0 l/m 3,2 km/h (1 Bft) O-SO 103 0 min 0,000 mm 0,0 UV-I 0 W/m 6,7 C 10,0 C 4,8 km/h (1 Bft) 100,00 %
01.07.2018 04:19 9,9 C 20,6 C 80 % 1015,1 hPa 0,0 l/m 3,8 km/h (1 Bft) O-SO 103 0 min 0,000 mm 0,0 UV-I 0 W/m 6,6 C 9,9 C 4,8 km/h (1 Bft) 96,15 %
01.07.2018 04:20 9,9 C 20,6 C 80 % 1015,1 hPa 0,0 l/m 3,4 km/h (1 Bft) O-SO 103 0 min 0,000 mm 0,0 UV-I 0 W/m 6,6 C 9,9 C 4,8 km/h (1 Bft) 100,00 %
01.07.2018 04:21 9,9 C 20,6 C 80 % 1015,1 hPa 0,0 l/m 3,2 km/h (1 Bft) O-SO 103 0 min 0,000 mm 0,0 UV-I 0 W/m 6,6 C 9,9 C 4,8 km/h (1 Bft) 100,00 %
01.07.2018 04:22 9,9 C 20,6 C 80 % 1015,1 hPa 0,0 l/m 3,6 km/h (1 Bft) O-NO 77 0 min 0,000 mm 0,0 UV-I 0 W/m 6,6 C 9,9 C 4,8 km/h (1 Bft) 100,00 %
01.07.2018 04:23 9,9 C 20,6 C 80 % 1015,2 hPa 0,0 l/m 3,7 km/h (1 Bft) O-NO 76 0 min 0,000 mm 0,0 UV-I 0 W/m 6,6 C 9,9 C 4,8 km/h (1 Bft) 100,00 %
01.07.2018 04:24 9,9 C 20,6 C 80 % 1015,2 hPa 0,0 l/m 3,0 km/h (1 Bft) O 89 0 min 0,000 mm 0,0 UV-I 0 W/m 6,6 C 9,9 C 4,8 km/h (1 Bft) 100,00 %
01.07.2018 04:25 9,8 C 20,6 C 80 % 1015,2 hPa 0,0 l/m 4,2 km/h (1 Bft) O-NO 72 0 min 0,000 mm 0,0 UV-I 0 W/m 6,5 C 9,8 C 4,8 km/h (1 Bft) 100,00 %
01.07.2018 04:26 9,9 C 20,6 C 80 % 1015,1 hPa 0,0 l/m 4,6 km/h (1 Bft) O-NO 78 0 min 0,000 mm 0,0 UV-I 0 W/m 6,6 C 9,9 C 6,4 km/h (2 Bft) 100,00 %
01.07.2018 04:27 9,9 C 20,6 C 80 % 1015,1 hPa 0,0 l/m 4,3 km/h (1 Bft) O-NO 70 0 min 0,000 mm 0,0 UV-I 0 W/m 6,6 C 9,9 C 6,4 km/h (2 Bft) 95,65 %
01.07.2018 04:28 10,0 C 20,6 C 80 % 1015,1 hPa 0,0 l/m 3,9 km/h (1 Bft) O-NO 71 0 min 0,000 mm 0,0 UV-I 0 W/m 6,7 C 10,0 C 4,8 km/h (1 Bft) 96,67 %
01.07.2018 04:29 10,0 C 20,6 C 80 % 1015,2 hPa 0,0 l/m 3,9 km/h (1 Bft) O-NO 74 0 min 0,000 mm 0,0 UV-I 0 W/m 6,7 C 10,0 C 6,4 km/h (2 Bft) 96,15 %
01.07.2018 04:30 10,0 C 20,6 C 79 % 1015,2 hPa 0,0 l/m 3,4 km/h (1 Bft) O 84 0 min 0,000 mm 0,0 UV-I 0 W/m 6,5 C 10,0 C 4,8 km/h (1 Bft) 95,83 %
01.07.2018 04:31 10,0 C 20,6 C 80 % 1015,2 hPa 0,0 l/m 4,3 km/h (1 Bft) O 87 0 min 0,000 mm 0,0 UV-I 0 W/m 6,7 C 10,0 C 6,4 km/h (2 Bft) 100,00 %
01.07.2018 04:32 9,9 C 20,6 C 80 % 1015,2 hPa 0,0 l/m 2,8 km/h (1 Bft) O 87 0 min 0,000 mm 0,0 UV-I 0 W/m 6,6 C 9,9 C 3,2 km/h (1 Bft) 95,65 %
01.07.2018 04:33 9,9 C 20,6 C 80 % 1015,2 hPa 0,0 l/m 2,7 km/h (1 Bft) O 80 0 min 0,000 mm 0,0 UV-I 0 W/m 6,6 C 9,9 C 4,8 km/h (1 Bft) 100,00 %
01.07.2018 04:34 9,9 C 20,6 C 80 % 1015,2 hPa 0,0 l/m 3,0 km/h (1 Bft) O 86 0 min 0,000 mm 0,0 UV-I 0 W/m 6,6 C 9,9 C 4,8 km/h (1 Bft) 95,65 %
01.07.2018 04:35 9,9 C 20,6 C 80 % 1015,2 hPa 0,0 l/m 3,9 km/h (1 Bft) O 97 0 min 0,000 mm 0,0 UV-I 0 W/m 6,6 C 9,9 C 4,8 km/h (1 Bft) 91,67 %
01.07.2018 04:36 9,8 C 20,6 C 80 % 1015,2 hPa 0,0 l/m 3,2 km/h (1 Bft) O 97 0 min 0,000 mm 0,0 UV-I 0 W/m 6,5 C 9,8 C 4,8 km/h (1 Bft) 100,00 %
01.07.2018 04:37 9,8 C 20,6 C 80 % 1015,3 hPa 0,0 l/m 3,3 km/h (1 Bft) O 96 0 min 0,000 mm 0,0 UV-I 0 W/m 6,5 C 9,8 C 4,8 km/h (1 Bft) 91,67 %
01.07.2018 04:38 9,7 C 20,6 C 81 % 1015,3 hPa 0,0 l/m 4,1 km/h (1 Bft) O 97 0 min 0,000 mm 0,0 UV-I 0 W/m 6,6 C 9,7 C 4,8 km/h (1 Bft) 95,65 %
01.07.2018 04:39 9,7 C 20,6 C 81 % 1015,3 hPa 0,0 l/m 3,2 km/h (1 Bft) O 97 0 min 0,000 mm 0,0 UV-I 0 W/m 6,6 C 9,7 C 4,8 km/h (1 Bft) 95,83 %
01.07.2018 04:40 9,7 C 20,6 C 81 % 1015,3 hPa 0,0 l/m 3,0 km/h (1 Bft) O 96 0 min 0,000 mm 0,0 UV-I 0 W/m 6,6 C 9,7 C 4,8 km/h (1 Bft) 95,65 %
01.07.2018 04:41 9,7 C 20,6 C 81 % 1015,3 hPa 0,0 l/m 3,8 km/h (1 Bft) O 96 0 min 0,000 mm 0,0 UV-I 0 W/m 6,6 C 9,7 C 6,4 km/h (2 Bft) 96,30 %
01.07.2018 04:42 9,7 C 20,6 C 81 % 1015,3 hPa 0,0 l/m 4,1 km/h (1 Bft) O 98 0 min 0,000 mm 0,0 UV-I 0 W/m 6,6 C 9,7 C 4,8 km/h (1 Bft) 95,65 %
01.07.2018 04:43 9,7 C 20,6 C 81 % 1015,3 hPa 0,0 l/m 3,9 km/h (1 Bft) O 97 0 min 0,000 mm 0,0 UV-I 0 W/m 6,6 C 9,7 C 6,4 km/h (2 Bft) 93,33 %
01.07.2018 04:44 9,6 C 20,6 C 81 % 1015,3 hPa 0,0 l/m 3,6 km/h (1 Bft) O 97 0 min 0,000 mm 0,0 UV-I 0 W/m 6,5 C 9,6 C 4,8 km/h (1 Bft) 96,15 %
01.07.2018 04:45 9,6 C 20,6 C 81 % 1015,3 hPa 0,0 l/m 3,1 km/h (1 Bft) O 96 0 min 0,000 mm 0,0 UV-I 0 W/m 6,5 C 9,6 C 4,8 km/h (1 Bft) 92,59 %
01.07.2018 04:46 9,6 C 20,6 C 81 % 1015,3 hPa 0,0 l/m 3,3 km/h (1 Bft) O 96 0 min 0,000 mm 0,0 UV-I 0 W/m 6,5 C 9,6 C 4,8 km/h (1 Bft) 92,31 %
01.07.2018 04:47 9,6 C 20,6 C 81 % 1015,3 hPa 0,0 l/m 3,1 km/h (1 Bft) O 94 0 min 0,000 mm 0,0 UV-I 0 W/m 6,5 C 9,6 C 3,2 km/h (1 Bft) 100,00 %
01.07.2018 04:48 9,6 C 20,6 C 81 % 1015,3 hPa 0,0 l/m 3,8 km/h (1 Bft) O 97 0 min 0,000 mm 0,0 UV-I 0 W/m 6,5 C 9,6 C 6,4 km/h (2 Bft) 92,31 %
01.07.2018 04:49 9,6 C 20,6 C 81 % 1015,3 hPa 0,0 l/m 4,5 km/h (1 Bft) O 93 0 min 0,000 mm 0,0 UV-I 3 W/m 6,5 C 9,6 C 6,4 km/h (2 Bft) 95,83 %
01.07.2018 04:50 9,6 C 20,6 C 81 % 1015,3 hPa 0,0 l/m 5,2 km/h (1 Bft) O 101 0 min 0,000 mm 0,0 UV-I 5 W/m 6,5 C 9,6 C 6,4 km/h (2 Bft) 95,83 %
01.07.2018 04:51 9,5 C 20,6 C 81 % 1015,3 hPa 0,0 l/m 5,3 km/h (1 Bft) O 99 0 min 0,000 mm 0,0 UV-I 5 W/m 6,4 C 9,5 C 6,4 km/h (2 Bft) 96,15 %
01.07.2018 04:52 9,5 C 20,6 C 82 % 1015,3 hPa 0,0 l/m 4,8 km/h (1 Bft) O-SO 103 0 min 0,000 mm 0,0 UV-I 5 W/m 6,6 C 9,5 C 6,4 km/h (2 Bft) 92,31 %
01.07.2018 04:53 9,5 C 20,6 C 82 % 1015,2 hPa 0,0 l/m 4,4 km/h (1 Bft) O 101 0 min 0,000 mm 0,0 UV-I 5 W/m 6,6 C 9,5 C 4,8 km/h (1 Bft) 95,83 %
01.07.2018 04:54 9,4 C 20,6 C 82 % 1015,3 hPa 0,0 l/m 4,4 km/h (1 Bft) O-SO 103 0 min 0,000 mm 0,0 UV-I 5 W/m 6,5 C 9,4 C 6,4 km/h (2 Bft) 91,30 %
01.07.2018 04:55 9,4 C 20,6 C 82 % 1015,2 hPa 0,0 l/m 4,9 km/h (1 Bft) O-SO 105 0 min 0,000 mm 0,0 UV-I 5 W/m 6,5 C 9,4 C 6,4 km/h (2 Bft) 96,30 %
01.07.2018 04:56 9,4 C 20,6 C 82 % 1015,2 hPa 0,0 l/m 5,0 km/h (1 Bft) O-SO 105 0 min 0,000 mm 0,0 UV-I 5 W/m 6,5 C 9,4 C 6,4 km/h (2 Bft) 100,00 %
01.07.2018 04:57 9,4 C 20,6 C 82 % 1015,2 hPa 0,0 l/m 4,7 km/h (1 Bft) O-SO 103 0 min 0,000 mm 0,0 UV-I 5 W/m 6,5 C 9,4 C 6,4 km/h (2 Bft) 92,86 %
01.07.2018 04:58 9,4 C 20,6 C 82 % 1015,2 hPa 0,0 l/m 5,0 km/h (1 Bft) O 96 0 min 0,000 mm 0,0 UV-I 5 W/m 6,5 C 9,4 C 6,4 km/h (2 Bft) 95,24 %
01.07.2018 04:59 9,5 C 20,6 C 82 % 1015,3 hPa 0,0 l/m 3,6 km/h (1 Bft) O 96 0 min 0,000 mm 0,0 UV-I 6 W/m 6,6 C 9,5 C 4,8 km/h (1 Bft) 95,65 %
01.07.2018 05:00 9,5 C 20,6 C 82 % 1015,3 hPa 0,0 l/m 4,8 km/h (1 Bft) O-SO 103 0 min 0,000 mm 0,0 UV-I 7 W/m 6,6 C 9,5 C 6,4 km/h (2 Bft) 95,83 %
01.07.2018 05:01 9,5 C 20,6 C 82 % 1015,3 hPa 0,0 l/m 5,5 km/h (1 Bft) O 97 0 min 0,000 mm 0,0 UV-I 7 W/m 6,6 C 9,5 C 6,4 km/h (2 Bft) 92,31 %
01.07.2018 05:02 9,4 C 20,6 C 82 % 1015,2 hPa 0,0 l/m 5,4 km/h (1 Bft) O-SO 111 0 min 0,000 mm 0,0 UV-I 7 W/m 6,5 C 9,4 C 6,4 km/h (2 Bft) 96,87 %
01.07.2018 05:03 9,4 C 20,6 C 82 % 1015,2 hPa 0,0 l/m 5,8 km/h (2 Bft) O-SO 105 0 min 0,000 mm 0,0 UV-I 7 W/m 6,5 C 9,4 C 9,7 km/h (2 Bft) 97,37 %
01.07.2018 05:04 9,4 C 20,6 C 82 % 1015,2 hPa 0,0 l/m 5,0 km/h (1 Bft) O 96 0 min 0,000 mm 0,0 UV-I 7 W/m 6,5 C 9,4 C 6,4 km/h (2 Bft) 95,83 %
01.07.2018 05:05 9,4 C 20,6 C 82 % 1015,2 hPa 0,0 l/m 5,4 km/h (1 Bft) O-SO 103 0 min 0,000 mm 0,0 UV-I 7 W/m 6,5 C 9,4 C 9,7 km/h (2 Bft) 91,30 %
01.07.2018 05:06 9,4 C 20,6 C 82 % 1015,2 hPa 0,0 l/m 5,1 km/h (1 Bft) O-SO 105 0 min 0,000 mm 0,0 UV-I 7 W/m 6,5 C 9,4 C 6,4 km/h (2 Bft) 95,83 %
01.07.2018 05:07 9,4 C 20,6 C 82 % 1015,2 hPa 0,0 l/m 4,8 km/h (1 Bft) O 93 0 min 0,000 mm 0,0 UV-I 8 W/m 6,5 C 9,4 C 6,4 km/h (2 Bft) 92,31 %
01.07.2018 05:08 9,4 C 20,6 C 82 % 1015,2 hPa 0,0 l/m 4,6 km/h (1 Bft) O 99 0 min 0,000 mm 0,0 UV-I 9 W/m 6,5 C 9,4 C 6,4 km/h (2 Bft) 95,83 %
01.07.2018 05:09 9,5 C 20,6 C 82 % 1015,2 hPa 0,0 l/m 5,1 km/h (1 Bft) O 97 0 min 0,000 mm 0,0 UV-I 9 W/m 6,6 C 9,5 C 6,4 km/h (2 Bft) 100,00 %
01.07.2018 05:10 9,5 C 20,6 C 82 % 1015,2 hPa 0,0 l/m 4,6 km/h (1 Bft) O 92 0 min 0,000 mm 0,0 UV-I 9 W/m 6,6 C 9,5 C 6,4 km/h (2 Bft) 95,83 %
01.07.2018 05:11 9,5 C 20,6 C 82 % 1015,2 hPa 0,0 l/m 5,2 km/h (1 Bft) O 93 0 min 0,000 mm 0,0 UV-I 10 W/m 6,6 C 9,5 C 6,4 km/h (2 Bft) 95,65 %
01.07.2018 05:12 9,5 C 20,6 C 82 % 1015,3 hPa 0,0 l/m 4,5 km/h (1 Bft) O 90 0 min 0,000 mm 0,0 UV-I 11 W/m 6,6 C 9,5 C 4,8 km/h (1 Bft) 94,44 %
01.07.2018 05:13 9,5 C 20,6 C 82 % 1015,3 hPa 0,0 l/m 3,8 km/h (1 Bft) O 97 0 min 0,000 mm 0,0 UV-I 11 W/m 6,6 C 9,5 C 6,4 km/h (2 Bft) 100,00 %
01.07.2018 05:14 9,6 C 20,6 C 81 % 1015,3 hPa 0,0 l/m 4,6 km/h (1 Bft) O 92 0 min 0,000 mm 0,0 UV-I 11 W/m 6,5 C 9,6 C 6,4 km/h (2 Bft) 96,15 %
01.07.2018 05:15 9,6 C 20,6 C 82 % 1015,3 hPa 0,0 l/m 3,4 km/h (1 Bft) O 94 0 min 0,000 mm 0,0 UV-I 11 W/m 6,7 C 9,6 C 4,8 km/h (1 Bft) 100,00 %
01.07.2018 05:16 9,6 C 20,6 C 82 % 1015,3 hPa 0,0 l/m 4,2 km/h (1 Bft) O 86 0 min 0,000 mm 0,0 UV-I 12 W/m 6,7 C 9,6 C 6,4 km/h (2 Bft) 94,12 %
01.07.2018 05:17 9,6 C 20,6 C 82 % 1015,3 hPa 0,0 l/m 3,0 km/h (1 Bft) O 88 0 min 0,000 mm 0,0 UV-I 12 W/m 6,7 C 9,6 C 4,8 km/h (1 Bft) 100,00 %
01.07.2018 05:18 9,6 C 20,6 C 81 % 1015,3 hPa 0,0 l/m 3,6 km/h (1 Bft) O 91 0 min 0,000 mm 0,0 UV-I 12 W/m 6,5 C 9,6 C 4,8 km/h (1 Bft) 95,65 %
01.07.2018 05:19 9,6 C 20,6 C 82 % 1015,3 hPa 0,0 l/m 3,7 km/h (1 Bft) O-NO 61 0 min 0,000 mm 0,0 UV-I 14 W/m 6,7 C 9,6 C 6,4 km/h (2 Bft) 100,00 %
01.07.2018 05:20 9,6 C 20,6 C 82 % 1015,3 hPa 0,0 l/m 3,1 km/h (1 Bft) O-NO 72 1 min 0,000 mm 0,0 UV-I 18 W/m 6,7 C 9,6 C 4,8 km/h (1 Bft) 95,65 %
01.07.2018 05:21 9,6 C 20,6 C 81 % 1015,3 hPa 0,0 l/m 3,4 km/h (1 Bft) O 94 1 min 0,000 mm 0,0 UV-I 19 W/m 6,5 C 9,6 C 4,8 km/h (1 Bft) 100,00 %
01.07.2018 05:22 9,5 C 20,6 C 82 % 1015,3 hPa 0,0 l/m 3,3 km/h (1 Bft) O 95 1 min 0,000 mm 0,0 UV-I 19 W/m 6,6 C 9,5 C 4,8 km/h (1 Bft) 100,00 %
01.07.2018 05:23 9,5 C 20,6 C 82 % 1015,3 hPa 0,0 l/m 4,7 km/h (1 Bft) O 94 1 min 0,000 mm 0,0 UV-I 21 W/m 6,6 C 9,5 C 4,8 km/h (1 Bft) 100,00 %
01.07.2018 05:24 9,5 C 20,6 C 82 % 1015,3 hPa 0,0 l/m 4,4 km/h (1 Bft) O 94 1 min 0,000 mm 0,0 UV-I 22 W/m 6,6 C 9,5 C 6,4 km/h (2 Bft) 100,00 %
01.07.2018 05:25 9,5 C 20,6 C 82 % 1015,3 hPa 0,0 l/m 3,7 km/h (1 Bft) O 94 1 min 0,000 mm 0,0 UV-I 23 W/m 6,6 C 9,5 C 4,8 km/h (1 Bft) 100,00 %
01.07.2018 05:26 9,4 C 20,6 C 82 % 1015,3 hPa 0,0 l/m 3,4 km/h (1 Bft) O 94 1 min 0,000 mm 0,0 UV-I 25 W/m 6,5 C 9,4 C 4,8 km/h (1 Bft) 100,00 %
01.07.2018 05:27 9,4 C 20,0 C 82 % 1015,3 hPa 0,0 l/m 3,2 km/h (1 Bft) O-SO 121 1 min 0,000 mm 0,0 UV-I 26 W/m 6,5 C 9,4 C 4,8 km/h (1 Bft) 100,00 %
01.07.2018 05:28 9,4 C 20,0 C 82 % 1015,3 hPa 0,0 l/m 3,3 km/h (1 Bft) O 101 1 min 0,000 mm 0,0 UV-I 26 W/m 6,5 C 9,4 C 4,8 km/h (1 Bft) 100,00 %
01.07.2018 05:29 9,4 C 20,0 C 82 % 1015,3 hPa 0,0 l/m 2,6 km/h (1 Bft) O 101 1 min 0,000 mm 0,0 UV-I 29 W/m 6,5 C 9,4 C 4,8 km/h (1 Bft) 100,00 %
01.07.2018 05:30 9,5 C 20,0 C 82 % 1015,3 hPa 0,0 l/m 2,8 km/h (1 Bft) O 101 1 min 0,000 mm 0,0 UV-I 31 W/m 6,6 C 9,5 C 4,8 km/h (1 Bft) 100,00 %
01.07.2018 05:31 9,4 C 20,0 C 82 % 1015,3 hPa 0,0 l/m 2,1 km/h (1 Bft) O 101 1 min 0,000 mm 0,0 UV-I 32 W/m 6,5 C 9,4 C 4,8 km/h (1 Bft) 100,00 %
01.07.2018 05:32 9,4 C 20,0 C 82 % 1015,3 hPa 0,0 l/m 2,8 km/h (1 Bft) O 100 1 min 0,000 mm 0,0 UV-I 33 W/m 6,5 C 9,4 C 4,8 km/h (1 Bft) 100,00 %
01.07.2018 05:33 9,4 C 20,0 C 82 % 1015,3 hPa 0,0 l/m 1,9 km/h (1 Bft) O 100 1 min 0,000 mm 0,0 UV-I 35 W/m 6,5 C 9,4 C 3,2 km/h (1 Bft) 100,00 %
01.07.2018 05:34 9,5 C 20,0 C 82 % 1015,3 hPa 0,0 l/m 2,6 km/h (1 Bft) O 100 1 min 0,000 mm 0,0 UV-I 38 W/m 6,6 C 9,5 C 4,8 km/h (1 Bft) 95,65 %
01.07.2018 05:35 9,4 C 20,0 C 82 % 1015,3 hPa 0,0 l/m 2,1 km/h (1 Bft) O 100 1 min 0,000 mm 0,0 UV-I 39 W/m 6,5 C 9,4 C 3,2 km/h (1 Bft) 100,00 %
01.07.2018 05:36 9,4 C 20,0 C 82 % 1015,3 hPa 0,0 l/m 2,8 km/h (1 Bft) O 100 1 min 0,000 mm 0,0 UV-I 40 W/m 6,5 C 9,4 C 4,8 km/h (1 Bft) 100,00 %
01.07.2018 05:37 9,4 C 20,0 C 82 % 1015,4 hPa 0,0 l/m 3,1 km/h (1 Bft) O 100 1 min 0,000 mm 0,0 UV-I 42 W/m 6,5 C 9,4 C 4,8 km/h (1 Bft) 100,00 %
01.07.2018 05:38 9,4 C 20,0 C 82 % 1015,3 hPa 0,0 l/m 4,0 km/h (1 Bft) O 98 1 min 0,000 mm 0,0 UV-I 44 W/m 6,5 C 9,4 C 4,8 km/h (1 Bft) 100,00 %
01.07.2018 05:39 9,4 C 20,0 C 82 % 1015,4 hPa 0,0 l/m 3,5 km/h (1 Bft) O 93 1 min 0,000 mm 0,0 UV-I 46 W/m 6,5 C 9,4 C 4,8 km/h (1 Bft) 100,00 %
01.07.2018 05:40 9,4 C 20,0 C 82 % 1015,4 hPa 0,0 l/m 4,3 km/h (1 Bft) O 92 1 min 0,000 mm 0,0 UV-I 48 W/m 6,5 C 9,4 C 4,8 km/h (1 Bft) 100,00 %
01.07.2018 05:41 9,5 C 20,0 C 82 % 1015,3 hPa 0,0 l/m 3,9 km/h (1 Bft) O 82 1 min 0,000 mm 0,0 UV-I 49 W/m 6,6 C 9,5 C 6,4 km/h (2 Bft) 100,00 %
01.07.2018 05:42 9,5 C 20,0 C 82 % 1015,3 hPa 0,0 l/m 4,6 km/h (1 Bft) O 81 1 min 0,000 mm 0,0 UV-I 51 W/m 6,6 C 9,5 C 6,4 km/h (2 Bft) 100,00 %
01.07.2018 05:43 9,5 C 20,0 C 82 % 1015,3 hPa 0,0 l/m 2,6 km/h (1 Bft) O 81 1 min 0,000 mm 0,0 UV-I 52 W/m 6,6 C 9,5 C 4,8 km/h (1 Bft) 100,00 %
01.07.2018 05:44 9,5 C 20,0 C 82 % 1015,3 hPa 0,0 l/m 3,1 km/h (1 Bft) O 81 1 min 0,000 mm 0,0 UV-I 54 W/m 6,6 C 9,5 C 4,8 km/h (1 Bft) 100,00 %
01.07.2018 05:45 9,5 C 20,0 C 82 % 1015,4 hPa 0,0 l/m 3,1 km/h (1 Bft) O 81 1 min 0,000 mm 0,0 UV-I 57 W/m 6,6 C 9,5 C 4,8 km/h (1 Bft) 100,00 %
01.07.2018 05:46 9,5 C 20,0 C 82 % 1015,4 hPa 0,0 l/m 2,4 km/h (1 Bft) O 81 1 min 0,000 mm 0,0 UV-I 59 W/m 6,6 C 9,5 C 4,8 km/h (1 Bft) 100,00 %
01.07.2018 05:47 9,5 C 20,0 C 82 % 1015,4 hPa 0,0 l/m 2,4 km/h (1 Bft) O 81 1 min 0,000 mm 0,0 UV-I 61 W/m 6,6 C 9,5 C 3,2 km/h (1 Bft) 100,00 %
01.07.2018 05:48 9,5 C 20,0 C 82 % 1015,3 hPa 0,0 l/m 2,6 km/h (1 Bft) O 82 1 min 0,000 mm 0,0 UV-I 63 W/m 6,6 C 9,5 C 4,8 km/h (1 Bft) 100,00 %
01.07.2018 05:49 9,5 C 20,0 C 82 % 1015,4 hPa 0,0 l/m 2,7 km/h (1 Bft) O 82 1 min 0,000 mm 0,0 UV-I 63 W/m 6,6 C 9,5 C 3,2 km/h (1 Bft) 100,00 %
01.07.2018 05:50 9,5 C 20,0 C 82 % 1015,3 hPa 0,0 l/m 3,1 km/h (1 Bft) O 83 1 min 0,000 mm 0,0 UV-I 63 W/m 6,6 C 9,5 C 6,4 km/h (2 Bft) 100,00 %
01.07.2018 05:51 9,6 C 20,0 C 82 % 1015,3 hPa 0,0 l/m 4,5 km/h (1 Bft) O 96 1 min 0,000 mm 0,0 UV-I 66 W/m 6,7 C 9,6 C 6,4 km/h (2 Bft) 100,00 %
01.07.2018 05:52 9,6 C 20,0 C 82 % 1015,4 hPa 0,0 l/m 4,5 km/h (1 Bft) O 101 1 min 0,000 mm 0,0 UV-I 68 W/m 6,7 C 9,6 C 6,4 km/h (2 Bft) 100,00 %
01.07.2018 05:53 9,6 C 20,0 C 82 % 1015,4 hPa 0,0 l/m 5,3 km/h (1 Bft) O 84 1 min 0,000 mm 0,0 UV-I 71 W/m 6,7 C 9,6 C 9,7 km/h (2 Bft) 100,00 %
01.07.2018 05:54 9,6 C 20,0 C 82 % 1015,4 hPa 0,0 l/m 3,6 km/h (1 Bft) O-NO 59 1 min 0,000 mm 0,0 UV-I 75 W/m 6,7 C 9,6 C 4,8 km/h (1 Bft) 100,00 %
01.07.2018 05:55 9,6 C 20,0 C 82 % 1015,4 hPa 0,0 l/m 3,2 km/h (1 Bft) O-NO 78 1 min 0,000 mm 0,0 UV-I 77 W/m 6,7 C 9,6 C 4,8 km/h (1 Bft) 95,83 %
01.07.2018 05:56 9,6 C 20,0 C 82 % 1015,4 hPa 0,0 l/m 3,8 km/h (1 Bft) O 80 1 min 0,000 mm 0,0 UV-I 79 W/m 6,7 C 9,6 C 4,8 km/h (1 Bft) 93,75 %
01.07.2018 05:57 9,6 C 20,0 C 82 % 1015,4 hPa 0,0 l/m 3,7 km/h (1 Bft) O 80 1 min 0,000 mm 0,0 UV-I 81 W/m 6,7 C 9,6 C 6,4 km/h (2 Bft) 100,00 %
01.07.2018 05:58 9,6 C 20,0 C 82 % 1015,4 hPa 0,0 l/m 4,6 km/h (1 Bft) O 80 1 min 0,000 mm 0,0 UV-I 83 W/m 6,7 C 9,6 C 6,4 km/h (2 Bft) 100,00 %
01.07.2018 05:59 9,6 C 20,0 C 82 % 1015,4 hPa 0,0 l/m 5,4 km/h (1 Bft) O 96 1 min 0,000 mm 0,0 UV-I 85 W/m 6,7 C 9,6 C 6,4 km/h (2 Bft) 100,00 %
01.07.2018 06:00 9,6 C 20,0 C 82 % 1015,4 hPa 0,0 l/m 4,7 km/h (1 Bft) O-NO 72 1 min 0,025 mm 0,0 UV-I 87 W/m 6,7 C 9,6 C 6,4 km/h (2 Bft) 100,00 %
01.07.2018 06:01 9,6 C 20,0 C 82 % 1015,4 hPa 0,0 l/m 3,6 km/h (1 Bft) O-NO 73 1 min 0,000 mm 0,0 UV-I 90 W/m 6,7 C 9,6 C 4,8 km/h (1 Bft) 100,00 %
01.07.2018 06:02 9,6 C 20,0 C 82 % 1015,4 hPa 0,0 l/m 4,1 km/h (1 Bft) O-NO 78 1 min 0,000 mm 0,0 UV-I 91 W/m 6,7 C 9,6 C 4,8 km/h (1 Bft) 100,00 %
01.07.2018 06:03 9,6 C 20,0 C 83 % 1015,4 hPa 0,0 l/m 4,3 km/h (1 Bft) O 81 1 min 0,000 mm 0,0 UV-I 94 W/m 6,9 C 9,6 C 6,4 km/h (2 Bft) 100,00 %
01.07.2018 06:04 9,6 C 20,0 C 83 % 1015,4 hPa 0,0 l/m 5,0 km/h (1 Bft) O-NO 74 1 min 0,000 mm 0,0 UV-I 96 W/m 6,9 C 9,6 C 8,0 km/h (2 Bft) 100,00 %
01.07.2018 06:05 9,6 C 20,0 C 83 % 1015,4 hPa 0,0 l/m 4,0 km/h (1 Bft) O 95 1 min 0,000 mm 0,0 UV-I 98 W/m 6,9 C 9,6 C 6,4 km/h (2 Bft) 100,00 %
01.07.2018 06:06 9,6 C 20,0 C 83 % 1015,4 hPa 0,0 l/m 4,6 km/h (1 Bft) O 90 1 min 0,000 mm 0,0 UV-I 100 W/m 6,9 C 9,6 C 6,4 km/h (2 Bft) 100,00 %
01.07.2018 06:07 9,6 C 20,0 C 83 % 1015,4 hPa 0,0 l/m 4,8 km/h (1 Bft) O 90 1 min 0,000 mm 0,0 UV-I 102 W/m 6,9 C 9,6 C 6,4 km/h (2 Bft) 100,00 %
01.07.2018 06:08 9,7 C 20,0 C 83 % 1015,4 hPa 0,0 l/m 5,2 km/h (1 Bft) O 88 1 min 0,000 mm 0,0 UV-I 104 W/m 7,0 C 9,7 C 6,4 km/h (2 Bft) 100,00 %
01.07.2018 06:09 9,7 C 20,0 C 83 % 1015,4 hPa 0,0 l/m 5,0 km/h (1 Bft) O 84 1 min 0,000 mm 0,0 UV-I 106 W/m 7,0 C 9,7 C 9,7 km/h (2 Bft) 100,00 %
01.07.2018 06:10 9,7 C 20,0 C 83 % 1015,4 hPa 0,0 l/m 5,2 km/h (1 Bft) O-NO 78 1 min 0,000 mm 0,0 UV-I 108 W/m 7,0 C 9,7 C 6,4 km/h (2 Bft) 100,00 %
01.07.2018 06:11 9,7 C 20,0 C 82 % 1015,4 hPa 0,0 l/m 5,0 km/h (1 Bft) O 94 1 min 0,000 mm 0,0 UV-I 110 W/m 6,8 C 9,7 C 6,4 km/h (2 Bft) 100,00 %
01.07.2018 06:12 9,7 C 20,0 C 83 % 1015,4 hPa 0,0 l/m 4,7 km/h (1 Bft) O-NO 75 1 min 0,000 mm 0,0 UV-I 112 W/m 7,0 C 9,7 C 6,4 km/h (2 Bft) 100,00 %
01.07.2018 06:13 9,8 C 20,0 C 82 % 1015,4 hPa 0,0 l/m 3,8 km/h (1 Bft) O-NO 74 1 min 0,000 mm 0,0 UV-I 114 W/m 6,9 C 9,8 C 4,8 km/h (1 Bft) 100,00 %
01.07.2018 06:14 9,8 C 20,0 C 83 % 1015,4 hPa 0,0 l/m 4,1 km/h (1 Bft) O-NO 71 1 min 0,000 mm 0,0 UV-I 117 W/m 7,1 C 9,8 C 6,4 km/h (2 Bft) 100,00 %
01.07.2018 06:15 9,8 C 20,0 C 83 % 1015,4 hPa 0,0 l/m 4,4 km/h (1 Bft) O-NO 76 1 min 0,000 mm 0,0 UV-I 119 W/m 7,1 C 9,8 C 4,8 km/h (1 Bft) 100,00 %
01.07.2018 06:16 9,8 C 20,0 C 83 % 1015,4 hPa 0,0 l/m 4,2 km/h (1 Bft) O-NO 76 1 min 0,000 mm 0,0 UV-I 122 W/m 7,1 C 9,8 C 4,8 km/h (1 Bft) 100,00 %
01.07.2018 06:17 9,8 C 20,0 C 83 % 1015,4 hPa 0,0 l/m 4,4 km/h (1 Bft) O-NO 76 1 min 0,000 mm 0,0 UV-I 124 W/m 7,1 C 9,8 C 4,8 km/h (1 Bft) 100,00 %
01.07.2018 06:18 9,8 C 20,0 C 83 % 1015,4 hPa 0,0 l/m 3,5 km/h (1 Bft) O-NO 76 1 min 0,000 mm 0,0 UV-I 127 W/m 7,1 C 9,8 C 4,8 km/h (1 Bft) 100,00 %
01.07.2018 06:19 9,9 C 20,0 C 83 % 1015,4 hPa 0,0 l/m 3,3 km/h (1 Bft) O-NO 76 1 min 0,000 mm 0,0 UV-I 128 W/m 7,2 C 9,9 C 4,8 km/h (1 Bft) 100,00 %
01.07.2018 06:20 9,9 C 20,0 C 83 % 1015,4 hPa 0,0 l/m 3,3 km/h (1 Bft) O 83 1 min 0,000 mm 0,0 UV-I 130 W/m 7,2 C 9,9 C 4,8 km/h (1 Bft) 100,00 %
01.07.2018 06:21 9,9 C 20,0 C 83 % 1015,4 hPa 0,0 l/m 4,0 km/h (1 Bft) O 84 1 min 0,000 mm 0,0 UV-I 133 W/m 7,2 C 9,9 C 4,8 km/h (1 Bft) 100,00 %
01.07.2018 06:22 9,9 C 20,0 C 83 % 1015,4 hPa 0,0 l/m 3,2 km/h (1 Bft) O 84 1 min 0,000 mm 0,0 UV-I 136 W/m 7,2 C 9,9 C 6,4 km/h (2 Bft) 100,00 %
01.07.2018 06:23 9,9 C 20,0 C 83 % 1015,4 hPa 0,0 l/m 3,4 km/h (1 Bft) O 86 1 min 0,000 mm 0,0 UV-I 138 W/m 7,2 C 9,9 C 4,8 km/h (1 Bft) 100,00 %
01.07.2018 06:24 10,0 C 20,0 C 83 % 1015,4 hPa 0,0 l/m 3,9 km/h (1 Bft) O 88 1 min 0,000 mm 0,0 UV-I 141 W/m 7,2 C 10,0 C 6,4 km/h (2 Bft) 100,00 %
01.07.2018 06:25 10,1 C 20,0 C 83 % 1015,4 hPa 0,0 l/m 2,9 km/h (1 Bft) O 88 1 min 0,000 mm 0,0 UV-I 142 W/m 7,3 C 10,1 C 4,8 km/h (1 Bft) 100,00 %
01.07.2018 06:26 10,1 C 20,0 C 83 % 1015,5 hPa 0,0 l/m 2,7 km/h (1 Bft) O 88 1 min 0,000 mm 0,0 UV-I 144 W/m 7,3 C 10,1 C 4,8 km/h (1 Bft) 100,00 %
01.07.2018 06:27 10,1 C 20,0 C 83 % 1015,5 hPa 0,0 l/m 2,7 km/h (1 Bft) O 88 1 min 0,000 mm 0,0 UV-I 147 W/m 7,3 C 10,1 C 3,2 km/h (1 Bft) 100,00 %
01.07.2018 06:28 10,2 C 20,0 C 83 % 1015,5 hPa 0,0 l/m 4,6 km/h (1 Bft) O 82 1 min 0,000 mm 0,0 UV-I 150 W/m 7,4 C 10,2 C 6,4 km/h (2 Bft) 100,00 %
01.07.2018 06:29 10,2 C 20,0 C 82 % 1015,5 hPa 0,0 l/m 2,6 km/h (1 Bft) O 83 1 min 0,000 mm 0,0 UV-I 153 W/m 7,3 C 10,2 C 3,2 km/h (1 Bft) 100,00 %
01.07.2018 06:30 10,2 C 20,0 C 82 % 1015,5 hPa 0,0 l/m 3,5 km/h (1 Bft) O 82 1 min 0,000 mm 0,0 UV-I 155 W/m 7,3 C 10,2 C 4,8 km/h (1 Bft) 100,00 %
01.07.2018 06:31 10,2 C 20,0 C 82 % 1015,5 hPa 0,0 l/m 2,9 km/h (1 Bft) O 82 1 min 0,000 mm 0,0 UV-I 156 W/m 7,3 C 10,2 C 4,8 km/h (1 Bft) 100,00 %
01.07.2018 06:33 10,3 C 20,0 C 81 % 1015,5 hPa 0,0 l/m 3,8 km/h (1 Bft) O 84 2 min 0,000 mm 0,0 UV-I 162 W/m 7,2 C 10,3 C 4,8 km/h (1 Bft) 100,00 %
01.07.2018 06:34 10,3 C 20,0 C 81 % 1015,5 hPa 0,0 l/m 2,3 km/h (1 Bft) O 84 1 min 0,000 mm 0,0 UV-I 164 W/m 7,2 C 10,3 C 4,8 km/h (1 Bft) 100,00 %
01.07.2018 06:35 10,3 C 20,0 C 81 % 1015,5 hPa 0,0 l/m 3,4 km/h (1 Bft) O-NO 78 1 min 0,000 mm 0,0 UV-I 166 W/m 7,2 C 10,3 C 6,4 km/h (2 Bft) 100,00 %
01.07.2018 06:36 10,4 C 20,0 C 81 % 1015,5 hPa 0,0 l/m 2,6 km/h (1 Bft) O-NO 78 1 min 0,000 mm 0,0 UV-I 169 W/m 7,3 C 10,4 C 4,8 km/h (1 Bft) 100,00 %
01.07.2018 06:37 10,4 C 20,0 C 81 % 1015,5 hPa 0,0 l/m 2,2 km/h (1 Bft) O-NO 78 1 min 0,000 mm 0,0 UV-I 172 W/m 7,3 C 10,4 C 3,2 km/h (1 Bft) 100,00 %
01.07.2018 06:38 10,4 C 20,0 C 81 % 1015,6 hPa 0,0 l/m 4,4 km/h (1 Bft) O-NO 74 1 min 0,000 mm 0,0 UV-I 175 W/m 7,3 C 10,4 C 6,4 km/h (2 Bft) 100,00 %
01.07.2018 06:39 10,4 C 20,0 C 81 % 1015,6 hPa 0,0 l/m 4,0 km/h (1 Bft) O 83 1 min 0,000 mm 0,0 UV-I 177 W/m 7,3 C 10,4 C 6,4 km/h (2 Bft) 100,00 %
01.07.2018 06:40 10,4 C 20,0 C 80 % 1015,6 hPa 0,0 l/m 3,4 km/h (1 Bft) O-NO 68 1 min 0,000 mm 0,0 UV-I 180 W/m 7,1 C 10,4 C 8,0 km/h (2 Bft) 100,00 %
01.07.2018 06:41 10,5 C 20,0 C 80 % 1015,6 hPa 0,0 l/m 6,9 km/h (2 Bft) O-NO 58 1 min 0,000 mm 0,0 UV-I 182 W/m 7,2 C 10,2 C 9,7 km/h (2 Bft) 100,00 %
01.07.2018 06:42 10,6 C 20,0 C 80 % 1015,6 hPa 0,0 l/m 6,0 km/h (2 Bft) O 91 1 min 0,000 mm 0,0 UV-I 185 W/m 7,3 C 10,6 C 8,0 km/h (2 Bft) 100,00 %
01.07.2018 06:43 10,6 C 20,0 C 80 % 1015,6 hPa 0,0 l/m 6,8 km/h (2 Bft) O 92 1 min 0,000 mm 0,0 UV-I 188 W/m 7,3 C 10,3 C 9,7 km/h (2 Bft) 100,00 %
01.07.2018 06:44 10,6 C 20,0 C 80 % 1015,6 hPa 0,0 l/m 6,8 km/h (2 Bft) O 81 1 min 0,000 mm 0,0 UV-I 191 W/m 7,3 C 10,3 C 11,3 km/h (2 Bft) 100,00 %
01.07.2018 06:45 10,7 C 20,0 C 80 % 1015,6 hPa 0,0 l/m 7,6 km/h (2 Bft) O-NO 67 1 min 0,000 mm 0,0 UV-I 193 W/m 7,4 C 9,9 C 11,3 km/h (2 Bft) 100,00 %
01.07.2018 06:46 10,7 C 20,0 C 79 % 1015,6 hPa 0,0 l/m 6,4 km/h (2 Bft) O-NO 69 1 min 0,000 mm 0,0 UV-I 196 W/m 7,2 C 10,7 C 8,0 km/h (2 Bft) 100,00 %
01.07.2018 06:47 10,7 C 20,0 C 79 % 1015,6 hPa 0,0 l/m 6,0 km/h (2 Bft) O-NO 70 1 min 0,000 mm 0,0 UV-I 198 W/m 7,2 C 10,7 C 8,0 km/h (2 Bft) 100,00 %
01.07.2018 06:48 10,8 C 20,0 C 79 % 1015,6 hPa 0,0 l/m 5,2 km/h (1 Bft) O 83 1 min 0,000 mm 0,0 UV-I 200 W/m 7,3 C 10,8 C 6,4 km/h (2 Bft) 100,00 %
01.07.2018 06:49 10,8 C 20,0 C 79 % 1015,6 hPa 0,0 l/m 5,6 km/h (1 Bft) O-NO 65 1 min 0,000 mm 0,0 UV-I 203 W/m 7,3 C 10,8 C 6,4 km/h (2 Bft) 100,00 %
01.07.2018 06:50 10,9 C 20,0 C 79 % 1015,6 hPa 0,0 l/m 4,6 km/h (1 Bft) O 83 1 min 0,000 mm 0,0 UV-I 206 W/m 7,4 C 10,9 C 6,4 km/h (2 Bft) 100,00 %
01.07.2018 06:51 10,9 C 20,0 C 79 % 1015,6 hPa 0,0 l/m 4,7 km/h (1 Bft) NO 53 1 min 0,000 mm 0,0 UV-I 208 W/m 7,4 C 10,9 C 4,8 km/h (1 Bft) 100,00 %
01.07.2018 06:52 11,0 C 20,0 C 79 % 1015,6 hPa 0,0 l/m 3,7 km/h (1 Bft) O-NO 66 1 min 0,000 mm 0,0 UV-I 210 W/m 7,5 C 11,0 C 4,8 km/h (1 Bft) 100,00 %
01.07.2018 06:53 11,1 C 20,0 C 79 % 1015,6 hPa 0,0 l/m 5,5 km/h (1 Bft) O-NO 78 1 min 0,000 mm 0,0 UV-I 213 W/m 7,6 C 11,1 C 8,0 km/h (2 Bft) 100,00 %
01.07.2018 06:54 11,1 C 20,0 C 79 % 1015,6 hPa 0,0 l/m 5,3 km/h (1 Bft) O 100 1 min 0,000 mm 0,0 UV-I 216 W/m 7,6 C 11,1 C 6,4 km/h (2 Bft) 100,00 %
01.07.2018 06:55 11,2 C 20,0 C 79 % 1015,6 hPa 0,0 l/m 3,5 km/h (1 Bft) O 95 1 min 0,000 mm 0,0 UV-I 219 W/m 7,7 C 11,2 C 4,8 km/h (1 Bft) 100,00 %
01.07.2018 06:56 11,2 C 20,0 C 78 % 1015,6 hPa 0,0 l/m 6,4 km/h (2 Bft) O 82 1 min 0,000 mm 0,0 UV-I 220 W/m 7,5 C 11,2 C 11,3 km/h (2 Bft) 95,83 %
01.07.2018 06:58 11,3 C 20,0 C 76 % 1015,6 hPa 0,0 l/m 9,2 km/h (2 Bft) O 92 2 min 0,000 mm 0,0 UV-I 226 W/m 7,2 C 9,5 C 12,9 km/h (3 Bft) 97,56 %
01.07.2018 06:59 11,3 C 20,0 C 75 % 1015,6 hPa 0,0 l/m 7,5 km/h (2 Bft) O-NO 76 1 min 0,000 mm 0,0 UV-I 230 W/m 7,0 C 10,5 C 11,3 km/h (2 Bft) 100,00 %
01.07.2018 07:00 11,3 C 20,0 C 76 % 1015,6 hPa 0,0 l/m 7,4 km/h (2 Bft) O 99 1 min 0,000 mm 0,0 UV-I 232 W/m 7,2 C 10,6 C 9,7 km/h (2 Bft) 93,10 %
01.07.2018 07:01 11,4 C 20,0 C 75 % 1015,6 hPa 0,0 l/m 5,9 km/h (2 Bft) O-SO 102 1 min 0,077 mm 0,0 UV-I 236 W/m 7,1 C 11,4 C 12,9 km/h (3 Bft) 100,00 %
01.07.2018 07:02 11,4 C 20,0 C 75 % 1015,6 hPa 0,0 l/m 6,6 km/h (2 Bft) O-NO 76 1 min 0,000 mm 0,0 UV-I 238 W/m 7,1 C 11,3 C 9,7 km/h (2 Bft) 95,65 %
01.07.2018 07:03 11,4 C 20,0 C 75 % 1015,6 hPa 0,0 l/m 7,0 km/h (2 Bft) O-NO 72 1 min 0,000 mm 0,0 UV-I 241 W/m 7,1 C 11,0 C 11,3 km/h (2 Bft) 100,00 %
01.07.2018 07:04 11,5 C 20,0 C 75 % 1015,7 hPa 0,0 l/m 9,4 km/h (2 Bft) O 85 1 min 0,000 mm 0,0 UV-I 244 W/m 7,2 C 9,6 C 14,5 km/h (3 Bft) 95,65 %
01.07.2018 07:05 11,5 C 20,0 C 74 % 1015,7 hPa 0,0 l/m 10,3 km/h (2 Bft) O 90 1 min 0,000 mm 0,0 UV-I 246 W/m 7,0 C 9,1 C 14,5 km/h (3 Bft) 95,83 %
01.07.2018 07:06 11,6 C 20,0 C 74 % 1015,7 hPa 0,0 l/m 8,8 km/h (2 Bft) O-NO 70 1 min 0,000 mm 0,4 UV-I 250 W/m 7,1 C 10,0 C 12,9 km/h (3 Bft) 100,00 %
01.07.2018 07:07 11,6 C 20,0 C 74 % 1015,7 hPa 0,0 l/m 7,7 km/h (2 Bft) O-NO 75 1 min 0,000 mm 0,5 UV-I 251 W/m 7,1 C 10,7 C 12,9 km/h (3 Bft) 95,83 %
01.07.2018 07:08 11,7 C 20,0 C 74 % 1015,7 hPa 0,0 l/m 9,7 km/h (2 Bft) O-NO 78 1 min 0,000 mm 0,5 UV-I 255 W/m 7,2 C 9,6 C 12,9 km/h (3 Bft) 100,00 %
01.07.2018 07:09 11,7 C 20,0 C 74 % 1015,7 hPa 0,0 l/m 9,2 km/h (2 Bft) O 92 1 min 0,000 mm 0,5 UV-I 258 W/m 7,2 C 9,9 C 12,9 km/h (3 Bft) 95,83 %
01.07.2018 07:10 11,7 C 20,0 C 73 % 1015,7 hPa 0,0 l/m 5,4 km/h (1 Bft) O-NO 71 1 min 0,000 mm 0,5 UV-I 260 W/m 7,0 C 11,7 C 9,7 km/h (2 Bft) 96,15 %
01.07.2018 07:11 11,7 C 20,0 C 74 % 1015,7 hPa 0,0 l/m 5,5 km/h (1 Bft) O 80 1 min 0,000 mm 0,5 UV-I 263 W/m 7,2 C 11,7 C 6,4 km/h (2 Bft) 91,67 %
01.07.2018 07:12 11,8 C 20,0 C 74 % 1015,7 hPa 0,0 l/m 3,5 km/h (1 Bft) O 80 1 min 0,000 mm 0,5 UV-I 265 W/m 7,3 C 11,8 C 4,8 km/h (1 Bft) 96,15 %
01.07.2018 07:13 11,8 C 20,0 C 74 % 1015,7 hPa 0,0 l/m 7,2 km/h (2 Bft) O-NO 58 1 min 0,000 mm 0,5 UV-I 268 W/m 7,3 C 11,3 C 9,7 km/h (2 Bft) 96,30 %
01.07.2018 07:14 11,9 C 20,0 C 75 % 1015,7 hPa 0,0 l/m 7,8 km/h (2 Bft) O-NO 61 1 min 0,000 mm 0,5 UV-I 269 W/m 7,6 C 11,0 C 9,7 km/h (2 Bft) 96,15 %
01.07.2018 07:15 12,1 C 20,0 C 74 % 1015,7 hPa 0,0 l/m 8,1 km/h (2 Bft) NO 55 1 min 0,000 mm 0,5 UV-I 272 W/m 7,6 C 11,0 C 11,3 km/h (2 Bft) 100,00 %
01.07.2018 07:16 12,1 C 20,0 C 74 % 1015,7 hPa 0,0 l/m 8,7 km/h (2 Bft) O-NO 58 1 min 0,000 mm 0,5 UV-I 274 W/m 7,6 C 10,6 C 11,3 km/h (2 Bft) 91,30 %
01.07.2018 07:17 12,2 C 20,0 C 73 % 1015,7 hPa 0,0 l/m 6,7 km/h (2 Bft) O-NO 63 1 min 0,000 mm 0,2 UV-I 274 W/m 7,5 C 12,0 C 8,0 km/h (2 Bft) 100,00 %
01.07.2018 07:18 12,2 C 20,0 C 73 % 1015,8 hPa 0,0 l/m 9,9 km/h (2 Bft) O-NO 63 1 min 0,000 mm 0,0 UV-I 276 W/m 7,5 C 10,1 C 12,9 km/h (3 Bft) 93,10 %
01.07.2018 07:19 12,3 C 20,0 C 72 % 1015,8 hPa 0,0 l/m 6,2 km/h (2 Bft) O-NO 78 1 min 0,000 mm 0,6 UV-I 286 W/m 7,4 C 12,3 C 9,7 km/h (2 Bft) 100,00 %
01.07.2018 07:20 12,3 C 20,0 C 72 % 1015,8 hPa 0,0 l/m 4,7 km/h (1 Bft) NO 54 1 min 0,000 mm 0,6 UV-I 288 W/m 7,4 C 12,3 C 4,8 km/h (1 Bft) 96,15 %
01.07.2018 07:21 12,3 C 20,0 C 72 % 1015,8 hPa 0,0 l/m 8,3 km/h (2 Bft) O-NO 69 1 min 0,000 mm 0,6 UV-I 291 W/m 7,4 C 11,1 C 12,9 km/h (3 Bft) 91,67 %
01.07.2018 07:22 12,4 C 20,0 C 71 % 1015,8 hPa 0,0 l/m 6,7 km/h (2 Bft) O-NO 71 1 min 0,000 mm 0,6 UV-I 294 W/m 7,3 C 12,2 C 9,7 km/h (2 Bft) 100,00 %
01.07.2018 07:23 12,4 C 20,0 C 71 % 1015,8 hPa 0,0 l/m 6,0 km/h (2 Bft) O-NO 57 1 min 0,000 mm 0,6 UV-I 295 W/m 7,3 C 12,4 C 12,9 km/h (3 Bft) 91,67 %
01.07.2018 07:24 12,4 C 20,0 C 72 % 1015,8 hPa 0,0 l/m 11,7 km/h (2 Bft) NO 56 1 min 0,000 mm 0,6 UV-I 299 W/m 7,5 C 9,4 C 14,5 km/h (3 Bft) 95,83 %
01.07.2018 07:25 12,5 C 20,0 C 71 % 1015,9 hPa 0,0 l/m 7,4 km/h (2 Bft) O-NO 63 1 min 0,000 mm 0,6 UV-I 302 W/m 7,4 C 11,9 C 9,7 km/h (2 Bft) 91,30 %
01.07.2018 07:26 12,5 C 20,0 C 71 % 1015,9 hPa 0,0 l/m 6,8 km/h (2 Bft) O 80 1 min 0,000 mm 0,6 UV-I 305 W/m 7,4 C 12,2 C 9,7 km/h (2 Bft) 100,00 %
01.07.2018 07:27 12,6 C 20,0 C 71 % 1015,9 hPa 0,0 l/m 4,9 km/h (1 Bft) O-NO 71 1 min 0,000 mm 0,6 UV-I 308 W/m 7,5 C 12,6 C 6,4 km/h (2 Bft) 91,30 %
01.07.2018 07:28 12,7 C 20,0 C 71 % 1015,9 hPa 0,0 l/m 8,1 km/h (2 Bft) NO 51 1 min 0,000 mm 0,7 UV-I 311 W/m 7,6 C 11,6 C 11,3 km/h (2 Bft) 100,00 %
01.07.2018 07:29 12,7 C 20,0 C 71 % 1015,9 hPa 0,0 l/m 6,9 km/h (2 Bft) O-NO 64 1 min 0,000 mm 0,7 UV-I 313 W/m 7,6 C 12,4 C 9,7 km/h (2 Bft) 96,15 %
01.07.2018 07:30 12,8 C 20,0 C 71 % 1015,9 hPa 0,0 l/m 4,0 km/h (1 Bft) O-NO 74 1 min 0,000 mm 0,7 UV-I 316 W/m 7,7 C 12,8 C 6,4 km/h (2 Bft) 100,00 %
01.07.2018 07:31 12,8 C 20,0 C 70 % 1015,9 hPa 0,0 l/m 7,8 km/h (2 Bft) O-NO 76 1 min 0,000 mm 0,7 UV-I 319 W/m 7,5 C 11,9 C 11,3 km/h (2 Bft) 95,65 %
01.07.2018 07:32 12,8 C 20,0 C 69 % 1015,9 hPa 0,0 l/m 6,7 km/h (2 Bft) O-NO 61 1 min 0,000 mm 0,7 UV-I 322 W/m 7,3 C 12,6 C 9,7 km/h (2 Bft) 91,67 %
01.07.2018 07:33 12,8 C 20,0 C 70 % 1016,0 hPa 0,0 l/m 9,4 km/h (2 Bft) O-NO 61 1 min 0,000 mm 0,7 UV-I 324 W/m 7,5 C 11,0 C 12,9 km/h (3 Bft) 100,00 %
01.07.2018 07:34 12,9 C 20,0 C 70 % 1015,9 hPa 0,0 l/m 9,5 km/h (2 Bft) O-NO 59 1 min 0,000 mm 0,7 UV-I 328 W/m 7,6 C 11,1 C 12,9 km/h (3 Bft) 95,83 %
01.07.2018 07:35 12,9 C 20,0 C 70 % 1015,9 hPa 0,0 l/m 8,2 km/h (2 Bft) NO 49 1 min 0,000 mm 0,7 UV-I 330 W/m 7,6 C 11,8 C 11,3 km/h (2 Bft) 95,65 %
01.07.2018 07:36 12,9 C 20,0 C 70 % 1016,0 hPa 0,0 l/m 7,4 km/h (2 Bft) O-NO 59 1 min 0,000 mm 0,7 UV-I 334 W/m 7,6 C 12,3 C 12,9 km/h (3 Bft) 95,83 %
01.07.2018 07:37 13,0 C 20,0 C 71 % 1015,9 hPa 0,0 l/m 5,6 km/h (1 Bft) O-NO 77 1 min 0,000 mm 0,8 UV-I 337 W/m 7,9 C 13,0 C 8,0 km/h (2 Bft) 100,00 %
01.07.2018 07:38 13,0 C 20,0 C 70 % 1015,9 hPa 0,0 l/m 5,9 km/h (2 Bft) O-NO 77 1 min 0,000 mm 0,8 UV-I 338 W/m 7,7 C 13,0 C 8,0 km/h (2 Bft) 91,67 %
01.07.2018 07:39 13,1 C 20,0 C 68 % 1016,0 hPa 0,0 l/m 6,0 km/h (2 Bft) NO 47 1 min 0,000 mm 0,8 UV-I 342 W/m 7,3 C 13,1 C 8,0 km/h (2 Bft) 100,00 %
01.07.2018 07:40 13,1 C 20,0 C 69 % 1015,9 hPa 0,0 l/m 6,7 km/h (2 Bft) O 84 1 min 0,000 mm 0,8 UV-I 345 W/m 7,5 C 12,9 C 11,3 km/h (2 Bft) 96,15 %
01.07.2018 07:41 13,0 C 20,0 C 68 % 1016,0 hPa 0,0 l/m 5,9 km/h (2 Bft) O 80 1 min 0,000 mm 0,8 UV-I 348 W/m 7,2 C 13,0 C 9,7 km/h (2 Bft) 96,15 %
01.07.2018 07:42 13,0 C 20,0 C 68 % 1016,0 hPa 0,0 l/m 8,4 km/h (2 Bft) O-NO 63 1 min 0,000 mm 0,8 UV-I 349 W/m 7,2 C 11,8 C 12,9 km/h (3 Bft) 91,67 %
01.07.2018 07:43 13,1 C 20,0 C 70 % 1016,0 hPa 0,0 l/m 7,5 km/h (2 Bft) O-NO 74 1 min 0,000 mm 0,8 UV-I 354 W/m 7,8 C 12,4 C 11,3 km/h (2 Bft) 92,31 %
01.07.2018 07:44 13,2 C 20,0 C 70 % 1016,0 hPa 0,0 l/m 7,6 km/h (2 Bft) NO 37 1 min 0,000 mm 0,8 UV-I 357 W/m 7,9 C 12,5 C 9,7 km/h (2 Bft) 100,00 %
01.07.2018 07:45 13,2 C 20,0 C 69 % 1016,0 hPa 0,0 l/m 5,6 km/h (1 Bft) NO 53 1 min 0,000 mm 0,9 UV-I 360 W/m 7,6 C 13,2 C 6,4 km/h (2 Bft) 97,99 %
01.07.2018 07:46 13,3 C 20,0 C 70 % 1016,0 hPa 0,0 l/m 8,6 km/h (2 Bft) O-NO 60 1 min 0,000 mm 0,9 UV-I 360 W/m 7,9 C 12,0 C 12,9 km/h (3 Bft) 94,74 %
01.07.2018 07:47 13,3 C 20,0 C 68 % 1015,9 hPa 0,0 l/m 8,2 km/h (2 Bft) O-NO 76 1 min 0,000 mm 0,9 UV-I 366 W/m 7,5 C 12,2 C 11,3 km/h (2 Bft) 96,30 %
01.07.2018 07:48 13,4 C 20,0 C 69 % 1015,9 hPa 0,0 l/m 8,1 km/h (2 Bft) O-NO 61 1 min 0,000 mm 0,9 UV-I 368 W/m 7,8 C 12,4 C 11,3 km/h (2 Bft) 100,00 %
01.07.2018 07:49 13,4 C 20,0 C 69 % 1016,0 hPa 0,0 l/m 8,3 km/h (2 Bft) NO 42 1 min 0,000 mm 0,9 UV-I 372 W/m 7,8 C 12,2 C 9,7 km/h (2 Bft) 95,83 %
01.07.2018 07:50 13,4 C 20,0 C 68 % 1015,9 hPa 0,0 l/m 8,4 km/h (2 Bft) NO 56 1 min 0,000 mm 0,9 UV-I 374 W/m 7,6 C 12,2 C 14,5 km/h (3 Bft) 100,00 %
01.07.2018 07:51 13,5 C 20,0 C 68 % 1015,9 hPa 0,0 l/m 8,1 km/h (2 Bft) O-NO 65 1 min 0,000 mm 0,9 UV-I 377 W/m 7,7 C 12,5 C 11,3 km/h (2 Bft) 93,33 %
01.07.2018 07:52 13,6 C 20,0 C 69 % 1016,0 hPa 0,0 l/m 10,5 km/h (2 Bft) O-NO 62 1 min 0,000 mm 0,9 UV-I 380 W/m 8,0 C 11,3 C 14,5 km/h (3 Bft) 100,00 %
01.07.2018 07:53 13,7 C 20,0 C 69 % 1016,0 hPa 0,0 l/m 10,7 km/h (2 Bft) O-NO 74 1 min 0,000 mm 1,0 UV-I 381 W/m 8,1 C 11,3 C 12,9 km/h (3 Bft) 95,83 %
01.07.2018 07:54 13,7 C 20,0 C 68 % 1016,0 hPa 0,0 l/m 7,1 km/h (2 Bft) NO 48 1 min 0,000 mm 1,0 UV-I 386 W/m 7,9 C 13,3 C 9,7 km/h (2 Bft) 93,10 %
01.07.2018 07:55 13,7 C 20,0 C 67 % 1016,0 hPa 0,0 l/m 8,5 km/h (2 Bft) NO 41 1 min 0,000 mm 1,0 UV-I 388 W/m 7,7 C 12,5 C 12,9 km/h (3 Bft) 95,83 %
01.07.2018 07:56 13,7 C 20,0 C 68 % 1016,0 hPa 0,0 l/m 9,0 km/h (2 Bft) NO 52 1 min 0,000 mm 1,0 UV-I 391 W/m 7,9 C 12,2 C 12,9 km/h (3 Bft) 95,65 %
01.07.2018 07:57 13,8 C 20,0 C 67 % 1016,0 hPa 0,0 l/m 8,6 km/h (2 Bft) NO 44 1 min 0,000 mm 1,0 UV-I 394 W/m 7,8 C 12,5 C 11,3 km/h (2 Bft) 100,00 %
01.07.2018 07:58 13,8 C 20,0 C 67 % 1015,9 hPa 0,0 l/m 10,9 km/h (2 Bft) O 90 1 min 0,000 mm 1,0 UV-I 397 W/m 7,8 C 11,4 C 14,5 km/h (3 Bft) 96,30 %
01.07.2018 07:59 13,9 C 20,0 C 65 % 1015,9 hPa 0,0 l/m 11,8 km/h (2 Bft) NO 49 1 min 0,000 mm 1,0 UV-I 400 W/m 7,4 C 11,1 C 16,1 km/h (3 Bft) 100,00 %
01.07.2018 08:00 13,8 C 20,0 C 66 % 1015,9 hPa 0,0 l/m 10,9 km/h (2 Bft) NO 48 1 min 0,177 mm 1,1 UV-I 403 W/m 7,6 C 11,4 C 14,5 km/h (3 Bft) 93,33 %
01.07.2018 08:01 13,9 C 20,0 C 66 % 1015,9 hPa 0,0 l/m 8,5 km/h (2 Bft) NO 55 1 min 0,000 mm 1,1 UV-I 405 W/m 7,7 C 12,7 C 11,3 km/h (2 Bft) 100,00 %
01.07.2018 08:02 13,9 C 20,0 C 65 % 1015,9 hPa 0,0 l/m 9,5 km/h (2 Bft) NO 43 1 min 0,000 mm 1,1 UV-I 408 W/m 7,4 C 12,1 C 12,9 km/h (3 Bft) 95,83 %
01.07.2018 08:03 13,9 C 20,0 C 66 % 1015,9 hPa 0,0 l/m 11,2 km/h (2 Bft) O 92 1 min 0,000 mm 1,1 UV-I 411 W/m 7,7 C 11,3 C 16,1 km/h (3 Bft) 100,00 %
01.07.2018 08:04 13,9 C 20,0 C 64 % 1015,9 hPa 0,0 l/m 8,9 km/h (2 Bft) O-NO 62 1 min 0,000 mm 1,1 UV-I 415 W/m 7,2 C 12,5 C 14,5 km/h (3 Bft) 95,83 %
01.07.2018 08:05 13,9 C 20,0 C 65 % 1016,0 hPa 0,0 l/m 9,7 km/h (2 Bft) O 88 1 min 0,000 mm 1,1 UV-I 417 W/m 7,4 C 12,0 C 14,5 km/h (3 Bft) 100,00 %
01.07.2018 08:06 14,0 C 20,0 C 64 % 1015,9 hPa 0,0 l/m 9,5 km/h (2 Bft) O 98 1 min 0,000 mm 1,1 UV-I 420 W/m 7,3 C 12,3 C 12,9 km/h (3 Bft) 96,67 %
01.07.2018 08:08 13,9 C 20,0 C 65 % 1015,9 hPa 0,0 l/m 11,9 km/h (2 Bft) O-NO 65 2 min 0,000 mm 1,2 UV-I 425 W/m 7,4 C 11,0 C 16,1 km/h (3 Bft) 96,55 %
01.07.2018 08:09 14,0 C 20,0 C 64 % 1015,9 hPa 0,0 l/m 10,7 km/h (2 Bft) O-NO 68 1 min 0,000 mm 1,2 UV-I 429 W/m 7,3 C 11,7 C 16,1 km/h (3 Bft) 100,00 %
01.07.2018 08:10 14,0 C 20,0 C 64 % 1015,9 hPa 0,0 l/m 12,9 km/h (3 Bft) NO 51 1 min 0,000 mm 1,2 UV-I 432 W/m 7,3 C 10,8 C 17,7 km/h (3 Bft) 100,00 %
01.07.2018 08:11 14,0 C 20,0 C 65 % 1015,9 hPa 0,0 l/m 10,5 km/h (2 Bft) O 79 1 min 0,000 mm 1,2 UV-I 434 W/m 7,5 C 11,8 C 12,9 km/h (3 Bft) 90,91 %
01.07.2018 08:12 14,1 C 20,0 C 64 % 1015,9 hPa 0,0 l/m 8,0 km/h (2 Bft) O 81 1 min 0,000 mm 1,2 UV-I 437 W/m 7,4 C 13,2 C 14,5 km/h (3 Bft) 100,00 %
01.07.2018 08:13 14,1 C 20,0 C 64 % 1015,9 hPa 0,0 l/m 6,7 km/h (2 Bft) O-NO 78 1 min 0,000 mm 1,2 UV-I 440 W/m 7,4 C 13,9 C 11,3 km/h (2 Bft) 100,00 %
01.07.2018 08:14 14,1 C 20,0 C 63 % 1015,9 hPa 0,0 l/m 9,5 km/h (2 Bft) O 81 1 min 0,000 mm 1,3 UV-I 442 W/m 7,2 C 12,4 C 16,1 km/h (3 Bft) 100,00 %
01.07.2018 08:15 14,1 C 20,0 C 63 % 1015,9 hPa 0,0 l/m 11,7 km/h (2 Bft) O-NO 69 1 min 0,000 mm 1,3 UV-I 445 W/m 7,2 C 11,4 C 14,5 km/h (3 Bft) 100,00 %
01.07.2018 08:16 14,1 C 20,0 C 64 % 1016,0 hPa 0,0 l/m 10,4 km/h (2 Bft) NO 39 1 min 0,000 mm 1,3 UV-I 448 W/m 7,4 C 11,9 C 14,5 km/h (3 Bft) 100,00 %
01.07.2018 08:17 14,2 C 20,0 C 64 % 1015,9 hPa 0,0 l/m 13,2 km/h (3 Bft) O-NO 59 1 min 0,000 mm 1,3 UV-I 452 W/m 7,5 C 10,9 C 17,7 km/h (3 Bft) 100,00 %
01.07.2018 08:18 14,3 C 20,0 C 64 % 1015,9 hPa 0,0 l/m 12,3 km/h (3 Bft) O-NO 70 1 min 0,000 mm 1,3 UV-I 454 W/m 7,6 C 11,3 C 17,7 km/h (3 Bft) 100,00 %
01.07.2018 08:19 14,3 C 20,0 C 62 % 1016,0 hPa 0,0 l/m 12,1 km/h (2 Bft) O 85 1 min 0,000 mm 1,3 UV-I 457 W/m 7,1 C 11,4 C 16,1 km/h (3 Bft) 100,00 %
01.07.2018 08:20 14,3 C 20,0 C 62 % 1015,9 hPa 0,0 l/m 12,2 km/h (2 Bft) O-NO 65 1 min 0,000 mm 1,4 UV-I 461 W/m 7,1 C 11,4 C 14,5 km/h (3 Bft) 100,00 %
01.07.2018 08:21 14,3 C 20,0 C 63 % 1015,9 hPa 0,0 l/m 9,9 km/h (2 Bft) O 92 1 min 0,000 mm 1,4 UV-I 462 W/m 7,4 C 12,4 C 14,5 km/h (3 Bft) 100,00 %
01.07.2018 08:22 14,3 C 20,0 C 63 % 1016,0 hPa 0,0 l/m 13,3 km/h (3 Bft) O-NO 60 1 min 0,000 mm 1,4 UV-I 464 W/m 7,4 C 11,0 C 17,7 km/h (3 Bft) 100,00 %
01.07.2018 08:23 14,4 C 20,0 C 63 % 1016,0 hPa 0,0 l/m 10,6 km/h (2 Bft) O 101 1 min 0,000 mm 1,4 UV-I 468 W/m 7,4 C 12,2 C 14,5 km/h (3 Bft) 100,00 %
01.07.2018 08:24 14,4 C 20,0 C 62 % 1016,0 hPa 0,0 l/m 13,4 km/h (3 Bft) NO 53 1 min 0,000 mm 1,4 UV-I 471 W/m 7,2 C 11,0 C 17,7 km/h (3 Bft) 100,00 %
01.07.2018 08:25 14,4 C 20,0 C 63 % 1016,0 hPa 0,0 l/m 11,8 km/h (2 Bft) O-NO 60 1 min 0,000 mm 1,4 UV-I 474 W/m 7,4 C 11,7 C 16,1 km/h (3 Bft) 100,00 %
01.07.2018 08:26 14,6 C 20,0 C 65 % 1016,0 hPa 0,0 l/m 11,7 km/h (2 Bft) N-NO 31 1 min 0,000 mm 1,5 UV-I 476 W/m 8,1 C 11,9 C 16,1 km/h (3 Bft) 100,00 %
01.07.2018 08:27 14,7 C 20,0 C 62 % 1016,0 hPa 0,0 l/m 11,6 km/h (2 Bft) NO 41 1 min 0,000 mm 1,5 UV-I 478 W/m 7,5 C 12,1 C 14,5 km/h (3 Bft) 100,00 %
01.07.2018 08:28 14,9 C 20,0 C 64 % 1016,0 hPa 0,0 l/m 13,6 km/h (3 Bft) O-NO 66 1 min 0,000 mm 1,5 UV-I 482 W/m 8,2 C 11,6 C 19,3 km/h (3 Bft) 100,00 %
01.07.2018 08:29 15,0 C 20,0 C 62 % 1016,0 hPa 0,0 l/m 14,1 km/h (3 Bft) O-NO 59 1 min 0,000 mm 1,5 UV-I 484 W/m 7,8 C 11,5 C 17,7 km/h (3 Bft) 100,00 %
01.07.2018 08:30 15,1 C 20,0 C 61 % 1016,0 hPa 0,0 l/m 12,3 km/h (3 Bft) NO 43 1 min 0,000 mm 1,5 UV-I 488 W/m 7,6 C 12,3 C 17,7 km/h (3 Bft) 100,00 %
01.07.2018 08:31 15,1 C 20,0 C 60 % 1016,0 hPa 0,0 l/m 10,3 km/h (2 Bft) NO 53 1 min 0,000 mm 1,5 UV-I 490 W/m 7,4 C 13,1 C 14,5 km/h (3 Bft) 100,00 %
01.07.2018 08:32 15,1 C 20,0 C 60 % 1016,0 hPa 0,0 l/m 9,7 km/h (2 Bft) O-NO 77 1 min 0,000 mm 1,6 UV-I 491 W/m 7,4 C 13,4 C 16,1 km/h (3 Bft) 100,00 %
01.07.2018 08:33 15,2 C 20,0 C 62 % 1016,0 hPa 0,0 l/m 9,3 km/h (2 Bft) N-NO 30 1 min 0,000 mm 1,6 UV-I 495 W/m 8,0 C 13,7 C 14,5 km/h (3 Bft) 100,00 %
01.07.2018 08:34 15,3 C 20,0 C 62 % 1016,0 hPa 0,0 l/m 9,3 km/h (2 Bft) O-NO 69 1 min 0,000 mm 1,6 UV-I 499 W/m 8,1 C 13,8 C 14,5 km/h (3 Bft) 100,00 %
01.07.2018 08:35 15,4 C 20,0 C 61 % 1016,0 hPa 0,0 l/m 13,7 km/h (3 Bft) NO 54 1 min 0,000 mm 1,6 UV-I 500 W/m 7,9 C 12,1 C 17,7 km/h (3 Bft) 100,00 %
01.07.2018 08:36 15,4 C 20,0 C 60 % 1016,0 hPa 0,0 l/m 12,9 km/h (3 Bft) O-NO 76 1 min 0,000 mm 1,6 UV-I 503 W/m 7,7 C 12,4 C 17,7 km/h (3 Bft) 100,00 %
01.07.2018 08:37 15,4 C 20,0 C 59 % 1016,0 hPa 0,0 l/m 12,4 km/h (3 Bft) O 86 1 min 0,000 mm 1,6 UV-I 506 W/m 7,4 C 12,6 C 16,1 km/h (3 Bft) 95,83 %
01.07.2018 08:38 15,4 C 20,0 C 59 % 1016,1 hPa 0,0 l/m 11,5 km/h (2 Bft) O 82 1 min 0,000 mm 1,7 UV-I 509 W/m 7,4 C 12,9 C 16,1 km/h (3 Bft) 100,00 %
01.07.2018 08:39 15,4 C 20,0 C 58 % 1016,0 hPa 0,0 l/m 8,2 km/h (2 Bft) O 82 1 min 0,000 mm 1,7 UV-I 512 W/m 7,2 C 14,4 C 12,9 km/h (3 Bft) 100,00 %
01.07.2018 08:40 15,4 C 20,0 C 59 % 1016,0 hPa 0,0 l/m 10,4 km/h (2 Bft) NO 49 1 min 0,000 mm 1,7 UV-I 513 W/m 7,4 C 13,4 C 12,9 km/h (3 Bft) 96,30 %
01.07.2018 08:41 15,5 C 20,0 C 59 % 1016,0 hPa 0,0 l/m 5,8 km/h (2 Bft) NO 35 1 min 0,000 mm 1,7 UV-I 517 W/m 7,5 C 15,5 C 9,7 km/h (2 Bft) 100,00 %
01.07.2018 08:42 15,6 C 20,0 C 60 % 1016,1 hPa 0,0 l/m 8,0 km/h (2 Bft) NO 40 1 min 0,000 mm 1,7 UV-I 519 W/m 7,9 C 14,7 C 11,3 km/h (2 Bft) 96,30 %
01.07.2018 08:43 15,8 C 20,0 C 59 % 1016,0 hPa 0,0 l/m 8,2 km/h (2 Bft) O-NO 66 1 min 0,000 mm 1,7 UV-I 521 W/m 7,8 C 14,8 C 11,3 km/h (2 Bft) 100,00 %
01.07.2018 08:44 15,8 C 20,0 C 56 % 1016,1 hPa 0,0 l/m 9,1 km/h (2 Bft) O-NO 65 1 min 0,000 mm 1,8 UV-I 525 W/m 7,0 C 14,4 C 14,5 km/h (3 Bft) 96,30 %
01.07.2018 08:45 15,7 C 20,0 C 58 % 1016,0 hPa 0,0 l/m 7,0 km/h (2 Bft) O 92 1 min 0,000 mm 1,8 UV-I 527 W/m 7,5 C 15,4 C 16,1 km/h (3 Bft) 100,00 %
01.07.2018 08:46 15,7 C 20,0 C 55 % 1016,1 hPa 0,0 l/m 12,7 km/h (3 Bft) O 80 1 min 0,000 mm 1,8 UV-I 531 W/m 6,7 C 12,8 C 19,3 km/h (3 Bft) 95,83 %
01.07.2018 08:47 15,6 C 20,0 C 55 % 1016,0 hPa 0,0 l/m 15,4 km/h (3 Bft) O-NO 76 1 min 0,000 mm 1,8 UV-I 533 W/m 6,6 C 11,8 C 20,9 km/h (4 Bft) 100,00 %
01.07.2018 08:48 15,6 C 20,0 C 54 % 1016,0 hPa 0,0 l/m 12,0 km/h (2 Bft) O 98 1 min 0,000 mm 1,9 UV-I 536 W/m 6,3 C 13,0 C 14,5 km/h (3 Bft) 95,83 %
01.07.2018 08:49 15,6 C 20,0 C 56 % 1016,1 hPa 0,0 l/m 10,0 km/h (2 Bft) O-NO 73 1 min 0,000 mm 1,9 UV-I 539 W/m 6,9 C 13,8 C 14,5 km/h (3 Bft) 100,00 %
01.07.2018 08:50 15,6 C 20,0 C 57 % 1016,0 hPa 0,0 l/m 12,4 km/h (3 Bft) O-NO 59 1 min 0,000 mm 1,9 UV-I 541 W/m 7,1 C 12,8 C 17,7 km/h (3 Bft) 95,83 %
01.07.2018 08:51 15,7 C 20,0 C 57 % 1016,0 hPa 0,0 l/m 12,9 km/h (3 Bft) O-NO 76 1 min 0,000 mm 1,9 UV-I 543 W/m 7,2 C 12,7 C 16,1 km/h (3 Bft) 100,00 %
01.07.2018 08:52 15,7 C 20,0 C 54 % 1016,0 hPa 0,0 l/m 11,6 km/h (2 Bft) O-NO 74 1 min 0,000 mm 1,9 UV-I 547 W/m 6,4 C 13,2 C 16,1 km/h (3 Bft) 97,56 %
01.07.2018 08:53 15,8 C 20,0 C 56 % 1016,0 hPa 0,0 l/m 13,0 km/h (3 Bft) O-NO 66 1 min 0,000 mm 1,9 UV-I 549 W/m 7,0 C 12,8 C 17,7 km/h (3 Bft) 96,15 %
01.07.2018 08:54 15,8 C 20,0 C 55 % 1016,0 hPa 0,0 l/m 13,0 km/h (3 Bft) NO 53 1 min 0,000 mm 2,0 UV-I 551 W/m 6,8 C 12,8 C 17,7 km/h (3 Bft) 100,00 %
01.07.2018 08:55 15,9 C 20,0 C 55 % 1016,0 hPa 0,0 l/m 13,7 km/h (3 Bft) O-NO 67 1 min 0,000 mm 2,0 UV-I 553 W/m 6,9 C 12,7 C 17,7 km/h (3 Bft) 96,30 %
01.07.2018 08:56 15,9 C 20,0 C 55 % 1016,0 hPa 0,0 l/m 9,6 km/h (2 Bft) O 80 1 min 0,000 mm 2,0 UV-I 556 W/m 6,9 C 14,3 C 14,5 km/h (3 Bft) 96,15 %
01.07.2018 08:57 15,9 C 20,0 C 53 % 1016,0 hPa 0,0 l/m 12,5 km/h (3 Bft) O-NO 64 1 min 0,000 mm 2,0 UV-I 559 W/m 6,3 C 13,1 C 17,7 km/h (3 Bft) 100,00 %
01.07.2018 08:58 15,9 C 20,0 C 53 % 1016,0 hPa 0,0 l/m 12,6 km/h (3 Bft) O 83 1 min 0,000 mm 2,1 UV-I 562 W/m 6,3 C 13,1 C 17,7 km/h (3 Bft) 95,65 %
01.07.2018 08:59 15,9 C 20,0 C 53 % 1016,0 hPa 0,0 l/m 10,0 km/h (2 Bft) NO 55 1 min 0,000 mm 2,1 UV-I 565 W/m 6,3 C 14,1 C 14,5 km/h (3 Bft) 100,00 %
01.07.2018 09:00 15,9 C 20,0 C 53 % 1016,0 hPa 0,0 l/m 12,5 km/h (3 Bft) O-NO 59 1 min 0,305 mm 2,1 UV-I 567 W/m 6,3 C 13,1 C 17,7 km/h (3 Bft) 95,65 %
01.07.2018 09:01 16,1 C 20,0 C 53 % 1016,0 hPa 0,0 l/m 11,0 km/h (2 Bft) O-NO 69 1 min 0,000 mm 2,1 UV-I 569 W/m 6,5 C 13,9 C 16,1 km/h (3 Bft) 100,00 %
01.07.2018 09:02 16,1 C 20,0 C 52 % 1016,0 hPa 0,0 l/m 10,6 km/h (2 Bft) O-NO 74 1 min 0,000 mm 2,1 UV-I 572 W/m 6,2 C 14,1 C 16,1 km/h (3 Bft) 95,65 %
01.07.2018 09:03 16,2 C 20,0 C 54 % 1015,9 hPa 0,0 l/m 15,5 km/h (3 Bft) O-NO 74 1 min 0,000 mm 2,2 UV-I 575 W/m 6,9 C 12,5 C 19,3 km/h (3 Bft) 100,00 %
01.07.2018 09:04 16,1 C 20,0 C 51 % 1015,9 hPa 0,0 l/m 12,0 km/h (2 Bft) O-NO 66 1 min 0,000 mm 2,2 UV-I 578 W/m 6,0 C 13,5 C 19,3 km/h (3 Bft) 95,65 %
01.07.2018 09:05 16,2 C 20,0 C 52 % 1015,9 hPa 0,0 l/m 15,6 km/h (3 Bft) O-NO 74 1 min 0,000 mm 2,2 UV-I 581 W/m 6,3 C 12,5 C 20,9 km/h (4 Bft) 100,00 %
01.07.2018 09:06 16,2 C 20,0 C 52 % 1015,9 hPa 0,0 l/m 12,1 km/h (2 Bft) O-NO 69 1 min 0,000 mm 2,2 UV-I 583 W/m 6,3 C 13,6 C 16,1 km/h (3 Bft) 96,15 %
01.07.2018 09:07 16,2 C 20,0 C 55 % 1015,9 hPa 0,0 l/m 12,0 km/h (2 Bft) O-NO 59 1 min 0,000 mm 2,2 UV-I 586 W/m 7,2 C 13,7 C 16,1 km/h (3 Bft) 96,30 %
01.07.2018 09:08 16,3 C 20,0 C 51 % 1015,9 hPa 0,0 l/m 11,7 km/h (2 Bft) O 94 1 min 0,000 mm 2,2 UV-I 589 W/m 6,1 C 13,9 C 16,1 km/h (3 Bft) 100,00 %
01.07.2018 09:09 16,3 C 20,0 C 51 % 1015,9 hPa 0,0 l/m 12,0 km/h (2 Bft) O 84 1 min 0,000 mm 2,3 UV-I 591 W/m 6,1 C 13,8 C 16,1 km/h (3 Bft) 96,30 %
01.07.2018 09:10 16,3 C 20,0 C 50 % 1015,9 hPa 0,0 l/m 12,2 km/h (2 Bft) O-NO 71 1 min 0,000 mm 2,3 UV-I 592 W/m 5,9 C 13,7 C 16,1 km/h (3 Bft) 100,00 %
01.07.2018 09:11 16,3 C 20,0 C 53 % 1015,9 hPa 0,0 l/m 10,7 km/h (2 Bft) O 92 1 min 0,000 mm 2,3 UV-I 596 W/m 6,7 C 14,3 C 16,1 km/h (3 Bft) 100,00 %
01.07.2018 09:12 16,4 C 20,0 C 52 % 1015,9 hPa 0,0 l/m 8,7 km/h (2 Bft) O-NO 75 1 min 0,000 mm 2,3 UV-I 598 W/m 6,5 C 15,2 C 12,9 km/h (3 Bft) 100,00 %
01.07.2018 09:13 16,5 C 20,0 C 52 % 1015,9 hPa 0,0 l/m 13,0 km/h (3 Bft) O-NO 71 1 min 0,000 mm 2,3 UV-I 600 W/m 6,6 C 13,6 C 16,1 km/h (3 Bft) 100,00 %
01.07.2018 09:14 16,6 C 20,0 C 50 % 1015,8 hPa 0,0 l/m 11,7 km/h (2 Bft) O 88 1 min 0,000 mm 2,4 UV-I 604 W/m 6,1 C 14,2 C 20,9 km/h (4 Bft) 100,00 %
01.07.2018 09:15 16,6 C 20,6 C 50 % 1015,8 hPa 0,0 l/m 16,6 km/h (3 Bft) O 88 1 min 0,000 mm 2,4 UV-I 606 W/m 6,1 C 12,7 C 20,9 km/h (4 Bft) 95,83 %
01.07.2018 09:16 16,6 C 20,6 C 48 % 1015,9 hPa 0,0 l/m 16,2 km/h (3 Bft) O 86 1 min 0,000 mm 2,4 UV-I 609 W/m 5,5 C 12,8 C 22,5 km/h (4 Bft) 100,00 %
01.07.2018 09:17 16,5 C 20,0 C 48 % 1015,9 hPa 0,0 l/m 16,6 km/h (3 Bft) O 83 1 min 0,000 mm 2,4 UV-I 611 W/m 5,5 C 12,5 C 20,9 km/h (4 Bft) 100,00 %
01.07.2018 09:18 16,4 C 20,0 C 49 % 1015,9 hPa 0,0 l/m 15,3 km/h (3 Bft) O-SO 103 1 min 0,000 mm 2,5 UV-I 614 W/m 5,7 C 12,8 C 20,9 km/h (4 Bft) 100,00 %
01.07.2018 09:19 16,4 C 20,0 C 49 % 1015,9 hPa 0,0 l/m 15,4 km/h (3 Bft) NO 55 1 min 0,000 mm 2,5 UV-I 616 W/m 5,7 C 12,8 C 19,3 km/h (3 Bft) 100,00 %
01.07.2018 09:20 16,4 C 20,0 C 49 % 1015,9 hPa 0,0 l/m 11,3 km/h (2 Bft) O-SO 103 1 min 0,000 mm 2,5 UV-I 619 W/m 5,7 C 14,1 C 17,7 km/h (3 Bft) 100,00 %
01.07.2018 09:21 16,6 C 20,0 C 50 % 1015,9 hPa 0,0 l/m 12,0 km/h (2 Bft) O-NO 74 1 min 0,000 mm 2,5 UV-I 622 W/m 6,1 C 14,1 C 16,1 km/h (3 Bft) 100,00 %
01.07.2018 09:22 16,7 C 20,0 C 53 % 1015,9 hPa 0,0 l/m 15,1 km/h (3 Bft) O-NO 73 1 min 0,000 mm 2,6 UV-I 624 W/m 7,1 C 13,2 C 20,9 km/h (4 Bft) 100,00 %
01.07.2018 09:23 16,8 C 20,0 C 50 % 1015,9 hPa 0,0 l/m 14,1 km/h (3 Bft) O-NO 67 1 min 0,000 mm 2,6 UV-I 626 W/m 6,3 C 13,6 C 16,1 km/h (3 Bft) 100,00 %
01.07.2018 09:24 16,8 C 20,0 C 47 % 1015,9 hPa 0,0 l/m 11,7 km/h (2 Bft) SO 126 1 min 0,000 mm 2,6 UV-I 629 W/m 5,4 C 14,5 C 14,5 km/h (3 Bft) 100,00 %
01.07.2018 09:25 16,8 C 20,6 C 48 % 1015,9 hPa 0,0 l/m 12,6 km/h (3 Bft) O 95 1 min 0,000 mm 2,6 UV-I 632 W/m 5,7 C 14,1 C 22,5 km/h (4 Bft) 100,00 %
01.07.2018 09:26 16,8 C 20,6 C 47 % 1015,9 hPa 0,0 l/m 19,5 km/h (3 Bft) O 92 1 min 0,000 mm 2,6 UV-I 635 W/m 5,4 C 12,2 C 22,5 km/h (4 Bft) 100,00 %
01.07.2018 09:27 16,8 C 20,6 C 47 % 1015,9 hPa 0,0 l/m 16,8 km/h (3 Bft) O-NO 74 1 min 0,000 mm 2,7 UV-I 638 W/m 5,4 C 12,9 C 22,5 km/h (4 Bft) 100,00 %
01.07.2018 09:28 16,7 C 20,0 C 47 % 1015,9 hPa 0,0 l/m 16,3 km/h (3 Bft) O 85 1 min 0,000 mm 2,7 UV-I 639 W/m 5,3 C 12,9 C 19,3 km/h (3 Bft) 96,30 %
01.07.2018 09:29 16,7 C 20,6 C 47 % 1015,9 hPa 0,0 l/m 13,3 km/h (3 Bft) O-NO 61 1 min 0,000 mm 2,7 UV-I 641 W/m 5,3 C 13,8 C 14,5 km/h (3 Bft) 100,00 %
01.07.2018 09:30 16,8 C 20,6 C 48 % 1015,9 hPa 0,0 l/m 15,2 km/h (3 Bft) O-NO 67 1 min 0,000 mm 2,7 UV-I 643 W/m 5,7 C 13,3 C 22,5 km/h (4 Bft) 100,00 %
01.07.2018 09:31 16,8 C 20,6 C 45 % 1015,9 hPa 0,0 l/m 14,8 km/h (3 Bft) O 98 1 min 0,000 mm 2,7 UV-I 645 W/m 4,8 C 13,4 C 20,9 km/h (4 Bft) 100,00 %
01.07.2018 09:32 16,8 C 20,6 C 46 % 1015,9 hPa 0,0 l/m 17,6 km/h (3 Bft) O 88 1 min 0,000 mm 2,8 UV-I 647 W/m 5,1 C 12,7 C 22,5 km/h (4 Bft) 100,00 %
01.07.2018 09:33 16,8 C 20,6 C 46 % 1015,9 hPa 0,0 l/m 18,8 km/h (3 Bft) O-NO 69 1 min 0,000 mm 2,8 UV-I 650 W/m 5,1 C 12,4 C 25,7 km/h (4 Bft) 100,00 %
01.07.2018 09:34 16,8 C 20,6 C 47 % 1015,9 hPa 0,0 l/m 14,0 km/h (3 Bft) NO 53 1 min 0,000 mm 2,8 UV-I 651 W/m 5,4 C 13,7 C 19,3 km/h (3 Bft) 100,00 %
01.07.2018 09:35 16,8 C 20,6 C 47 % 1015,9 hPa 0,0 l/m 12,8 km/h (3 Bft) O-SO 105 1 min 0,000 mm 2,8 UV-I 655 W/m 5,4 C 14,1 C 17,7 km/h (3 Bft) 100,00 %
01.07.2018 09:36 16,8 C 20,0 C 46 % 1015,9 hPa 0,0 l/m 15,6 km/h (3 Bft) O-SO 119 1 min 0,000 mm 2,8 UV-I 657 W/m 5,1 C 13,2 C 20,9 km/h (4 Bft) 100,00 %
01.07.2018 09:37 16,8 C 20,6 C 47 % 1015,9 hPa 0,0 l/m 14,1 km/h (3 Bft) O 93 1 min 0,000 mm 2,9 UV-I 659 W/m 5,4 C 13,6 C 20,9 km/h (4 Bft) 100,00 %
01.07.2018 09:38 16,8 C 20,6 C 47 % 1015,9 hPa 0,0 l/m 13,9 km/h (3 Bft) O-SO 109 1 min 0,000 mm 2,9 UV-I 661 W/m 5,4 C 13,7 C 19,3 km/h (3 Bft) 100,00 %
01.07.2018 09:39 16,8 C 20,6 C 47 % 1015,9 hPa 0,0 l/m 12,1 km/h (2 Bft) O-NO 70 1 min 0,000 mm 2,9 UV-I 665 W/m 5,4 C 14,3 C 16,1 km/h (3 Bft) 100,00 %
01.07.2018 09:40 16,9 C 20,6 C 48 % 1015,9 hPa 0,0 l/m 11,0 km/h (2 Bft) O 94 1 min 0,000 mm 2,9 UV-I 667 W/m 5,8 C 14,8 C 14,5 km/h (3 Bft) 100,00 %
01.07.2018 09:41 16,9 C 20,6 C 45 % 1015,8 hPa 0,0 l/m 20,6 km/h (4 Bft) O 89 1 min 0,000 mm 3,0 UV-I 668 W/m 4,9 C 12,1 C 27,4 km/h (4 Bft) 100,00 %
01.07.2018 09:42 16,9 C 20,6 C 45 % 1015,9 hPa 0,0 l/m 16,5 km/h (3 Bft) O 98 1 min 0,000 mm 3,0 UV-I 672 W/m 4,9 C 13,1 C 22,5 km/h (4 Bft) 100,00 %
01.07.2018 09:43 16,9 C 20,6 C 43 % 1015,9 hPa 0,0 l/m 18,7 km/h (3 Bft) O-SO 106 1 min 0,000 mm 3,0 UV-I 674 W/m 4,2 C 12,5 C 22,5 km/h (4 Bft) 100,00 %
01.07.2018 09:44 16,9 C 20,6 C 44 % 1015,9 hPa 0,0 l/m 16,6 km/h (3 Bft) SO 135 1 min 0,000 mm 3,0 UV-I 676 W/m 4,6 C 13,0 C 20,9 km/h (4 Bft) 100,00 %
01.07.2018 09:45 16,9 C 20,6 C 46 % 1015,9 hPa 0,0 l/m 18,1 km/h (3 Bft) O-SO 107 1 min 0,000 mm 3,1 UV-I 679 W/m 5,2 C 12,7 C 24,1 km/h (4 Bft) 100,00 %
01.07.2018 09:46 16,9 C 20,6 C 45 % 1015,9 hPa 0,0 l/m 12,9 km/h (3 Bft) O 86 1 min 0,000 mm 3,1 UV-I 680 W/m 4,9 C 14,2 C 17,7 km/h (3 Bft) 100,00 %
01.07.2018 09:47 16,9 C 20,6 C 46 % 1015,9 hPa 0,0 l/m 11,8 km/h (2 Bft) O 86 1 min 0,000 mm 3,1 UV-I 681 W/m 5,2 C 14,5 C 14,5 km/h (3 Bft) 100,00 %
01.07.2018 09:48 16,9 C 20,6 C 46 % 1015,9 hPa 0,0 l/m 13,6 km/h (3 Bft) S-SO 148 1 min 0,000 mm 3,1 UV-I 683 W/m 5,2 C 13,9 C 19,3 km/h (3 Bft) 100,00 %
01.07.2018 09:49 17,1 C 20,6 C 46 % 1015,9 hPa 0,0 l/m 13,6 km/h (3 Bft) O-SO 123 1 min 0,000 mm 3,1 UV-I 686 W/m 5,4 C 14,2 C 19,3 km/h (3 Bft) 100,00 %
01.07.2018 09:50 17,1 C 20,6 C 47 % 1015,9 hPa 0,0 l/m 11,9 km/h (2 Bft) O-SO 107 1 min 0,000 mm 3,2 UV-I 689 W/m 5,7 C 14,7 C 19,3 km/h (3 Bft) 100,00 %
01.07.2018 09:51 17,2 C 20,6 C 46 % 1016,0 hPa 0,0 l/m 15,1 km/h (3 Bft) O-SO 113 1 min 0,000 mm 3,2 UV-I 692 W/m 5,5 C 13,8 C 20,9 km/h (4 Bft) 100,00 %
01.07.2018 09:52 17,2 C 20,6 C 45 % 1016,0 hPa 0,0 l/m 12,4 km/h (3 Bft) O 101 1 min 0,000 mm 3,2 UV-I 693 W/m 5,2 C 14,7 C 17,7 km/h (3 Bft) 100,00 %
01.07.2018 09:53 17,1 C 20,6 C 44 % 1015,9 hPa 0,0 l/m 14,2 km/h (3 Bft) O-SO 103 1 min 0,000 mm 3,2 UV-I 695 W/m 4,8 C 14,0 C 19,3 km/h (3 Bft) 100,00 %
01.07.2018 09:54 17,1 C 20,6 C 45 % 1015,9 hPa 0,0 l/m 13,7 km/h (3 Bft) O-NO 57 1 min 0,000 mm 3,2 UV-I 697 W/m 5,1 C 14,1 C 17,7 km/h (3 Bft) 95,83 %
01.07.2018 09:55 17,2 C 20,6 C 47 % 1015,9 hPa 0,0 l/m 14,0 km/h (3 Bft) O 86 1 min 0,000 mm 3,3 UV-I 698 W/m 5,8 C 14,2 C 20,9 km/h (4 Bft) 100,00 %
01.07.2018 09:56 17,2 C 20,6 C 48 % 1015,9 hPa 0,0 l/m 18,4 km/h (3 Bft) O-SO 119 1 min 0,000 mm 3,3 UV-I 701 W/m 6,1 C 13,0 C 24,1 km/h (4 Bft) 100,00 %
01.07.2018 09:57 17,3 C 20,6 C 47 % 1015,9 hPa 0,0 l/m 13,0 km/h (3 Bft) O-NO 67 1 min 0,000 mm 3,3 UV-I 703 W/m 5,9 C 14,6 C 17,7 km/h (3 Bft) 100,00 %
01.07.2018 09:58 17,3 C 20,6 C 48 % 1015,9 hPa 0,0 l/m 10,5 km/h (2 Bft) NO 56 1 min 0,000 mm 3,3 UV-I 705 W/m 6,2 C 15,5 C 25,7 km/h (4 Bft) 100,00 %
01.07.2018 09:59 17,3 C 20,6 C 45 % 1015,9 hPa 0,0 l/m 17,3 km/h (3 Bft) O 79 1 min 0,000 mm 3,4 UV-I 708 W/m 5,3 C 13,4 C 24,1 km/h (4 Bft) 100,00 %
01.07.2018 10:00 17,3 C 20,6 C 45 % 1015,9 hPa 0,0 l/m 15,8 km/h (3 Bft) O-NO 61 1 min 0,000 mm 3,4 UV-I 709 W/m 5,3 C 13,8 C 20,9 km/h (4 Bft) 100,00 %
01.07.2018 10:01 17,2 C 20,6 C 45 % 1015,9 hPa 0,0 l/m 16,6 km/h (3 Bft) O-SO 103 1 min 0,432 mm 3,4 UV-I 713 W/m 5,2 C 13,4 C 20,9 km/h (4 Bft) 100,00 %
01.07.2018 10:02 17,1 C 20,6 C 45 % 1015,9 hPa 0,0 l/m 15,4 km/h (3 Bft) NO 46 1 min 0,000 mm 3,4 UV-I 715 W/m 5,1 C 13,6 C 19,3 km/h (3 Bft) 100,00 %
01.07.2018 10:03 17,1 C 20,6 C 45 % 1015,8 hPa 0,0 l/m 14,7 km/h (3 Bft) O-SO 113 1 min 0,000 mm 3,5 UV-I 717 W/m 5,1 C 13,8 C 19,3 km/h (3 Bft) 100,00 %
01.07.2018 10:04 17,2 C 20,6 C 46 % 1015,8 hPa 0,0 l/m 12,1 km/h (2 Bft) O 101 1 min 0,000 mm 3,5 UV-I 718 W/m 5,5 C 14,8 C 20,9 km/h (4 Bft) 100,00 %
01.07.2018 10:05 17,3 C 20,6 C 48 % 1015,9 hPa 0,0 l/m 13,6 km/h (3 Bft) O 96 1 min 0,000 mm 3,5 UV-I 720 W/m 6,2 C 14,4 C 19,3 km/h (3 Bft) 100,00 %
01.07.2018 10:06 17,3 C 20,6 C 46 % 1015,9 hPa 0,0 l/m 14,3 km/h (3 Bft) O 89 1 min 0,000 mm 3,5 UV-I 722 W/m 5,6 C 14,2 C 17,7 km/h (3 Bft) 100,00 %
01.07.2018 10:07 17,3 C 20,6 C 45 % 1015,9 hPa 0,0 l/m 15,9 km/h (3 Bft) O-SO 120 1 min 0,000 mm 3,6 UV-I 724 W/m 5,3 C 13,7 C 22,5 km/h (4 Bft) 95,65 %
01.07.2018 10:08 17,3 C 20,6 C 46 % 1015,9 hPa 0,0 l/m 20,1 km/h (4 Bft) O 86 1 min 0,000 mm 3,6 UV-I 726 W/m 5,6 C 12,7 C 24,1 km/h (4 Bft) 100,00 %
01.07.2018 10:09 17,2 C 20,6 C 44 % 1015,9 hPa 0,0 l/m 16,3 km/h (3 Bft) O 88 1 min 0,000 mm 3,6 UV-I 728 W/m 4,8 C 13,5 C 20,9 km/h (4 Bft) 100,00 %
01.07.2018 10:10 17,2 C 20,6 C 46 % 1015,9 hPa 0,0 l/m 14,1 km/h (3 Bft) SO 135 1 min 0,000 mm 3,6 UV-I 731 W/m 5,5 C 14,1 C 20,9 km/h (4 Bft) 100,00 %
01.07.2018 10:11 17,2 C 20,6 C 46 % 1015,9 hPa 0,0 l/m 5,8 km/h (2 Bft) O 82 1 min 0,000 mm 3,6 UV-I 733 W/m 5,5 C 17,2 C 12,9 km/h (3 Bft) 96,30 %
01.07.2018 10:12 17,2 C 20,6 C 46 % 1015,8 hPa 0,0 l/m 7,8 km/h (2 Bft) SO 128 1 min 0,000 mm 3,7 UV-I 736 W/m 5,5 C 16,5 C 12,9 km/h (3 Bft) 100,00 %
01.07.2018 10:13 17,3 C 20,6 C 46 % 1015,9 hPa 0,0 l/m 13,6 km/h (3 Bft) O 101 1 min 0,000 mm 3,7 UV-I 738 W/m 5,6 C 14,4 C 19,3 km/h (3 Bft) 100,00 %
01.07.2018 10:14 17,3 C 20,6 C 45 % 1015,8 hPa 0,0 l/m 14,6 km/h (3 Bft) O 92 1 min 0,000 mm 3,8 UV-I 740 W/m 5,3 C 14,1 C 20,9 km/h (4 Bft) 100,00 %
01.07.2018 10:15 17,4 C 20,6 C 45 % 1015,9 hPa 0,0 l/m 16,0 km/h (3 Bft) O 84 1 min 0,000 mm 3,8 UV-I 744 W/m 5,3 C 13,8 C 22,5 km/h (4 Bft) 100,00 %
01.07.2018 10:16 17,4 C 20,6 C 45 % 1015,8 hPa 0,0 l/m 16,3 km/h (3 Bft) O 99 1 min 0,000 mm 3,8 UV-I 744 W/m 5,3 C 13,7 C 20,9 km/h (4 Bft) 100,00 %
01.07.2018 10:17 17,4 C 20,6 C 45 % 1015,8 hPa 0,0 l/m 14,9 km/h (3 Bft) O-NO 75 1 min 0,000 mm 3,8 UV-I 744 W/m 5,3 C 14,1 C 19,3 km/h (3 Bft) 100,00 %
01.07.2018 10:18 17,4 C 20,6 C 46 % 1015,8 hPa 0,0 l/m 10,8 km/h (2 Bft) N 360 1 min 0,000 mm 3,8 UV-I 746 W/m 5,7 C 15,5 C 16,1 km/h (3 Bft) 100,00 %
01.07.2018 10:19 17,5 C 20,6 C 46 % 1015,8 hPa 0,0 l/m 10,6 km/h (2 Bft) NO 55 1 min 0,000 mm 3,9 UV-I 747 W/m 5,8 C 15,6 C 16,1 km/h (3 Bft) 98,36 %
01.07.2018 10:20 17,5 C 20,6 C 49 % 1015,8 hPa 0,0 l/m 12,8 km/h (3 Bft) O-NO 60 1 min 0,000 mm 3,9 UV-I 751 W/m 6,7 C 14,9 C 17,7 km/h (3 Bft) 100,00 %
01.07.2018 10:21 17,7 C 20,6 C 48 % 1015,7 hPa 0,0 l/m 14,2 km/h (3 Bft) O-NO 69 1 min 0,000 mm 3,9 UV-I 751 W/m 6,6 C 14,7 C 24,1 km/h (4 Bft) 100,00 %
01.07.2018 10:22 17,7 C 20,6 C 48 % 1015,8 hPa 0,0 l/m 18,6 km/h (3 Bft) NO 54 1 min 0,000 mm 3,9 UV-I 753 W/m 6,6 C 13,5 C 22,5 km/h (4 Bft) 100,00 %
01.07.2018 10:23 17,8 C 20,6 C 48 % 1015,8 hPa 0,0 l/m 18,5 km/h (3 Bft) O-SO 111 1 min 0,000 mm 3,9 UV-I 756 W/m 6,6 C 13,7 C 25,7 km/h (4 Bft) 100,00 %
01.07.2018 10:24 17,8 C 20,6 C 46 % 1015,8 hPa 0,0 l/m 15,8 km/h (3 Bft) O 81 1 min 0,000 mm 4,0 UV-I 759 W/m 6,0 C 14,4 C 20,9 km/h (4 Bft) 100,00 %
01.07.2018 10:25 17,8 C 20,6 C 45 % 1015,8 hPa 0,0 l/m 17,5 km/h (3 Bft) O-NO 71 1 min 0,000 mm 4,0 UV-I 760 W/m 5,7 C 13,9 C 20,9 km/h (4 Bft) 100,00 %
01.07.2018 10:26 17,8 C 20,6 C 46 % 1015,8 hPa 0,0 l/m 16,1 km/h (3 Bft) O-NO 59 1 min 0,000 mm 4,0 UV-I 763 W/m 6,0 C 14,3 C 22,5 km/h (4 Bft) 95,65 %
01.07.2018 10:27 17,9 C 20,6 C 47 % 1015,7 hPa 0,0 l/m 14,0 km/h (3 Bft) O-NO 69 1 min 0,000 mm 4,0 UV-I 765 W/m 6,4 C 15,0 C 17,7 km/h (3 Bft) 98,38 %
01.07.2018 10:28 17,9 C 20,6 C 46 % 1015,7 hPa 0,0 l/m 14,3 km/h (3 Bft) O 95 1 min 0,000 mm 4,0 UV-I 767 W/m 6,1 C 14,9 C 19,3 km/h (3 Bft) 97,73 %
01.07.2018 10:29 17,8 C 20,6 C 43 % 1015,8 hPa 0,0 l/m 12,0 km/h (2 Bft) O 98 1 min 0,000 mm 4,1 UV-I 770 W/m 5,1 C 15,5 C 16,1 km/h (3 Bft) 100,00 %
01.07.2018 10:30 17,8 C 20,6 C 43 % 1015,7 hPa 0,0 l/m 12,1 km/h (2 Bft) NO 51 1 min 0,000 mm 4,1 UV-I 772 W/m 5,1 C 15,5 C 14,5 km/h (3 Bft) 86,67 %
01.07.2018 10:31 17,8 C 20,6 C 47 % 1015,7 hPa 0,0 l/m 14,3 km/h (3 Bft) O-NO 57 1 min 0,000 mm 4,1 UV-I 773 W/m 6,3 C 14,8 C 19,3 km/h (3 Bft) 100,00 %
01.07.2018 10:32 17,8 C 20,6 C 46 % 1015,7 hPa 0,0 l/m 15,8 km/h (3 Bft) O-NO 69 1 min 0,000 mm 4,1 UV-I 774 W/m 6,0 C 14,4 C 20,9 km/h (4 Bft) 83,33 %
01.07.2018 10:33 17,8 C 20,6 C 44 % 1015,7 hPa 0,0 l/m 17,4 km/h (3 Bft) NO 49 1 min 0,000 mm 4,2 UV-I 777 W/m 5,4 C 14,0 C 22,5 km/h (4 Bft) 95,12 %
01.07.2018 10:34 17,7 C 20,6 C 44 % 1015,8 hPa 0,0 l/m 15,1 km/h (3 Bft) O-NO 64 1 min 0,000 mm 4,2 UV-I 778 W/m 5,3 C 14,4 C 25,7 km/h (4 Bft) 100,00 %
01.07.2018 10:35 17,8 C 20,6 C 47 % 1015,7 hPa 0,0 l/m 18,3 km/h (3 Bft) O-NO 70 1 min 0,000 mm 4,2 UV-I 780 W/m 6,3 C 13,7 C 24,1 km/h (4 Bft) 93,55 %
01.07.2018 10:36 17,8 C 20,6 C 46 % 1015,7 hPa 0,0 l/m 14,1 km/h (3 Bft) O-NO 76 1 min 0,000 mm 4,2 UV-I 782 W/m 6,0 C 14,8 C 17,7 km/h (3 Bft) 100,00 %
01.07.2018 10:37 17,9 C 20,6 C 45 % 1015,7 hPa 0,0 l/m 18,2 km/h (3 Bft) NO 44 1 min 0,000 mm 4,2 UV-I 784 W/m 5,8 C 13,9 C 24,1 km/h (4 Bft) 91,30 %
01.07.2018 10:38 17,9 C 20,6 C 46 % 1015,7 hPa 0,0 l/m 17,6 km/h (3 Bft) N-NO 25 1 min 0,000 mm 4,3 UV-I 785 W/m 6,1 C 14,0 C 22,5 km/h (4 Bft) 100,00 %
01.07.2018 10:39 17,9 C 20,6 C 46 % 1015,7 hPa 0,0 l/m 16,7 km/h (3 Bft) N-NO 17 1 min 0,000 mm 4,3 UV-I 784 W/m 6,1 C 14,3 C 20,9 km/h (4 Bft) 91,30 %
01.07.2018 10:40 17,9 C 20,6 C 46 % 1015,6 hPa 0,0 l/m 14,1 km/h (3 Bft) O 79 1 min 0,000 mm 4,3 UV-I 787 W/m 6,1 C 15,0 C 22,5 km/h (4 Bft) 95,83 %
01.07.2018 10:41 18,0 C 20,6 C 47 % 1015,7 hPa 0,0 l/m 9,2 km/h (2 Bft) O-NO 67 1 min 0,000 mm 4,3 UV-I 790 W/m 6,5 C 16,7 C 12,9 km/h (3 Bft) 92,86 %
01.07.2018 10:42 18,0 C 20,6 C 44 % 1015,7 hPa 0,0 l/m 9,2 km/h (2 Bft) O 97 1 min 0,000 mm 4,3 UV-I 793 W/m 5,6 C 16,7 C 16,1 km/h (3 Bft) 95,83 %
01.07.2018 10:43 17,9 C 20,6 C 45 % 1015,6 hPa 0,0 l/m 15,0 km/h (3 Bft) O-NO 61 1 min 0,000 mm 4,4 UV-I 795 W/m 5,8 C 14,7 C 19,3 km/h (3 Bft) 96,15 %
01.07.2018 10:44 17,9 C 20,6 C 46 % 1015,7 hPa 0,0 l/m 18,2 km/h (3 Bft) NO 53 1 min 0,000 mm 4,4 UV-I 795 W/m 6,1 C 13,9 C 24,1 km/h (4 Bft) 92,59 %
01.07.2018 10:45 17,9 C 20,6 C 47 % 1015,7 hPa 0,0 l/m 16,4 km/h (3 Bft) O-NO 65 1 min 0,000 mm 4,4 UV-I 797 W/m 6,4 C 14,3 C 22,5 km/h (4 Bft) 100,00 %
01.07.2018 10:46 18,1 C 20,6 C 45 % 1015,7 hPa 0,0 l/m 14,2 km/h (3 Bft) NO 37 1 min 0,000 mm 4,4 UV-I 799 W/m 6,0 C 15,2 C 17,7 km/h (3 Bft) 88,46 %
01.07.2018 10:47 18,1 C 20,6 C 45 % 1015,7 hPa 0,0 l/m 11,7 km/h (2 Bft) O-NO 76 1 min 0,000 mm 4,4 UV-I 801 W/m 6,0 C 15,9 C 16,1 km/h (3 Bft) 100,00 %
01.07.2018 10:48 18,0 C 20,6 C 44 % 1015,7 hPa 0,0 l/m 16,2 km/h (3 Bft) O-NO 67 1 min 0,000 mm 4,5 UV-I 803 W/m 5,6 C 14,5 C 20,9 km/h (4 Bft) 91,67 %
01.07.2018 10:49 18,0 C 20,6 C 47 % 1015,6 hPa 0,0 l/m 14,0 km/h (3 Bft) N-NO 30 1 min 0,000 mm 4,5 UV-I 805 W/m 6,5 C 15,1 C 20,9 km/h (4 Bft) 95,65 %
01.07.2018 10:50 18,1 C 20,6 C 49 % 1015,6 hPa 0,0 l/m 12,7 km/h (3 Bft) N-NO 28 1 min 0,000 mm 4,5 UV-I 806 W/m 7,2 C 15,6 C 17,7 km/h (3 Bft) 95,83 %
01.07.2018 10:51 18,2 C 20,6 C 49 % 1015,5 hPa 0,0 l/m 9,1 km/h (2 Bft) O-NO 72 1 min 0,000 mm 4,5 UV-I 807 W/m 7,3 C 17,0 C 12,9 km/h (3 Bft) 95,83 %
01.07.2018 10:52 18,3 C 20,6 C 45 % 1015,7 hPa 0,0 l/m 15,5 km/h (3 Bft) O-SO 102 1 min 0,000 mm 4,6 UV-I 809 W/m 6,2 C 15,1 C 19,3 km/h (3 Bft) 95,65 %
01.07.2018 10:53 18,3 C 20,6 C 45 % 1015,7 hPa 0,0 l/m 19,2 km/h (3 Bft) O-NO 65 1 min 0,000 mm 4,6 UV-I 812 W/m 6,2 C 14,2 C 24,1 km/h (4 Bft) 95,83 %
01.07.2018 10:54 18,3 C 20,6 C 48 % 1015,7 hPa 0,0 l/m 16,2 km/h (3 Bft) O-NO 63 1 min 0,000 mm 4,6 UV-I 814 W/m 7,1 C 14,9 C 20,9 km/h (4 Bft) 95,65 %
01.07.2018 10:55 18,3 C 20,6 C 47 % 1015,8 hPa 0,0 l/m 9,5 km/h (2 Bft) N-NO 31 1 min 0,000 mm 4,6 UV-I 816 W/m 6,8 C 17,0 C 14,5 km/h (3 Bft) 93,33 %
01.07.2018 10:56 18,3 C 20,6 C 49 % 1015,7 hPa 0,0 l/m 8,6 km/h (2 Bft) O-SO 115 1 min 0,000 mm 4,7 UV-I 817 W/m 7,4 C 17,3 C 12,9 km/h (3 Bft) 92,31 %
01.07.2018 10:57 18,3 C 20,6 C 48 % 1015,7 hPa 0,0 l/m 11,2 km/h (2 Bft) NO 55 1 min 0,000 mm 4,7 UV-I 818 W/m 7,1 C 16,3 C 16,1 km/h (3 Bft) 96,30 %
01.07.2018 10:58 18,3 C 20,6 C 45 % 1015,7 hPa 0,0 l/m 15,3 km/h (3 Bft) O-NO 72 1 min 0,000 mm 4,7 UV-I 819 W/m 6,2 C 15,1 C 22,5 km/h (4 Bft) 100,00 %
01.07.2018 10:59 18,3 C 20,6 C 45 % 1015,6 hPa 0,0 l/m 16,4 km/h (3 Bft) O 92 1 min 0,000 mm 4,8 UV-I 820 W/m 6,2 C 14,8 C 19,3 km/h (3 Bft) 96,30 %
01.07.2018 11:00 18,2 C 20,6 C 43 % 1015,7 hPa 0,0 l/m 11,9 km/h (2 Bft) O 100 1 min 0,533 mm 4,8 UV-I 823 W/m 5,4 C 16,0 C 16,1 km/h (3 Bft) 100,00 %
01.07.2018 11:01 18,1 C 20,6 C 42 % 1015,7 hPa 0,0 l/m 8,6 km/h (2 Bft) O-SO 114 1 min 0,000 mm 4,8 UV-I 823 W/m 5,0 C 17,1 C 12,9 km/h (3 Bft) 96,30 %
01.07.2018 11:02 18,1 C 20,6 C 47 % 1015,7 hPa 0,0 l/m 15,0 km/h (3 Bft) O 88 1 min 0,000 mm 4,8 UV-I 825 W/m 6,6 C 14,9 C 20,9 km/h (4 Bft) 100,00 %
01.07.2018 11:03 18,2 C 20,6 C 44 % 1015,7 hPa 0,0 l/m 15,3 km/h (3 Bft) O 85 1 min 0,000 mm 4,9 UV-I 826 W/m 5,7 C 15,0 C 22,5 km/h (4 Bft) 95,83 %
01.07.2018 11:04 18,2 C 20,6 C 44 % 1015,7 hPa 0,0 l/m 11,5 km/h (2 Bft) O-SO 112 1 min 0,000 mm 4,9 UV-I 828 W/m 5,7 C 16,1 C 14,5 km/h (3 Bft) 96,15 %
01.07.2018 11:05 18,2 C 20,6 C 43 % 1015,7 hPa 0,0 l/m 11,8 km/h (2 Bft) O 87 1 min 0,000 mm 4,9 UV-I 830 W/m 5,4 C 16,0 C 17,7 km/h (3 Bft) 95,83 %
01.07.2018 11:06 18,2 C 20,6 C 47 % 1015,8 hPa 0,0 l/m 14,6 km/h (3 Bft) NO 34 1 min 0,000 mm 4,9 UV-I 833 W/m 6,7 C 15,2 C 19,3 km/h (3 Bft) 100,00 %
01.07.2018 11:07 18,3 C 20,6 C 44 % 1015,8 hPa 0,0 l/m 16,6 km/h (3 Bft) O-NO 65 1 min 0,000 mm 5,0 UV-I 833 W/m 5,8 C 14,8 C 22,5 km/h (4 Bft) 96,15 %
01.07.2018 11:08 18,3 C 20,6 C 43 % 1015,8 hPa 0,0 l/m 16,0 km/h (3 Bft) N-NO 28 1 min 0,000 mm 5,0 UV-I 833 W/m 5,5 C 14,9 C 19,3 km/h (3 Bft) 100,00 %
01.07.2018 11:09 18,3 C 20,6 C 44 % 1015,8 hPa 0,0 l/m 17,2 km/h (3 Bft) NO 42 1 min 0,000 mm 5,0 UV-I 836 W/m 5,8 C 14,6 C 22,5 km/h (4 Bft) 91,30 %
01.07.2018 11:10 18,3 C 20,6 C 47 % 1015,8 hPa 0,0 l/m 12,4 km/h (3 Bft) O 101 1 min 0,000 mm 5,0 UV-I 838 W/m 6,8 C 15,9 C 17,7 km/h (3 Bft) 96,30 %
01.07.2018 11:11 18,4 C 20,6 C 45 % 1015,9 hPa 0,0 l/m 15,7 km/h (3 Bft) O-SO 105 1 min 0,000 mm 5,0 UV-I 840 W/m 6,3 C 15,1 C 22,5 km/h (4 Bft) 100,00 %
01.07.2018 11:12 18,4 C 20,6 C 45 % 1015,9 hPa 0,0 l/m 9,7 km/h (2 Bft) O 96 1 min 0,000 mm 5,0 UV-I 840 W/m 6,3 C 17,0 C 14,5 km/h (3 Bft) 93,33 %
01.07.2018 11:13 18,4 C 20,6 C 42 % 1015,8 hPa 0,0 l/m 14,1 km/h (3 Bft) O-SO 118 1 min 0,000 mm 5,1 UV-I 842 W/m 5,3 C 15,6 C 19,3 km/h (3 Bft) 100,00 %
01.07.2018 11:14 18,4 C 20,6 C 44 % 1015,9 hPa 0,0 l/m 15,8 km/h (3 Bft) O 96 1 min 0,000 mm 5,1 UV-I 843 W/m 5,9 C 15,1 C 22,5 km/h (4 Bft) 96,30 %
01.07.2018 11:15 18,4 C 20,6 C 42 % 1015,8 hPa 0,0 l/m 17,2 km/h (3 Bft) SO 129 1 min 0,000 mm 5,1 UV-I 845 W/m 5,3 C 14,8 C 24,1 km/h (4 Bft) 100,00 %
01.07.2018 11:16 18,4 C 20,6 C 42 % 1015,9 hPa 0,0 l/m 15,6 km/h (3 Bft) O 92 1 min 0,000 mm 5,1 UV-I 847 W/m 5,3 C 15,2 C 22,5 km/h (4 Bft) 92,59 %
01.07.2018 11:17 18,3 C 20,6 C 42 % 1015,9 hPa 0,0 l/m 10,8 km/h (2 Bft) O-NO 66 1 min 0,000 mm 5,2 UV-I 849 W/m 5,2 C 16,5 C 14,5 km/h (3 Bft) 100,00 %
01.07.2018 11:18 18,4 C 20,6 C 46 % 1015,9 hPa 0,0 l/m 18,0 km/h (3 Bft) O-NO 67 1 min 0,000 mm 5,2 UV-I 849 W/m 6,6 C 14,6 C 22,5 km/h (4 Bft) 96,55 %
01.07.2018 11:19 18,6 C 20,6 C 46 % 1015,9 hPa 0,0 l/m 16,1 km/h (3 Bft) O 85 1 min 0,000 mm 5,2 UV-I 849 W/m 6,8 C 15,3 C 20,9 km/h (4 Bft) 100,00 %
01.07.2018 11:20 18,6 C 20,6 C 46 % 1015,8 hPa 0,0 l/m 11,7 km/h (2 Bft) O-SO 103 1 min 0,000 mm 5,2 UV-I 852 W/m 6,8 C 16,5 C 17,7 km/h (3 Bft) 97,37 %
01.07.2018 11:21 18,6 C 20,6 C 41 % 1015,9 hPa 0,0 l/m 14,6 km/h (3 Bft) O-NO 58 1 min 0,000 mm 5,2 UV-I 854 W/m 5,1 C 15,7 C 19,3 km/h (3 Bft) 95,65 %
01.07.2018 11:22 18,6 C 20,6 C 43 % 1015,9 hPa 0,0 l/m 13,0 km/h (3 Bft) O-NO 71 1 min 0,000 mm 5,2 UV-I 854 W/m 5,8 C 16,1 C 19,3 km/h (3 Bft) 95,83 %
01.07.2018 11:23 18,4 C 20,6 C 42 % 1015,9 hPa 0,0 l/m 9,3 km/h (2 Bft) O 94 1 min 0,000 mm 5,2 UV-I 856 W/m 5,3 C 17,1 C 12,9 km/h (3 Bft) 95,65 %
01.07.2018 11:24 18,4 C 20,6 C 41 % 1015,8 hPa 0,0 l/m 6,1 km/h (2 Bft) O 98 1 min 0,000 mm 5,3 UV-I 858 W/m 4,9 C 18,4 C 11,3 km/h (2 Bft) 100,00 %
01.07.2018 11:25 18,4 C 20,6 C 44 % 1015,8 hPa 0,0 l/m 14,6 km/h (3 Bft) O-SO 121 1 min 0,000 mm 5,3 UV-I 858 W/m 5,9 C 15,4 C 19,3 km/h (3 Bft) 91,67 %
01.07.2018 11:26 18,4 C 20,6 C 44 % 1015,9 hPa 0,0 l/m 13,1 km/h (3 Bft) O-NO 78 1 min 0,000 mm 5,4 UV-I 860 W/m 5,9 C 15,8 C 17,7 km/h (3 Bft) 100,00 %
01.07.2018 11:28 18,5 C 20,6 C 44 % 1015,8 hPa 0,0 l/m 15,3 km/h (3 Bft) O-SO 107 2 min 0,000 mm 5,4 UV-I 862 W/m 6,0 C 15,4 C 22,5 km/h (4 Bft) 96,23 %
01.07.2018 11:29 18,6 C 20,6 C 44 % 1015,8 hPa 0,0 l/m 12,2 km/h (2 Bft) O-NO 74 1 min 0,000 mm 5,4 UV-I 865 W/m 6,1 C 16,4 C 22,5 km/h (4 Bft) 100,00 %
01.07.2018 11:30 18,7 C 20,6 C 44 % 1015,8 hPa 0,0 l/m 14,2 km/h (3 Bft) O 83 1 min 0,000 mm 5,5 UV-I 867 W/m 6,2 C 15,9 C 19,3 km/h (3 Bft) 100,00 %
01.07.2018 11:31 18,7 C 20,6 C 41 % 1015,8 hPa 0,0 l/m 12,2 km/h (2 Bft) O 92 1 min 0,000 mm 5,5 UV-I 867 W/m 5,2 C 16,5 C 16,1 km/h (3 Bft) 100,00 %
01.07.2018 11:32 18,6 C 20,6 C 44 % 1015,8 hPa 0,0 l/m 13,3 km/h (3 Bft) NO 42 1 min 0,000 mm 5,5 UV-I 868 W/m 6,1 C 16,0 C 16,1 km/h (3 Bft) 100,00 %
01.07.2018 11:33 18,7 C 20,6 C 45 % 1015,7 hPa 0,0 l/m 10,9 km/h (2 Bft) N-NO 28 1 min 0,000 mm 5,5 UV-I 869 W/m 6,5 C 16,9 C 14,5 km/h (3 Bft) 98,10 %
01.07.2018 11:34 18,9 C 20,6 C 44 % 1015,8 hPa 0,0 l/m 7,5 km/h (2 Bft) S-SO 155 1 min 0,000 mm 5,5 UV-I 868 W/m 6,4 C 18,4 C 12,9 km/h (3 Bft) 97,56 %
01.07.2018 11:35 18,9 C 20,6 C 43 % 1015,8 hPa 0,0 l/m 14,1 km/h (3 Bft) SO 133 1 min 0,000 mm 5,5 UV-I 868 W/m 6,0 C 16,2 C 17,7 km/h (3 Bft) 100,00 %
01.07.2018 11:36 19,1 C 20,6 C 43 % 1015,8 hPa 0,0 l/m 7,2 km/h (2 Bft) SO 142 1 min 0,000 mm 5,5 UV-I 868 W/m 6,2 C 18,7 C 12,9 km/h (3 Bft) 100,00 %
01.07.2018 11:38 19,1 C 20,6 C 44 % 1015,8 hPa 0,0 l/m 12,0 km/h (2 Bft) NO 51 2 min 0,000 mm 5,6 UV-I 870 W/m 6,6 C 17,0 C 19,3 km/h (3 Bft) 100,00 %
01.07.2018 11:39 19,1 C 20,6 C 44 % 1015,8 hPa 0,0 l/m 11,1 km/h (2 Bft) NO 51 1 min 0,000 mm 5,6 UV-I 875 W/m 6,6 C 17,3 C 14,5 km/h (3 Bft) 100,00 %
01.07.2018 11:40 19,1 C 20,6 C 44 % 1015,8 hPa 0,0 l/m 12,8 km/h (3 Bft) O-NO 76 1 min 0,000 mm 5,6 UV-I 877 W/m 6,6 C 16,8 C 19,3 km/h (3 Bft) 100,00 %
01.07.2018 11:41 19,1 C 20,6 C 43 % 1015,8 hPa 0,0 l/m 9,7 km/h (2 Bft) O 93 1 min 0,000 mm 5,7 UV-I 877 W/m 6,2 C 17,8 C 14,5 km/h (3 Bft) 100,00 %
01.07.2018 11:42 19,2 C 20,6 C 44 % 1015,8 hPa 0,0 l/m 14,7 km/h (3 Bft) NO 42 1 min 0,000 mm 4,1 UV-I 879 W/m 6,7 C 16,4 C 17,7 km/h (3 Bft) 100,00 %
01.07.2018 11:43 19,3 C 20,6 C 45 % 1015,8 hPa 0,0 l/m 15,9 km/h (3 Bft) NO 49 1 min 0,000 mm 4,0 UV-I 879 W/m 7,1 C 16,2 C 22,5 km/h (4 Bft) 100,00 %
01.07.2018 11:44 19,3 C 20,6 C 46 % 1015,8 hPa 0,0 l/m 18,7 km/h (3 Bft) NO 37 1 min 0,000 mm 3,8 UV-I 880 W/m 7,4 C 15,6 C 20,9 km/h (4 Bft) 98,13 %
01.07.2018 11:45 19,3 C 20,6 C 44 % 1015,8 hPa 0,0 l/m 14,5 km/h (3 Bft) NO 38 1 min 0,000 mm 3,3 UV-I 881 W/m 6,7 C 16,5 C 17,7 km/h (3 Bft) 100,00 %
01.07.2018 11:46 19,4 C 20,6 C 45 % 1015,8 hPa 0,0 l/m 12,1 km/h (2 Bft) NO 34 1 min 0,000 mm 3,4 UV-I 883 W/m 7,2 C 17,3 C 17,7 km/h (3 Bft) 91,67 %
01.07.2018 11:47 19,4 C 20,6 C 41 % 1015,8 hPa 0,0 l/m 11,3 km/h (2 Bft) NO 50 1 min 0,000 mm 4,0 UV-I 884 W/m 5,8 C 17,6 C 16,1 km/h (3 Bft) 100,00 %
01.07.2018 11:48 19,4 C 20,6 C 44 % 1015,8 hPa 0,0 l/m 13,0 km/h (3 Bft) N-NO 30 1 min 0,000 mm 4,3 UV-I 885 W/m 6,8 C 17,1 C 16,1 km/h (3 Bft) 100,00 %
01.07.2018 11:49 19,6 C 20,6 C 47 % 1015,8 hPa 0,0 l/m 10,7 km/h (2 Bft) N-NO 13 1 min 0,000 mm 4,2 UV-I 886 W/m 8,0 C 18,0 C 16,1 km/h (3 Bft) 100,00 %
01.07.2018 11:50 19,6 C 20,6 C 42 % 1015,8 hPa 0,0 l/m 9,7 km/h (2 Bft) O-NO 60 1 min 0,000 mm 4,2 UV-I 887 W/m 6,3 C 18,3 C 14,5 km/h (3 Bft) 100,00 %
01.07.2018 11:51 19,7 C 20,6 C 48 % 1015,8 hPa 0,0 l/m 15,4 km/h (3 Bft) O 85 1 min 0,000 mm 4,2 UV-I 888 W/m 8,4 C 16,8 C 20,9 km/h (4 Bft) 100,00 %
01.07.2018 11:53 19,3 C 20,6 C 40 % 1015,8 hPa 0,0 l/m 10,4 km/h (2 Bft) O 88 2 min 0,000 mm 4,0 UV-I 888 W/m 5,4 C 17,7 C 16,1 km/h (3 Bft) 100,00 %
01.07.2018 11:54 19,2 C 20,6 C 41 % 1015,8 hPa 0,0 l/m 9,4 km/h (2 Bft) O-SO 119 1 min 0,000 mm 5,3 UV-I 891 W/m 5,6 C 18,0 C 14,5 km/h (3 Bft) 100,00 %
01.07.2018 11:55 19,2 C 20,6 C 41 % 1015,8 hPa 0,0 l/m 8,9 km/h (2 Bft) SO 140 1 min 0,000 mm 5,0 UV-I 892 W/m 5,6 C 18,2 C 12,9 km/h (3 Bft) 100,00 %
01.07.2018 11:56 19,2 C 20,6 C 39 % 1015,8 hPa 0,0 l/m 8,0 km/h (2 Bft) O-SO 102 1 min 0,000 mm 4,6 UV-I 894 W/m 4,9 C 18,5 C 11,3 km/h (2 Bft) 100,00 %
01.07.2018 11:57 19,1 C 20,6 C 40 % 1015,9 hPa 0,0 l/m 13,8 km/h (3 Bft) O-SO 106 1 min 0,000 mm 4,6 UV-I 896 W/m 5,2 C 16,5 C 19,3 km/h (3 Bft) 100,00 %
01.07.2018 11:58 19,0 C 20,6 C 41 % 1015,8 hPa 0,0 l/m 11,5 km/h (2 Bft) O-NO 73 1 min 0,000 mm 4,6 UV-I 896 W/m 5,4 C 17,0 C 19,3 km/h (3 Bft) 100,00 %
01.07.2018 11:59 19,0 C 20,6 C 40 % 1015,8 hPa 0,0 l/m 7,5 km/h (2 Bft) O-SO 107 1 min 0,000 mm 4,7 UV-I 896 W/m 5,1 C 18,5 C 11,3 km/h (2 Bft) 97,14 %
01.07.2018 12:00 19,1 C 20,6 C 45 % 1015,8 hPa 0,0 l/m 8,3 km/h (2 Bft) O-NO 60 1 min 0,585 mm 4,7 UV-I 896 W/m 6,9 C 18,3 C 11,3 km/h (2 Bft) 100,00 %
01.07.2018 12:01 19,1 C 20,6 C 42 % 1015,8 hPa 0,0 l/m 4,8 km/h (1 Bft) O-NO 60 1 min 0,000 mm 2,5 UV-I 896 W/m 5,9 C 19,1 C 6,4 km/h (2 Bft) 100,00 %
01.07.2018 12:02 19,0 C 20,6 C 42 % 1015,8 hPa 0,0 l/m 4,4 km/h (1 Bft) O 101 1 min 0,000 mm 3,8 UV-I 896 W/m 5,8 C 19,0 C 6,4 km/h (2 Bft) 100,00 %
01.07.2018 12:03 19,1 C 20,6 C 42 % 1015,8 hPa 0,0 l/m 7,2 km/h (2 Bft) SO 140 1 min 0,000 mm 5,6 UV-I 898 W/m 5,9 C 18,7 C 12,9 km/h (3 Bft) 95,83 %
01.07.2018 12:04 19,0 C 20,6 C 40 % 1015,8 hPa 0,0 l/m 4,8 km/h (1 Bft) O 101 1 min 0,000 mm 6,0 UV-I 898 W/m 5,1 C 19,0 C 9,7 km/h (2 Bft) 100,00 %
01.07.2018 12:05 19,1 C 20,6 C 41 % 1015,7 hPa 0,0 l/m 10,5 km/h (2 Bft) O 101 1 min 0,000 mm 6,0 UV-I 900 W/m 5,5 C 17,5 C 16,1 km/h (3 Bft) 100,00 %
01.07.2018 12:06 19,1 C 20,6 C 41 % 1015,8 hPa 0,0 l/m 10,0 km/h (2 Bft) O 94 1 min 0,000 mm 6,1 UV-I 902 W/m 5,5 C 17,6 C 17,7 km/h (3 Bft) 100,00 %
01.07.2018 12:07 19,1 C 20,6 C 42 % 1015,8 hPa 0,0 l/m 13,9 km/h (3 Bft) O 86 1 min 0,000 mm 6,1 UV-I 903 W/m 5,9 C 16,4 C 16,1 km/h (3 Bft) 100,00 %
01.07.2018 12:08 19,2 C 20,6 C 41 % 1015,8 hPa 0,0 l/m 9,8 km/h (2 Bft) O-SO 107 1 min 0,000 mm 6,1 UV-I 905 W/m 5,6 C 17,8 C 12,9 km/h (3 Bft) 100,00 %
01.07.2018 12:09 19,1 C 20,6 C 41 % 1015,8 hPa 0,0 l/m 12,1 km/h (2 Bft) O-SO 102 1 min 0,000 mm 6,1 UV-I 905 W/m 5,5 C 17,0 C 19,3 km/h (3 Bft) 100,00 %
01.07.2018 12:10 19,1 C 20,6 C 40 % 1015,8 hPa 0,0 l/m 10,2 km/h (2 Bft) SO 131 1 min 0,000 mm 6,1 UV-I 905 W/m 5,2 C 17,6 C 17,7 km/h (3 Bft) 95,65 %
01.07.2018 12:11 19,1 C 20,6 C 43 % 1015,8 hPa 0,0 l/m 5,3 km/h (1 Bft) O-SO 117 1 min 0,000 mm 6,1 UV-I 905 W/m 6,2 C 19,1 C 9,7 km/h (2 Bft) 100,00 %
01.07.2018 12:12 19,2 C 20,6 C 44 % 1015,8 hPa 0,0 l/m 15,4 km/h (3 Bft) O 80 1 min 0,000 mm 6,1 UV-I 905 W/m 6,7 C 16,2 C 22,5 km/h (4 Bft) 96,15 %
01.07.2018 12:13 19,3 C 20,6 C 42 % 1015,8 hPa 0,0 l/m 17,6 km/h (3 Bft) O 95 1 min 0,000 mm 6,1 UV-I 905 W/m 6,1 C 15,8 C 22,5 km/h (4 Bft) 100,00 %
01.07.2018 12:14 19,3 C 20,6 C 44 % 1015,8 hPa 0,0 l/m 18,6 km/h (3 Bft) O-SO 120 1 min 0,000 mm 6,1 UV-I 906 W/m 6,7 C 15,6 C 24,1 km/h (4 Bft) 96,15 %
01.07.2018 12:15 19,3 C 20,6 C 40 % 1015,8 hPa 0,0 l/m 13,8 km/h (3 Bft) O 100 1 min 0,000 mm 6,1 UV-I 907 W/m 5,4 C 16,7 C 17,7 km/h (3 Bft) 100,00 %
01.07.2018 12:16 19,2 C 20,6 C 40 % 1015,8 hPa 0,0 l/m 13,3 km/h (3 Bft) SO 142 1 min 0,000 mm 6,1 UV-I 909 W/m 5,3 C 16,7 C 19,3 km/h (3 Bft) 91,30 %
01.07.2018 12:17 19,2 C 21,1 C 39 % 1015,8 hPa 0,0 l/m 8,4 km/h (2 Bft) O-SO 115 1 min 0,000 mm 6,1 UV-I 909 W/m 4,9 C 18,4 C 14,5 km/h (3 Bft) 95,83 %
01.07.2018 12:18 19,2 C 21,1 C 42 % 1015,8 hPa 0,0 l/m 8,7 km/h (2 Bft) O-NO 71 1 min 0,000 mm 6,2 UV-I 906 W/m 6,0 C 18,2 C 14,5 km/h (3 Bft) 100,00 %
01.07.2018 12:19 19,3 C 21,1 C 47 % 1015,8 hPa 0,0 l/m 11,7 km/h (2 Bft) O 96 1 min 0,000 mm 6,2 UV-I 907 W/m 7,7 C 17,3 C 17,7 km/h (3 Bft) 95,83 %
01.07.2018 12:20 19,4 C 21,1 C 40 % 1015,7 hPa 0,0 l/m 16,0 km/h (3 Bft) O 93 1 min 0,000 mm 6,2 UV-I 910 W/m 5,5 C 16,3 C 19,3 km/h (3 Bft) 100,00 %
01.07.2018 12:21 19,3 C 21,1 C 39 % 1015,8 hPa 0,0 l/m 16,6 km/h (3 Bft) O-SO 104 1 min 0,000 mm 6,2 UV-I 911 W/m 5,0 C 16,0 C 20,9 km/h (4 Bft) 95,83 %
01.07.2018 12:22 19,3 C 21,1 C 40 % 1015,8 hPa 0,0 l/m 15,2 km/h (3 Bft) O 100 1 min 0,000 mm 6,2 UV-I 912 W/m 5,4 C 16,4 C 22,5 km/h (4 Bft) 100,00 %
01.07.2018 12:23 19,3 C 21,1 C 39 % 1015,8 hPa 0,0 l/m 17,2 km/h (3 Bft) O-NO 66 1 min 0,000 mm 6,2 UV-I 912 W/m 5,0 C 15,9 C 22,5 km/h (4 Bft) 91,67 %
01.07.2018 12:24 19,3 C 21,1 C 38 % 1015,8 hPa 0,0 l/m 15,9 km/h (3 Bft) O 82 1 min 0,000 mm 6,2 UV-I 914 W/m 4,6 C 16,2 C 19,3 km/h (3 Bft) 100,00 %
01.07.2018 12:25 19,3 C 21,1 C 40 % 1015,8 hPa 0,0 l/m 9,8 km/h (2 Bft) O 95 1 min 0,000 mm 6,2 UV-I 915 W/m 5,4 C 17,9 C 12,9 km/h (3 Bft) 95,65 %
01.07.2018 12:26 19,3 C 21,1 C 39 % 1015,8 hPa 0,0 l/m 8,0 km/h (2 Bft) O-SO 113 1 min 0,000 mm 6,3 UV-I 916 W/m 5,0 C 18,6 C 12,9 km/h (3 Bft) 100,00 %
01.07.2018 12:27 19,3 C 21,1 C 38 % 1015,8 hPa 0,0 l/m 14,2 km/h (3 Bft) O 79 1 min 0,000 mm 6,3 UV-I 914 W/m 4,6 C 16,6 C 16,1 km/h (3 Bft) 96,55 %
01.07.2018 12:28 19,3 C 21,1 C 39 % 1015,9 hPa 0,0 l/m 10,4 km/h (2 Bft) O-SO 103 1 min 0,000 mm 6,3 UV-I 914 W/m 5,0 C 17,7 C 14,5 km/h (3 Bft) 96,67 %
01.07.2018 12:29 19,2 C 21,1 C 40 % 1015,8 hPa 0,0 l/m 12,1 km/h (2 Bft) O 101 1 min 0,000 mm 6,3 UV-I 917 W/m 5,3 C 17,1 C 14,5 km/h (3 Bft) 100,00 %
01.07.2018 12:30 19,2 C 21,1 C 38 % 1015,8 hPa 0,0 l/m 11,5 km/h (2 Bft) O-SO 104 1 min 0,000 mm 6,3 UV-I 918 W/m 4,5 C 17,3 C 12,9 km/h (3 Bft) 95,83 %
01.07.2018 12:31 19,2 C 21,1 C 41 % 1015,8 hPa 0,0 l/m 4,4 km/h (1 Bft) O 98 1 min 0,000 mm 6,3 UV-I 919 W/m 5,6 C 19,2 C 11,3 km/h (2 Bft) 100,00 %
01.07.2018 12:32 19,1 C 21,1 C 39 % 1015,8 hPa 0,0 l/m 2,8 km/h (1 Bft) O 101 1 min 0,000 mm 6,3 UV-I 920 W/m 4,8 C 19,1 C 4,8 km/h (1 Bft) 96,30 %
01.07.2018 12:33 19,1 C 21,1 C 39 % 1015,8 hPa 0,0 l/m 0,6 km/h (0 Bft) O-SO 112 1 min 0,000 mm 6,3 UV-I 907 W/m 4,8 C 19,1 C 1,6 km/h (1 Bft) 96,55 %
01.07.2018 12:34 19,2 C 21,1 C 39 % 1015,8 hPa 0,0 l/m 4,4 km/h (1 Bft) S-SO 156 1 min 0,000 mm 6,3 UV-I 918 W/m 4,9 C 19,2 C 6,4 km/h (2 Bft) 100,00 %
01.07.2018 12:35 19,3 C 21,1 C 40 % 1015,8 hPa 0,0 l/m 6,0 km/h (2 Bft) O-SO 115 1 min 0,000 mm 6,4 UV-I 918 W/m 5,4 C 19,3 C 11,3 km/h (2 Bft) 96,15 %
01.07.2018 12:36 19,3 C 21,1 C 40 % 1015,8 hPa 0,0 l/m 2,4 km/h (1 Bft) O-SO 117 1 min 0,000 mm 6,4 UV-I 918 W/m 5,4 C 19,3 C 4,8 km/h (1 Bft) 100,00 %
01.07.2018 12:37 19,3 C 21,1 C 41 % 1015,8 hPa 0,0 l/m 2,7 km/h (1 Bft) O 99 1 min 0,000 mm 6,0 UV-I 917 W/m 5,7 C 19,3 C 4,8 km/h (1 Bft) 95,65 %
01.07.2018 12:38 19,4 C 21,1 C 44 % 1015,8 hPa 0,0 l/m 8,3 km/h (2 Bft) NO 46 1 min 0,000 mm 6,1 UV-I 915 W/m 6,8 C 18,6 C 14,5 km/h (3 Bft) 100,00 %
01.07.2018 12:39 19,6 C 21,1 C 46 % 1015,8 hPa 0,0 l/m 8,9 km/h (2 Bft) O 86 1 min 0,000 mm 6,4 UV-I 914 W/m 7,7 C 18,6 C 14,5 km/h (3 Bft) 92,31 %
01.07.2018 12:40 19,7 C 21,1 C 43 % 1015,8 hPa 0,0 l/m 7,3 km/h (2 Bft) O 79 1 min 0,000 mm 6,4 UV-I 914 W/m 6,8 C 19,3 C 11,3 km/h (2 Bft) 96,30 %
01.07.2018 12:41 19,8 C 21,1 C 40 % 1015,8 hPa 0,0 l/m 9,4 km/h (2 Bft) O-NO 73 1 min 0,000 mm 6,4 UV-I 915 W/m 5,8 C 18,6 C 12,9 km/h (3 Bft) 100,00 %
01.07.2018 12:42 19,8 C 21,1 C 40 % 1015,9 hPa 0,0 l/m 5,6 km/h (1 Bft) O 89 1 min 0,000 mm 6,3 UV-I 916 W/m 5,8 C 19,8 C 12,9 km/h (3 Bft) 100,00 %
01.07.2018 12:43 19,8 C 21,1 C 42 % 1015,8 hPa 0,0 l/m 7,8 km/h (2 Bft) O 90 1 min 0,000 mm 6,1 UV-I 917 W/m 6,5 C 19,2 C 16,1 km/h (3 Bft) 100,00 %
01.07.2018 12:44 19,8 C 21,1 C 43 % 1015,8 hPa 0,0 l/m 17,5 km/h (3 Bft) O-NO 71 1 min 0,000 mm 6,4 UV-I 919 W/m 6,9 C 16,4 C 24,1 km/h (4 Bft) 92,31 %
01.07.2018 12:45 19,9 C 21,1 C 44 % 1015,8 hPa 0,0 l/m 17,9 km/h (3 Bft) O-NO 61 1 min 0,000 mm 6,4 UV-I 919 W/m 7,3 C 16,5 C 22,5 km/h (4 Bft) 100,00 %
01.07.2018 12:46 20,0 C 21,1 C 45 % 1015,8 hPa 0,0 l/m 18,2 km/h (3 Bft) O-NO 64 1 min 0,000 mm 6,4 UV-I 921 W/m 7,7 C 16,6 C 20,9 km/h (4 Bft) 100,00 %
01.07.2018 12:47 20,0 C 21,1 C 42 % 1015,8 hPa 0,0 l/m 16,4 km/h (3 Bft) NO 48 1 min 0,000 mm 6,3 UV-I 921 W/m 6,7 C 16,9 C 19,3 km/h (3 Bft) 100,00 %
01.07.2018 12:48 19,9 C 21,1 C 42 % 1015,8 hPa 0,0 l/m 13,7 km/h (3 Bft) NO 49 1 min 0,000 mm 5,5 UV-I 921 W/m 6,6 C 17,5 C 19,3 km/h (3 Bft) 100,00 %
01.07.2018 12:49 19,9 C 21,1 C 43 % 1015,8 hPa 0,0 l/m 16,6 km/h (3 Bft) O-NO 66 1 min 0,000 mm 5,2 UV-I 920 W/m 6,9 C 16,8 C 20,9 km/h (4 Bft) 100,00 %
01.07.2018 12:50 19,9 C 21,1 C 40 % 1015,8 hPa 0,0 l/m 14,0 km/h (3 Bft) O 90 1 min 0,000 mm 5,5 UV-I 919 W/m 5,9 C 17,4 C 17,7 km/h (3 Bft) 100,00 %
01.07.2018 12:54 19,4 C 21,1 C 38 % 1015,9 hPa 0,0 l/m 8,4 km/h (2 Bft) SO 140 4 min 0,000 mm 6,2 UV-I 921 W/m 4,7 C 18,6 C 16,1 km/h (3 Bft) 100,00 %
01.07.2018 12:55 19,4 C 21,1 C 39 % 1015,8 hPa 0,0 l/m 7,1 km/h (2 Bft) S-SO 153 1 min 0,000 mm 6,4 UV-I 920 W/m 5,1 C 19,1 C 9,7 km/h (2 Bft) 95,65 %
01.07.2018 12:56 19,5 C 21,1 C 41 % 1015,8 hPa 0,0 l/m 11,8 km/h (2 Bft) SO 135 1 min 0,000 mm 6,4 UV-I 919 W/m 5,9 C 17,5 C 17,7 km/h (3 Bft) 100,00 %
01.07.2018 12:57 19,6 C 21,1 C 40 % 1015,8 hPa 0,0 l/m 11,2 km/h (2 Bft) SO 143 1 min 0,000 mm 6,4 UV-I 921 W/m 5,6 C 17,8 C 19,3 km/h (3 Bft) 100,00 %
01.07.2018 12:58 19,6 C 21,1 C 42 % 1015,7 hPa 0,0 l/m 7,6 km/h (2 Bft) O-NO 65 1 min 0,000 mm 6,4 UV-I 923 W/m 6,3 C 19,1 C 14,5 km/h (3 Bft) 100,00 %
01.07.2018 12:59 19,8 C 21,1 C 43 % 1015,8 hPa 0,0 l/m 10,2 km/h (2 Bft) NO 50 1 min 0,000 mm 6,4 UV-I 921 W/m 6,9 C 18,4 C 14,5 km/h (3 Bft) 100,00 %
01.07.2018 13:00 20,0 C 21,1 C 46 % 1015,8 hPa 0,0 l/m 10,3 km/h (2 Bft) O-NO 71 1 min 0,609 mm 6,4 UV-I 922 W/m 8,0 C 18,5 C 16,1 km/h (3 Bft) 100,00 %
01.07.2018 13:01 20,2 C 21,1 C 40 % 1015,8 hPa 0,0 l/m 7,3 km/h (2 Bft) NO 51 1 min 0,000 mm 6,4 UV-I 922 W/m 6,2 C 19,8 C 16,1 km/h (3 Bft) 100,00 %
01.07.2018 13:03 20,2 C 21,1 C 45 % 1015,7 hPa 0,0 l/m 12,1 km/h (2 Bft) O-NO 57 2 min 0,000 mm 6,4 UV-I 923 W/m 7,9 C 18,2 C 17,7 km/h (3 Bft) 100,00 %
01.07.2018 13:04 20,1 C 21,1 C 40 % 1015,7 hPa 0,0 l/m 11,6 km/h (2 Bft) N-NO 26 1 min 0,000 mm 6,4 UV-I 923 W/m 6,1 C 18,3 C 14,5 km/h (3 Bft) 96,15 %
01.07.2018 13:05 20,0 C 21,1 C 42 % 1015,7 hPa 0,0 l/m 6,8 km/h (2 Bft) N-NO 29 1 min 0,000 mm 6,4 UV-I 922 W/m 6,7 C 19,8 C 9,7 km/h (2 Bft) 100,00 %
01.07.2018 13:06 19,9 C 21,1 C 42 % 1015,7 hPa 0,0 l/m 6,2 km/h (2 Bft) NW 309 1 min 0,000 mm 6,4 UV-I 921 W/m 6,6 C 19,9 C 8,0 km/h (2 Bft) 100,00 %
01.07.2018 13:07 19,8 C 21,1 C 38 % 1015,7 hPa 0,0 l/m 6,0 km/h (2 Bft) NW 321 1 min 0,000 mm 6,4 UV-I 920 W/m 5,1 C 19,8 C 6,4 km/h (2 Bft) 100,00 %
01.07.2018 13:08 19,7 C 21,1 C 40 % 1015,7 hPa 0,0 l/m 5,1 km/h (1 Bft) N-NW 344 1 min 0,000 mm 6,4 UV-I 919 W/m 5,7 C 19,7 C 8,0 km/h (2 Bft) 100,00 %
01.07.2018 13:09 19,6 C 21,1 C 38 % 1015,7 hPa 0,0 l/m 4,0 km/h (1 Bft) O-SO 121 1 min 0,000 mm 6,4 UV-I 918 W/m 4,9 C 19,6 C 14,5 km/h (3 Bft) 100,00 %
01.07.2018 13:10 19,7 C 21,1 C 40 % 1015,7 hPa 0,0 l/m 16,9 km/h (3 Bft) NO 51 1 min 0,000 mm 6,4 UV-I 917 W/m 5,7 C 16,4 C 27,4 km/h (4 Bft) 100,00 %
01.07.2018 13:11 19,8 C 21,1 C 42 % 1015,6 hPa 0,0 l/m 12,0 km/h (2 Bft) O 93 1 min 0,000 mm 6,4 UV-I 918 W/m 6,5 C 17,8 C 16,1 km/h (3 Bft) 100,00 %
01.07.2018 13:12 19,8 C 21,1 C 39 % 1015,7 hPa 0,0 l/m 2,6 km/h (1 Bft) O 88 1 min 0,000 mm 6,4 UV-I 917 W/m 5,4 C 19,8 C 4,8 km/h (1 Bft) 100,00 %
01.07.2018 13:13 19,8 C 21,1 C 41 % 1015,7 hPa 0,0 l/m 5,9 km/h (2 Bft) NO 41 1 min 0,000 mm 6,3 UV-I 916 W/m 6,2 C 19,8 C 9,7 km/h (2 Bft) 91,67 %
01.07.2018 13:14 20,0 C 21,1 C 43 % 1015,7 hPa 0,0 l/m 8,0 km/h (2 Bft) O 81 1 min 0,000 mm 6,4 UV-I 918 W/m 7,0 C 19,4 C 17,7 km/h (3 Bft) 100,00 %
01.07.2018 13:15 20,1 C 21,1 C 39 % 1015,7 hPa 0,0 l/m 14,9 km/h (3 Bft) O-NO 65 1 min 0,000 mm 6,4 UV-I 918 W/m 5,7 C 17,4 C 19,3 km/h (3 Bft) 100,00 %
01.07.2018 13:16 20,1 C 21,1 C 38 % 1015,7 hPa 0,0 l/m 10,7 km/h (2 Bft) O-NO 76 1 min 0,000 mm 6,4 UV-I 917 W/m 5,3 C 18,5 C 14,5 km/h (3 Bft) 100,00 %
01.07.2018 13:17 20,1 C 21,1 C 44 % 1015,7 hPa 0,0 l/m 8,9 km/h (2 Bft) O-NO 74 1 min 0,000 mm 6,4 UV-I 918 W/m 7,5 C 19,1 C 14,5 km/h (3 Bft) 100,00 %
01.07.2018 13:18 20,1 C 21,1 C 47 % 1015,7 hPa 0,0 l/m 9,5 km/h (2 Bft) NO 34 1 min 0,000 mm 6,4 UV-I 919 W/m 8,4 C 18,9 C 14,5 km/h (3 Bft) 100,00 %
01.07.2018 13:19 20,1 C 21,1 C 43 % 1015,7 hPa 0,0 l/m 11,7 km/h (2 Bft) NO 44 1 min 0,000 mm 6,4 UV-I 918 W/m 7,1 C 18,2 C 16,1 km/h (3 Bft) 100,00 %
01.07.2018 13:20 20,1 C 21,1 C 41 % 1015,7 hPa 0,0 l/m 8,7 km/h (2 Bft) O-NO 59 1 min 0,000 mm 6,4 UV-I 919 W/m 6,4 C 19,2 C 12,9 km/h (3 Bft) 100,00 %
01.07.2018 13:21 20,1 C 21,1 C 41 % 1015,7 hPa 0,0 l/m 10,2 km/h (2 Bft) NO 35 1 min 0,000 mm 6,4 UV-I 919 W/m 6,4 C 18,7 C 16,1 km/h (3 Bft) 100,00 %
01.07.2018 13:22 20,1 C 21,1 C 40 % 1015,7 hPa 0,0 l/m 9,7 km/h (2 Bft) O-NO 73 1 min 0,000 mm 6,4 UV-I 919 W/m 6,1 C 18,8 C 12,9 km/h (3 Bft) 100,00 %
01.07.2018 13:23 20,1 C 21,1 C 40 % 1015,7 hPa 0,0 l/m 15,9 km/h (3 Bft) O 98 1 min 0,000 mm 6,4 UV-I 919 W/m 6,1 C 17,2 C 19,3 km/h (3 Bft) 100,00 %
01.07.2018 13:24 20,1 C 21,1 C 39 % 1015,7 hPa 0,0 l/m 12,8 km/h (3 Bft) O-SO 113 1 min 0,000 mm 6,4 UV-I 918 W/m 5,7 C 17,9 C 17,7 km/h (3 Bft) 100,00 %
01.07.2018 13:25 20,1 C 21,1 C 37 % 1015,7 hPa 0,0 l/m 6,6 km/h (2 Bft) O 85 1 min 0,000 mm 6,4 UV-I 917 W/m 5,0 C 20,0 C 11,3 km/h (2 Bft) 100,00 %
01.07.2018 13:26 20,0 C 21,1 C 45 % 1015,7 hPa 0,0 l/m 7,6 km/h (2 Bft) NO 44 1 min 0,000 mm 6,4 UV-I 916 W/m 7,7 C 19,5 C 9,7 km/h (2 Bft) 100,00 %
01.07.2018 13:27 19,9 C 21,1 C 41 % 1015,6 hPa 0,0 l/m 8,8 km/h (2 Bft) N-NO 28 1 min 0,000 mm 6,4 UV-I 916 W/m 6,3 C 18,9 C 17,7 km/h (3 Bft) 100,00 %
01.07.2018 13:28 20,1 C 21,1 C 42 % 1015,6 hPa 0,0 l/m 13,4 km/h (3 Bft) NO 52 1 min 0,000 mm 6,4 UV-I 914 W/m 6,8 C 17,8 C 17,7 km/h (3 Bft) 100,00 %
01.07.2018 13:29 20,3 C 21,1 C 42 % 1015,6 hPa 0,0 l/m 18,6 km/h (3 Bft) O-NO 73 1 min 0,000 mm 6,4 UV-I 915 W/m 7,0 C 16,9 C 24,1 km/h (4 Bft) 92,86 %
01.07.2018 13:30 20,3 C 21,1 C 40 % 1015,6 hPa 0,0 l/m 13,9 km/h (3 Bft) NO 50 1 min 0,000 mm 6,4 UV-I 915 W/m 6,3 C 17,9 C 17,7 km/h (3 Bft) 100,00 %
01.07.2018 13:31 20,4 C 21,1 C 39 % 1015,6 hPa 0,0 l/m 12,2 km/h (2 Bft) O-NO 78 1 min 0,000 mm 6,4 UV-I 914 W/m 6,0 C 18,4 C 17,7 km/h (3 Bft) 100,00 %
01.07.2018 13:32 20,3 C 21,1 C 37 % 1015,7 hPa 0,0 l/m 6,1 km/h (2 Bft) O-SO 106 1 min 0,000 mm 6,4 UV-I 914 W/m 5,1 C 20,3 C 9,7 km/h (2 Bft) 100,00 %
01.07.2018 13:33 20,2 C 21,1 C 40 % 1015,6 hPa 0,0 l/m 9,5 km/h (2 Bft) SO 125 1 min 0,000 mm 6,4 UV-I 914 W/m 6,2 C 19,0 C 12,9 km/h (3 Bft) 100,00 %
01.07.2018 13:34 20,2 C 21,1 C 38 % 1015,6 hPa 0,0 l/m 7,2 km/h (2 Bft) O-NO 63 1 min 0,000 mm 6,4 UV-I 913 W/m 5,4 C 19,9 C 12,9 km/h (3 Bft) 100,00 %
01.07.2018 13:35 20,3 C 21,1 C 42 % 1015,6 hPa 0,0 l/m 9,9 km/h (2 Bft) O-NO 73 1 min 0,000 mm 6,4 UV-I 912 W/m 7,0 C 19,0 C 12,9 km/h (3 Bft) 100,00 %
01.07.2018 13:36 20,3 C 21,1 C 38 % 1015,6 hPa 0,0 l/m 8,1 km/h (2 Bft) O 96 1 min 0,000 mm 6,4 UV-I 912 W/m 5,5 C 19,6 C 11,3 km/h (2 Bft) 100,00 %
01.07.2018 13:37 20,3 C 21,1 C 38 % 1015,6 hPa 0,0 l/m 8,9 km/h (2 Bft) O-SO 102 1 min 0,000 mm 6,3 UV-I 909 W/m 5,5 C 19,3 C 12,9 km/h (3 Bft) 95,12 %
01.07.2018 13:38 20,2 C 21,1 C 40 % 1015,7 hPa 0,0 l/m 9,4 km/h (2 Bft) NO 34 1 min 0,000 mm 5,2 UV-I 911 W/m 6,2 C 19,1 C 14,5 km/h (3 Bft) 100,00 %
01.07.2018 13:39 20,3 C 21,1 C 43 % 1015,7 hPa 0,0 l/m 14,4 km/h (3 Bft) NO 44 1 min 0,000 mm 4,8 UV-I 911 W/m 7,3 C 17,8 C 20,9 km/h (4 Bft) 100,00 %
01.07.2018 13:40 20,4 C 21,1 C 46 % 1015,7 hPa 0,0 l/m 13,0 km/h (3 Bft) O 80 1 min 0,000 mm 4,9 UV-I 909 W/m 8,4 C 18,2 C 17,7 km/h (3 Bft) 100,00 %
01.07.2018 13:41 20,5 C 21,1 C 44 % 1015,6 hPa 0,0 l/m 11,1 km/h (2 Bft) NO 53 1 min 0,000 mm 5,0 UV-I 911 W/m 7,8 C 18,9 C 17,7 km/h (3 Bft) 100,00 %
01.07.2018 13:42 20,6 C 21,1 C 42 % 1015,6 hPa 0,0 l/m 19,6 km/h (3 Bft) N-NO 19 1 min 0,000 mm 5,1 UV-I 911 W/m 7,2 C 17,1 C 25,7 km/h (4 Bft) 95,65 %
01.07.2018 13:43 20,6 C 21,1 C 44 % 1015,6 hPa 0,0 l/m 18,3 km/h (3 Bft) NO 45 1 min 0,000 mm 5,1 UV-I 910 W/m 7,9 C 17,3 C 20,9 km/h (4 Bft) 100,00 %
01.07.2018 13:44 20,6 C 21,1 C 43 % 1015,6 hPa 0,0 l/m 19,6 km/h (3 Bft) NO 53 1 min 0,000 mm 5,0 UV-I 909 W/m 7,6 C 17,1 C 27,4 km/h (4 Bft) 100,00 %
01.07.2018 13:45 20,6 C 21,1 C 43 % 1015,6 hPa 0,0 l/m 18,2 km/h (3 Bft) N 10 1 min 0,000 mm 4,3 UV-I 908 W/m 7,6 C 17,3 C 24,1 km/h (4 Bft) 100,00 %
01.07.2018 13:46 20,6 C 21,1 C 43 % 1015,6 hPa 0,0 l/m 10,5 km/h (2 Bft) NO 38 1 min 0,000 mm 4,7 UV-I 907 W/m 7,6 C 19,1 C 17,7 km/h (3 Bft) 100,00 %
01.07.2018 13:47 20,6 C 21,1 C 43 % 1015,6 hPa 0,0 l/m 17,6 km/h (3 Bft) NO 45 1 min 0,000 mm 5,5 UV-I 906 W/m 7,6 C 17,4 C 24,1 km/h (4 Bft) 100,00 %
01.07.2018 13:48 20,7 C 21,1 C 42 % 1015,6 hPa 0,0 l/m 18,9 km/h (3 Bft) O 80 1 min 0,000 mm 3,9 UV-I 905 W/m 7,3 C 17,3 C 25,7 km/h (4 Bft) 100,00 %
01.07.2018 13:49 20,6 C 21,1 C 41 % 1015,5 hPa 0,0 l/m 8,1 km/h (2 Bft) NO 34 1 min 0,000 mm 4,7 UV-I 905 W/m 6,9 C 19,9 C 9,7 km/h (2 Bft) 100,00 %
01.07.2018 13:50 20,4 C 21,1 C 42 % 1015,6 hPa 0,0 l/m 9,0 km/h (2 Bft) N-NO 17 1 min 0,000 mm 5,1 UV-I 904 W/m 7,1 C 19,4 C 12,9 km/h (3 Bft) 100,00 %
01.07.2018 13:51 20,4 C 21,7 C 42 % 1015,6 hPa 0,0 l/m 10,9 km/h (2 Bft) N 355 1 min 0,000 mm 5,2 UV-I 902 W/m 7,1 C 18,8 C 14,5 km/h (3 Bft) 100,00 %
01.07.2018 13:52 20,4 C 21,1 C 41 % 1015,5 hPa 0,0 l/m 8,4 km/h (2 Bft) N 5 1 min 0,000 mm 5,2 UV-I 903 W/m 6,7 C 19,6 C 11,3 km/h (2 Bft) 100,00 %
01.07.2018 13:53 20,4 C 21,1 C 43 % 1015,5 hPa 0,0 l/m 7,1 km/h (2 Bft) N-NW 347 1 min 0,000 mm 5,5 UV-I 902 W/m 7,4 C 20,1 C 11,3 km/h (2 Bft) 100,00 %
01.07.2018 13:54 20,5 C 21,1 C 43 % 1015,4 hPa 0,0 l/m 6,6 km/h (2 Bft) N 9 1 min 0,000 mm 5,9 UV-I 901 W/m 7,5 C 20,4 C 8,0 km/h (2 Bft) 100,00 %
01.07.2018 13:55 20,4 C 21,1 C 39 % 1015,5 hPa 0,0 l/m 6,2 km/h (2 Bft) N-NO 19 1 min 0,000 mm 6,1 UV-I 900 W/m 6,0 C 20,4 C 8,0 km/h (2 Bft) 100,00 %
01.07.2018 13:56 20,3 C 21,1 C 41 % 1015,5 hPa 0,0 l/m 4,1 km/h (1 Bft) N 11 1 min 0,000 mm 6,2 UV-I 878 W/m 6,6 C 20,3 C 8,0 km/h (2 Bft) 100,00 %
01.07.2018 13:57 20,2 C 21,7 C 39 % 1015,5 hPa 0,0 l/m 2,9 km/h (1 Bft) N 5 1 min 0,000 mm 6,2 UV-I 855 W/m 5,8 C 20,2 C 6,4 km/h (2 Bft) 100,00 %
01.07.2018 13:58 20,1 C 21,7 C 39 % 1015,5 hPa 0,0 l/m 6,1 km/h (2 Bft) N 360 1 min 0,000 mm 6,1 UV-I 898 W/m 5,7 C 20,1 C 8,0 km/h (2 Bft) 100,00 %
01.07.2018 13:59 20,2 C 21,7 C 42 % 1015,5 hPa 0,0 l/m 6,9 km/h (2 Bft) N-NO 25 1 min 0,000 mm 6,2 UV-I 897 W/m 6,9 C 20,0 C 9,7 km/h (2 Bft) 100,00 %
01.07.2018 14:00 20,3 C 21,7 C 42 % 1015,5 hPa 0,0 l/m 9,5 km/h (2 Bft) O 86 1 min 0,000 mm 6,2 UV-I 896 W/m 7,0 C 19,1 C 14,5 km/h (3 Bft) 100,00 %
01.07.2018 14:01 20,7 C 21,7 C 43 % 1015,5 hPa 0,0 l/m 10,9 km/h (2 Bft) NO 41 1 min 0,610 mm 6,1 UV-I 895 W/m 7,7 C 19,1 C 16,1 km/h (3 Bft) 96,15 %
01.07.2018 14:02 20,9 C 21,7 C 44 % 1015,5 hPa 0,0 l/m 10,2 km/h (2 Bft) NO 42 1 min 0,000 mm 6,1 UV-I 893 W/m 8,2 C 19,6 C 14,5 km/h (3 Bft) 100,00 %
01.07.2018 14:03 20,9 C 21,7 C 41 % 1015,5 hPa 0,0 l/m 15,1 km/h (3 Bft) O-NO 57 1 min 0,000 mm 6,1 UV-I 893 W/m 7,2 C 18,3 C 20,9 km/h (4 Bft) 96,15 %
01.07.2018 14:04 20,9 C 21,7 C 39 % 1015,6 hPa 0,0 l/m 11,2 km/h (2 Bft) O-NO 74 1 min 0,000 mm 6,1 UV-I 893 W/m 6,4 C 19,3 C 14,5 km/h (3 Bft) 100,00 %
01.07.2018 14:05 20,7 C 21,7 C 40 % 1015,5 hPa 0,0 l/m 7,7 km/h (2 Bft) O 83 1 min 0,000 mm 6,1 UV-I 892 W/m 6,6 C 20,2 C 11,3 km/h (2 Bft) 96,15 %
01.07.2018 14:06 20,6 C 21,7 C 39 % 1015,5 hPa 0,0 l/m 9,6 km/h (2 Bft) O-NO 66 1 min 0,000 mm 6,1 UV-I 892 W/m 6,2 C 19,4 C 17,7 km/h (3 Bft) 100,00 %
01.07.2018 14:07 20,6 C 21,7 C 42 % 1015,5 hPa 0,0 l/m 11,4 km/h (2 Bft) NO 46 1 min 0,000 mm 6,1 UV-I 891 W/m 7,2 C 18,9 C 16,1 km/h (3 Bft) 95,65 %
01.07.2018 14:08 20,5 C 21,7 C 39 % 1015,5 hPa 0,0 l/m 8,6 km/h (2 Bft) O-NO 69 1 min 0,000 mm 6,1 UV-I 889 W/m 6,1 C 19,7 C 12,9 km/h (3 Bft) 96,30 %
01.07.2018 14:09 20,4 C 21,7 C 38 % 1015,5 hPa 0,0 l/m 6,9 km/h (2 Bft) N 5 1 min 0,000 mm 6,1 UV-I 890 W/m 5,6 C 20,2 C 9,7 km/h (2 Bft) 100,00 %
01.07.2018 14:10 20,4 C 21,7 C 44 % 1015,5 hPa 0,0 l/m 6,5 km/h (2 Bft) N-NO 20 1 min 0,000 mm 6,1 UV-I 893 W/m 7,7 C 20,4 C 9,7 km/h (2 Bft) 93,33 %
01.07.2018 14:11 20,6 C 21,7 C 43 % 1015,5 hPa 0,0 l/m 9,1 km/h (2 Bft) NO 40 1 min 0,000 mm 6,1 UV-I 891 W/m 7,6 C 19,6 C 14,5 km/h (3 Bft) 95,65 %
01.07.2018 14:12 20,6 C 21,7 C 38 % 1015,5 hPa 0,0 l/m 10,3 km/h (2 Bft) O 86 1 min 0,000 mm 5,5 UV-I 888 W/m 5,8 C 19,2 C 12,9 km/h (3 Bft) 96,30 %
01.07.2018 14:13 20,6 C 21,7 C 38 % 1015,5 hPa 0,0 l/m 4,6 km/h (1 Bft) SO 134 1 min 0,000 mm 4,4 UV-I 886 W/m 5,8 C 20,6 C 6,4 km/h (2 Bft) 100,00 %
01.07.2018 14:14 20,6 C 21,7 C 40 % 1015,5 hPa 0,0 l/m 6,4 km/h (2 Bft) O-NO 71 1 min 0,000 mm 4,5 UV-I 886 W/m 6,5 C 20,6 C 16,1 km/h (3 Bft) 91,67 %
01.07.2018 14:15 20,7 C 21,7 C 38 % 1015,5 hPa 0,0 l/m 13,0 km/h (3 Bft) O 79 1 min 0,000 mm 6,0 UV-I 885 W/m 5,9 C 18,6 C 14,5 km/h (3 Bft) 96,15 %
01.07.2018 14:16 20,7 C 21,7 C 45 % 1015,5 hPa 0,0 l/m 6,9 km/h (2 Bft) O-NO 62 1 min 0,000 mm 6,0 UV-I 882 W/m 8,3 C 20,5 C 9,7 km/h (2 Bft) 98,30 %
01.07.2018 14:17 20,6 C 21,7 C 37 % 1015,5 hPa 0,0 l/m 2,2 km/h (1 Bft) O-NO 65 1 min 0,000 mm 6,0 UV-I 882 W/m 5,4 C 20,6 C 4,8 km/h (1 Bft) 100,00 %
01.07.2018 14:18 20,4 C 21,7 C 39 % 1015,4 hPa 0,0 l/m 0,7 km/h (0 Bft) O-NO 65 1 min 0,000 mm 6,0 UV-I 880 W/m 6,0 C 20,4 C 3,2 km/h (1 Bft) 95,65 %
01.07.2018 14:19 20,4 C 21,7 C 41 % 1015,4 hPa 0,0 l/m 2,0 km/h (1 Bft) S 179 1 min 0,000 mm 6,0 UV-I 877 W/m 6,7 C 20,4 C 3,2 km/h (1 Bft) 96,30 %
01.07.2018 14:20 20,4 C 21,7 C 41 % 1015,4 hPa 0,0 l/m 1,2 km/h (1 Bft) W 281 1 min 0,000 mm 6,0 UV-I 879 W/m 6,7 C 20,4 C 3,2 km/h (1 Bft) 100,00 %
01.07.2018 14:21 20,6 C 21,7 C 44 % 1015,4 hPa 0,0 l/m 3,6 km/h (1 Bft) W-NW 285 1 min 0,000 mm 5,9 UV-I 877 W/m 7,9 C 20,6 C 4,8 km/h (1 Bft) 93,33 %
01.07.2018 14:22 20,8 C 21,7 C 41 % 1015,4 hPa 0,0 l/m 3,9 km/h (1 Bft) O-NO 67 1 min 0,000 mm 5,9 UV-I 875 W/m 7,1 C 20,8 C 6,4 km/h (2 Bft) 100,00 %
01.07.2018 14:23 20,9 C 21,7 C 46 % 1015,4 hPa 0,0 l/m 5,8 km/h (2 Bft) O-NO 65 1 min 0,000 mm 5,9 UV-I 875 W/m 8,8 C 20,9 C 12,9 km/h (3 Bft) 91,67 %
01.07.2018 14:24 20,9 C 21,7 C 43 % 1015,4 hPa 0,0 l/m 11,3 km/h (2 Bft) NO 53 1 min 0,000 mm 5,9 UV-I 874 W/m 7,8 C 19,3 C 16,1 km/h (3 Bft) 100,00 %
01.07.2018 14:25 21,1 C 21,7 C 45 % 1015,4 hPa 0,0 l/m 7,3 km/h (2 Bft) O-NO 77 1 min 0,000 mm 5,9 UV-I 872 W/m 8,7 C 20,8 C 9,7 km/h (2 Bft) 95,83 %
01.07.2018 14:26 20,9 C 21,7 C 38 % 1015,4 hPa 0,0 l/m 7,1 km/h (2 Bft) O 82 1 min 0,000 mm 5,9 UV-I 874 W/m 6,0 C 20,6 C 11,3 km/h (2 Bft) 96,15 %
01.07.2018 14:27 20,9 C 21,7 C 40 % 1015,3 hPa 0,0 l/m 11,9 km/h (2 Bft) N 5 1 min 0,000 mm 5,2 UV-I 871 W/m 6,8 C 19,1 C 14,5 km/h (3 Bft) 100,00 %
01.07.2018 14:28 21,0 C 21,7 C 42 % 1015,3 hPa 0,0 l/m 10,9 km/h (2 Bft) O-NO 73 1 min 0,000 mm 3,9 UV-I 870 W/m 7,6 C 19,5 C 19,3 km/h (3 Bft) 96,15 %
01.07.2018 14:29 21,2 C 21,7 C 41 % 1015,4 hPa 0,0 l/m 18,6 km/h (3 Bft) NO 42 1 min 0,000 mm 5,8 UV-I 869 W/m 7,4 C 18,0 C 22,5 km/h (4 Bft) 95,83 %
01.07.2018 14:30 21,3 C 21,7 C 43 % 1015,3 hPa 0,0 l/m 19,2 km/h (3 Bft) NO 49 1 min 0,000 mm 5,8 UV-I 867 W/m 8,2 C 18,0 C 24,1 km/h (4 Bft) 81,82 %
01.07.2018 14:31 21,2 C 21,7 C 40 % 1015,4 hPa 0,0 l/m 10,8 km/h (2 Bft) NO 37 1 min 0,000 mm 5,7 UV-I 867 W/m 7,1 C 19,7 C 17,7 km/h (3 Bft) 100,00 %
01.07.2018 14:32 21,3 C 21,7 C 43 % 1015,4 hPa 0,0 l/m 13,4 km/h (3 Bft) NO 55 1 min 0,000 mm 5,7 UV-I 865 W/m 8,2 C 19,2 C 20,9 km/h (4 Bft) 100,00 %
01.07.2018 14:33 21,3 C 21,7 C 43 % 1015,4 hPa 0,0 l/m 16,6 km/h (3 Bft) NO 38 1 min 0,000 mm 5,7 UV-I 864 W/m 8,2 C 18,5 C 22,5 km/h (4 Bft) 100,00 %
01.07.2018 14:34 21,3 C 21,7 C 42 % 1015,4 hPa 0,0 l/m 17,1 km/h (3 Bft) O-NO 70 1 min 0,000 mm 5,7 UV-I 863 W/m 7,9 C 18,4 C 20,9 km/h (4 Bft) 100,00 %
01.07.2018 14:35 21,3 C 21,7 C 43 % 1015,4 hPa 0,0 l/m 15,3 km/h (3 Bft) O-NO 65 1 min 0,000 mm 5,7 UV-I 863 W/m 8,2 C 18,8 C 17,7 km/h (3 Bft) 100,00 %
01.07.2018 14:36 21,3 C 21,7 C 42 % 1015,4 hPa 0,0 l/m 11,0 km/h (2 Bft) N-NO 28 1 min 0,000 mm 5,7 UV-I 863 W/m 7,9 C 19,8 C 16,1 km/h (3 Bft) 100,00 %
01.07.2018 14:37 21,2 C 21,7 C 44 % 1015,4 hPa 0,0 l/m 16,0 km/h (3 Bft) NO 44 1 min 0,000 mm 5,6 UV-I 863 W/m 8,5 C 18,5 C 22,5 km/h (4 Bft) 100,00 %
01.07.2018 14:38 21,2 C 21,7 C 41 % 1015,4 hPa 0,0 l/m 11,2 km/h (2 Bft) NO 45 1 min 0,000 mm 5,6 UV-I 860 W/m 7,4 C 19,6 C 16,1 km/h (3 Bft) 100,00 %
01.07.2018 14:39 21,2 C 21,7 C 45 % 1015,5 hPa 0,0 l/m 8,1 km/h (2 Bft) O 92 1 min 0,000 mm 5,6 UV-I 858 W/m 8,8 C 20,6 C 14,5 km/h (3 Bft) 100,00 %
01.07.2018 14:40 21,1 C 21,7 C 42 % 1015,4 hPa 0,0 l/m 6,4 km/h (2 Bft) N-NW 341 1 min 0,000 mm 5,6 UV-I 856 W/m 7,7 C 21,1 C 9,7 km/h (2 Bft) 95,83 %
01.07.2018 14:41 21,2 C 21,7 C 43 % 1015,4 hPa 0,0 l/m 12,9 km/h (3 Bft) N-NO 23 1 min 0,000 mm 5,6 UV-I 854 W/m 8,1 C 19,2 C 16,1 km/h (3 Bft) 100,00 %
01.07.2018 14:42 21,1 C 21,7 C 43 % 1015,5 hPa 0,0 l/m 11,9 km/h (2 Bft) N 5 1 min 0,000 mm 5,6 UV-I 853 W/m 8,0 C 19,3 C 19,3 km/h (3 Bft) 100,00 %
01.07.2018 14:43 21,1 C 21,7 C 42 % 1015,4 hPa 0,0 l/m 9,7 km/h (2 Bft) N 355 1 min 0,000 mm 5,5 UV-I 851 W/m 7,7 C 19,9 C 14,5 km/h (3 Bft) 100,00 %
01.07.2018 14:44 21,1 C 21,7 C 40 % 1015,4 hPa 0,0 l/m 2,9 km/h (1 Bft) NO 43 1 min 0,000 mm 5,5 UV-I 848 W/m 7,0 C 21,1 C 4,8 km/h (1 Bft) 100,00 %
01.07.2018 14:45 20,9 C 21,7 C 40 % 1015,4 hPa 0,0 l/m 4,8 km/h (1 Bft) N 9 1 min 0,000 mm 5,5 UV-I 845 W/m 6,8 C 20,9 C 12,9 km/h (3 Bft) 100,00 %
01.07.2018 14:46 21,0 C 21,7 C 40 % 1015,4 hPa 0,0 l/m 11,6 km/h (2 Bft) N 355 1 min 0,000 mm 5,5 UV-I 847 W/m 6,9 C 19,3 C 17,7 km/h (3 Bft) 100,00 %
01.07.2018 14:47 21,0 C 21,7 C 41 % 1015,4 hPa 0,0 l/m 9,2 km/h (2 Bft) N 11 1 min 0,000 mm 5,5 UV-I 845 W/m 7,2 C 20,0 C 12,9 km/h (3 Bft) 100,00 %
01.07.2018 14:48 21,1 C 21,7 C 43 % 1015,4 hPa 0,0 l/m 10,1 km/h (2 Bft) NO 34 1 min 0,000 mm 5,4 UV-I 824 W/m 8,0 C 19,8 C 14,5 km/h (3 Bft) 100,00 %
01.07.2018 14:49 21,1 C 21,7 C 43 % 1015,4 hPa 0,0 l/m 12,6 km/h (3 Bft) N 355 1 min 0,000 mm 5,4 UV-I 812 W/m 8,0 C 19,1 C 16,1 km/h (3 Bft) 100,00 %
01.07.2018 14:50 21,0 C 21,7 C 41 % 1015,4 hPa 0,0 l/m 10,1 km/h (2 Bft) N-NW 329 1 min 0,000 mm 5,4 UV-I 841 W/m 7,2 C 19,7 C 16,1 km/h (3 Bft) 100,00 %
01.07.2018 14:51 21,0 C 21,7 C 42 % 1015,4 hPa 0,0 l/m 8,3 km/h (2 Bft) N-NO 12 1 min 0,000 mm 5,4 UV-I 839 W/m 7,6 C 20,3 C 11,3 km/h (2 Bft) 100,00 %
01.07.2018 14:52 20,9 C 21,7 C 44 % 1015,4 hPa 0,0 l/m 6,8 km/h (2 Bft) NO 38 1 min 0,000 mm 5,4 UV-I 838 W/m 8,2 C 20,8 C 9,7 km/h (2 Bft) 100,00 %
01.07.2018 14:53 20,9 C 21,7 C 43 % 1015,4 hPa 0,0 l/m 4,6 km/h (1 Bft) NO 41 1 min 0,000 mm 5,3 UV-I 836 W/m 7,8 C 20,9 C 6,4 km/h (2 Bft) 100,00 %
01.07.2018 14:54 20,8 C 21,7 C 40 % 1015,4 hPa 0,0 l/m 8,1 km/h (2 Bft) NO 55 1 min 0,000 mm 5,3 UV-I 833 W/m 6,7 C 20,2 C 12,9 km/h (3 Bft) 98,32 %
01.07.2018 14:55 20,9 C 21,7 C 46 % 1015,4 hPa 0,0 l/m 6,5 km/h (2 Bft) O-NO 69 1 min 0,000 mm 5,3 UV-I 831 W/m 8,8 C 20,9 C 9,7 km/h (2 Bft) 100,00 %
01.07.2018 14:56 21,0 C 21,7 C 43 % 1015,4 hPa 0,0 l/m 9,9 km/h (2 Bft) O 96 1 min 0,000 mm 5,3 UV-I 832 W/m 7,9 C 19,8 C 14,5 km/h (3 Bft) 100,00 %
01.07.2018 14:57 21,1 C 21,7 C 41 % 1015,4 hPa 0,0 l/m 10,7 km/h (2 Bft) O 83 1 min 0,000 mm 5,3 UV-I 833 W/m 7,3 C 19,7 C 12,9 km/h (3 Bft) 100,00 %
01.07.2018 14:58 21,1 C 21,7 C 39 % 1015,3 hPa 0,0 l/m 9,7 km/h (2 Bft) O-SO 103 1 min 0,000 mm 5,3 UV-I 832 W/m 6,6 C 19,9 C 12,9 km/h (3 Bft) 100,00 %
01.07.2018 14:59 20,9 C 21,7 C 39 % 1015,4 hPa 0,0 l/m 6,0 km/h (2 Bft) O 87 1 min 0,000 mm 5,2 UV-I 830 W/m 6,4 C 20,9 C 11,3 km/h (2 Bft) 100,00 %
01.07.2018 15:00 20,8 C 21,7 C 47 % 1015,4 hPa 0,0 l/m 10,3 km/h (2 Bft) N-NO 26 1 min 0,000 mm 5,2 UV-I 830 W/m 9,1 C 19,4 C 17,7 km/h (3 Bft) 100,00 %
01.07.2018 15:01 20,9 C 21,7 C 45 % 1015,4 hPa 0,0 l/m 12,8 km/h (3 Bft) NO 40 1 min 0,584 mm 5,2 UV-I 826 W/m 8,5 C 18,9 C 16,1 km/h (3 Bft) 100,00 %
01.07.2018 15:02 20,9 C 21,7 C 41 % 1015,4 hPa 0,0 l/m 9,2 km/h (2 Bft) NO 49 1 min 0,000 mm 5,2 UV-I 826 W/m 7,2 C 19,9 C 14,5 km/h (3 Bft) 100,00 %
01.07.2018 15:03 21,0 C 21,7 C 41 % 1015,4 hPa 0,0 l/m 7,0 km/h (2 Bft) NO 43 1 min 0,000 mm 5,2 UV-I 825 W/m 7,2 C 20,8 C 9,7 km/h (2 Bft) 95,83 %
01.07.2018 15:04 21,1 C 21,7 C 40 % 1015,4 hPa 0,0 l/m 7,2 km/h (2 Bft) O-SO 113 1 min 0,000 mm 5,1 UV-I 823 W/m 7,0 C 20,8 C 12,9 km/h (3 Bft) 91,30 %
01.07.2018 15:05 21,1 C 21,7 C 40 % 1015,4 hPa 0,0 l/m 13,8 km/h (3 Bft) O-SO 111 1 min 0,000 mm 5,1 UV-I 821 W/m 7,0 C 18,9 C 17,7 km/h (3 Bft) 100,00 %
01.07.2018 15:06 21,2 C 21,7 C 43 % 1015,4 hPa 0,0 l/m 14,5 km/h (3 Bft) O 101 1 min 0,000 mm 5,1 UV-I 821 W/m 8,1 C 18,8 C 19,3 km/h (3 Bft) 92,31 %
01.07.2018 15:07 21,2 C 21,7 C 40 % 1015,3 hPa 0,0 l/m 14,9 km/h (3 Bft) O-SO 118 1 min 0,000 mm 5,1 UV-I 818 W/m 7,1 C 18,7 C 22,5 km/h (4 Bft) 100,00 %
01.07.2018 15:08 21,2 C 21,7 C 38 % 1015,4 hPa 0,0 l/m 4,8 km/h (1 Bft) O-NO 62 1 min 0,000 mm 5,0 UV-I 816 W/m 6,3 C 21,2 C 6,4 km/h (2 Bft) 95,65 %
01.07.2018 15:09 21,2 C 21,7 C 41 % 1015,3 hPa 0,0 l/m 6,4 km/h (2 Bft) O 94 1 min 0,000 mm 5,0 UV-I 814 W/m 7,4 C 21,2 C 11,3 km/h (2 Bft) 100,00 %
01.07.2018 15:10 21,3 C 21,7 C 41 % 1015,3 hPa 0,0 l/m 7,9 km/h (2 Bft) O 90 1 min 0,000 mm 5,0 UV-I 813 W/m 7,5 C 20,8 C 17,7 km/h (3 Bft) 95,65 %
01.07.2018 15:11 21,3 C 21,7 C 43 % 1015,3 hPa 0,0 l/m 12,6 km/h (3 Bft) O-NO 68 1 min 0,000 mm 5,0 UV-I 810 W/m 8,2 C 19,4 C 17,7 km/h (3 Bft) 96,30 %
01.07.2018 15:12 21,3 C 21,7 C 40 % 1015,3 hPa 0,0 l/m 12,2 km/h (2 Bft) O 82 1 min 0,000 mm 5,0 UV-I 810 W/m 7,1 C 19,5 C 16,1 km/h (3 Bft) 96,55 %
01.07.2018 15:13 21,4 C 21,7 C 42 % 1015,3 hPa 0,0 l/m 11,3 km/h (2 Bft) O 98 1 min 0,000 mm 4,9 UV-I 810 W/m 8,0 C 19,8 C 16,1 km/h (3 Bft) 100,00 %
01.07.2018 15:14 21,3 C 21,7 C 38 % 1015,2 hPa 0,0 l/m 8,6 km/h (2 Bft) O-SO 103 1 min 0,000 mm 4,9 UV-I 808 W/m 6,4 C 20,5 C 12,9 km/h (3 Bft) 95,65 %
01.07.2018 15:15 21,2 C 21,7 C 38 % 1015,3 hPa 0,0 l/m 6,4 km/h (2 Bft) O-SO 105 1 min 0,000 mm 4,9 UV-I 806 W/m 6,3 C 21,2 C 11,3 km/h (2 Bft) 100,00 %
01.07.2018 15:16 21,1 C 21,7 C 38 % 1015,2 hPa 0,0 l/m 5,0 km/h (1 Bft) S-SW 194 1 min 0,000 mm 4,9 UV-I 804 W/m 6,2 C 21,1 C 8,0 km/h (2 Bft) 95,83 %
01.07.2018 15:17 21,0 C 21,7 C 39 % 1015,2 hPa 0,0 l/m 7,2 km/h (2 Bft) O-SO 104 1 min 0,000 mm 4,9 UV-I 801 W/m 6,5 C 20,7 C 11,3 km/h (2 Bft) 91,30 %
01.07.2018 15:18 20,9 C 21,7 C 39 % 1015,2 hPa 0,0 l/m 4,8 km/h (1 Bft) O-SO 104 1 min 0,000 mm 4,9 UV-I 800 W/m 6,4 C 20,9 C 9,7 km/h (2 Bft) 100,00 %
01.07.2018 15:19 20,9 C 21,7 C 40 % 1015,3 hPa 0,0 l/m 3,1 km/h (1 Bft) O-SO 112 1 min 0,000 mm 4,9 UV-I 799 W/m 6,8 C 20,9 C 4,8 km/h (1 Bft) 95,65 %
01.07.2018 15:20 20,9 C 21,7 C 38 % 1015,2 hPa 0,0 l/m 1,7 km/h (1 Bft) O-SO 111 1 min 0,000 mm 4,2 UV-I 796 W/m 6,0 C 20,9 C 3,2 km/h (1 Bft) 100,00 %
01.07.2018 15:21 20,9 C 21,7 C 38 % 1015,2 hPa 0,0 l/m 3,0 km/h (1 Bft) S 180 1 min 0,000 mm 2,4 UV-I 795 W/m 6,0 C 20,9 C 6,4 km/h (2 Bft) 90,91 %
01.07.2018 15:22 20,9 C 21,7 C 38 % 1015,0 hPa 0,0 l/m 13,1 km/h (3 Bft) N-NO 19 1 min 0,000 mm 3,4 UV-I 791 W/m 6,0 C 18,8 C 19,3 km/h (3 Bft) 100,00 %
01.07.2018 15:23 21,2 C 21,7 C 48 % 1015,1 hPa 0,0 l/m 12,3 km/h (3 Bft) N-NO 24 1 min 0,000 mm 4,8 UV-I 789 W/m 9,7 C 19,3 C 14,5 km/h (3 Bft) 96,15 %
01.07.2018 15:24 21,4 C 21,7 C 43 % 1015,1 hPa 0,0 l/m 8,3 km/h (2 Bft) N-NO 12 1 min 0,000 mm 4,7 UV-I 788 W/m 8,3 C 20,7 C 12,9 km/h (3 Bft) 98,30 %
01.07.2018 15:25 21,6 C 22,2 C 44 % 1015,1 hPa 0,0 l/m 7,6 km/h (2 Bft) NO 40 1 min 0,000 mm 4,7 UV-I 783 W/m 8,8 C 21,2 C 11,3 km/h (2 Bft) 97,56 %
01.07.2018 15:26 21,6 C 21,7 C 43 % 1015,2 hPa 0,0 l/m 11,4 km/h (2 Bft) O 80 1 min 0,000 mm 4,7 UV-I 781 W/m 8,5 C 20,0 C 16,1 km/h (3 Bft) 100,00 %
01.07.2018 15:27 21,6 C 21,7 C 39 % 1015,1 hPa 0,0 l/m 8,1 km/h (2 Bft) SO 131 1 min 0,000 mm 4,6 UV-I 778 W/m 7,0 C 21,0 C 11,3 km/h (2 Bft) 96,15 %
01.07.2018 15:28 21,5 C 22,2 C 42 % 1015,1 hPa 0,0 l/m 10,1 km/h (2 Bft) O-NO 62 1 min 0,000 mm 4,6 UV-I 776 W/m 8,0 C 20,3 C 17,7 km/h (3 Bft) 95,83 %
01.07.2018 15:29 21,5 C 22,2 C 42 % 1015,1 hPa 0,0 l/m 12,6 km/h (3 Bft) O 82 1 min 0,000 mm 4,5 UV-I 773 W/m 8,0 C 19,6 C 16,1 km/h (3 Bft) 100,00 %
01.07.2018 15:30 21,6 C 22,2 C 46 % 1015,2 hPa 0,0 l/m 6,1 km/h (2 Bft) O-SO 123 1 min 0,000 mm 4,5 UV-I 770 W/m 9,5 C 21,6 C 11,3 km/h (2 Bft) 95,83 %
01.07.2018 15:31 21,6 C 22,2 C 40 % 1015,1 hPa 0,0 l/m 8,1 km/h (2 Bft) O-SO 115 1 min 0,000 mm 4,5 UV-I 772 W/m 7,4 C 21,0 C 12,9 km/h (3 Bft) 100,00 %
01.07.2018 15:32 21,6 C 22,2 C 39 % 1015,1 hPa 0,0 l/m 6,1 km/h (2 Bft) O-SO 108 1 min 0,000 mm 4,5 UV-I 776 W/m 7,0 C 21,6 C 9,7 km/h (2 Bft) 91,67 %
01.07.2018 15:33 21,5 C 22,2 C 41 % 1015,1 hPa 0,0 l/m 8,0 km/h (2 Bft) NO 37 1 min 0,000 mm 4,5 UV-I 779 W/m 7,7 C 20,9 C 16,1 km/h (3 Bft) 100,00 %
01.07.2018 15:34 21,6 C 22,2 C 44 % 1015,1 hPa 0,0 l/m 16,0 km/h (3 Bft) NO 41 1 min 0,000 mm 4,5 UV-I 778 W/m 8,8 C 19,0 C 17,7 km/h (3 Bft) 91,30 %
01.07.2018 15:35 21,6 C 22,2 C 42 % 1015,1 hPa 0,0 l/m 12,9 km/h (3 Bft) O-NO 76 1 min 0,000 mm 4,4 UV-I 772 W/m 8,1 C 19,7 C 17,7 km/h (3 Bft) 100,00 %
01.07.2018 15:36 21,5 C 22,2 C 41 % 1015,1 hPa 0,0 l/m 9,4 km/h (2 Bft) NO 42 1 min 0,000 mm 4,4 UV-I 769 W/m 7,7 C 20,5 C 14,5 km/h (3 Bft) 95,65 %
01.07.2018 15:37 21,6 C 22,2 C 40 % 1015,1 hPa 0,0 l/m 8,2 km/h (2 Bft) NO 41 1 min 0,000 mm 4,4 UV-I 766 W/m 7,4 C 21,0 C 12,9 km/h (3 Bft) 96,30 %
01.07.2018 15:38 21,6 C 22,2 C 44 % 1015,0 hPa 0,0 l/m 6,9 km/h (2 Bft) NO 52 1 min 0,000 mm 4,4 UV-I 765 W/m 8,8 C 21,4 C 11,3 km/h (2 Bft) 100,00 %
01.07.2018 15:39 21,4 C 22,2 C 42 % 1015,0 hPa 0,0 l/m 6,4 km/h (2 Bft) N-NO 15 1 min 0,000 mm 4,4 UV-I 764 W/m 8,0 C 21,4 C 8,0 km/h (2 Bft) 95,83 %
01.07.2018 15:40 21,4 C 22,2 C 41 % 1015,1 hPa 0,0 l/m 6,7 km/h (2 Bft) NW 317 1 min 0,000 mm 4,3 UV-I 760 W/m 7,6 C 21,3 C 9,7 km/h (2 Bft) 100,00 %
01.07.2018 15:41 21,5 C 22,2 C 43 % 1015,1 hPa 0,0 l/m 5,7 km/h (1 Bft) N 9 1 min 0,000 mm 4,3 UV-I 758 W/m 8,4 C 21,5 C 11,3 km/h (2 Bft) 95,83 %
01.07.2018 15:42 21,6 C 22,2 C 41 % 1015,0 hPa 0,0 l/m 7,1 km/h (2 Bft) N 355 1 min 0,000 mm 4,3 UV-I 755 W/m 7,8 C 21,3 C 12,9 km/h (3 Bft) 100,00 %
01.07.2018 15:43 21,6 C 22,2 C 40 % 1015,0 hPa 0,0 l/m 9,9 km/h (2 Bft) NW 323 1 min 0,000 mm 4,2 UV-I 752 W/m 7,4 C 20,4 C 14,5 km/h (3 Bft) 96,30 %
01.07.2018 15:44 21,7 C 22,2 C 42 % 1015,0 hPa 0,0 l/m 6,4 km/h (2 Bft) N-NO 21 1 min 0,000 mm 4,2 UV-I 752 W/m 8,2 C 21,7 C 9,7 km/h (2 Bft) 100,00 %
01.07.2018 15:45 21,6 C 22,2 C 39 % 1015,0 hPa 0,0 l/m 7,3 km/h (2 Bft) O-NO 69 1 min 0,000 mm 4,2 UV-I 748 W/m 7,0 C 21,3 C 12,9 km/h (3 Bft) 96,30 %
01.07.2018 15:46 21,6 C 22,2 C 41 % 1015,0 hPa 0,0 l/m 5,7 km/h (1 Bft) O 90 1 min 0,000 mm 4,2 UV-I 747 W/m 7,8 C 21,6 C 9,7 km/h (2 Bft) 91,30 %
01.07.2018 15:47 21,7 C 22,2 C 41 % 1015,0 hPa 0,0 l/m 3,3 km/h (1 Bft) O-SO 122 1 min 0,000 mm 4,2 UV-I 742 W/m 7,9 C 21,7 C 4,8 km/h (1 Bft) 100,00 %
01.07.2018 15:48 21,7 C 22,2 C 40 % 1015,0 hPa 0,0 l/m 3,9 km/h (1 Bft) NO 36 1 min 0,000 mm 4,1 UV-I 742 W/m 7,5 C 21,7 C 6,4 km/h (2 Bft) 100,00 %
01.07.2018 15:49 21,8 C 22,2 C 43 % 1015,0 hPa 0,0 l/m 5,9 km/h (2 Bft) N 355 1 min 0,000 mm 4,1 UV-I 738 W/m 8,7 C 21,8 C 11,3 km/h (2 Bft) 96,30 %
01.07.2018 15:50 21,8 C 22,2 C 43 % 1015,0 hPa 0,0 l/m 6,8 km/h (2 Bft) N 350 1 min 0,000 mm 4,1 UV-I 738 W/m 8,7 C 21,7 C 9,7 km/h (2 Bft) 100,00 %
01.07.2018 15:51 21,9 C 22,2 C 40 % 1015,0 hPa 0,0 l/m 9,2 km/h (2 Bft) N-NO 29 1 min 0,000 mm 4,1 UV-I 737 W/m 7,7 C 21,0 C 14,5 km/h (3 Bft) 89,66 %
01.07.2018 15:52 21,9 C 22,2 C 40 % 1014,9 hPa 0,0 l/m 11,9 km/h (2 Bft) N-NW 335 1 min 0,000 mm 4,1 UV-I 735 W/m 7,7 C 20,2 C 14,5 km/h (3 Bft) 95,83 %
01.07.2018 15:53 21,9 C 22,2 C 42 % 1014,9 hPa 0,0 l/m 9,7 km/h (2 Bft) NO 51 1 min 0,000 mm 4,0 UV-I 734 W/m 8,4 C 20,8 C 14,5 km/h (3 Bft) 95,65 %
01.07.2018 15:54 21,8 C 22,2 C 42 % 1015,0 hPa 0,0 l/m 7,4 km/h (2 Bft) NO 43 1 min 0,000 mm 4,0 UV-I 731 W/m 8,3 C 21,4 C 11,3 km/h (2 Bft) 92,59 %
01.07.2018 15:55 21,8 C 22,2 C 43 % 1015,0 hPa 0,0 l/m 7,8 km/h (2 Bft) O-NO 68 1 min 0,000 mm 4,0 UV-I 727 W/m 8,7 C 21,3 C 12,9 km/h (3 Bft) 100,00 %
01.07.2018 15:56 21,8 C 22,2 C 41 % 1014,9 hPa 0,0 l/m 9,8 km/h (2 Bft) N-NO 12 1 min 0,000 mm 4,0 UV-I 725 W/m 8,0 C 20,7 C 12,9 km/h (3 Bft) 86,67 %
01.07.2018 15:57 21,8 C 22,2 C 42 % 1014,9 hPa 0,0 l/m 10,6 km/h (2 Bft) NO 40 1 min 0,000 mm 4,0 UV-I 722 W/m 8,3 C 20,5 C 16,1 km/h (3 Bft) 100,00 %
01.07.2018 15:58 21,9 C 22,2 C 41 % 1014,9 hPa 0,0 l/m 15,4 km/h (3 Bft) NO 43 1 min 0,000 mm 3,9 UV-I 722 W/m 8,0 C 19,5 C 19,3 km/h (3 Bft) 92,59 %
01.07.2018 15:59 21,9 C 22,2 C 45 % 1014,9 hPa 0,0 l/m 13,2 km/h (3 Bft) O-NO 76 1 min 0,000 mm 3,9 UV-I 722 W/m 9,4 C 19,9 C 19,3 km/h (3 Bft) 100,00 %
01.07.2018 16:00 22,0 C 22,2 C 41 % 1014,9 hPa 0,0 l/m 9,1 km/h (2 Bft) O-NO 66 1 min 0,533 mm 3,8 UV-I 718 W/m 8,1 C 21,1 C 19,3 km/h (3 Bft) 91,67 %
01.07.2018 16:01 22,0 C 22,2 C 38 % 1014,9 hPa 0,0 l/m 16,0 km/h (3 Bft) NO 48 1 min 0,000 mm 3,8 UV-I 712 W/m 7,0 C 19,5 C 19,3 km/h (3 Bft) 96,15 %
01.07.2018 16:02 21,9 C 22,2 C 40 % 1014,8 hPa 0,0 l/m 13,0 km/h (3 Bft) O 88 1 min 0,000 mm 3,8 UV-I 709 W/m 7,7 C 20,0 C 17,7 km/h (3 Bft) 96,30 %
01.07.2018 16:03 21,9 C 22,2 C 39 % 1014,9 hPa 0,0 l/m 13,3 km/h (3 Bft) NO 53 1 min 0,000 mm 3,7 UV-I 706 W/m 7,3 C 19,9 C 17,7 km/h (3 Bft) 92,31 %
01.07.2018 16:04 21,9 C 22,2 C 41 % 1014,9 hPa 0,0 l/m 13,0 km/h (3 Bft) NO 55 1 min 0,000 mm 3,7 UV-I 705 W/m 8,0 C 20,0 C 19,3 km/h (3 Bft) 93,33 %
01.07.2018 16:05 21,9 C 22,2 C 42 % 1014,8 hPa 0,0 l/m 8,6 km/h (2 Bft) O-NO 59 1 min 0,000 mm 3,7 UV-I 707 W/m 8,4 C 21,2 C 16,1 km/h (3 Bft) 91,30 %
01.07.2018 16:06 21,9 C 22,2 C 43 % 1014,9 hPa 0,0 l/m 11,1 km/h (2 Bft) N-NO 17 1 min 0,000 mm 3,7 UV-I 707 W/m 8,7 C 20,4 C 20,9 km/h (4 Bft) 100,00 %
01.07.2018 16:08 22,1 C 22,2 C 41 % 1014,8 hPa 0,0 l/m 13,2 km/h (3 Bft) NO 54 2 min 0,000 mm 3,7 UV-I 702 W/m 8,2 C 20,2 C 24,1 km/h (4 Bft) 92,86 %
01.07.2018 16:09 22,1 C 22,2 C 42 % 1014,8 hPa 0,0 l/m 15,6 km/h (3 Bft) NO 51 1 min 0,000 mm 3,6 UV-I 698 W/m 8,6 C 19,7 C 20,9 km/h (4 Bft) 100,00 %
01.07.2018 16:10 22,1 C 22,2 C 44 % 1014,9 hPa 0,0 l/m 14,6 km/h (3 Bft) NO 51 1 min 0,000 mm 3,6 UV-I 698 W/m 9,3 C 19,9 C 17,7 km/h (3 Bft) 93,33 %
01.07.2018 16:11 22,1 C 22,2 C 43 % 1014,9 hPa 0,0 l/m 10,8 km/h (2 Bft) O-NO 70 1 min 0,000 mm 3,6 UV-I 697 W/m 8,9 C 20,7 C 14,5 km/h (3 Bft) 100,00 %
01.07.2018 16:12 22,2 C 22,2 C 44 % 1014,9 hPa 0,0 l/m 6,6 km/h (2 Bft) O-SO 107 1 min 0,000 mm 3,6 UV-I 694 W/m 9,4 C 22,1 C 9,7 km/h (2 Bft) 92,31 %
01.07.2018 16:13 22,2 C 22,2 C 39 % 1014,9 hPa 0,0 l/m 6,7 km/h (2 Bft) O-NO 60 1 min 0,000 mm 3,5 UV-I 695 W/m 7,6 C 22,1 C 11,3 km/h (2 Bft) 100,00 %
01.07.2018 16:14 22,1 C 22,2 C 40 % 1014,9 hPa 0,0 l/m 7,3 km/h (2 Bft) NO 38 1 min 0,000 mm 3,5 UV-I 698 W/m 7,9 C 21,8 C 9,7 km/h (2 Bft) 92,31 %
01.07.2018 16:15 21,9 C 22,2 C 43 % 1014,9 hPa 0,0 l/m 11,7 km/h (2 Bft) NO 53 1 min 0,000 mm 3,4 UV-I 698 W/m 8,7 C 20,3 C 16,1 km/h (3 Bft) 95,83 %
01.07.2018 16:16 21,9 C 22,2 C 44 % 1014,9 hPa 0,0 l/m 8,7 km/h (2 Bft) O 82 1 min 0,000 mm 3,4 UV-I 700 W/m 9,1 C 21,1 C 16,1 km/h (3 Bft) 86,96 %
01.07.2018 16:17 21,9 C 22,2 C 41 % 1014,9 hPa 0,0 l/m 5,7 km/h (1 Bft) NO 40 1 min 0,000 mm 3,4 UV-I 701 W/m 8,0 C 21,9 C 8,0 km/h (2 Bft) 100,00 %
01.07.2018 16:18 21,9 C 22,2 C 40 % 1014,8 hPa 0,0 l/m 8,0 km/h (2 Bft) N-NO 22 1 min 0,000 mm 3,3 UV-I 693 W/m 7,7 C 21,3 C 12,9 km/h (3 Bft) 91,30 %
01.07.2018 16:19 21,9 C 22,2 C 41 % 1014,8 hPa 0,0 l/m 10,4 km/h (2 Bft) NO 42 1 min 0,000 mm 2,9 UV-I 693 W/m 8,0 C 20,6 C 14,5 km/h (3 Bft) 95,83 %
01.07.2018 16:20 21,9 C 22,2 C 43 % 1014,9 hPa 0,0 l/m 9,7 km/h (2 Bft) NO 55 1 min 0,000 mm 2,5 UV-I 693 W/m 8,7 C 20,8 C 11,3 km/h (2 Bft) 92,86 %
01.07.2018 16:21 21,7 C 22,2 C 42 % 1014,9 hPa 0,0 l/m 7,6 km/h (2 Bft) N-NO 26 1 min 0,000 mm 2,3 UV-I 693 W/m 8,2 C 21,3 C 9,7 km/h (2 Bft) 96,30 %
01.07.2018 16:22 21,5 C 22,2 C 44 % 1014,9 hPa 0,0 l/m 7,5 km/h (2 Bft) N-NO 22 1 min 0,000 mm 2,3 UV-I 693 W/m 8,7 C 21,1 C 8,0 km/h (2 Bft) 96,15 %
01.07.2018 16:23 21,4 C 22,2 C 45 % 1014,9 hPa 0,0 l/m 5,9 km/h (2 Bft) N 5 1 min 0,000 mm 3,1 UV-I 693 W/m 9,0 C 21,4 C 8,0 km/h (2 Bft) 91,67 %
01.07.2018 16:24 21,4 C 22,2 C 42 % 1014,9 hPa 0,0 l/m 4,9 km/h (1 Bft) N 5 1 min 0,000 mm 3,2 UV-I 692 W/m 8,0 C 21,4 C 8,0 km/h (2 Bft) 98,09 %
01.07.2018 16:25 21,4 C 22,2 C 41 % 1014,9 hPa 0,0 l/m 2,1 km/h (1 Bft) N 5 1 min 0,000 mm 3,3 UV-I 684 W/m 7,6 C 21,4 C 3,2 km/h (1 Bft) 97,73 %
01.07.2018 16:26 21,3 C 22,2 C 39 % 1014,9 hPa 0,0 l/m 4,2 km/h (1 Bft) W-SW 250 1 min 0,000 mm 3,2 UV-I 674 W/m 6,8 C 21,3 C 6,4 km/h (2 Bft) 96,55 %
01.07.2018 16:27 21,2 C 22,2 C 38 % 1014,8 hPa 0,0 l/m 1,3 km/h (1 Bft) W-SW 247 1 min 0,000 mm 3,2 UV-I 665 W/m 6,3 C 21,2 C 4,8 km/h (1 Bft) 95,83 %
01.07.2018 16:28 21,2 C 22,2 C 40 % 1014,8 hPa 0,0 l/m 2,2 km/h (1 Bft) W-SW 248 1 min 0,000 mm 3,2 UV-I 661 W/m 7,1 C 21,2 C 4,8 km/h (1 Bft) 100,00 %
01.07.2018 16:29 21,2 C 22,2 C 39 % 1014,8 hPa 0,0 l/m 2,9 km/h (1 Bft) W-SW 251 1 min 0,000 mm 3,2 UV-I 659 W/m 6,7 C 21,2 C 4,8 km/h (1 Bft) 95,83 %
01.07.2018 16:30 21,2 C 22,2 C 40 % 1014,8 hPa 0,0 l/m 1,3 km/h (1 Bft) W-SW 251 1 min 0,000 mm 3,2 UV-I 660 W/m 7,1 C 21,2 C 3,2 km/h (1 Bft) 100,00 %
01.07.2018 16:31 21,3 C 22,2 C 40 % 1014,8 hPa 0,0 l/m 2,6 km/h (1 Bft) NO 51 1 min 0,000 mm 3,1 UV-I 653 W/m 7,1 C 21,3 C 6,4 km/h (2 Bft) 96,15 %
01.07.2018 16:33 21,7 C 22,2 C 41 % 1014,9 hPa 0,0 l/m 10,4 km/h (2 Bft) NO 49 2 min 0,000 mm 3,1 UV-I 653 W/m 7,9 C 20,4 C 17,7 km/h (3 Bft) 98,00 %
01.07.2018 16:34 21,7 C 22,2 C 40 % 1014,9 hPa 0,0 l/m 9,3 km/h (2 Bft) NO 46 1 min 0,000 mm 3,1 UV-I 656 W/m 7,5 C 20,7 C 12,9 km/h (3 Bft) 100,00 %
01.07.2018 16:35 21,7 C 22,2 C 43 % 1014,9 hPa 0,0 l/m 7,0 km/h (2 Bft) NO 53 1 min 0,000 mm 3,1 UV-I 659 W/m 8,6 C 21,5 C 9,7 km/h (2 Bft) 100,00 %
01.07.2018 16:36 21,9 C 22,2 C 42 % 1014,9 hPa 0,0 l/m 12,1 km/h (2 Bft) NO 43 1 min 0,000 mm 3,1 UV-I 658 W/m 8,4 C 20,2 C 17,7 km/h (3 Bft) 100,00 %
01.07.2018 16:37 22,0 C 22,2 C 41 % 1014,9 hPa 0,0 l/m 12,7 km/h (3 Bft) O-NO 78 1 min 0,000 mm 3,1 UV-I 656 W/m 8,1 C 20,2 C 17,7 km/h (3 Bft) 100,00 %
01.07.2018 16:38 22,1 C 22,2 C 38 % 1014,8 hPa 0,0 l/m 13,7 km/h (3 Bft) O-SO 103 1 min 0,000 mm 3,0 UV-I 652 W/m 7,1 C 20,1 C 19,3 km/h (3 Bft) 100,00 %
01.07.2018 16:39 22,1 C 22,2 C 36 % 1014,9 hPa 0,0 l/m 12,1 km/h (2 Bft) O 96 1 min 0,000 mm 3,0 UV-I 647 W/m 6,3 C 20,4 C 16,1 km/h (3 Bft) 100,00 %
01.07.2018 16:40 21,9 C 22,2 C 40 % 1014,9 hPa 0,0 l/m 11,5 km/h (2 Bft) O-SO 113 1 min 0,000 mm 2,9 UV-I 641 W/m 7,7 C 20,3 C 14,5 km/h (3 Bft) 95,83 %
01.07.2018 16:41 21,9 C 22,2 C 38 % 1014,8 hPa 0,0 l/m 14,6 km/h (3 Bft) O-SO 111 1 min 0,000 mm 2,9 UV-I 636 W/m 6,9 C 19,6 C 19,3 km/h (3 Bft) 100,00 %
01.07.2018 16:42 21,8 C 22,2 C 39 % 1014,8 hPa 0,0 l/m 11,5 km/h (2 Bft) O-NO 69 1 min 0,000 mm 2,9 UV-I 635 W/m 7,2 C 20,2 C 19,3 km/h (3 Bft) 100,00 %
01.07.2018 16:43 21,8 C 22,2 C 41 % 1014,9 hPa 0,0 l/m 12,5 km/h (3 Bft) N 9 1 min 0,000 mm 2,9 UV-I 634 W/m 8,0 C 20,0 C 14,5 km/h (3 Bft) 100,00 %
01.07.2018 16:44 21,8 C 22,2 C 42 % 1014,9 hPa 0,0 l/m 11,1 km/h (2 Bft) NO 49 1 min 0,000 mm 2,8 UV-I 632 W/m 8,3 C 20,3 C 16,1 km/h (3 Bft) 95,83 %
01.07.2018 16:45 21,8 C 22,2 C 43 % 1014,9 hPa 0,0 l/m 10,7 km/h (2 Bft) O-NO 57 1 min 0,000 mm 2,8 UV-I 628 W/m 8,7 C 20,4 C 14,5 km/h (3 Bft) 100,00 %
01.07.2018 16:46 21,9 C 22,2 C 40 % 1014,9 hPa 0,0 l/m 9,2 km/h (2 Bft) O 90 1 min 0,000 mm 2,6 UV-I 612 W/m 7,7 C 21,0 C 11,3 km/h (2 Bft) 100,00 %
01.07.2018 16:47 21,9 C 22,2 C 40 % 1014,8 hPa 0,0 l/m 7,8 km/h (2 Bft) O 88 1 min 0,000 mm 2,7 UV-I 614 W/m 7,7 C 21,4 C 11,3 km/h (2 Bft) 100,00 %
01.07.2018 16:48 21,9 C 22,2 C 38 % 1014,9 hPa 0,0 l/m 8,4 km/h (2 Bft) O 90 1 min 0,000 mm 2,7 UV-I 624 W/m 6,9 C 21,2 C 11,3 km/h (2 Bft) 100,00 %
01.07.2018 16:49 21,9 C 22,2 C 38 % 1014,9 hPa 0,0 l/m 11,0 km/h (2 Bft) O-NO 65 1 min 0,000 mm 2,7 UV-I 625 W/m 6,9 C 20,5 C 14,5 km/h (3 Bft) 100,00 %
01.07.2018 16:50 21,8 C 22,2 C 38 % 1014,8 hPa 0,0 l/m 7,4 km/h (2 Bft) O-NO 70 1 min 0,000 mm 2,7 UV-I 622 W/m 6,8 C 21,4 C 9,7 km/h (2 Bft) 100,00 %
01.07.2018 16:51 21,7 C 22,2 C 39 % 1014,8 hPa 0,0 l/m 5,4 km/h (1 Bft) O 96 1 min 0,000 mm 2,7 UV-I 619 W/m 7,1 C 21,7 C 9,7 km/h (2 Bft) 100,00 %
01.07.2018 16:53 21,6 C 22,2 C 39 % 1014,8 hPa 0,0 l/m 4,8 km/h (1 Bft) O-NO 61 2 min 0,000 mm 2,6 UV-I 610 W/m 7,0 C 21,6 C 6,4 km/h (2 Bft) 98,00 %
01.07.2018 16:54 21,6 C 22,2 C 42 % 1014,8 hPa 0,0 l/m 3,9 km/h (1 Bft) O-NO 61 1 min 0,000 mm 2,6 UV-I 607 W/m 8,1 C 21,6 C 6,4 km/h (2 Bft) 91,67 %
01.07.2018 16:55 21,7 C 22,2 C 42 % 1014,8 hPa 0,0 l/m 2,4 km/h (1 Bft) O-NO 62 1 min 0,000 mm 2,6 UV-I 604 W/m 8,2 C 21,7 C 4,8 km/h (1 Bft) 100,00 %
01.07.2018 16:56 21,8 C 22,2 C 42 % 1014,9 hPa 0,0 l/m 7,0 km/h (2 Bft) O-NO 77 1 min 0,000 mm 2,6 UV-I 601 W/m 8,3 C 21,6 C 14,5 km/h (3 Bft) 100,00 %
01.07.2018 16:57 21,9 C 22,2 C 42 % 1014,9 hPa 0,0 l/m 8,6 km/h (2 Bft) O 91 1 min 0,000 mm 2,5 UV-I 599 W/m 8,4 C 21,2 C 14,5 km/h (3 Bft) 100,00 %
01.07.2018 16:58 22,1 C 22,2 C 42 % 1014,9 hPa 0,0 l/m 13,2 km/h (3 Bft) O-NO 57 1 min 0,000 mm 2,5 UV-I 603 W/m 8,6 C 20,2 C 17,7 km/h (3 Bft) 100,00 %
01.07.2018 16:59 22,1 C 22,2 C 39 % 1014,9 hPa 0,0 l/m 15,1 km/h (3 Bft) O-NO 76 1 min 0,000 mm 2,5 UV-I 602 W/m 7,5 C 19,8 C 20,9 km/h (4 Bft) 100,00 %
01.07.2018 17:00 22,0 C 22,2 C 40 % 1014,9 hPa 0,0 l/m 16,0 km/h (3 Bft) O 94 1 min 0,000 mm 2,5 UV-I 603 W/m 7,8 C 19,5 C 22,5 km/h (4 Bft) 100,00 %
01.07.2018 17:01 21,9 C 22,2 C 37 % 1014,8 hPa 0,0 l/m 12,8 km/h (3 Bft) O 87 1 min 0,458 mm 2,5 UV-I 603 W/m 6,5 C 20,0 C 16,1 km/h (3 Bft) 96,30 %
01.07.2018 17:02 21,8 C 22,2 C 38 % 1014,9 hPa 0,0 l/m 12,6 km/h (3 Bft) O-NO 78 1 min 0,000 mm 2,4 UV-I 601 W/m 6,8 C 20,0 C 19,3 km/h (3 Bft) 100,00 %
01.07.2018 17:03 21,7 C 22,2 C 38 % 1014,8 hPa 0,0 l/m 9,1 km/h (2 Bft) O-NO 65 1 min 0,000 mm 2,4 UV-I 598 W/m 6,8 C 20,8 C 12,9 km/h (3 Bft) 100,00 %
01.07.2018 17:04 21,6 C 22,2 C 39 % 1014,8 hPa 0,0 l/m 11,3 km/h (2 Bft) O-NO 59 1 min 0,000 mm 2,4 UV-I 595 W/m 7,0 C 20,1 C 14,5 km/h (3 Bft) 100,00 %
01.07.2018 17:05 21,6 C 22,2 C 38 % 1014,8 hPa 0,0 l/m 11,9 km/h (2 Bft) O 84 1 min 0,000 mm 2,4 UV-I 593 W/m 6,7 C 19,9 C 14,5 km/h (3 Bft) 100,00 %
01.07.2018 17:06 21,6 C 22,2 C 38 % 1014,8 hPa 0,0 l/m 10,2 km/h (2 Bft) SO 138 1 min 0,000 mm 2,4 UV-I 592 W/m 6,7 C 20,4 C 16,1 km/h (3 Bft) 100,00 %
01.07.2018 17:07 21,6 C 22,2 C 41 % 1014,8 hPa 0,0 l/m 8,8 km/h (2 Bft) O-SO 104 1 min 0,000 mm 2,4 UV-I 586 W/m 7,8 C 20,8 C 14,5 km/h (3 Bft) 96,15 %
01.07.2018 17:08 21,7 C 22,2 C 40 % 1014,8 hPa 0,0 l/m 11,6 km/h (2 Bft) SO 136 1 min 0,000 mm 2,3 UV-I 574 W/m 7,5 C 20,1 C 16,1 km/h (3 Bft) 100,00 %
01.07.2018 17:09 21,6 C 22,2 C 38 % 1014,8 hPa 0,0 l/m 7,3 km/h (2 Bft) SO 136 1 min 0,000 mm 2,2 UV-I 570 W/m 6,7 C 21,3 C 12,9 km/h (3 Bft) 100,00 %
01.07.2018 17:10 21,6 C 22,2 C 39 % 1014,8 hPa 0,0 l/m 2,5 km/h (1 Bft) SO 137 1 min 0,000 mm 2,2 UV-I 568 W/m 7,0 C 21,6 C 4,8 km/h (1 Bft) 100,00 %
01.07.2018 17:11 21,5 C 22,2 C 41 % 1014,9 hPa 0,0 l/m 11,9 km/h (2 Bft) O-SO 109 1 min 0,000 mm 2,2 UV-I 566 W/m 7,7 C 19,8 C 19,3 km/h (3 Bft) 100,00 %
01.07.2018 17:12 21,4 C 22,2 C 38 % 1014,9 hPa 0,0 l/m 11,0 km/h (2 Bft) O 95 1 min 0,000 mm 2,2 UV-I 563 W/m 6,5 C 19,9 C 17,7 km/h (3 Bft) 100,00 %
01.07.2018 17:13 21,4 C 22,2 C 40 % 1014,9 hPa 0,0 l/m 3,5 km/h (1 Bft) O 94 1 min 0,000 mm 2,2 UV-I 557 W/m 7,2 C 21,4 C 4,8 km/h (1 Bft) 100,00 %
01.07.2018 17:14 21,5 C 22,2 C 43 % 1014,9 hPa 0,0 l/m 8,6 km/h (2 Bft) NO 55 1 min 0,000 mm 2,1 UV-I 540 W/m 8,4 C 20,7 C 12,9 km/h (3 Bft) 95,83 %
01.07.2018 17:15 21,6 C 22,2 C 40 % 1014,8 hPa 0,0 l/m 10,1 km/h (2 Bft) NO 55 1 min 0,000 mm 2,2 UV-I 558 W/m 7,4 C 20,4 C 14,5 km/h (3 Bft) 100,00 %
01.07.2018 17:16 21,7 C 22,2 C 44 % 1014,8 hPa 0,0 l/m 12,9 km/h (3 Bft) O-NO 75 1 min 0,000 mm 2,2 UV-I 563 W/m 8,9 C 19,8 C 20,9 km/h (4 Bft) 100,00 %
01.07.2018 17:17 21,7 C 22,2 C 38 % 1014,8 hPa 0,0 l/m 12,9 km/h (3 Bft) N-NO 30 1 min 0,000 mm 2,1 UV-I 565 W/m 6,8 C 19,8 C 16,1 km/h (3 Bft) 100,00 %
01.07.2018 17:18 21,7 C 22,2 C 41 % 1014,9 hPa 0,0 l/m 14,5 km/h (3 Bft) NO 38 1 min 0,000 mm 2,1 UV-I 565 W/m 7,9 C 19,4 C 17,7 km/h (3 Bft) 95,83 %
01.07.2018 17:19 21,7 C 22,2 C 41 % 1014,8 hPa 0,0 l/m 10,4 km/h (2 Bft) N-NO 29 1 min 0,000 mm 2,1 UV-I 563 W/m 7,9 C 20,4 C 14,5 km/h (3 Bft) 100,00 %
01.07.2018 17:20 21,7 C 22,2 C 42 % 1014,8 hPa 0,0 l/m 12,9 km/h (3 Bft) NO 42 1 min 0,000 mm 2,1 UV-I 558 W/m 8,2 C 19,8 C 16,1 km/h (3 Bft) 100,00 %
01.07.2018 17:21 21,8 C 22,2 C 43 % 1014,8 hPa 0,0 l/m 12,6 km/h (3 Bft) O 82 1 min 0,000 mm 2,0 UV-I 554 W/m 8,7 C 20,0 C 17,7 km/h (3 Bft) 100,00 %
01.07.2018 17:22 21,8 C 22,2 C 39 % 1014,8 hPa 0,0 l/m 9,7 km/h (2 Bft) O-SO 103 1 min 0,000 mm 2,0 UV-I 544 W/m 7,2 C 20,7 C 12,9 km/h (3 Bft) 100,00 %
01.07.2018 17:23 21,8 C 22,2 C 39 % 1014,8 hPa 0,0 l/m 6,6 km/h (2 Bft) O 97 1 min 0,000 mm 2,0 UV-I 535 W/m 7,2 C 21,7 C 9,7 km/h (2 Bft) 100,00 %
01.07.2018 17:24 21,8 C 22,2 C 40 % 1014,8 hPa 0,0 l/m 13,8 km/h (3 Bft) O 99 1 min 0,000 mm 2,0 UV-I 526 W/m 7,6 C 19,7 C 16,1 km/h (3 Bft) 100,00 %
01.07.2018 17:25 21,8 C 22,2 C 39 % 1014,7 hPa 0,0 l/m 10,5 km/h (2 Bft) O 82 1 min 0,000 mm 1,9 UV-I 518 W/m 7,2 C 20,5 C 16,1 km/h (3 Bft) 94,44 %
01.07.2018 17:26 21,7 C 22,2 C 38 % 1014,8 hPa 0,0 l/m 12,5 km/h (3 Bft) O-NO 74 1 min 0,000 mm 1,9 UV-I 515 W/m 6,8 C 19,9 C 16,1 km/h (3 Bft) 93,75 %
01.07.2018 17:27 21,7 C 22,2 C 39 % 1014,8 hPa 0,0 l/m 7,2 km/h (2 Bft) O 101 1 min 0,000 mm 1,9 UV-I 517 W/m 7,1 C 21,4 C 12,9 km/h (3 Bft) 100,00 %
01.07.2018 17:28 21,6 C 22,2 C 39 % 1014,8 hPa 0,0 l/m 11,9 km/h (2 Bft) O 91 1 min 0,000 mm 1,9 UV-I 516 W/m 7,0 C 19,9 C 14,5 km/h (3 Bft) 100,00 %
01.07.2018 17:29 21,6 C 22,2 C 40 % 1014,8 hPa 0,0 l/m 9,7 km/h (2 Bft) O-SO 103 1 min 0,000 mm 1,9 UV-I 515 W/m 7,4 C 20,5 C 12,9 km/h (3 Bft) 100,00 %
01.07.2018 17:30 21,6 C 22,2 C 41 % 1014,9 hPa 0,0 l/m 7,4 km/h (2 Bft) NO 40 1 min 0,000 mm 1,9 UV-I 514 W/m 7,8 C 21,2 C 9,7 km/h (2 Bft) 100,00 %
01.07.2018 17:31 21,6 C 22,2 C 43 % 1014,8 hPa 0,0 l/m 10,5 km/h (2 Bft) O-NO 77 1 min 0,000 mm 1,8 UV-I 513 W/m 8,5 C 20,3 C 14,5 km/h (3 Bft) 100,00 %
01.07.2018 17:33 21,9 C 22,2 C 41 % 1014,8 hPa 0,0 l/m 13,5 km/h (3 Bft) N-NO 14 2 min 0,000 mm 1,8 UV-I 509 W/m 8,0 C 19,9 C 20,9 km/h (4 Bft) 100,00 %
01.07.2018 17:34 21,9 C 22,2 C 42 % 1014,8 hPa 0,0 l/m 14,9 km/h (3 Bft) NO 42 1 min 0,000 mm 1,8 UV-I 505 W/m 8,4 C 19,6 C 19,3 km/h (3 Bft) 100,00 %
01.07.2018 17:35 21,8 C 22,2 C 40 % 1014,8 hPa 0,0 l/m 12,7 km/h (3 Bft) N 5 1 min 0,000 mm 1,8 UV-I 501 W/m 7,6 C 19,9 C 16,1 km/h (3 Bft) 100,00 %
01.07.2018 17:36 21,8 C 22,2 C 42 % 1014,8 hPa 0,0 l/m 10,9 km/h (2 Bft) O-NO 61 1 min 0,000 mm 1,7 UV-I 496 W/m 8,3 C 20,4 C 14,5 km/h (3 Bft) 100,00 %
01.07.2018 17:37 21,9 C 22,2 C 40 % 1014,8 hPa 0,0 l/m 14,5 km/h (3 Bft) N-NO 23 1 min 0,000 mm 1,7 UV-I 489 W/m 7,7 C 19,7 C 19,3 km/h (3 Bft) 100,00 %
01.07.2018 17:38 21,8 C 22,2 C 40 % 1014,8 hPa 0,0 l/m 16,0 km/h (3 Bft) N 349 1 min 0,000 mm 1,7 UV-I 482 W/m 7,6 C 19,2 C 20,9 km/h (4 Bft) 100,00 %
01.07.2018 17:39 21,8 C 22,2 C 40 % 1014,8 hPa 0,0 l/m 17,3 km/h (3 Bft) N 355 1 min 0,000 mm 1,6 UV-I 479 W/m 7,6 C 19,0 C 20,9 km/h (4 Bft) 100,00 %
01.07.2018 17:40 21,8 C 22,2 C 42 % 1014,8 hPa 0,0 l/m 10,7 km/h (2 Bft) NO 52 1 min 0,000 mm 1,6 UV-I 474 W/m 8,3 C 20,4 C 14,5 km/h (3 Bft) 100,00 %
01.07.2018 17:41 21,8 C 22,2 C 41 % 1014,9 hPa 0,0 l/m 8,0 km/h (2 Bft) NO 39 1 min 0,000 mm 1,6 UV-I 469 W/m 8,0 C 21,2 C 11,3 km/h (2 Bft) 100,00 %
01.07.2018 17:43 21,9 C 22,2 C 41 % 1014,9 hPa 0,0 l/m 14,2 km/h (3 Bft) NO 36 2 min 0,000 mm 1,6 UV-I 465 W/m 8,0 C 19,7 C 17,7 km/h (3 Bft) 100,00 %
01.07.2018 17:44 21,8 C 22,2 C 41 % 1014,9 hPa 0,0 l/m 11,5 km/h (2 Bft) O-NO 61 1 min 0,000 mm 1,6 UV-I 464 W/m 8,0 C 20,2 C 14,5 km/h (3 Bft) 100,00 %
01.07.2018 17:45 21,8 C 22,2 C 41 % 1014,8 hPa 0,0 l/m 14,1 km/h (3 Bft) NO 48 1 min 0,000 mm 1,6 UV-I 460 W/m 8,0 C 19,6 C 19,3 km/h (3 Bft) 96,55 %
01.07.2018 17:46 21,7 C 22,2 C 40 % 1014,8 hPa 0,0 l/m 9,1 km/h (2 Bft) NO 49 1 min 0,000 mm 1,5 UV-I 456 W/m 7,5 C 20,8 C 14,5 km/h (3 Bft) 95,65 %
01.07.2018 17:47 21,5 C 22,2 C 39 % 1014,8 hPa 0,0 l/m 7,1 km/h (2 Bft) NO 53 1 min 0,000 mm 1,5 UV-I 454 W/m 7,0 C 21,2 C 9,7 km/h (2 Bft) 96,30 %
01.07.2018 17:48 21,5 C 22,2 C 41 % 1014,8 hPa 0,0 l/m 13,2 km/h (3 Bft) SO 124 1 min 0,000 mm 1,5 UV-I 448 W/m 7,7 C 19,5 C 17,7 km/h (3 Bft) 100,00 %
01.07.2018 17:49 21,6 C 22,2 C 39 % 1014,8 hPa 0,0 l/m 10,6 km/h (2 Bft) O-SO 118 1 min 0,000 mm 1,5 UV-I 445 W/m 7,0 C 20,2 C 16,1 km/h (3 Bft) 96,15 %
01.07.2018 17:50 21,6 C 22,2 C 39 % 1014,8 hPa 0,0 l/m 8,5 km/h (2 Bft) O 80 1 min 0,000 mm 1,5 UV-I 441 W/m 7,0 C 20,9 C 12,9 km/h (3 Bft) 100,00 %
01.07.2018 17:51 21,6 C 22,2 C 40 % 1014,8 hPa 0,0 l/m 7,5 km/h (2 Bft) NO 37 1 min 0,000 mm 1,5 UV-I 441 W/m 7,4 C 21,2 C 12,9 km/h (3 Bft) 95,65 %
01.07.2018 17:52 21,7 C 22,2 C 42 % 1014,8 hPa 0,0 l/m 8,8 km/h (2 Bft) O-NO 69 1 min 0,000 mm 1,4 UV-I 439 W/m 8,2 C 20,9 C 14,5 km/h (3 Bft) 100,00 %
01.07.2018 17:53 21,8 C 22,2 C 41 % 1014,8 hPa 0,0 l/m 7,0 km/h (2 Bft) O 96 1 min 0,000 mm 1,4 UV-I 437 W/m 8,0 C 21,6 C 11,3 km/h (2 Bft) 92,86 %
01.07.2018 17:54 21,8 C 22,2 C 40 % 1014,9 hPa 0,0 l/m 8,2 km/h (2 Bft) O-NO 69 1 min 0,000 mm 1,4 UV-I 435 W/m 7,6 C 21,2 C 11,3 km/h (2 Bft) 96,67 %
01.07.2018 17:55 21,7 C 22,2 C 38 % 1014,8 hPa 0,0 l/m 3,1 km/h (1 Bft) O-NO 59 1 min 0,000 mm 1,4 UV-I 432 W/m 6,8 C 21,7 C 4,8 km/h (1 Bft) 96,15 %
01.07.2018 17:56 21,7 C 22,2 C 39 % 1014,8 hPa 0,0 l/m 5,0 km/h (1 Bft) O-NO 64 1 min 0,000 mm 1,4 UV-I 427 W/m 7,1 C 21,7 C 8,0 km/h (2 Bft) 91,67 %
01.07.2018 17:58 21,7 C 22,2 C 44 % 1014,8 hPa 0,0 l/m 4,9 km/h (1 Bft) O 88 2 min 0,000 mm 1,3 UV-I 422 W/m 8,9 C 21,7 C 8,0 km/h (2 Bft) 97,87 %
01.07.2018 17:59 21,8 C 22,2 C 38 % 1014,8 hPa 0,0 l/m 8,0 km/h (2 Bft) O-NO 74 1 min 0,000 mm 1,3 UV-I 418 W/m 6,8 C 21,2 C 12,9 km/h (3 Bft) 100,00 %
01.07.2018 18:00 21,8 C 22,2 C 39 % 1014,8 hPa 0,0 l/m 10,7 km/h (2 Bft) O-NO 71 1 min 0,000 mm 1,3 UV-I 416 W/m 7,2 C 20,4 C 14,5 km/h (3 Bft) 92,31 %
01.07.2018 18:01 21,7 C 22,2 C 40 % 1014,8 hPa 0,0 l/m 11,0 km/h (2 Bft) O 88 1 min 0,406 mm 1,3 UV-I 411 W/m 7,5 C 20,2 C 14,5 km/h (3 Bft) 96,88 %
01.07.2018 18:02 21,7 C 22,2 C 40 % 1014,8 hPa 0,0 l/m 14,8 km/h (3 Bft) O-NO 78 1 min 0,000 mm 1,3 UV-I 410 W/m 7,5 C 19,4 C 20,9 km/h (4 Bft) 100,00 %
01.07.2018 18:03 21,7 C 22,2 C 39 % 1014,8 hPa 0,0 l/m 16,4 km/h (3 Bft) O-SO 113 1 min 0,000 mm 1,3 UV-I 407 W/m 7,1 C 19,0 C 20,9 km/h (4 Bft) 96,55 %
01.07.2018 18:04 21,7 C 22,2 C 40 % 1014,7 hPa 0,0 l/m 14,8 km/h (3 Bft) O 92 1 min 0,000 mm 1,3 UV-I 405 W/m 7,5 C 19,4 C 19,3 km/h (3 Bft) 100,00 %
01.07.2018 18:05 21,6 C 22,2 C 38 % 1014,8 hPa 0,0 l/m 13,7 km/h (3 Bft) O 88 1 min 0,000 mm 1,2 UV-I 403 W/m 6,7 C 19,5 C 17,7 km/h (3 Bft) 100,00 %
01.07.2018 18:06 21,5 C 22,2 C 39 % 1014,8 hPa 0,0 l/m 12,6 km/h (3 Bft) O-NO 68 1 min 0,000 mm 1,2 UV-I 402 W/m 7,0 C 19,6 C 16,1 km/h (3 Bft) 92,86 %
01.07.2018 18:08 21,5 C 22,2 C 41 % 1014,8 hPa 0,0 l/m 11,0 km/h (2 Bft) O-NO 57 2 min 0,000 mm 1,2 UV-I 399 W/m 7,7 C 20,0 C 17,7 km/h (3 Bft) 97,06 %
01.07.2018 18:09 21,4 C 22,2 C 40 % 1014,8 hPa 0,0 l/m 11,0 km/h (2 Bft) O-NO 75 1 min 0,000 mm 1,2 UV-I 398 W/m 7,2 C 19,9 C 16,1 km/h (3 Bft) 95,83 %
01.07.2018 18:10 21,4 C 22,2 C 40 % 1014,8 hPa 0,0 l/m 11,1 km/h (2 Bft) O 82 1 min 0,000 mm 1,2 UV-I 397 W/m 7,2 C 19,9 C 12,9 km/h (3 Bft) 98,15 %
01.07.2018 18:11 21,4 C 22,2 C 40 % 1014,9 hPa 0,0 l/m 13,4 km/h (3 Bft) O-SO 108 1 min 0,000 mm 1,2 UV-I 394 W/m 7,2 C 19,3 C 19,3 km/h (3 Bft) 95,12 %
01.07.2018 18:12 21,4 C 22,2 C 39 % 1014,8 hPa 0,0 l/m 15,4 km/h (3 Bft) O-SO 117 1 min 0,000 mm 1,1 UV-I 389 W/m 6,9 C 18,9 C 19,3 km/h (3 Bft) 95,65 %
01.07.2018 18:13 21,4 C 22,2 C 40 % 1014,9 hPa 0,0 l/m 12,9 km/h (3 Bft) O 83 1 min 0,000 mm 1,1 UV-I 387 W/m 7,2 C 19,4 C 16,1 km/h (3 Bft) 100,00 %
01.07.2018 18:14 21,4 C 22,2 C 40 % 1014,8 hPa 0,0 l/m 11,7 km/h (2 Bft) O-SO 115 1 min 0,000 mm 1,1 UV-I 384 W/m 7,2 C 19,7 C 14,5 km/h (3 Bft) 95,65 %
01.07.2018 18:15 21,4 C 22,2 C 40 % 1014,8 hPa 0,0 l/m 10,8 km/h (2 Bft) SO 138 1 min 0,000 mm 1,1 UV-I 380 W/m 7,2 C 20,0 C 12,9 km/h (3 Bft) 100,00 %
01.07.2018 18:16 21,3 C 22,2 C 38 % 1014,8 hPa 0,0 l/m 12,3 km/h (3 Bft) O-SO 121 1 min 0,000 mm 1,1 UV-I 378 W/m 6,4 C 19,5 C 14,5 km/h (3 Bft) 92,86 %
01.07.2018 18:17 21,3 C 22,2 C 38 % 1014,8 hPa 0,0 l/m 11,4 km/h (2 Bft) O 100 1 min 0,000 mm 1,1 UV-I 377 W/m 6,4 C 19,7 C 14,5 km/h (3 Bft) 100,00 %
01.07.2018 18:18 21,3 C 22,2 C 40 % 1014,8 hPa 0,0 l/m 6,6 km/h (2 Bft) O-NO 69 1 min 0,000 mm 1,0 UV-I 372 W/m 7,1 C 21,2 C 11,3 km/h (2 Bft) 100,00 %
01.07.2018 18:19 21,3 C 22,2 C 41 % 1014,8 hPa 0,0 l/m 6,6 km/h (2 Bft) O-SO 111 1 min 0,000 mm 0,9 UV-I 290 W/m 7,5 C 21,2 C 9,7 km/h (2 Bft) 100,00 %
01.07.2018 18:20 21,2 C 22,2 C 39 % 1014,8 hPa 0,0 l/m 6,6 km/h (2 Bft) O 94 1 min 0,000 mm 0,8 UV-I 254 W/m 6,7 C 21,1 C 11,3 km/h (2 Bft) 100,00 %
01.07.2018 18:21 21,2 C 22,2 C 40 % 1014,8 hPa 0,0 l/m 5,8 km/h (2 Bft) O 91 0 min 0,000 mm 0,9 UV-I 155 W/m 7,1 C 21,2 C 12,9 km/h (3 Bft) 95,83 %
01.07.2018 18:22 21,2 C 22,2 C 42 % 1014,8 hPa 0,0 l/m 7,9 km/h (2 Bft) O-SO 113 1 min 0,000 mm 1,0 UV-I 228 W/m 7,8 C 20,6 C 11,3 km/h (2 Bft) 100,00 %
01.07.2018 18:23 21,2 C 22,2 C 40 % 1014,8 hPa 0,0 l/m 13,4 km/h (3 Bft) O-SO 104 1 min 0,000 mm 0,9 UV-I 342 W/m 7,1 C 19,1 C 17,7 km/h (3 Bft) 100,00 %
01.07.2018 18:24 21,2 C 22,2 C 41 % 1014,8 hPa 0,0 l/m 8,2 km/h (2 Bft) O 94 1 min 0,000 mm 0,9 UV-I 345 W/m 7,4 C 20,5 C 11,3 km/h (2 Bft) 100,00 %
01.07.2018 18:25 21,2 C 22,2 C 41 % 1014,8 hPa 0,0 l/m 6,2 km/h (2 Bft) O 86 1 min 0,000 mm 0,9 UV-I 233 W/m 7,4 C 21,2 C 11,3 km/h (2 Bft) 100,00 %
01.07.2018 18:26 21,2 C 22,2 C 42 % 1014,8 hPa 0,0 l/m 7,8 km/h (2 Bft) O-SO 103 1 min 0,000 mm 0,8 UV-I 270 W/m 7,8 C 20,7 C 12,9 km/h (3 Bft) 100,00 %
01.07.2018 18:27 21,2 C 22,2 C 40 % 1014,8 hPa 0,0 l/m 9,8 km/h (2 Bft) O 81 1 min 0,000 mm 0,9 UV-I 325 W/m 7,1 C 20,0 C 12,9 km/h (3 Bft) 100,00 %
01.07.2018 18:28 21,1 C 22,2 C 39 % 1014,8 hPa 0,0 l/m 10,5 km/h (2 Bft) O-SO 110 1 min 0,000 mm 0,7 UV-I 234 W/m 6,6 C 19,7 C 14,5 km/h (3 Bft) 100,00 %
01.07.2018 18:29 20,9 C 22,2 C 40 % 1014,8 hPa 0,0 l/m 8,1 km/h (2 Bft) O 92 0 min 0,000 mm 0,8 UV-I 97 W/m 6,8 C 20,3 C 11,3 km/h (2 Bft) 100,00 %
01.07.2018 18:30 20,9 C 22,2 C 40 % 1014,8 hPa 0,0 l/m 9,3 km/h (2 Bft) NO 55 1 min 0,000 mm 0,9 UV-I 276 W/m 6,8 C 19,9 C 14,5 km/h (3 Bft) 100,00 %
01.07.2018 18:31 20,9 C 22,2 C 41 % 1014,8 hPa 0,0 l/m 12,7 km/h (3 Bft) NO 51 1 min 0,000 mm 0,9 UV-I 329 W/m 7,2 C 18,9 C 16,1 km/h (3 Bft) 100,00 %
01.07.2018 18:32 20,9 C 22,2 C 40 % 1014,9 hPa 0,0 l/m 11,5 km/h (2 Bft) NO 47 1 min 0,000 mm 0,8 UV-I 316 W/m 6,8 C 19,2 C 16,1 km/h (3 Bft) 100,00 %
01.07.2018 18:33 20,9 C 22,2 C 41 % 1014,9 hPa 0,0 l/m 10,2 km/h (2 Bft) O 84 1 min 0,000 mm 0,8 UV-I 301 W/m 7,2 C 19,6 C 14,5 km/h (3 Bft) 100,00 %
01.07.2018 18:34 20,9 C 22,2 C 40 % 1014,8 hPa 0,0 l/m 8,3 km/h (2 Bft) NO 51 1 min 0,000 mm 0,8 UV-I 293 W/m 6,8 C 20,2 C 12,9 km/h (3 Bft) 100,00 %
01.07.2018 18:35 20,9 C 22,2 C 41 % 1014,8 hPa 0,0 l/m 6,3 km/h (2 Bft) N-NO 26 1 min 0,000 mm 0,8 UV-I 300 W/m 7,2 C 20,9 C 8,0 km/h (2 Bft) 100,00 %
01.07.2018 18:36 20,9 C 22,2 C 40 % 1014,8 hPa 0,0 l/m 5,5 km/h (1 Bft) O-NO 65 1 min 0,000 mm 0,8 UV-I 315 W/m 6,8 C 20,9 C 6,4 km/h (2 Bft) 100,00 %
01.07.2018 18:37 21,0 C 22,2 C 38 % 1014,8 hPa 0,0 l/m 5,8 km/h (2 Bft) NO 46 1 min 0,000 mm 0,8 UV-I 311 W/m 6,1 C 21,0 C 8,0 km/h (2 Bft) 100,00 %
01.07.2018 18:38 21,1 C 22,2 C 41 % 1014,8 hPa 0,0 l/m 6,6 km/h (2 Bft) O-NO 74 1 min 0,000 mm 0,8 UV-I 308 W/m 7,3 C 21,0 C 12,9 km/h (3 Bft) 100,00 %
01.07.2018 18:39 21,2 C 22,2 C 43 % 1014,8 hPa 0,0 l/m 8,2 km/h (2 Bft) N-NO 28 1 min 0,000 mm 0,8 UV-I 304 W/m 8,1 C 20,5 C 11,3 km/h (2 Bft) 100,00 %
01.07.2018 18:40 21,2 C 22,2 C 43 % 1014,8 hPa 0,0 l/m 6,8 km/h (2 Bft) NO 49 1 min 0,000 mm 0,8 UV-I 302 W/m 8,1 C 21,1 C 9,7 km/h (2 Bft) 100,00 %
01.07.2018 18:41 21,3 C 22,2 C 41 % 1014,8 hPa 0,0 l/m 10,3 km/h (2 Bft) NO 36 1 min 0,000 mm 0,7 UV-I 298 W/m 7,5 C 20,0 C 16,1 km/h (3 Bft) 100,00 %
01.07.2018 18:43 21,2 C 22,2 C 40 % 1014,8 hPa 0,0 l/m 14,0 km/h (3 Bft) NO 42 2 min 0,000 mm 0,7 UV-I 296 W/m 7,1 C 18,9 C 19,3 km/h (3 Bft) 100,00 %
01.07.2018 18:44 21,2 C 22,2 C 40 % 1014,8 hPa 0,0 l/m 14,6 km/h (3 Bft) NO 40 1 min 0,000 mm 0,7 UV-I 293 W/m 7,1 C 18,8 C 17,7 km/h (3 Bft) 100,00 %
01.07.2018 18:45 21,1 C 22,2 C 40 % 1014,8 hPa 0,0 l/m 8,3 km/h (2 Bft) N 5 1 min 0,000 mm 0,7 UV-I 291 W/m 7,0 C 20,4 C 14,5 km/h (3 Bft) 100,00 %
01.07.2018 18:46 21,0 C 22,2 C 39 % 1014,9 hPa 0,0 l/m 6,8 km/h (2 Bft) NO 40 1 min 0,000 mm 0,7 UV-I 288 W/m 6,5 C 20,9 C 8,0 km/h (2 Bft) 95,83 %
01.07.2018 18:48 21,0 C 22,2 C 41 % 1014,9 hPa 0,0 l/m 8,2 km/h (2 Bft) NO 35 2 min 0,000 mm 0,7 UV-I 282 W/m 7,2 C 20,3 C 14,5 km/h (3 Bft) 100,00 %
01.07.2018 18:49 21,0 C 22,2 C 40 % 1014,9 hPa 0,0 l/m 12,5 km/h (3 Bft) N-NO 28 1 min 0,000 mm 0,7 UV-I 277 W/m 6,9 C 19,1 C 20,9 km/h (4 Bft) 100,00 %
01.07.2018 18:50 20,9 C 22,2 C 40 % 1014,9 hPa 0,0 l/m 14,0 km/h (3 Bft) NO 41 1 min 0,000 mm 0,6 UV-I 273 W/m 6,8 C 18,6 C 20,9 km/h (4 Bft) 100,00 %
01.07.2018 18:51 20,9 C 22,2 C 40 % 1014,9 hPa 0,0 l/m 14,7 km/h (3 Bft) NO 48 1 min 0,000 mm 0,6 UV-I 272 W/m 6,8 C 18,4 C 19,3 km/h (3 Bft) 100,00 %
01.07.2018 18:52 20,8 C 22,2 C 41 % 1014,9 hPa 0,0 l/m 13,3 km/h (3 Bft) N-NO 32 1 min 0,000 mm 0,6 UV-I 270 W/m 7,1 C 18,6 C 16,1 km/h (3 Bft) 100,00 %
01.07.2018 18:53 20,8 C 22,2 C 42 % 1014,9 hPa 0,0 l/m 11,9 km/h (2 Bft) NO 49 1 min 0,000 mm 0,6 UV-I 266 W/m 7,4 C 19,0 C 19,3 km/h (3 Bft) 100,00 %
01.07.2018 18:54 20,9 C 22,2 C 41 % 1014,9 hPa 0,0 l/m 12,1 km/h (2 Bft) NO 40 1 min 0,000 mm 0,6 UV-I 264 W/m 7,2 C 19,0 C 16,1 km/h (3 Bft) 100,00 %
01.07.2018 18:55 20,9 C 22,2 C 42 % 1015,0 hPa 0,0 l/m 9,7 km/h (2 Bft) NO 36 1 min 0,000 mm 0,6 UV-I 262 W/m 7,5 C 19,7 C 14,5 km/h (3 Bft) 100,00 %
01.07.2018 18:56 20,9 C 22,2 C 40 % 1015,0 hPa 0,0 l/m 8,9 km/h (2 Bft) NO 55 1 min 0,000 mm 0,6 UV-I 259 W/m 6,8 C 20,0 C 14,5 km/h (3 Bft) 100,00 %
01.07.2018 18:57 21,0 C 22,2 C 42 % 1015,0 hPa 0,0 l/m 7,6 km/h (2 Bft) O-NO 58 1 min 0,000 mm 0,6 UV-I 256 W/m 7,6 C 20,5 C 11,3 km/h (2 Bft) 100,00 %
01.07.2018 18:58 21,1 C 22,2 C 39 % 1015,0 hPa 0,0 l/m 5,2 km/h (1 Bft) O-NO 65 1 min 0,000 mm 0,6 UV-I 253 W/m 6,6 C 21,1 C 9,7 km/h (2 Bft) 100,00 %
01.07.2018 18:59 21,1 C 22,2 C 40 % 1015,0 hPa 0,0 l/m 5,3 km/h (1 Bft) O-NO 74 1 min 0,000 mm 0,5 UV-I 249 W/m 7,0 C 21,1 C 9,7 km/h (2 Bft) 100,00 %
01.07.2018 19:00 21,1 C 22,2 C 40 % 1015,0 hPa 0,0 l/m 6,2 km/h (2 Bft) O-NO 60 1 min 0,279 mm 0,5 UV-I 246 W/m 7,0 C 21,1 C 8,0 km/h (2 Bft) 100,00 %
01.07.2018 19:01 21,1 C 22,2 C 43 % 1015,0 hPa 0,0 l/m 8,1 km/h (2 Bft) NO 41 1 min 0,000 mm 0,5 UV-I 244 W/m 8,0 C 20,5 C 11,3 km/h (2 Bft) 95,65 %
01.07.2018 19:02 21,0 C 22,2 C 40 % 1015,0 hPa 0,0 l/m 9,9 km/h (2 Bft) N-NO 31 1 min 0,000 mm 0,5 UV-I 242 W/m 6,9 C 19,8 C 14,5 km/h (3 Bft) 100,00 %
01.07.2018 19:03 20,9 C 22,2 C 40 % 1015,0 hPa 0,0 l/m 15,8 km/h (3 Bft) NO 42 1 min 0,000 mm 0,5 UV-I 239 W/m 6,8 C 18,2 C 17,7 km/h (3 Bft) 100,00 %
01.07.2018 19:04 20,8 C 22,2 C 40 % 1015,0 hPa 0,0 l/m 15,3 km/h (3 Bft) NO 38 1 min 0,000 mm 0,5 UV-I 236 W/m 6,7 C 18,2 C 20,9 km/h (4 Bft) 100,00 %
01.07.2018 19:05 20,8 C 22,2 C 41 % 1015,0 hPa 0,0 l/m 12,8 km/h (3 Bft) NO 49 1 min 0,000 mm 0,5 UV-I 235 W/m 7,1 C 18,7 C 17,7 km/h (3 Bft) 100,00 %
01.07.2018 19:06 20,7 C 22,2 C 40 % 1015,0 hPa 0,0 l/m 12,6 km/h (3 Bft) NO 42 1 min 0,000 mm 0,5 UV-I 232 W/m 6,6 C 18,7 C 17,7 km/h (3 Bft) 100,00 %
01.07.2018 19:08 20,6 C 22,2 C 41 % 1015,0 hPa 0,0 l/m 14,0 km/h (3 Bft) N-NO 26 2 min 0,000 mm 0,5 UV-I 227 W/m 6,9 C 18,2 C 19,3 km/h (3 Bft) 100,00 %
01.07.2018 19:09 20,5 C 22,2 C 41 % 1015,0 hPa 0,0 l/m 12,4 km/h (3 Bft) NO 52 1 min 0,000 mm 0,5 UV-I 223 W/m 6,8 C 18,5 C 16,1 km/h (3 Bft) 100,00 %
01.07.2018 19:10 20,4 C 22,2 C 42 % 1015,0 hPa 0,0 l/m 12,2 km/h (2 Bft) NO 41 1 min 0,000 mm 0,3 UV-I 220 W/m 7,1 C 18,4 C 16,1 km/h (3 Bft) 100,00 %
01.07.2018 19:11 20,4 C 22,2 C 42 % 1015,0 hPa 0,0 l/m 10,9 km/h (2 Bft) NO 38 1 min 0,000 mm 0,0 UV-I 218 W/m 7,1 C 18,8 C 16,1 km/h (3 Bft) 100,00 %
01.07.2018 19:13 20,4 C 22,2 C 43 % 1015,0 hPa 0,0 l/m 10,0 km/h (2 Bft) NO 47 2 min 0,000 mm 0,0 UV-I 213 W/m 7,4 C 19,1 C 14,5 km/h (3 Bft) 100,00 %
01.07.2018 19:14 20,4 C 22,2 C 43 % 1015,0 hPa 0,0 l/m 11,4 km/h (2 Bft) N-NO 26 1 min 0,000 mm 0,0 UV-I 208 W/m 7,4 C 18,7 C 14,5 km/h (3 Bft) 100,00 %
01.07.2018 19:15 20,4 C 22,2 C 43 % 1015,0 hPa 0,0 l/m 12,8 km/h (3 Bft) NO 49 1 min 0,000 mm 0,0 UV-I 206 W/m 7,4 C 18,3 C 16,1 km/h (3 Bft) 100,00 %
01.07.2018 19:16 20,4 C 22,2 C 43 % 1015,0 hPa 0,0 l/m 16,4 km/h (3 Bft) NO 53 1 min 0,000 mm 0,0 UV-I 203 W/m 7,4 C 17,4 C 20,9 km/h (4 Bft) 96,30 %
01.07.2018 19:18 20,3 C 22,2 C 43 % 1015,0 hPa 0,0 l/m 16,2 km/h (3 Bft) NO 38 2 min 0,000 mm 0,0 UV-I 200 W/m 7,3 C 17,3 C 20,9 km/h (4 Bft) 100,00 %
01.07.2018 19:19 20,2 C 22,2 C 43 % 1015,0 hPa 0,0 l/m 17,8 km/h (3 Bft) NO 36 1 min 0,000 mm 0,0 UV-I 198 W/m 7,2 C 16,9 C 20,9 km/h (4 Bft) 100,00 %
01.07.2018 19:20 20,1 C 22,2 C 42 % 1015,0 hPa 0,0 l/m 16,7 km/h (3 Bft) N-NO 33 1 min 0,000 mm 0,0 UV-I 196 W/m 6,8 C 17,0 C 20,9 km/h (4 Bft) 100,00 %
01.07.2018 19:21 20,1 C 22,2 C 41 % 1015,1 hPa 0,0 l/m 15,4 km/h (3 Bft) N-NO 20 1 min 0,000 mm 0,0 UV-I 193 W/m 6,4 C 17,3 C 17,7 km/h (3 Bft) 100,00 %
01.07.2018 19:23 19,9 C 22,2 C 42 % 1015,1 hPa 0,0 l/m 16,8 km/h (3 Bft) N-NO 32 2 min 0,000 mm 0,0 UV-I 188 W/m 6,6 C 16,7 C 20,9 km/h (4 Bft) 100,00 %
01.07.2018 19:24 19,9 C 22,2 C 42 % 1015,1 hPa 0,0 l/m 13,3 km/h (3 Bft) N-NO 18 1 min 0,000 mm 0,0 UV-I 185 W/m 6,6 C 17,6 C 19,3 km/h (3 Bft) 100,00 %
01.07.2018 19:25 19,9 C 22,2 C 43 % 1015,1 hPa 0,0 l/m 12,5 km/h (3 Bft) NO 39 1 min 0,000 mm 0,0 UV-I 182 W/m 6,9 C 17,8 C 14,5 km/h (3 Bft) 100,00 %
01.07.2018 19:26 19,9 C 22,2 C 43 % 1015,1 hPa 0,0 l/m 15,9 km/h (3 Bft) N-NO 32 1 min 0,000 mm 0,0 UV-I 178 W/m 6,9 C 16,9 C 19,3 km/h (3 Bft) 100,00 %
01.07.2018 19:27 19,9 C 22,2 C 43 % 1015,1 hPa 0,0 l/m 13,5 km/h (3 Bft) NO 39 1 min 0,000 mm 0,0 UV-I 177 W/m 6,9 C 17,5 C 14,5 km/h (3 Bft) 96,30 %
01.07.2018 19:28 19,9 C 22,2 C 43 % 1015,1 hPa 0,0 l/m 10,4 km/h (2 Bft) NO 38 1 min 0,000 mm 0,0 UV-I 174 W/m 6,9 C 18,4 C 16,1 km/h (3 Bft) 100,00 %
01.07.2018 19:29 19,8 C 22,2 C 43 % 1015,1 hPa 0,0 l/m 8,0 km/h (2 Bft) NO 38 1 min 0,000 mm 0,0 UV-I 172 W/m 6,9 C 19,1 C 11,3 km/h (2 Bft) 100,00 %
01.07.2018 19:30 19,8 C 22,2 C 44 % 1015,1 hPa 0,0 l/m 12,7 km/h (3 Bft) N-NO 28 1 min 0,000 mm 0,0 UV-I 171 W/m 7,2 C 17,6 C 16,1 km/h (3 Bft) 100,00 %
01.07.2018 19:31 19,8 C 22,2 C 43 % 1015,2 hPa 0,0 l/m 8,9 km/h (2 Bft) NO 49 1 min 0,000 mm 0,0 UV-I 168 W/m 6,9 C 18,8 C 12,9 km/h (3 Bft) 100,00 %
01.07.2018 19:33 19,8 C 22,2 C 44 % 1015,1 hPa 0,0 l/m 11,3 km/h (2 Bft) N-NO 28 2 min 0,000 mm 0,0 UV-I 163 W/m 7,2 C 18,0 C 17,7 km/h (3 Bft) 100,00 %
01.07.2018 19:34 19,8 C 22,2 C 45 % 1015,1 hPa 0,0 l/m 13,1 km/h (3 Bft) NO 42 1 min 0,000 mm 0,0 UV-I 160 W/m 7,5 C 17,5 C 16,1 km/h (3 Bft) 100,00 %
01.07.2018 19:35 19,8 C 22,2 C 44 % 1015,1 hPa 0,0 l/m 15,2 km/h (3 Bft) NO 41 1 min 0,000 mm 0,0 UV-I 158 W/m 7,2 C 17,0 C 19,3 km/h (3 Bft) 100,00 %
01.07.2018 19:36 19,8 C 22,2 C 44 % 1015,2 hPa 0,0 l/m 15,6 km/h (3 Bft) NO 38 1 min 0,000 mm 0,0 UV-I 156 W/m 7,2 C 16,9 C 22,5 km/h (4 Bft) 95,65 %
01.07.2018 19:37 19,8 C 22,2 C 44 % 1015,2 hPa 0,0 l/m 14,2 km/h (3 Bft) NO 54 1 min 0,000 mm 0,0 UV-I 154 W/m 7,2 C 17,2 C 17,7 km/h (3 Bft) 100,00 %
01.07.2018 19:38 19,7 C 22,2 C 44 % 1015,2 hPa 0,0 l/m 16,7 km/h (3 Bft) NO 48 1 min 0,000 mm 0,0 UV-I 151 W/m 7,1 C 16,5 C 20,9 km/h (4 Bft) 91,30 %
01.07.2018 19:39 19,7 C 22,2 C 43 % 1015,2 hPa 0,0 l/m 18,0 km/h (3 Bft) NO 44 1 min 0,000 mm 0,0 UV-I 148 W/m 6,8 C 16,2 C 22,5 km/h (4 Bft) 91,67 %
01.07.2018 19:40 19,7 C 22,2 C 43 % 1015,2 hPa 0,0 l/m 14,2 km/h (3 Bft) NO 43 1 min 0,000 mm 0,0 UV-I 147 W/m 6,8 C 17,1 C 17,7 km/h (3 Bft) 96,30 %
01.07.2018 19:41 19,7 C 22,2 C 43 % 1015,2 hPa 0,0 l/m 14,6 km/h (3 Bft) N-NO 28 1 min 0,000 mm 0,0 UV-I 144 W/m 6,8 C 17,0 C 17,7 km/h (3 Bft) 96,15 %
01.07.2018 19:43 19,6 C 22,2 C 45 % 1015,2 hPa 0,0 l/m 11,0 km/h (2 Bft) NO 44 2 min 0,000 mm 0,0 UV-I 141 W/m 7,3 C 17,9 C 16,1 km/h (3 Bft) 96,00 %
01.07.2018 19:44 19,6 C 22,2 C 45 % 1015,2 hPa 0,0 l/m 9,2 km/h (2 Bft) N-NO 22 1 min 0,000 mm 0,0 UV-I 138 W/m 7,3 C 18,5 C 11,3 km/h (2 Bft) 95,83 %
01.07.2018 19:45 19,6 C 22,2 C 45 % 1015,2 hPa 0,0 l/m 12,1 km/h (2 Bft) N-NO 33 1 min 0,000 mm 0,0 UV-I 135 W/m 7,3 C 17,5 C 16,1 km/h (3 Bft) 100,00 %
01.07.2018 19:46 19,6 C 22,2 C 45 % 1015,2 hPa 0,0 l/m 7,4 km/h (2 Bft) NO 44 1 min 0,000 mm 0,0 UV-I 132 W/m 7,3 C 19,2 C 9,7 km/h (2 Bft) 96,30 %
01.07.2018 19:47 19,5 C 22,2 C 45 % 1015,2 hPa 0,0 l/m 7,0 km/h (2 Bft) NO 42 1 min 0,000 mm 0,0 UV-I 130 W/m 7,2 C 19,2 C 11,3 km/h (2 Bft) 95,65 %
01.07.2018 19:48 19,4 C 22,2 C 46 % 1015,2 hPa 0,0 l/m 9,5 km/h (2 Bft) N-NO 32 1 min 0,000 mm 0,0 UV-I 128 W/m 7,5 C 18,2 C 11,3 km/h (2 Bft) 95,83 %
01.07.2018 19:49 19,4 C 22,2 C 45 % 1015,2 hPa 0,0 l/m 11,8 km/h (2 Bft) NO 43 1 min 0,000 mm 0,0 UV-I 126 W/m 7,2 C 17,4 C 17,7 km/h (3 Bft) 91,30 %
01.07.2018 19:50 19,3 C 22,2 C 45 % 1015,2 hPa 0,0 l/m 11,5 km/h (2 Bft) N-NO 29 1 min 0,000 mm 0,0 UV-I 124 W/m 7,1 C 17,4 C 16,1 km/h (3 Bft) 100,00 %
01.07.2018 19:51 19,3 C 22,2 C 45 % 1015,3 hPa 0,0 l/m 13,1 km/h (3 Bft) N-NO 28 1 min 0,000 mm 0,0 UV-I 122 W/m 7,1 C 16,9 C 16,1 km/h (3 Bft) 96,15 %
01.07.2018 19:52 19,3 C 22,2 C 45 % 1015,2 hPa 0,0 l/m 9,9 km/h (2 Bft) NO 44 1 min 0,000 mm 0,0 UV-I 120 W/m 7,1 C 17,9 C 12,9 km/h (3 Bft) 96,30 %
01.07.2018 19:53 19,3 C 22,2 C 45 % 1015,2 hPa 0,0 l/m 8,4 km/h (2 Bft) NO 40 1 min 0,000 mm 0,0 UV-I 118 W/m 7,1 C 18,5 C 11,3 km/h (2 Bft) 93,33 %
01.07.2018 19:54 19,3 C 22,2 C 46 % 1015,3 hPa 0,0 l/m 7,6 km/h (2 Bft) NO 43 1 min 0,000 mm 0,0 UV-I 115 W/m 7,4 C 18,8 C 9,7 km/h (2 Bft) 96,15 %
01.07.2018 19:55 19,2 C 22,2 C 47 % 1015,3 hPa 0,0 l/m 8,2 km/h (2 Bft) N-NO 31 1 min 0,000 mm 0,0 UV-I 114 W/m 7,6 C 18,4 C 9,7 km/h (2 Bft) 96,55 %
01.07.2018 19:56 19,2 C 22,2 C 46 % 1015,3 hPa 0,0 l/m 6,4 km/h (2 Bft) NO 36 1 min 0,000 mm 0,0 UV-I 112 W/m 7,3 C 19,2 C 8,0 km/h (2 Bft) 100,00 %
01.07.2018 19:58 19,1 C 22,2 C 47 % 1015,3 hPa 0,0 l/m 7,3 km/h (2 Bft) NO 42 2 min 0,000 mm 0,0 UV-I 110 W/m 7,5 C 18,7 C 12,9 km/h (3 Bft) 96,00 %
01.07.2018 19:59 19,1 C 22,2 C 47 % 1015,3 hPa 0,0 l/m 10,3 km/h (2 Bft) NO 43 1 min 0,000 mm 0,0 UV-I 107 W/m 7,5 C 17,5 C 16,1 km/h (3 Bft) 100,00 %
01.07.2018 20:00 19,1 C 22,2 C 48 % 1015,3 hPa 0,0 l/m 12,3 km/h (3 Bft) N-NO 28 1 min 0,000 mm 0,0 UV-I 104 W/m 7,8 C 16,9 C 16,1 km/h (3 Bft) 95,65 %
01.07.2018 20:01 19,0 C 22,2 C 47 % 1015,3 hPa 0,0 l/m 12,3 km/h (3 Bft) O-NO 61 1 min 0,204 mm 0,0 UV-I 101 W/m 7,4 C 16,8 C 16,1 km/h (3 Bft) 100,00 %
01.07.2018 20:02 19,0 C 22,2 C 46 % 1015,3 hPa 0,0 l/m 13,9 km/h (3 Bft) NO 49 1 min 0,000 mm 0,0 UV-I 99 W/m 7,1 C 16,3 C 19,3 km/h (3 Bft) 95,65 %
01.07.2018 20:03 18,9 C 22,2 C 45 % 1015,3 hPa 0,0 l/m 11,7 km/h (2 Bft) NO 37 1 min 0,000 mm 0,0 UV-I 98 W/m 6,7 C 16,9 C 16,1 km/h (3 Bft) 100,00 %
01.07.2018 20:04 18,9 C 22,2 C 46 % 1015,3 hPa 0,0 l/m 9,2 km/h (2 Bft) NO 39 1 min 0,000 mm 0,0 UV-I 97 W/m 7,0 C 17,7 C 14,5 km/h (3 Bft) 95,65 %
01.07.2018 20:05 18,9 C 22,2 C 47 % 1015,3 hPa 0,0 l/m 14,2 km/h (3 Bft) NO 36 1 min 0,000 mm 0,0 UV-I 95 W/m 7,3 C 16,1 C 17,7 km/h (3 Bft) 100,00 %
01.07.2018 20:06 18,9 C 22,2 C 47 % 1015,3 hPa 0,0 l/m 13,5 km/h (3 Bft) NO 39 1 min 0,000 mm 0,0 UV-I 93 W/m 7,3 C 16,3 C 17,7 km/h (3 Bft) 96,15 %
01.07.2018 20:08 18,8 C 22,2 C 47 % 1015,3 hPa 0,0 l/m 12,6 km/h (3 Bft) NO 34 2 min 0,000 mm 0,0 UV-I 90 W/m 7,2 C 16,5 C 16,1 km/h (3 Bft) 98,31 %
01.07.2018 20:09 18,8 C 22,2 C 46 % 1015,3 hPa 0,0 l/m 8,8 km/h (2 Bft) NO 39 1 min 0,000 mm 0,0 UV-I 86 W/m 6,9 C 17,8 C 11,3 km/h (2 Bft) 100,00 %
01.07.2018 20:10 18,7 C 22,2 C 47 % 1015,3 hPa 0,0 l/m 9,3 km/h (2 Bft) NO 40 1 min 0,000 mm 0,0 UV-I 86 W/m 7,2 C 17,5 C 11,3 km/h (2 Bft) 96,15 %
01.07.2018 20:11 18,7 C 22,2 C 48 % 1015,3 hPa 0,0 l/m 10,5 km/h (2 Bft) NO 34 1 min 0,000 mm 0,0 UV-I 84 W/m 7,5 C 17,0 C 14,5 km/h (3 Bft) 100,00 %
01.07.2018 20:12 18,6 C 22,2 C 48 % 1015,3 hPa 0,0 l/m 10,5 km/h (2 Bft) NO 45 1 min 0,000 mm 0,0 UV-I 82 W/m 7,4 C 16,9 C 14,5 km/h (3 Bft) 84,62 %
01.07.2018 20:13 18,5 C 22,2 C 48 % 1015,4 hPa 0,0 l/m 10,4 km/h (2 Bft) N-NO 29 1 min 0,000 mm 0,0 UV-I 80 W/m 7,3 C 16,8 C 12,9 km/h (3 Bft) 100,00 %
01.07.2018 20:14 18,4 C 22,2 C 49 % 1015,3 hPa 0,0 l/m 10,1 km/h (2 Bft) NO 37 1 min 0,000 mm 0,0 UV-I 79 W/m 7,5 C 16,8 C 11,3 km/h (2 Bft) 95,65 %
01.07.2018 20:15 18,4 C 22,2 C 48 % 1015,4 hPa 0,0 l/m 8,3 km/h (2 Bft) NO 37 1 min 0,000 mm 0,0 UV-I 78 W/m 7,2 C 17,5 C 11,3 km/h (2 Bft) 100,00 %
01.07.2018 20:16 18,4 C 22,2 C 48 % 1015,4 hPa 0,0 l/m 9,0 km/h (2 Bft) NO 38 1 min 0,000 mm 0,0 UV-I 76 W/m 7,2 C 17,3 C 11,3 km/h (2 Bft) 95,65 %
01.07.2018 20:17 18,3 C 22,2 C 49 % 1015,3 hPa 0,0 l/m 9,3 km/h (2 Bft) N-NO 32 1 min 0,000 mm 0,0 UV-I 74 W/m 7,4 C 17,0 C 11,3 km/h (2 Bft) 95,83 %
01.07.2018 20:18 18,3 C 22,2 C 49 % 1015,3 hPa 0,0 l/m 9,5 km/h (2 Bft) NO 35 1 min 0,000 mm 0,0 UV-I 72 W/m 7,4 C 17,0 C 12,9 km/h (3 Bft) 100,00 %
01.07.2018 20:19 18,2 C 22,2 C 49 % 1015,3 hPa 0,0 l/m 8,9 km/h (2 Bft) NO 43 1 min 0,000 mm 0,0 UV-I 71 W/m 7,3 C 17,1 C 11,3 km/h (2 Bft) 100,00 %
01.07.2018 20:20 18,1 C 22,2 C 49 % 1015,4 hPa 0,0 l/m 8,6 km/h (2 Bft) NO 46 1 min 0,000 mm 0,0 UV-I 69 W/m 7,2 C 17,1 C 12,9 km/h (3 Bft) 96,30 %
01.07.2018 20:21 18,1 C 22,2 C 50 % 1015,4 hPa 0,0 l/m 9,8 km/h (2 Bft) NO 38 1 min 0,000 mm 0,0 UV-I 68 W/m 7,5 C 16,6 C 12,9 km/h (3 Bft) 96,15 %
01.07.2018 20:23 18,0 C 22,2 C 49 % 1015,4 hPa 0,0 l/m 9,0 km/h (2 Bft) NO 40 2 min 0,000 mm 0,0 UV-I 65 W/m 7,1 C 16,8 C 14,5 km/h (3 Bft) 97,87 %
01.07.2018 20:24 17,9 C 22,2 C 50 % 1015,4 hPa 0,0 l/m 11,0 km/h (2 Bft) NO 49 1 min 0,000 mm 0,0 UV-I 62 W/m 7,3 C 16,0 C 14,5 km/h (3 Bft) 100,00 %
01.07.2018 20:25 17,9 C 22,2 C 50 % 1015,4 hPa 0,0 l/m 10,9 km/h (2 Bft) NO 50 1 min 0,000 mm 0,0 UV-I 62 W/m 7,3 C 16,0 C 14,5 km/h (3 Bft) 96,15 %
01.07.2018 20:26 17,8 C 22,2 C 50 % 1015,4 hPa 0,0 l/m 12,1 km/h (2 Bft) NO 46 1 min 0,000 mm 0,0 UV-I 61 W/m 7,2 C 15,5 C 16,1 km/h (3 Bft) 100,00 %
01.07.2018 20:27 17,8 C 22,2 C 50 % 1015,4 hPa 0,0 l/m 11,2 km/h (2 Bft) NO 53 1 min 0,000 mm 0,0 UV-I 58 W/m 7,2 C 15,8 C 14,5 km/h (3 Bft) 96,55 %
01.07.2018 20:28 17,8 C 22,2 C 49 % 1015,4 hPa 0,0 l/m 8,7 km/h (2 Bft) NO 42 1 min 0,000 mm 0,0 UV-I 58 W/m 6,9 C 16,7 C 11,3 km/h (2 Bft) 100,00 %
01.07.2018 20:29 17,8 C 22,2 C 51 % 1015,4 hPa 0,0 l/m 12,2 km/h (2 Bft) N-NO 29 1 min 0,000 mm 0,0 UV-I 56 W/m 7,5 C 15,4 C 17,7 km/h (3 Bft) 96,88 %
01.07.2018 20:30 17,7 C 22,2 C 50 % 1015,4 hPa 0,0 l/m 13,2 km/h (3 Bft) O-NO 63 1 min 0,000 mm 0,0 UV-I 54 W/m 7,1 C 15,0 C 16,1 km/h (3 Bft) 95,83 %
01.07.2018 20:31 17,7 C 22,2 C 50 % 1015,4 hPa 0,0 l/m 12,8 km/h (3 Bft) NO 36 1 min 0,000 mm 0,0 UV-I 54 W/m 7,1 C 15,1 C 16,1 km/h (3 Bft) 100,00 %
01.07.2018 20:32 17,6 C 22,2 C 50 % 1015,4 hPa 0,0 l/m 10,2 km/h (2 Bft) NO 48 1 min 0,000 mm 0,0 UV-I 52 W/m 7,1 C 15,9 C 16,1 km/h (3 Bft) 95,83 %
01.07.2018 20:33 17,6 C 22,2 C 51 % 1015,4 hPa 0,0 l/m 9,8 km/h (2 Bft) NO 49 1 min 0,000 mm 0,0 UV-I 51 W/m 7,3 C 16,1 C 14,5 km/h (3 Bft) 100,00 %
01.07.2018 20:34 17,4 C 22,2 C 51 % 1015,4 hPa 0,0 l/m 8,5 km/h (2 Bft) N-NO 28 1 min 0,000 mm 0,0 UV-I 49 W/m 7,2 C 16,4 C 12,9 km/h (3 Bft) 95,65 %
01.07.2018 20:35 17,3 C 22,2 C 52 % 1015,4 hPa 0,0 l/m 10,4 km/h (2 Bft) NO 42 1 min 0,000 mm 0,0 UV-I 47 W/m 7,3 C 15,5 C 14,5 km/h (3 Bft) 100,00 %
01.07.2018 20:36 17,3 C 22,2 C 52 % 1015,4 hPa 0,0 l/m 9,7 km/h (2 Bft) NO 45 1 min 0,000 mm 0,0 UV-I 47 W/m 7,3 C 15,8 C 14,5 km/h (3 Bft) 95,65 %
01.07.2018 20:37 17,2 C 22,2 C 52 % 1015,5 hPa 0,0 l/m 11,1 km/h (2 Bft) NO 34 1 min 0,000 mm 0,0 UV-I 45 W/m 7,3 C 15,1 C 16,1 km/h (3 Bft) 100,00 %
01.07.2018 20:38 17,1 C 22,2 C 52 % 1015,4 hPa 0,0 l/m 10,1 km/h (2 Bft) NO 36 1 min 0,000 mm 0,0 UV-I 44 W/m 7,2 C 15,4 C 14,5 km/h (3 Bft) 90,91 %
01.07.2018 20:39 17,1 C 22,2 C 52 % 1015,4 hPa 0,0 l/m 9,6 km/h (2 Bft) NO 40 1 min 0,000 mm 0,0 UV-I 42 W/m 7,2 C 15,6 C 14,5 km/h (3 Bft) 100,00 %
01.07.2018 20:40 17,1 C 22,2 C 52 % 1015,5 hPa 0,0 l/m 6,6 km/h (2 Bft) NO 50 1 min 0,000 mm 0,0 UV-I 40 W/m 7,2 C 17,0 C 8,0 km/h (2 Bft) 97,37 %
01.07.2018 20:41 17,0 C 22,2 C 53 % 1015,4 hPa 0,0 l/m 7,6 km/h (2 Bft) NO 48 1 min 0,000 mm 0,0 UV-I 39 W/m 7,4 C 16,4 C 9,7 km/h (2 Bft) 96,67 %
01.07.2018 20:42 16,9 C 22,2 C 53 % 1015,5 hPa 0,0 l/m 7,8 km/h (2 Bft) NO 42 1 min 0,000 mm 0,0 UV-I 38 W/m 7,3 C 16,2 C 9,7 km/h (2 Bft) 100,00 %
01.07.2018 20:43 16,8 C 22,2 C 54 % 1015,4 hPa 0,0 l/m 8,2 km/h (2 Bft) NO 38 1 min 0,000 mm 0,0 UV-I 37 W/m 7,4 C 15,9 C 9,7 km/h (2 Bft) 96,30 %
01.07.2018 20:44 16,8 C 22,2 C 54 % 1015,4 hPa 0,0 l/m 7,6 km/h (2 Bft) NO 54 1 min 0,000 mm 0,0 UV-I 34 W/m 7,4 C 16,2 C 9,7 km/h (2 Bft) 100,00 %
01.07.2018 20:45 16,7 C 22,2 C 55 % 1015,5 hPa 0,0 l/m 8,0 km/h (2 Bft) NO 37 1 min 0,000 mm 0,0 UV-I 33 W/m 7,6 C 15,9 C 11,3 km/h (2 Bft) 96,30 %
01.07.2018 20:46 16,6 C 22,2 C 55 % 1015,4 hPa 0,0 l/m 7,0 km/h (2 Bft) NO 43 1 min 0,000 mm 0,0 UV-I 32 W/m 7,5 C 16,3 C 8,0 km/h (2 Bft) 95,65 %
01.07.2018 20:48 16,6 C 22,2 C 55 % 1015,5 hPa 0,0 l/m 6,2 km/h (2 Bft) NO 50 2 min 0,000 mm 0,0 UV-I 30 W/m 7,5 C 16,6 C 9,7 km/h (2 Bft) 95,74 %
01.07.2018 20:49 16,6 C 22,2 C 56 % 1015,5 hPa 0,0 l/m 6,1 km/h (2 Bft) NO 56 1 min 0,000 mm 0,0 UV-I 27 W/m 7,8 C 16,6 C 8,0 km/h (2 Bft) 95,83 %
01.07.2018 20:50 16,6 C 22,2 C 56 % 1015,5 hPa 0,0 l/m 5,9 km/h (2 Bft) NO 49 1 min 0,000 mm 0,0 UV-I 26 W/m 7,8 C 16,6 C 6,4 km/h (2 Bft) 95,65 %
01.07.2018 20:51 16,6 C 22,2 C 55 % 1015,5 hPa 0,0 l/m 6,8 km/h (2 Bft) NO 49 1 min 0,000 mm 0,0 UV-I 25 W/m 7,5 C 16,4 C 8,0 km/h (2 Bft) 100,00 %
01.07.2018 20:53 16,6 C 22,2 C 55 % 1015,5 hPa 0,0 l/m 6,4 km/h (2 Bft) O-NO 58 2 min 0,000 mm 0,0 UV-I 23 W/m 7,5 C 16,6 C 8,0 km/h (2 Bft) 96,00 %
01.07.2018 20:54 16,6 C 22,2 C 55 % 1015,5 hPa 0,0 l/m 5,7 km/h (1 Bft) NO 52 1 min 0,000 mm 0,0 UV-I 21 W/m 7,5 C 16,6 C 6,4 km/h (2 Bft) 93,33 %
01.07.2018 20:55 16,5 C 22,2 C 56 % 1015,5 hPa 0,0 l/m 5,5 km/h (1 Bft) NO 45 0 min 0,000 mm 0,0 UV-I 14 W/m 7,7 C 16,5 C 6,4 km/h (2 Bft) 100,00 %
01.07.2018 20:56 16,4 C 22,2 C 56 % 1015,6 hPa 0,0 l/m 5,6 km/h (1 Bft) NO 41 0 min 0,000 mm 0,0 UV-I 19 W/m 7,6 C 16,4 C 6,4 km/h (2 Bft) 95,83 %
01.07.2018 20:57 16,4 C 22,2 C 57 % 1015,6 hPa 0,0 l/m 5,3 km/h (1 Bft) NO 44 0 min 0,000 mm 0,0 UV-I 18 W/m 7,9 C 16,4 C 6,4 km/h (2 Bft) 100,00 %
01.07.2018 20:58 16,3 C 22,2 C 57 % 1015,6 hPa 0,0 l/m 4,3 km/h (1 Bft) NO 46 0 min 0,000 mm 0,0 UV-I 16 W/m 7,8 C 16,3 C 4,8 km/h (1 Bft) 93,33 %
01.07.2018 20:59 16,3 C 22,2 C 57 % 1015,6 hPa 0,0 l/m 3,7 km/h (1 Bft) NO 46 0 min 0,000 mm 0,0 UV-I 13 W/m 7,8 C 16,3 C 4,8 km/h (1 Bft) 100,00 %
01.07.2018 21:00 16,3 C 22,2 C 57 % 1015,6 hPa 0,0 l/m 5,9 km/h (2 Bft) NO 46 0 min 0,000 mm 0,0 UV-I 12 W/m 7,8 C 16,3 C 8,0 km/h (2 Bft) 96,30 %
01.07.2018 21:01 16,2 C 22,2 C 58 % 1015,6 hPa 0,0 l/m 5,4 km/h (1 Bft) NO 46 0 min 0,101 mm 0,0 UV-I 11 W/m 7,9 C 16,2 C 6,4 km/h (2 Bft) 100,00 %
01.07.2018 21:03 16,1 C 22,2 C 58 % 1015,7 hPa 0,0 l/m 6,2 km/h (2 Bft) NO 46 0 min 0,000 mm 0,0 UV-I 11 W/m 7,8 C 16,1 C 8,0 km/h (2 Bft) 93,62 %
01.07.2018 21:04 16,1 C 22,2 C 58 % 1015,7 hPa 0,0 l/m 6,6 km/h (2 Bft) NO 46 0 min 0,000 mm 0,0 UV-I 11 W/m 7,8 C 16,0 C 8,0 km/h (2 Bft) 100,00 %
01.07.2018 21:05 16,0 C 22,2 C 58 % 1015,7 hPa 0,0 l/m 6,1 km/h (2 Bft) NO 41 0 min 0,000 mm 0,0 UV-I 11 W/m 7,7 C 16,0 C 8,0 km/h (2 Bft) 96,15 %
01.07.2018 21:06 15,9 C 22,2 C 58 % 1015,7 hPa 0,0 l/m 7,0 km/h (2 Bft) NO 42 0 min 0,000 mm 0,0 UV-I 10 W/m 7,6 C 15,6 C 8,0 km/h (2 Bft) 100,00 %
01.07.2018 21:07 15,8 C 22,2 C 59 % 1015,7 hPa 0,0 l/m 6,9 km/h (2 Bft) NO 45 0 min 0,000 mm 0,0 UV-I 9 W/m 7,8 C 15,5 C 8,0 km/h (2 Bft) 95,65 %
01.07.2018 21:08 15,7 C 22,2 C 59 % 1015,7 hPa 0,0 l/m 6,8 km/h (2 Bft) NO 49 0 min 0,000 mm 0,0 UV-I 9 W/m 7,7 C 15,5 C 8,0 km/h (2 Bft) 100,00 %
01.07.2018 21:09 15,7 C 22,2 C 59 % 1015,7 hPa 0,0 l/m 5,8 km/h (2 Bft) NO 41 0 min 0,000 mm 0,0 UV-I 9 W/m 7,7 C 15,7 C 8,0 km/h (2 Bft) 95,65 %
01.07.2018 21:10 15,6 C 22,2 C 60 % 1015,7 hPa 0,0 l/m 5,5 km/h (1 Bft) O-NO 62 0 min 0,000 mm 0,0 UV-I 9 W/m 7,9 C 15,6 C 8,0 km/h (2 Bft) 100,00 %
01.07.2018 21:11 15,6 C 22,2 C 60 % 1015,7 hPa 0,0 l/m 5,9 km/h (2 Bft) O-NO 70 0 min 0,000 mm 0,0 UV-I 9 W/m 7,9 C 15,6 C 8,0 km/h (2 Bft) 91,67 %
01.07.2018 21:12 15,6 C 22,2 C 60 % 1015,8 hPa 0,0 l/m 6,4 km/h (2 Bft) NO 46 0 min 0,000 mm 0,0 UV-I 7 W/m 7,9 C 15,6 C 8,0 km/h (2 Bft) 100,00 %
01.07.2018 21:13 15,6 C 22,2 C 59 % 1015,8 hPa 0,0 l/m 7,6 km/h (2 Bft) NO 40 0 min 0,000 mm 0,0 UV-I 7 W/m 7,6 C 14,9 C 9,7 km/h (2 Bft) 96,55 %
01.07.2018 21:14 15,6 C 22,2 C 59 % 1015,8 hPa 0,0 l/m 8,0 km/h (2 Bft) O-NO 61 0 min 0,000 mm 0,0 UV-I 7 W/m 7,6 C 14,7 C 14,5 km/h (3 Bft) 95,83 %
01.07.2018 21:15 15,6 C 22,2 C 58 % 1015,8 hPa 0,0 l/m 6,6 km/h (2 Bft) O-NO 63 0 min 0,000 mm 0,0 UV-I 7 W/m 7,4 C 15,5 C 9,7 km/h (2 Bft) 100,00 %
01.07.2018 21:16 15,6 C 22,2 C 58 % 1015,8 hPa 0,0 l/m 7,6 km/h (2 Bft) O-NO 65 0 min 0,000 mm 0,0 UV-I 7 W/m 7,4 C 14,9 C 11,3 km/h (2 Bft) 95,83 %
01.07.2018 21:18 15,5 C 22,2 C 58 % 1015,8 hPa 0,0 l/m 6,7 km/h (2 Bft) NO 42 0 min 0,000 mm 0,0 UV-I 6 W/m 7,3 C 15,3 C 9,7 km/h (2 Bft) 100,00 %
01.07.2018 21:19 15,5 C 21,7 C 59 % 1015,8 hPa 0,0 l/m 7,1 km/h (2 Bft) NO 46 0 min 0,000 mm 0,0 UV-I 5 W/m 7,5 C 15,1 C 9,7 km/h (2 Bft) 97,44 %
01.07.2018 21:20 15,4 C 22,2 C 59 % 1015,8 hPa 0,0 l/m 7,7 km/h (2 Bft) O-NO 58 0 min 0,000 mm 0,0 UV-I 5 W/m 7,4 C 14,7 C 9,7 km/h (2 Bft) 100,00 %
01.07.2018 21:21 15,4 C 22,2 C 59 % 1015,8 hPa 0,0 l/m 5,0 km/h (1 Bft) O-NO 59 0 min 0,000 mm 0,0 UV-I 5 W/m 7,4 C 15,4 C 6,4 km/h (2 Bft) 100,00 %
01.07.2018 21:23 15,3 C 22,2 C 60 % 1015,9 hPa 0,0 l/m 5,5 km/h (1 Bft) O-NO 61 0 min 0,000 mm 0,0 UV-I 5 W/m 7,6 C 15,3 C 9,7 km/h (2 Bft) 100,00 %
01.07.2018 21:24 15,3 C 22,2 C 60 % 1015,9 hPa 0,0 l/m 6,4 km/h (2 Bft) O-NO 59 0 min 0,000 mm 0,0 UV-I 5 W/m 7,6 C 15,3 C 8,0 km/h (2 Bft) 100,00 %
01.07.2018 21:25 15,3 C 22,2 C 60 % 1015,9 hPa 0,0 l/m 6,0 km/h (2 Bft) NO 48 0 min 0,000 mm 0,0 UV-I 5 W/m 7,6 C 15,3 C 8,0 km/h (2 Bft) 100,00 %
01.07.2018 21:26 15,2 C 21,7 C 60 % 1016,0 hPa 0,0 l/m 5,1 km/h (1 Bft) O-NO 66 0 min 0,000 mm 0,0 UV-I 5 W/m 7,5 C 15,2 C 8,0 km/h (2 Bft) 100,00 %
01.07.2018 21:27 15,2 C 22,2 C 60 % 1015,9 hPa 0,0 l/m 5,7 km/h (1 Bft) O-NO 62 0 min 0,000 mm 0,0 UV-I 5 W/m 7,5 C 15,2 C 8,0 km/h (2 Bft) 100,00 %
01.07.2018 21:28 15,1 C 21,7 C 61 % 1015,9 hPa 0,0 l/m 6,4 km/h (2 Bft) O-NO 65 0 min 0,000 mm 0,0 UV-I 4 W/m 7,6 C 15,1 C 8,0 km/h (2 Bft) 100,00 %
01.07.2018 21:29 15,0 C 21,7 C 61 % 1015,9 hPa 0,0 l/m 5,2 km/h (1 Bft) NO 56 0 min 0,000 mm 0,0 UV-I 0 W/m 7,5 C 15,0 C 8,0 km/h (2 Bft) 100,00 %
01.07.2018 21:30 14,9 C 21,7 C 61 % 1015,9 hPa 0,0 l/m 6,7 km/h (2 Bft) O-NO 62 0 min 0,000 mm 0,0 UV-I 0 W/m 7,4 C 14,7 C 8,0 km/h (2 Bft) 100,00 %
01.07.2018 21:31 14,9 C 21,7 C 61 % 1015,9 hPa 0,0 l/m 5,5 km/h (1 Bft) NO 48 0 min 0,000 mm 0,0 UV-I 0 W/m 7,4 C 14,9 C 8,0 km/h (2 Bft) 100,00 %
01.07.2018 21:32 14,9 C 21,7 C 61 % 1016,0 hPa 0,0 l/m 6,3 km/h (2 Bft) NO 54 0 min 0,000 mm 0,0 UV-I 0 W/m 7,4 C 14,9 C 8,0 km/h (2 Bft) 100,00 %
01.07.2018 21:33 14,9 C 21,7 C 62 % 1016,0 hPa 0,0 l/m 6,1 km/h (2 Bft) NO 50 0 min 0,000 mm 0,0 UV-I 0 W/m 7,7 C 14,9 C 8,0 km/h (2 Bft) 95,83 %
01.07.2018 21:34 14,8 C 21,7 C 62 % 1016,0 hPa 0,0 l/m 6,9 km/h (2 Bft) NO 55 0 min 0,000 mm 0,0 UV-I 0 W/m 7,6 C 14,5 C 8,0 km/h (2 Bft) 100,00 %
01.07.2018 21:35 14,8 C 21,7 C 62 % 1016,0 hPa 0,0 l/m 6,8 km/h (2 Bft) O-NO 64 0 min 0,000 mm 0,0 UV-I 0 W/m 7,6 C 14,6 C 8,0 km/h (2 Bft) 91,30 %
01.07.2018 21:36 14,7 C 21,7 C 62 % 1016,0 hPa 0,0 l/m 6,3 km/h (2 Bft) O-NO 69 0 min 0,000 mm 0,0 UV-I 0 W/m 7,5 C 14,7 C 8,0 km/h (2 Bft) 95,83 %
01.07.2018 21:40 14,7 C 21,7 C 61 % 1016,1 hPa 0,0 l/m 4,8 km/h (1 Bft) O-NO 67 0 min 0,000 mm 0,0 UV-I 0 W/m 7,3 C 14,7 C 8,0 km/h (2 Bft) 97,37 %
01.07.2018 21:43 14,8 C 21,7 C 60 % 1016,1 hPa 0,0 l/m 4,8 km/h (1 Bft) O-NO 73 0 min 0,000 mm 0,0 UV-I 0 W/m 7,1 C 14,8 C 8,0 km/h (2 Bft) 97,60 %
01.07.2018 21:44 14,9 C 21,7 C 60 % 1016,1 hPa 0,0 l/m 4,2 km/h (1 Bft) O-NO 76 0 min 0,000 mm 0,0 UV-I 0 W/m 7,2 C 14,9 C 4,8 km/h (1 Bft) 95,83 %
01.07.2018 21:45 14,9 C 21,7 C 60 % 1016,1 hPa 0,0 l/m 5,0 km/h (1 Bft) NO 44 0 min 0,000 mm 0,0 UV-I 0 W/m 7,2 C 14,9 C 6,4 km/h (2 Bft) 100,00 %
01.07.2018 21:46 14,9 C 21,7 C 59 % 1016,1 hPa 0,0 l/m 5,5 km/h (1 Bft) NO 46 0 min 0,000 mm 0,0 UV-I 0 W/m 7,0 C 14,9 C 8,0 km/h (2 Bft) 96,30 %
01.07.2018 21:47 14,9 C 21,7 C 60 % 1016,2 hPa 0,0 l/m 7,3 km/h (2 Bft) O-NO 63 0 min 0,000 mm 0,0 UV-I 0 W/m 7,2 C 14,4 C 9,7 km/h (2 Bft) 91,30 %
01.07.2018 21:48 14,8 C 21,7 C 60 % 1016,1 hPa 0,0 l/m 5,5 km/h (1 Bft) O-NO 66 0 min 0,000 mm 0,0 UV-I 0 W/m 7,1 C 14,8 C 8,0 km/h (2 Bft) 100,00 %
01.07.2018 21:49 14,7 C 21,7 C 61 % 1016,1 hPa 0,0 l/m 7,4 km/h (2 Bft) O-NO 65 0 min 0,000 mm 0,0 UV-I 0 W/m 7,3 C 14,1 C 11,3 km/h (2 Bft) 95,65 %
01.07.2018 21:50 14,7 C 21,7 C 60 % 1016,2 hPa 0,0 l/m 9,3 km/h (2 Bft) NO 49 0 min 0,000 mm 0,0 UV-I 0 W/m 7,0 C 13,1 C 12,9 km/h (3 Bft) 100,00 %
01.07.2018 21:51 14,7 C 21,7 C 60 % 1016,1 hPa 0,0 l/m 11,0 km/h (2 Bft) O-NO 74 0 min 0,000 mm 0,0 UV-I 0 W/m 7,0 C 12,3 C 17,7 km/h (3 Bft) 95,65 %
01.07.2018 21:52 14,7 C 21,7 C 60 % 1016,1 hPa 0,0 l/m 11,4 km/h (2 Bft) NO 51 0 min 0,000 mm 0,0 UV-I 0 W/m 7,0 C 12,2 C 16,1 km/h (3 Bft) 95,83 %
01.07.2018 21:53 14,7 C 21,7 C 60 % 1016,1 hPa 0,0 l/m 8,9 km/h (2 Bft) O-NO 57 0 min 0,000 mm 0,0 UV-I 0 W/m 7,0 C 13,3 C 12,9 km/h (3 Bft) 86,96 %
01.07.2018 21:54 14,7 C 21,7 C 58 % 1016,2 hPa 0,0 l/m 10,4 km/h (2 Bft) O-NO 57 0 min 0,000 mm 0,0 UV-I 0 W/m 6,5 C 12,6 C 16,1 km/h (3 Bft) 100,00 %
01.07.2018 21:55 14,8 C 21,7 C 58 % 1016,1 hPa 0,0 l/m 9,1 km/h (2 Bft) NO 40 0 min 0,000 mm 0,0 UV-I 0 W/m 6,6 C 13,3 C 11,3 km/h (2 Bft) 96,55 %
01.07.2018 21:56 14,9 C 21,7 C 58 % 1016,1 hPa 0,0 l/m 8,8 km/h (2 Bft) NO 52 0 min 0,000 mm 0,0 UV-I 0 W/m 6,7 C 13,6 C 14,5 km/h (3 Bft) 100,00 %
01.07.2018 21:57 14,9 C 21,7 C 58 % 1016,1 hPa 0,0 l/m 9,4 km/h (2 Bft) N-NO 27 0 min 0,000 mm 0,0 UV-I 0 W/m 6,7 C 13,3 C 14,5 km/h (3 Bft) 96,15 %
01.07.2018 22:00 14,9 C 21,7 C 57 % 1016,2 hPa 0,0 l/m 9,7 km/h (2 Bft) NO 45 0 min 0,051 mm 0,0 UV-I 0 W/m 6,5 C 13,1 C 17,7 km/h (3 Bft) 98,25 %
01.07.2018 22:04 15,1 C 21,7 C 57 % 1016,2 hPa 0,0 l/m 7,5 km/h (2 Bft) O-NO 57 0 min 0,000 mm 0,0 UV-I 0 W/m 6,6 C 14,5 C 8,0 km/h (2 Bft) 97,50 %
01.07.2018 22:05 15,2 C 21,7 C 56 % 1016,2 hPa 0,0 l/m 7,9 km/h (2 Bft) NO 46 0 min 0,000 mm 0,0 UV-I 0 W/m 6,5 C 14,4 C 9,7 km/h (2 Bft) 100,00 %
01.07.2018 22:06 15,2 C 21,7 C 56 % 1016,2 hPa 0,0 l/m 7,8 km/h (2 Bft) O-NO 74 0 min 0,000 mm 0,0 UV-I 0 W/m 6,5 C 14,4 C 14,5 km/h (3 Bft) 95,65 %
01.07.2018 22:07 15,2 C 21,7 C 56 % 1016,2 hPa 0,0 l/m 5,7 km/h (1 Bft) NO 48 0 min 0,000 mm 0,0 UV-I 0 W/m 6,5 C 15,2 C 8,0 km/h (2 Bft) 96,30 %
01.07.2018 22:08 15,1 C 21,7 C 56 % 1016,2 hPa 0,0 l/m 6,8 km/h (2 Bft) O-NO 69 0 min 0,000 mm 0,0 UV-I 0 W/m 6,4 C 14,9 C 12,9 km/h (3 Bft) 100,00 %
01.07.2018 22:09 15,2 C 21,7 C 56 % 1016,2 hPa 0,0 l/m 6,4 km/h (2 Bft) O-NO 62 0 min 0,000 mm 0,0 UV-I 0 W/m 6,5 C 15,2 C 8,0 km/h (2 Bft) 95,83 %
01.07.2018 22:10 15,1 C 21,7 C 56 % 1016,2 hPa 0,0 l/m 5,8 km/h (2 Bft) NO 51 0 min 0,000 mm 0,0 UV-I 0 W/m 6,4 C 15,1 C 9,7 km/h (2 Bft) 100,00 %
01.07.2018 22:11 14,9 C 21,7 C 58 % 1016,2 hPa 0,0 l/m 6,8 km/h (2 Bft) NO 51 0 min 0,000 mm 0,0 UV-I 0 W/m 6,7 C 14,7 C 9,7 km/h (2 Bft) 100,00 %
01.07.2018 22:12 14,8 C 21,7 C 59 % 1016,2 hPa 0,0 l/m 7,1 km/h (2 Bft) O-NO 59 0 min 0,000 mm 0,0 UV-I 0 W/m 6,9 C 14,4 C 12,9 km/h (3 Bft) 100,00 %
01.07.2018 22:13 14,7 C 21,7 C 59 % 1016,2 hPa 0,0 l/m 5,7 km/h (1 Bft) O-NO 76 0 min 0,000 mm 0,0 UV-I 0 W/m 6,8 C 14,7 C 6,4 km/h (2 Bft) 100,00 %
01.07.2018 22:14 14,7 C 21,7 C 58 % 1016,2 hPa 0,0 l/m 6,0 km/h (2 Bft) O-NO 63 0 min 0,000 mm 0,0 UV-I 0 W/m 6,5 C 14,7 C 8,0 km/h (2 Bft) 92,86 %
01.07.2018 22:15 14,7 C 21,7 C 59 % 1016,2 hPa 0,0 l/m 5,3 km/h (1 Bft) O-NO 78 0 min 0,000 mm 0,0 UV-I 0 W/m 6,8 C 14,7 C 6,4 km/h (2 Bft) 100,00 %
01.07.2018 22:16 14,6 C 21,7 C 59 % 1016,2 hPa 0,0 l/m 6,2 km/h (2 Bft) O-NO 71 0 min 0,000 mm 0,0 UV-I 0 W/m 6,7 C 14,6 C 8,0 km/h (2 Bft) 100,00 %
01.07.2018 22:17 14,6 C 21,7 C 59 % 1016,2 hPa 0,0 l/m 5,7 km/h (1 Bft) O 79 0 min 0,000 mm 0,0 UV-I 0 W/m 6,7 C 14,6 C 8,0 km/h (2 Bft) 100,00 %
01.07.2018 22:18 14,6 C 21,7 C 58 % 1016,2 hPa 0,0 l/m 6,8 km/h (2 Bft) O-NO 78 0 min 0,000 mm 0,0 UV-I 0 W/m 6,4 C 14,4 C 8,0 km/h (2 Bft) 100,00 %
01.07.2018 22:19 14,6 C 21,7 C 58 % 1016,2 hPa 0,0 l/m 5,4 km/h (1 Bft) O-NO 78 0 min 0,000 mm 0,0 UV-I 0 W/m 6,4 C 14,6 C 6,4 km/h (2 Bft) 100,00 %
01.07.2018 22:20 14,6 C 21,7 C 58 % 1016,2 hPa 0,0 l/m 6,0 km/h (2 Bft) O-NO 77 0 min 0,000 mm 0,0 UV-I 0 W/m 6,4 C 14,6 C 6,4 km/h (2 Bft) 100,00 %
01.07.2018 22:21 14,7 C 21,7 C 58 % 1016,2 hPa 0,0 l/m 5,5 km/h (1 Bft) O-NO 74 0 min 0,000 mm 0,0 UV-I 0 W/m 6,5 C 14,7 C 8,0 km/h (2 Bft) 100,00 %
01.07.2018 22:23 14,6 C 21,7 C 59 % 1016,2 hPa 0,0 l/m 6,4 km/h (2 Bft) O-NO 77 0 min 0,000 mm 0,0 UV-I 0 W/m 6,7 C 14,6 C 12,9 km/h (3 Bft) 100,00 %
01.07.2018 22:24 14,6 C 21,7 C 59 % 1016,2 hPa 0,0 l/m 7,6 km/h (2 Bft) O 87 0 min 0,000 mm 0,0 UV-I 0 W/m 6,7 C 13,9 C 12,9 km/h (3 Bft) 100,00 %
01.07.2018 22:25 14,6 C 21,7 C 59 % 1016,2 hPa 0,0 l/m 8,4 km/h (2 Bft) O-NO 76 0 min 0,000 mm 0,0 UV-I 0 W/m 6,7 C 13,5 C 12,9 km/h (3 Bft) 100,00 %
01.07.2018 22:26 14,5 C 21,7 C 59 % 1016,2 hPa 0,0 l/m 7,5 km/h (2 Bft) O 80 0 min 0,000 mm 0,0 UV-I 0 W/m 6,6 C 13,9 C 11,3 km/h (2 Bft) 100,00 %
01.07.2018 22:27 14,5 C 21,7 C 59 % 1016,2 hPa 0,0 l/m 7,2 km/h (2 Bft) O-NO 69 0 min 0,000 mm 0,0 UV-I 0 W/m 6,6 C 14,0 C 9,7 km/h (2 Bft) 100,00 %
01.07.2018 22:28 14,5 C 21,7 C 59 % 1016,2 hPa 0,0 l/m 7,7 km/h (2 Bft) O 90 0 min 0,000 mm 0,0 UV-I 0 W/m 6,6 C 13,7 C 11,3 km/h (2 Bft) 100,00 %
01.07.2018 22:29 14,5 C 21,7 C 60 % 1016,2 hPa 0,0 l/m 7,7 km/h (2 Bft) NO 54 0 min 0,000 mm 0,0 UV-I 0 W/m 6,8 C 13,7 C 11,3 km/h (2 Bft) 100,00 %
01.07.2018 22:30 14,4 C 21,7 C 60 % 1016,2 hPa 0,0 l/m 6,9 km/h (2 Bft) NO 56 0 min 0,000 mm 0,0 UV-I 0 W/m 6,7 C 14,1 C 11,3 km/h (2 Bft) 100,00 %
01.07.2018 22:31 14,4 C 21,7 C 60 % 1016,3 hPa 0,0 l/m 7,4 km/h (2 Bft) O-NO 70 0 min 0,000 mm 0,0 UV-I 0 W/m 6,7 C 13,8 C 11,3 km/h (2 Bft) 100,00 %
01.07.2018 22:32 14,4 C 21,7 C 60 % 1016,2 hPa 0,0 l/m 6,8 km/h (2 Bft) O-NO 75 0 min 0,000 mm 0,0 UV-I 0 W/m 6,7 C 14,2 C 8,0 km/h (2 Bft) 96,30 %
01.07.2018 22:33 14,4 C 21,7 C 60 % 1016,2 hPa 0,0 l/m 6,4 km/h (2 Bft) O-NO 66 0 min 0,000 mm 0,0 UV-I 0 W/m 6,7 C 14,4 C 9,7 km/h (2 Bft) 100,00 %
01.07.2018 22:34 14,4 C 21,7 C 61 % 1016,2 hPa 0,0 l/m 6,9 km/h (2 Bft) O-NO 71 0 min 0,000 mm 0,0 UV-I 0 W/m 7,0 C 14,1 C 11,3 km/h (2 Bft) 100,00 %
01.07.2018 22:35 14,4 C 21,7 C 60 % 1016,2 hPa 0,0 l/m 7,5 km/h (2 Bft) O 86 0 min 0,000 mm 0,0 UV-I 0 W/m 6,7 C 13,8 C 11,3 km/h (2 Bft) 100,00 %
01.07.2018 22:36 14,4 C 21,7 C 61 % 1016,2 hPa 0,0 l/m 7,2 km/h (2 Bft) O 80 0 min 0,000 mm 0,0 UV-I 0 W/m 7,0 C 13,9 C 9,7 km/h (2 Bft) 100,00 %
01.07.2018 22:37 14,4 C 21,7 C 61 % 1016,2 hPa 0,0 l/m 5,2 km/h (1 Bft) O-NO 78 0 min 0,000 mm 0,0 UV-I 0 W/m 7,0 C 14,4 C 9,7 km/h (2 Bft) 100,00 %
01.07.2018 22:38 14,3 C 21,7 C 61 % 1016,2 hPa 0,0 l/m 5,9 km/h (2 Bft) O-NO 68 0 min 0,000 mm 0,0 UV-I 0 W/m 6,9 C 14,3 C 8,0 km/h (2 Bft) 100,00 %
01.07.2018 22:39 14,3 C 21,7 C 61 % 1016,2 hPa 0,0 l/m 9,2 km/h (2 Bft) O-NO 71 0 min 0,000 mm 0,0 UV-I 0 W/m 6,9 C 12,7 C 14,5 km/h (3 Bft) 100,00 %
01.07.2018 22:40 14,3 C 21,7 C 61 % 1016,2 hPa 0,0 l/m 7,1 km/h (2 Bft) O-NO 78 0 min 0,000 mm 0,0 UV-I 0 W/m 6,9 C 13,9 C 11,3 km/h (2 Bft) 100,00 %
01.07.2018 22:41 14,3 C 21,7 C 61 % 1016,2 hPa 0,0 l/m 6,0 km/h (2 Bft) O-NO 76 0 min 0,000 mm 0,0 UV-I 0 W/m 6,9 C 14,3 C 8,0 km/h (2 Bft) 100,00 %
01.07.2018 22:42 14,3 C 21,7 C 62 % 1016,2 hPa 0,0 l/m 8,4 km/h (2 Bft) O 87 0 min 0,000 mm 0,0 UV-I 0 W/m 7,1 C 13,1 C 12,9 km/h (3 Bft) 96,55 %
01.07.2018 22:43 14,2 C 21,7 C 62 % 1016,3 hPa 0,0 l/m 7,7 km/h (2 Bft) O-NO 76 0 min 0,000 mm 0,0 UV-I 0 W/m 7,0 C 13,4 C 11,3 km/h (2 Bft) 100,00 %
01.07.2018 22:44 14,2 C 21,7 C 62 % 1016,2 hPa 0,0 l/m 8,4 km/h (2 Bft) O-NO 76 0 min 0,000 mm 0,0 UV-I 0 W/m 7,0 C 13,0 C 14,5 km/h (3 Bft) 100,00 %
01.07.2018 22:45 14,2 C 21,7 C 62 % 1016,3 hPa 0,0 l/m 7,7 km/h (2 Bft) O-NO 63 0 min 0,000 mm 0,0 UV-I 0 W/m 7,0 C 13,4 C 11,3 km/h (2 Bft) 96,30 %
01.07.2018 22:46 14,2 C 21,7 C 62 % 1016,2 hPa 0,0 l/m 4,7 km/h (1 Bft) NO 49 0 min 0,000 mm 0,0 UV-I 0 W/m 7,0 C 14,2 C 6,4 km/h (2 Bft) 100,00 %
01.07.2018 22:47 14,2 C 21,7 C 63 % 1016,3 hPa 0,0 l/m 5,6 km/h (1 Bft) O 82 0 min 0,000 mm 0,0 UV-I 0 W/m 7,3 C 14,2 C 9,7 km/h (2 Bft) 100,00 %
01.07.2018 22:48 14,1 C 21,7 C 63 % 1016,3 hPa 0,0 l/m 6,6 km/h (2 Bft) O-NO 71 0 min 0,000 mm 0,0 UV-I 0 W/m 7,2 C 14,0 C 9,7 km/h (2 Bft) 100,00 %
01.07.2018 22:49 14,1 C 21,7 C 63 % 1016,3 hPa 0,0 l/m 5,6 km/h (1 Bft) O-NO 74 0 min 0,000 mm 0,0 UV-I 0 W/m 7,2 C 14,1 C 8,0 km/h (2 Bft) 100,00 %
01.07.2018 22:50 14,1 C 21,7 C 63 % 1016,3 hPa 0,0 l/m 5,6 km/h (1 Bft) O 80 0 min 0,000 mm 0,0 UV-I 0 W/m 7,2 C 14,1 C 8,0 km/h (2 Bft) 100,00 %
01.07.2018 22:51 14,1 C 21,7 C 63 % 1016,3 hPa 0,0 l/m 6,2 km/h (2 Bft) O-NO 77 0 min 0,000 mm 0,0 UV-I 0 W/m 7,2 C 14,1 C 8,0 km/h (2 Bft) 100,00 %
01.07.2018 22:52 14,1 C 21,7 C 63 % 1016,3 hPa 0,0 l/m 4,4 km/h (1 Bft) NO 47 0 min 0,000 mm 0,0 UV-I 0 W/m 7,2 C 14,1 C 6,4 km/h (2 Bft) 100,00 %
01.07.2018 22:53 14,1 C 21,7 C 64 % 1016,3 hPa 0,0 l/m 4,7 km/h (1 Bft) O-NO 78 0 min 0,000 mm 0,0 UV-I 0 W/m 7,4 C 14,1 C 8,0 km/h (2 Bft) 100,00 %
01.07.2018 22:54 14,0 C 21,7 C 64 % 1016,3 hPa 0,0 l/m 6,3 km/h (2 Bft) O-NO 77 0 min 0,000 mm 0,0 UV-I 0 W/m 7,3 C 14,0 C 8,0 km/h (2 Bft) 100,00 %
01.07.2018 22:55 13,9 C 21,7 C 64 % 1016,3 hPa 0,0 l/m 6,4 km/h (2 Bft) O-NO 63 0 min 0,000 mm 0,0 UV-I 0 W/m 7,2 C 13,9 C 9,7 km/h (2 Bft) 100,00 %
01.07.2018 22:56 13,8 C 21,7 C 64 % 1016,3 hPa 0,0 l/m 6,4 km/h (2 Bft) O 82 0 min 0,000 mm 0,0 UV-I 0 W/m 7,1 C 13,8 C 8,0 km/h (2 Bft) 100,00 %
01.07.2018 22:57 13,8 C 21,7 C 65 % 1016,3 hPa 0,0 l/m 7,3 km/h (2 Bft) O-NO 76 0 min 0,000 mm 0,0 UV-I 0 W/m 7,3 C 13,3 C 9,7 km/h (2 Bft) 98,20 %
01.07.2018 22:58 13,8 C 21,7 C 65 % 1016,3 hPa 0,0 l/m 7,5 km/h (2 Bft) NO 45 0 min 0,000 mm 0,0 UV-I 0 W/m 7,3 C 13,1 C 11,3 km/h (2 Bft) 97,44 %
01.07.2018 22:59 13,8 C 21,7 C 65 % 1016,3 hPa 0,0 l/m 8,0 km/h (2 Bft) NO 55 0 min 0,000 mm 0,0 UV-I 0 W/m 7,3 C 12,8 C 14,5 km/h (3 Bft) 100,00 %
01.07.2018 23:00 13,8 C 21,7 C 65 % 1016,3 hPa 0,0 l/m 6,0 km/h (2 Bft) O-NO 71 0 min 0,000 mm 0,0 UV-I 0 W/m 7,3 C 13,8 C 8,0 km/h (2 Bft) 100,00 %
01.07.2018 23:01 13,7 C 21,7 C 65 % 1016,2 hPa 0,0 l/m 5,6 km/h (1 Bft) NO 55 0 min 0,051 mm 0,0 UV-I 0 W/m 7,2 C 13,7 C 8,0 km/h (2 Bft) 100,00 %
01.07.2018 23:02 13,7 C 21,7 C 66 % 1016,2 hPa 0,0 l/m 5,4 km/h (1 Bft) O-NO 65 0 min 0,000 mm 0,0 UV-I 0 W/m 7,5 C 13,7 C 6,4 km/h (2 Bft) 100,00 %
01.07.2018 23:03 13,7 C 21,7 C 66 % 1016,2 hPa 0,0 l/m 6,7 km/h (2 Bft) O-NO 74 0 min 0,000 mm 0,0 UV-I 0 W/m 7,5 C 13,5 C 8,0 km/h (2 Bft) 100,00 %
01.07.2018 23:04 13,6 C 21,7 C 66 % 1016,2 hPa 0,0 l/m 5,8 km/h (2 Bft) O-NO 65 0 min 0,000 mm 0,0 UV-I 0 W/m 7,4 C 13,6 C 8,0 km/h (2 Bft) 100,00 %
01.07.2018 23:05 13,6 C 21,7 C 66 % 1016,2 hPa 0,0 l/m 4,8 km/h (1 Bft) O 90 0 min 0,000 mm 0,0 UV-I 0 W/m 7,4 C 13,6 C 9,7 km/h (2 Bft) 100,00 %
01.07.2018 23:06 13,6 C 21,7 C 66 % 1016,2 hPa 0,0 l/m 4,8 km/h (1 Bft) O 79 0 min 0,000 mm 0,0 UV-I 0 W/m 7,4 C 13,6 C 8,0 km/h (2 Bft) 100,00 %
01.07.2018 23:07 13,5 C 21,7 C 67 % 1016,2 hPa 0,0 l/m 5,6 km/h (1 Bft) O-NO 61 0 min 0,000 mm 0,0 UV-I 0 W/m 7,5 C 13,5 C 6,4 km/h (2 Bft) 100,00 %
01.07.2018 23:08 13,4 C 21,7 C 67 % 1016,3 hPa 0,0 l/m 6,0 km/h (2 Bft) O-NO 62 0 min 0,000 mm 0,0 UV-I 0 W/m 7,4 C 13,4 C 8,0 km/h (2 Bft) 100,00 %
01.07.2018 23:09 13,3 C 21,7 C 68 % 1016,2 hPa 0,0 l/m 5,5 km/h (1 Bft) O-NO 71 0 min 0,000 mm 0,0 UV-I 0 W/m 7,5 C 13,3 C 6,4 km/h (2 Bft) 100,00 %
01.07.2018 23:10 13,2 C 21,7 C 68 % 1016,3 hPa 0,0 l/m 6,8 km/h (2 Bft) NO 43 0 min 0,000 mm 0,0 UV-I 0 W/m 7,4 C 13,0 C 8,0 km/h (2 Bft) 100,00 %
01.07.2018 23:11 13,2 C 21,7 C 68 % 1016,3 hPa 0,0 l/m 6,8 km/h (2 Bft) O-NO 70 0 min 0,000 mm 0,0 UV-I 0 W/m 7,4 C 13,0 C 8,0 km/h (2 Bft) 100,00 %
01.07.2018 23:13 13,2 C 21,7 C 68 % 1016,3 hPa 0,0 l/m 5,5 km/h (1 Bft) O-NO 66 0 min 0,000 mm 0,0 UV-I 0 W/m 7,4 C 13,2 C 8,0 km/h (2 Bft) 100,00 %
01.07.2018 23:14 13,1 C 21,7 C 69 % 1016,3 hPa 0,0 l/m 6,7 km/h (2 Bft) O-NO 67 0 min 0,000 mm 0,0 UV-I 0 W/m 7,5 C 12,9 C 9,7 km/h (2 Bft) 100,00 %
01.07.2018 23:15 13,1 C 21,7 C 68 % 1016,3 hPa 0,0 l/m 6,6 km/h (2 Bft) O-NO 69 0 min 0,000 mm 0,0 UV-I 0 W/m 7,3 C 13,0 C 8,0 km/h (2 Bft) 100,00 %
01.07.2018 23:16 13,1 C 21,7 C 68 % 1016,3 hPa 0,0 l/m 6,2 km/h (2 Bft) O-NO 78 0 min 0,000 mm 0,0 UV-I 0 W/m 7,3 C 13,1 C 8,0 km/h (2 Bft) 100,00 %
01.07.2018 23:17 13,2 C 21,7 C 68 % 1016,3 hPa 0,0 l/m 6,4 km/h (2 Bft) O 97 0 min 0,000 mm 0,0 UV-I 0 W/m 7,4 C 13,2 C 8,0 km/h (2 Bft) 100,00 %
01.07.2018 23:18 13,2 C 21,7 C 68 % 1016,3 hPa 0,0 l/m 7,3 km/h (2 Bft) O 81 0 min 0,000 mm 0,0 UV-I 0 W/m 7,4 C 12,6 C 11,3 km/h (2 Bft) 96,55 %
01.07.2018 23:19 13,3 C 21,7 C 68 % 1016,3 hPa 0,0 l/m 6,7 km/h (2 Bft) O 86 0 min 0,000 mm 0,0 UV-I 0 W/m 7,5 C 13,1 C 9,7 km/h (2 Bft) 100,00 %
01.07.2018 23:20 13,3 C 21,7 C 68 % 1016,3 hPa 0,0 l/m 6,0 km/h (2 Bft) O 86 0 min 0,000 mm 0,0 UV-I 0 W/m 7,5 C 13,3 C 8,0 km/h (2 Bft) 100,00 %
01.07.2018 23:21 13,3 C 21,7 C 67 % 1016,3 hPa 0,0 l/m 7,8 km/h (2 Bft) O-NO 77 0 min 0,000 mm 0,0 UV-I 0 W/m 7,3 C 12,4 C 12,9 km/h (3 Bft) 100,00 %
01.07.2018 23:23 13,3 C 21,7 C 68 % 1016,3 hPa 0,0 l/m 6,3 km/h (2 Bft) O 82 0 min 0,000 mm 0,0 UV-I 0 W/m 7,5 C 13,3 C 9,7 km/h (2 Bft) 100,00 %
01.07.2018 23:24 13,3 C 21,7 C 68 % 1016,3 hPa 0,0 l/m 7,5 km/h (2 Bft) O-NO 63 0 min 0,000 mm 0,0 UV-I 0 W/m 7,5 C 12,6 C 11,3 km/h (2 Bft) 100,00 %
01.07.2018 23:25 13,2 C 21,7 C 68 % 1016,3 hPa 0,0 l/m 6,6 km/h (2 Bft) O 87 0 min 0,000 mm 0,0 UV-I 0 W/m 7,4 C 13,1 C 11,3 km/h (2 Bft) 100,00 %
01.07.2018 23:26 13,2 C 21,7 C 68 % 1016,3 hPa 0,0 l/m 7,3 km/h (2 Bft) O-NO 71 0 min 0,000 mm 0,0 UV-I 0 W/m 7,4 C 12,6 C 11,3 km/h (2 Bft) 96,15 %
01.07.2018 23:27 13,2 C 21,7 C 68 % 1016,2 hPa 0,0 l/m 7,1 km/h (2 Bft) O 80 0 min 0,000 mm 0,0 UV-I 0 W/m 7,4 C 12,8 C 11,3 km/h (2 Bft) 100,00 %
01.07.2018 23:28 13,2 C 21,7 C 68 % 1016,2 hPa 0,0 l/m 7,8 km/h (2 Bft) O 90 0 min 0,000 mm 0,0 UV-I 0 W/m 7,4 C 12,3 C 11,3 km/h (2 Bft) 100,00 %
01.07.2018 23:29 13,2 C 21,7 C 68 % 1016,3 hPa 0,0 l/m 7,7 km/h (2 Bft) O-NO 75 0 min 0,000 mm 0,0 UV-I 0 W/m 7,4 C 12,4 C 11,3 km/h (2 Bft) 100,00 %
01.07.2018 23:30 13,2 C 21,7 C 68 % 1016,2 hPa 0,0 l/m 8,1 km/h (2 Bft) O 98 0 min 0,000 mm 0,0 UV-I 0 W/m 7,4 C 12,2 C 11,3 km/h (2 Bft) 100,00 %
01.07.2018 23:31 13,2 C 21,7 C 69 % 1016,2 hPa 0,0 l/m 9,1 km/h (2 Bft) O-SO 107 0 min 0,000 mm 0,0 UV-I 0 W/m 7,6 C 11,6 C 12,9 km/h (3 Bft) 96,30 %
01.07.2018 23:32 13,2 C 21,7 C 69 % 1016,2 hPa 0,0 l/m 8,9 km/h (2 Bft) O-NO 73 0 min 0,000 mm 0,0 UV-I 0 W/m 7,6 C 11,7 C 11,3 km/h (2 Bft) 100,00 %
01.07.2018 23:33 13,2 C 21,7 C 69 % 1016,2 hPa 0,0 l/m 8,2 km/h (2 Bft) O-NO 72 0 min 0,000 mm 0,0 UV-I 0 W/m 7,6 C 12,1 C 11,3 km/h (2 Bft) 100,00 %
01.07.2018 23:34 13,2 C 21,7 C 68 % 1016,2 hPa 0,0 l/m 9,1 km/h (2 Bft) O-NO 70 0 min 0,000 mm 0,0 UV-I 0 W/m 7,4 C 11,6 C 12,9 km/h (3 Bft) 100,00 %
01.07.2018 23:35 13,2 C 21,7 C 68 % 1016,2 hPa 0,0 l/m 7,5 km/h (2 Bft) O-NO 76 0 min 0,000 mm 0,0 UV-I 0 W/m 7,4 C 12,5 C 11,3 km/h (2 Bft) 100,00 %
01.07.2018 23:36 13,1 C 21,7 C 69 % 1016,2 hPa 0,0 l/m 9,3 km/h (2 Bft) O-NO 70 0 min 0,000 mm 0,0 UV-I 0 W/m 7,5 C 11,4 C 14,5 km/h (3 Bft) 100,00 %
01.07.2018 23:38 13,2 C 21,7 C 68 % 1016,2 hPa 0,0 l/m 8,4 km/h (2 Bft) O-NO 73 0 min 0,000 mm 0,0 UV-I 0 W/m 7,4 C 12,0 C 12,9 km/h (3 Bft) 100,00 %
01.07.2018 23:39 13,3 C 21,7 C 67 % 1016,2 hPa 0,0 l/m 9,7 km/h (2 Bft) O-NO 76 0 min 0,000 mm 0,0 UV-I 0 W/m 7,3 C 11,4 C 14,5 km/h (3 Bft) 95,83 %
01.07.2018 23:40 13,3 C 21,7 C 67 % 1016,2 hPa 0,0 l/m 10,1 km/h (2 Bft) O 86 0 min 0,000 mm 0,0 UV-I 0 W/m 7,3 C 11,2 C 14,5 km/h (3 Bft) 95,65 %
01.07.2018 23:41 13,4 C 21,7 C 66 % 1016,2 hPa 0,0 l/m 13,3 km/h (3 Bft) O-NO 70 0 min 0,000 mm 0,0 UV-I 0 W/m 7,2 C 9,9 C 16,1 km/h (3 Bft) 100,00 %
01.07.2018 23:42 13,4 C 21,7 C 66 % 1016,1 hPa 0,0 l/m 9,8 km/h (2 Bft) O-NO 71 0 min 0,000 mm 0,0 UV-I 0 W/m 7,2 C 11,5 C 12,9 km/h (3 Bft) 100,00 %
01.07.2018 23:43 13,5 C 21,7 C 66 % 1016,2 hPa 0,0 l/m 11,4 km/h (2 Bft) O-NO 73 0 min 0,000 mm 0,0 UV-I 0 W/m 7,3 C 10,8 C 14,5 km/h (3 Bft) 96,15 %
01.07.2018 23:44 13,6 C 21,7 C 65 % 1016,1 hPa 0,0 l/m 7,8 km/h (2 Bft) O-NO 63 0 min 0,000 mm 0,0 UV-I 0 W/m 7,1 C 12,7 C 11,3 km/h (2 Bft) 93,94 %
01.07.2018 23:45 13,6 C 21,7 C 65 % 1016,2 hPa 0,0 l/m 7,6 km/h (2 Bft) O 83 0 min 0,000 mm 0,0 UV-I 0 W/m 7,1 C 12,9 C 12,9 km/h (3 Bft) 100,00 %
01.07.2018 23:46 13,6 C 21,7 C 65 % 1016,2 hPa 0,0 l/m 10,5 km/h (2 Bft) O 93 0 min 0,000 mm 0,0 UV-I 0 W/m 7,1 C 11,3 C 14,5 km/h (3 Bft) 100,00 %
01.07.2018 23:47 13,6 C 21,7 C 65 % 1016,2 hPa 0,0 l/m 12,3 km/h (3 Bft) O-NO 64 0 min 0,000 mm 0,0 UV-I 0 W/m 7,1 C 10,5 C 16,1 km/h (3 Bft) 92,68 %
01.07.2018 23:48 13,6 C 21,7 C 64 % 1016,1 hPa 0,0 l/m 6,8 km/h (2 Bft) O-NO 67 0 min 0,000 mm 0,0 UV-I 0 W/m 6,9 C 13,4 C 11,3 km/h (2 Bft) 92,59 %
01.07.2018 23:49 13,7 C 21,7 C 64 % 1016,2 hPa 0,0 l/m 6,4 km/h (2 Bft) O 84 0 min 0,000 mm 0,0 UV-I 0 W/m 7,0 C 13,7 C 8,0 km/h (2 Bft) 100,00 %
01.07.2018 23:50 13,6 C 21,7 C 65 % 1016,2 hPa 0,0 l/m 9,3 km/h (2 Bft) NO 45 0 min 0,000 mm 0,0 UV-I 0 W/m 7,1 C 11,9 C 12,9 km/h (3 Bft) 92,59 %
01.07.2018 23:51 13,6 C 21,7 C 65 % 1016,2 hPa 0,0 l/m 9,1 km/h (2 Bft) O-NO 65 0 min 0,000 mm 0,0 UV-I 0 W/m 7,1 C 12,0 C 12,9 km/h (3 Bft) 92,31 %
01.07.2018 23:52 13,6 C 21,7 C 64 % 1016,2 hPa 0,0 l/m 8,9 km/h (2 Bft) O 91 0 min 0,000 mm 0,0 UV-I 0 W/m 6,9 C 12,1 C 12,9 km/h (3 Bft) 91,67 %
01.07.2018 23:53 13,6 C 21,7 C 65 % 1016,2 hPa 0,0 l/m 7,1 km/h (2 Bft) O 91 0 min 0,000 mm 0,0 UV-I 0 W/m 7,1 C 13,2 C 11,3 km/h (2 Bft) 92,31 %
01.07.2018 23:54 13,6 C 21,7 C 65 % 1016,2 hPa 0,0 l/m 8,0 km/h (2 Bft) O-NO 67 0 min 0,000 mm 0,0 UV-I 0 W/m 7,1 C 12,6 C 11,3 km/h (2 Bft) 95,83 %
01.07.2018 23:55 13,6 C 21,7 C 64 % 1016,2 hPa 0,0 l/m 6,7 km/h (2 Bft) O 84 0 min 0,000 mm 0,0 UV-I 0 W/m 6,9 C 13,4 C 9,7 km/h (2 Bft) 88,46 %
01.07.2018 23:56 13,6 C 21,7 C 64 % 1016,2 hPa 0,0 l/m 5,7 km/h (1 Bft) O-NO 71 0 min 0,000 mm 0,0 UV-I 0 W/m 6,9 C 13,6 C 8,0 km/h (2 Bft) 100,00 %
01.07.2018 23:57 13,5 C 21,7 C 65 % 1016,2 hPa 0,0 l/m 8,2 km/h (2 Bft) O-NO 76 0 min 0,000 mm 0,0 UV-I 0 W/m 7,1 C 12,4 C 12,9 km/h (3 Bft) 80,00 %
01.07.2018 23:58 13,5 C 21,7 C 65 % 1016,2 hPa 0,0 l/m 7,8 km/h (2 Bft) O 94 0 min 0,000 mm 0,0 UV-I 0 W/m 7,1 C 12,6 C 11,3 km/h (2 Bft) 96,55 %
01.07.2018 23:59 13,4 C 21,7 C 65 % 1016,2 hPa 0,0 l/m 9,1 km/h (2 Bft) O 99 0 min 0,000 mm 0,0 UV-I 0 W/m 7,0 C 11,8 C 14,5 km/h (3 Bft) 96,15 %
_ Min-Zeit 04:52 05:27 16:39 17:25 - 12:33 - - - - - - 09:43 01:44 12:33 23:57
Minimum _ 9,4 C 20,0 C 36 % 1014,7 hPa - 0,6 km/h (0 Bft) - - - - - - 4,2 C 9,1 C 1,6 km/h (1 Bft) 80,00 %
_ Max-Zeit 16:12 15:25 06:03 22:31 00:00 09:41 - - 12:54 14:01 12:35 12:58 15:23 16:12 09:41 00:00
Maximum _ 22,2 C 22,2 C 83 % 1016,3 hPa 0,0 l/m 20,6 km/h
O (4 Bft)
- - 4 min 0,610 mm 6,4 UV-I 923 W/m 9,7 C 22,1 C 27,4 km/h
O (4 Bft)
100,00 %
Durchschnitt _ 16,0 C 21,2 C 57 % 1015,5 hPa #0,0 l/m 8,8 km/h (2 Bft) O-NO - #15:33 h #6,147 mm 3,5 UV-I 507 W/m 7,0 C 14,9 C 12,4 km/h (3 Bft) 98,17 %